<?xml version="1.0" encoding="UTF-8" standalone="no" ?>
<gpx xmlns="http://www.topografix.com/GPX/1/1" xmlns:xsi="http://www.w3.org/2001/XMLSchema-instance" xsi:schemaLocation="http://www.topografix.com/GPX/1/1 http://www.topografix.com/GPX/1/1/gpx.xsd" version="1.1" creator="VisuGPX - https://www.visugpx.com">
  <metadata>
    <name>CO Rhone Orientation Létra 2015 (Circuit B)</name>
    <desc><![CDATA[Course d\'orientation dans le beaujolais à Létra,
Circuit B 14 km 1030D  20 balises]]></desc>
  </metadata>
  <trk>
    <name><![CDATA[CO - Rhone orientation Létra (69) Circuit B]]></name>
    <trkseg>
      <trkpt lat="45.96119" lon="4.52555">
        <ele>332</ele>
        <time>2014-11-30T09:07:58.000Z</time>
      </trkpt>
      <trkpt lat="45.96125" lon="4.52562">
        <ele>333</ele>
        <time>2014-11-30T09:08:03.000Z</time>
      </trkpt>
      <trkpt lat="45.9613" lon="4.5258">
        <ele>333</ele>
        <time>2014-11-30T09:08:08.000Z</time>
      </trkpt>
      <trkpt lat="45.96129" lon="4.52597">
        <ele>333</ele>
        <time>2014-11-30T09:08:14.000Z</time>
      </trkpt>
      <trkpt lat="45.96126" lon="4.52611">
        <ele>333</ele>
        <time>2014-11-30T09:08:19.000Z</time>
      </trkpt>
      <trkpt lat="45.96121" lon="4.52638">
        <ele>332</ele>
        <time>2014-11-30T09:08:27.000Z</time>
      </trkpt>
      <trkpt lat="45.96118" lon="4.52661">
        <ele>332</ele>
        <time>2014-11-30T09:08:33.000Z</time>
      </trkpt>
      <trkpt lat="45.96122" lon="4.52675">
        <ele>330</ele>
        <time>2014-11-30T09:08:37.000Z</time>
      </trkpt>
      <trkpt lat="45.96135" lon="4.52683">
        <ele>331</ele>
        <time>2014-11-30T09:08:43.000Z</time>
      </trkpt>
      <trkpt lat="45.96138" lon="4.52683">
        <ele>331</ele>
        <time>2014-11-30T09:08:44.000Z</time>
      </trkpt>
      <trkpt lat="45.96152" lon="4.52685">
        <ele>333</ele>
        <time>2014-11-30T09:08:49.000Z</time>
      </trkpt>
      <trkpt lat="45.96165" lon="4.52687">
        <ele>333</ele>
        <time>2014-11-30T09:08:55.000Z</time>
      </trkpt>
      <trkpt lat="45.96179" lon="4.52689">
        <ele>341</ele>
        <time>2014-11-30T09:09:02.000Z</time>
      </trkpt>
      <trkpt lat="45.9619" lon="4.52692">
        <ele>342</ele>
        <time>2014-11-30T09:09:08.000Z</time>
      </trkpt>
      <trkpt lat="45.96206" lon="4.52696">
        <ele>343</ele>
        <time>2014-11-30T09:09:17.000Z</time>
      </trkpt>
      <trkpt lat="45.96219" lon="4.52703">
        <ele>344</ele>
        <time>2014-11-30T09:09:22.000Z</time>
      </trkpt>
      <trkpt lat="45.96235" lon="4.52721">
        <ele>345</ele>
        <time>2014-11-30T09:09:29.000Z</time>
      </trkpt>
      <trkpt lat="45.96248" lon="4.5274">
        <ele>346</ele>
        <time>2014-11-30T09:09:36.000Z</time>
      </trkpt>
      <trkpt lat="45.96258" lon="4.52753">
        <ele>348</ele>
        <time>2014-11-30T09:09:41.000Z</time>
      </trkpt>
      <trkpt lat="45.96273" lon="4.52774">
        <ele>348</ele>
        <time>2014-11-30T09:09:48.000Z</time>
      </trkpt>
      <trkpt lat="45.96285" lon="4.52793">
        <ele>348</ele>
        <time>2014-11-30T09:09:54.000Z</time>
      </trkpt>
      <trkpt lat="45.96298" lon="4.52812">
        <ele>348</ele>
        <time>2014-11-30T09:10:00.000Z</time>
      </trkpt>
      <trkpt lat="45.96308" lon="4.52831">
        <ele>347</ele>
        <time>2014-11-30T09:10:05.000Z</time>
      </trkpt>
      <trkpt lat="45.96325" lon="4.5288">
        <ele>340</ele>
        <time>2014-11-30T09:10:17.000Z</time>
      </trkpt>
      <trkpt lat="45.96332" lon="4.52906">
        <ele>339</ele>
        <time>2014-11-30T09:10:23.000Z</time>
      </trkpt>
      <trkpt lat="45.9634" lon="4.52931">
        <ele>342</ele>
        <time>2014-11-30T09:10:29.000Z</time>
      </trkpt>
      <trkpt lat="45.96346" lon="4.52951">
        <ele>344</ele>
        <time>2014-11-30T09:10:34.000Z</time>
      </trkpt>
      <trkpt lat="45.96351" lon="4.52971">
        <ele>343</ele>
        <time>2014-11-30T09:10:39.000Z</time>
      </trkpt>
      <trkpt lat="45.96354" lon="4.52998">
        <ele>342</ele>
        <time>2014-11-30T09:10:45.000Z</time>
      </trkpt>
      <trkpt lat="45.96349" lon="4.53017">
        <ele>342</ele>
        <time>2014-11-30T09:10:50.000Z</time>
      </trkpt>
      <trkpt lat="45.96339" lon="4.53032">
        <ele>343</ele>
        <time>2014-11-30T09:10:55.000Z</time>
      </trkpt>
      <trkpt lat="45.96338" lon="4.53035">
        <ele>343</ele>
        <time>2014-11-30T09:10:56.000Z</time>
      </trkpt>
      <trkpt lat="45.96336" lon="4.53048">
        <ele>344</ele>
        <time>2014-11-30T09:11:00.000Z</time>
      </trkpt>
      <trkpt lat="45.96332" lon="4.53065">
        <ele>344</ele>
        <time>2014-11-30T09:11:06.000Z</time>
      </trkpt>
      <trkpt lat="45.96331" lon="4.5308">
        <ele>346</ele>
        <time>2014-11-30T09:11:14.000Z</time>
      </trkpt>
      <trkpt lat="45.96328" lon="4.53096">
        <ele>349</ele>
        <time>2014-11-30T09:11:23.000Z</time>
      </trkpt>
      <trkpt lat="45.96328" lon="4.53108">
        <ele>352</ele>
        <time>2014-11-30T09:11:30.000Z</time>
      </trkpt>
      <trkpt lat="45.96327" lon="4.53109">
        <ele>352</ele>
        <time>2014-11-30T09:11:31.000Z</time>
      </trkpt>
      <trkpt lat="45.96323" lon="4.5312">
        <ele>353</ele>
        <time>2014-11-30T09:11:38.000Z</time>
      </trkpt>
      <trkpt lat="45.96322" lon="4.53121">
        <ele>353</ele>
        <time>2014-11-30T09:11:39.000Z</time>
      </trkpt>
      <trkpt lat="45.96315" lon="4.53131">
        <ele>355</ele>
        <time>2014-11-30T09:11:46.000Z</time>
      </trkpt>
      <trkpt lat="45.9631" lon="4.53143">
        <ele>356</ele>
        <time>2014-11-30T09:11:54.000Z</time>
      </trkpt>
      <trkpt lat="45.96304" lon="4.53156">
        <ele>356</ele>
        <time>2014-11-30T09:12:03.000Z</time>
      </trkpt>
      <trkpt lat="45.96294" lon="4.53182">
        <ele>366</ele>
        <time>2014-11-30T09:12:19.000Z</time>
      </trkpt>
      <trkpt lat="45.9629" lon="4.53194">
        <ele>367</ele>
        <time>2014-11-30T09:12:27.000Z</time>
      </trkpt>
      <trkpt lat="45.96287" lon="4.53207">
        <ele>368</ele>
        <time>2014-11-30T09:12:35.000Z</time>
      </trkpt>
      <trkpt lat="45.96284" lon="4.53217">
        <ele>370</ele>
        <time>2014-11-30T09:12:42.000Z</time>
      </trkpt>
      <trkpt lat="45.96278" lon="4.53228">
        <ele>371</ele>
        <time>2014-11-30T09:12:50.000Z</time>
      </trkpt>
      <trkpt lat="45.96275" lon="4.53237">
        <ele>372</ele>
        <time>2014-11-30T09:12:57.000Z</time>
      </trkpt>
      <trkpt lat="45.96274" lon="4.53245">
        <ele>373</ele>
        <time>2014-11-30T09:13:03.000Z</time>
      </trkpt>
      <trkpt lat="45.96273" lon="4.53246">
        <ele>373</ele>
        <time>2014-11-30T09:13:04.000Z</time>
      </trkpt>
      <trkpt lat="45.96271" lon="4.53247">
        <ele>373</ele>
        <time>2014-11-30T09:13:06.000Z</time>
      </trkpt>
      <trkpt lat="45.96269" lon="4.53251">
        <ele>381</ele>
        <time>2014-11-30T09:13:10.000Z</time>
      </trkpt>
      <trkpt lat="45.96261" lon="4.53259">
        <ele>381</ele>
        <time>2014-11-30T09:13:20.000Z</time>
      </trkpt>
      <trkpt lat="45.96253" lon="4.53266">
        <ele>381</ele>
        <time>2014-11-30T09:13:29.000Z</time>
      </trkpt>
      <trkpt lat="45.96253" lon="4.53267">
        <ele>381</ele>
        <time>2014-11-30T09:13:30.000Z</time>
      </trkpt>
      <trkpt lat="45.96249" lon="4.53274">
        <ele>381</ele>
        <time>2014-11-30T09:13:39.000Z</time>
      </trkpt>
      <trkpt lat="45.96248" lon="4.53287">
        <ele>382</ele>
        <time>2014-11-30T09:13:47.000Z</time>
      </trkpt>
      <trkpt lat="45.96248" lon="4.53298">
        <ele>384</ele>
        <time>2014-11-30T09:13:54.000Z</time>
      </trkpt>
      <trkpt lat="45.96246" lon="4.53305">
        <ele>385</ele>
        <time>2014-11-30T09:14:00.000Z</time>
      </trkpt>
      <trkpt lat="45.96237" lon="4.5331">
        <ele>385</ele>
        <time>2014-11-30T09:14:05.000Z</time>
      </trkpt>
      <trkpt lat="45.96234" lon="4.5331">
        <ele>385</ele>
        <time>2014-11-30T09:14:06.000Z</time>
      </trkpt>
      <trkpt lat="45.96208" lon="4.53308">
        <ele>383</ele>
        <time>2014-11-30T09:14:13.000Z</time>
      </trkpt>
      <trkpt lat="45.9619" lon="4.53309">
        <ele>382</ele>
        <time>2014-11-30T09:14:18.000Z</time>
      </trkpt>
      <trkpt lat="45.96173" lon="4.53317">
        <ele>383</ele>
        <time>2014-11-30T09:14:23.000Z</time>
      </trkpt>
      <trkpt lat="45.96154" lon="4.53324">
        <ele>381</ele>
        <time>2014-11-30T09:14:29.000Z</time>
      </trkpt>
      <trkpt lat="45.96133" lon="4.53329">
        <ele>379</ele>
        <time>2014-11-30T09:14:35.000Z</time>
      </trkpt>
      <trkpt lat="45.96126" lon="4.53334">
        <ele>385</ele>
        <time>2014-11-30T09:14:39.000Z</time>
      </trkpt>
      <trkpt lat="45.96123" lon="4.53337">
        <ele>384</ele>
        <time>2014-11-30T09:14:42.000Z</time>
      </trkpt>
      <trkpt lat="45.96123" lon="4.53345">
        <ele>385</ele>
        <time>2014-11-30T09:14:47.000Z</time>
      </trkpt>
      <trkpt lat="45.96126" lon="4.5336">
        <ele>385</ele>
        <time>2014-11-30T09:14:53.000Z</time>
      </trkpt>
      <trkpt lat="45.96131" lon="4.53378">
        <ele>386</ele>
        <time>2014-11-30T09:14:59.000Z</time>
      </trkpt>
      <trkpt lat="45.96136" lon="4.53394">
        <ele>388</ele>
        <time>2014-11-30T09:15:05.000Z</time>
      </trkpt>
      <trkpt lat="45.96142" lon="4.53407">
        <ele>389</ele>
        <time>2014-11-30T09:15:13.000Z</time>
      </trkpt>
      <trkpt lat="45.96147" lon="4.53425">
        <ele>392</ele>
        <time>2014-11-30T09:15:25.000Z</time>
      </trkpt>
      <trkpt lat="45.96147" lon="4.53428">
        <ele>392</ele>
        <time>2014-11-30T09:15:27.000Z</time>
      </trkpt>
      <trkpt lat="45.96149" lon="4.53435">
        <ele>392</ele>
        <time>2014-11-30T09:15:31.000Z</time>
      </trkpt>
      <trkpt lat="45.9615" lon="4.53444">
        <ele>392</ele>
        <time>2014-11-30T09:15:36.000Z</time>
      </trkpt>
      <trkpt lat="45.96151" lon="4.53446">
        <ele>392</ele>
        <time>2014-11-30T09:15:37.000Z</time>
      </trkpt>
      <trkpt lat="45.96152" lon="4.53455">
        <ele>393</ele>
        <time>2014-11-30T09:15:42.000Z</time>
      </trkpt>
      <trkpt lat="45.96152" lon="4.53473">
        <ele>393</ele>
        <time>2014-11-30T09:15:48.000Z</time>
      </trkpt>
      <trkpt lat="45.96154" lon="4.535">
        <ele>395</ele>
        <time>2014-11-30T09:15:55.000Z</time>
      </trkpt>
      <trkpt lat="45.96155" lon="4.53516">
        <ele>395</ele>
        <time>2014-11-30T09:16:00.000Z</time>
      </trkpt>
      <trkpt lat="45.96154" lon="4.5353">
        <ele>394</ele>
        <time>2014-11-30T09:16:08.000Z</time>
      </trkpt>
      <trkpt lat="45.96155" lon="4.53547">
        <ele>394</ele>
        <time>2014-11-30T09:16:16.000Z</time>
      </trkpt>
      <trkpt lat="45.96155" lon="4.53567">
        <ele>395</ele>
        <time>2014-11-30T09:16:22.000Z</time>
      </trkpt>
      <trkpt lat="45.9616" lon="4.53589">
        <ele>396</ele>
        <time>2014-11-30T09:16:27.000Z</time>
      </trkpt>
      <trkpt lat="45.96168" lon="4.53615">
        <ele>401</ele>
        <time>2014-11-30T09:16:33.000Z</time>
      </trkpt>
      <trkpt lat="45.96179" lon="4.53636">
        <ele>401</ele>
        <time>2014-11-30T09:16:39.000Z</time>
      </trkpt>
      <trkpt lat="45.96187" lon="4.53653">
        <ele>400</ele>
        <time>2014-11-30T09:16:44.000Z</time>
      </trkpt>
      <trkpt lat="45.96195" lon="4.53667">
        <ele>397</ele>
        <time>2014-11-30T09:16:49.000Z</time>
      </trkpt>
      <trkpt lat="45.96201" lon="4.53674">
        <ele>398</ele>
        <time>2014-11-30T09:16:54.000Z</time>
      </trkpt>
      <trkpt lat="45.96212" lon="4.53673">
        <ele>400</ele>
        <time>2014-11-30T09:17:01.000Z</time>
      </trkpt>
      <trkpt lat="45.96228" lon="4.53668">
        <ele>402</ele>
        <time>2014-11-30T09:17:09.000Z</time>
      </trkpt>
      <trkpt lat="45.96236" lon="4.53665">
        <ele>406</ele>
        <time>2014-11-30T09:17:14.000Z</time>
      </trkpt>
      <trkpt lat="45.96246" lon="4.53663">
        <ele>408</ele>
        <time>2014-11-30T09:17:22.000Z</time>
      </trkpt>
      <trkpt lat="45.96251" lon="4.53662">
        <ele>410</ele>
        <time>2014-11-30T09:17:26.000Z</time>
      </trkpt>
      <trkpt lat="45.96254" lon="4.53667">
        <ele>410</ele>
        <time>2014-11-30T09:17:31.000Z</time>
      </trkpt>
      <trkpt lat="45.9626" lon="4.53688">
        <ele>412</ele>
        <time>2014-11-30T09:17:41.000Z</time>
      </trkpt>
      <trkpt lat="45.96264" lon="4.53708">
        <ele>412</ele>
        <time>2014-11-30T09:17:50.000Z</time>
      </trkpt>
      <trkpt lat="45.96268" lon="4.53728">
        <ele>412</ele>
        <time>2014-11-30T09:17:58.000Z</time>
      </trkpt>
      <trkpt lat="45.96274" lon="4.53746">
        <ele>411</ele>
        <time>2014-11-30T09:18:04.000Z</time>
      </trkpt>
      <trkpt lat="45.96274" lon="4.53747">
        <ele>411</ele>
        <time>2014-11-30T09:18:13.000Z</time>
      </trkpt>
      <trkpt lat="45.96274" lon="4.5375">
        <ele>411</ele>
        <time>2014-11-30T09:18:38.000Z</time>
      </trkpt>
      <trkpt lat="45.96276" lon="4.53752">
        <ele>408</ele>
        <time>2014-11-30T09:18:49.000Z</time>
      </trkpt>
      <trkpt lat="45.96277" lon="4.53756">
        <ele>409</ele>
        <time>2014-11-30T09:18:57.000Z</time>
      </trkpt>
      <trkpt lat="45.96278" lon="4.53758">
        <ele>409</ele>
        <time>2014-11-30T09:19:06.000Z</time>
      </trkpt>
      <trkpt lat="45.96283" lon="4.53769">
        <ele>409</ele>
        <time>2014-11-30T09:19:10.000Z</time>
      </trkpt>
      <trkpt lat="45.96292" lon="4.53797">
        <ele>409</ele>
        <time>2014-11-30T09:19:16.000Z</time>
      </trkpt>
      <trkpt lat="45.963" lon="4.5382">
        <ele>410</ele>
        <time>2014-11-30T09:19:21.000Z</time>
      </trkpt>
      <trkpt lat="45.96309" lon="4.53845">
        <ele>405</ele>
        <time>2014-11-30T09:19:27.000Z</time>
      </trkpt>
      <trkpt lat="45.96317" lon="4.53857">
        <ele>405</ele>
        <time>2014-11-30T09:19:31.000Z</time>
      </trkpt>
      <trkpt lat="45.96323" lon="4.53869">
        <ele>404</ele>
        <time>2014-11-30T09:19:37.000Z</time>
      </trkpt>
      <trkpt lat="45.96327" lon="4.53875">
        <ele>404</ele>
        <time>2014-11-30T09:19:45.000Z</time>
      </trkpt>
      <trkpt lat="45.96331" lon="4.53883">
        <ele>403</ele>
        <time>2014-11-30T09:19:53.000Z</time>
      </trkpt>
      <trkpt lat="45.96336" lon="4.53891">
        <ele>414</ele>
        <time>2014-11-30T09:20:00.000Z</time>
      </trkpt>
      <trkpt lat="45.96341" lon="4.53897">
        <ele>414</ele>
        <time>2014-11-30T09:20:06.000Z</time>
      </trkpt>
      <trkpt lat="45.96352" lon="4.53906">
        <ele>414</ele>
        <time>2014-11-30T09:20:11.000Z</time>
      </trkpt>
      <trkpt lat="45.96369" lon="4.53912">
        <ele>417</ele>
        <time>2014-11-30T09:20:17.000Z</time>
      </trkpt>
      <trkpt lat="45.96377" lon="4.53913">
        <ele>418</ele>
        <time>2014-11-30T09:20:22.000Z</time>
      </trkpt>
      <trkpt lat="45.96378" lon="4.53915">
        <ele>418</ele>
        <time>2014-11-30T09:20:23.000Z</time>
      </trkpt>
      <trkpt lat="45.96379" lon="4.53914">
        <ele>419</ele>
        <time>2014-11-30T09:20:28.000Z</time>
      </trkpt>
      <trkpt lat="45.9638" lon="4.53914">
        <ele>419</ele>
        <time>2014-11-30T09:20:29.000Z</time>
      </trkpt>
      <trkpt lat="45.96381" lon="4.53916">
        <ele>419</ele>
        <time>2014-11-30T09:20:35.000Z</time>
      </trkpt>
      <trkpt lat="45.96382" lon="4.53917">
        <ele>412</ele>
        <time>2014-11-30T09:20:44.000Z</time>
      </trkpt>
      <trkpt lat="45.96384" lon="4.53919">
        <ele>413</ele>
        <time>2014-11-30T09:20:51.000Z</time>
      </trkpt>
      <trkpt lat="45.96384" lon="4.53919">
        <ele>413</ele>
        <time>2014-11-30T09:21:11.000Z</time>
      </trkpt>
      <trkpt lat="45.96383" lon="4.53921">
        <ele>413</ele>
        <time>2014-11-30T09:21:21.000Z</time>
      </trkpt>
      <trkpt lat="45.96385" lon="4.53921">
        <ele>413</ele>
        <time>2014-11-30T09:21:53.000Z</time>
      </trkpt>
      <trkpt lat="45.96379" lon="4.53934">
        <ele>411</ele>
        <time>2014-11-30T09:21:58.000Z</time>
      </trkpt>
      <trkpt lat="45.96375" lon="4.53946">
        <ele>410</ele>
        <time>2014-11-30T09:22:02.000Z</time>
      </trkpt>
      <trkpt lat="45.96387" lon="4.53961">
        <ele>410</ele>
        <time>2014-11-30T09:22:07.000Z</time>
      </trkpt>
      <trkpt lat="45.9639" lon="4.53964">
        <ele>410</ele>
        <time>2014-11-30T09:22:08.000Z</time>
      </trkpt>
      <trkpt lat="45.96394" lon="4.53968">
        <ele>410</ele>
        <time>2014-11-30T09:22:10.000Z</time>
      </trkpt>
      <trkpt lat="45.9641" lon="4.53986">
        <ele>411</ele>
        <time>2014-11-30T09:22:16.000Z</time>
      </trkpt>
      <trkpt lat="45.96419" lon="4.5399">
        <ele>417</ele>
        <time>2014-11-30T09:22:20.000Z</time>
      </trkpt>
      <trkpt lat="45.9642" lon="4.53992">
        <ele>416</ele>
        <time>2014-11-30T09:22:23.000Z</time>
      </trkpt>
      <trkpt lat="45.9642" lon="4.53999">
        <ele>414</ele>
        <time>2014-11-30T09:22:30.000Z</time>
      </trkpt>
      <trkpt lat="45.9642" lon="4.54003">
        <ele>413</ele>
        <time>2014-11-30T09:22:31.000Z</time>
      </trkpt>
      <trkpt lat="45.96427" lon="4.54028">
        <ele>413</ele>
        <time>2014-11-30T09:22:37.000Z</time>
      </trkpt>
      <trkpt lat="45.96431" lon="4.54045">
        <ele>412</ele>
        <time>2014-11-30T09:22:41.000Z</time>
      </trkpt>
      <trkpt lat="45.96434" lon="4.54058">
        <ele>411</ele>
        <time>2014-11-30T09:22:44.000Z</time>
      </trkpt>
      <trkpt lat="45.96435" lon="4.54061">
        <ele>410</ele>
        <time>2014-11-30T09:22:50.000Z</time>
      </trkpt>
      <trkpt lat="45.96436" lon="4.54061">
        <ele>410</ele>
        <time>2014-11-30T09:22:57.000Z</time>
      </trkpt>
      <trkpt lat="45.96441" lon="4.54056">
        <ele>412</ele>
        <time>2014-11-30T09:23:02.000Z</time>
      </trkpt>
      <trkpt lat="45.96449" lon="4.54046">
        <ele>414</ele>
        <time>2014-11-30T09:23:08.000Z</time>
      </trkpt>
      <trkpt lat="45.96453" lon="4.54041">
        <ele>415</ele>
        <time>2014-11-30T09:23:12.000Z</time>
      </trkpt>
      <trkpt lat="45.96453" lon="4.54041">
        <ele>415</ele>
        <time>2014-11-30T09:23:13.000Z</time>
      </trkpt>
      <trkpt lat="45.96457" lon="4.54048">
        <ele>415</ele>
        <time>2014-11-30T09:23:18.000Z</time>
      </trkpt>
      <trkpt lat="45.96459" lon="4.54053">
        <ele>414</ele>
        <time>2014-11-30T09:23:20.000Z</time>
      </trkpt>
      <trkpt lat="45.96466" lon="4.54068">
        <ele>415</ele>
        <time>2014-11-30T09:23:25.000Z</time>
      </trkpt>
      <trkpt lat="45.96473" lon="4.54082">
        <ele>415</ele>
        <time>2014-11-30T09:23:29.000Z</time>
      </trkpt>
      <trkpt lat="45.96482" lon="4.54098">
        <ele>409</ele>
        <time>2014-11-30T09:23:34.000Z</time>
      </trkpt>
      <trkpt lat="45.96483" lon="4.54101">
        <ele>409</ele>
        <time>2014-11-30T09:23:35.000Z</time>
      </trkpt>
      <trkpt lat="45.96486" lon="4.54105">
        <ele>409</ele>
        <time>2014-11-30T09:23:36.000Z</time>
      </trkpt>
      <trkpt lat="45.96493" lon="4.54121">
        <ele>407</ele>
        <time>2014-11-30T09:23:40.000Z</time>
      </trkpt>
      <trkpt lat="45.96495" lon="4.54125">
        <ele>406</ele>
        <time>2014-11-30T09:23:41.000Z</time>
      </trkpt>
      <trkpt lat="45.96508" lon="4.54143">
        <ele>412</ele>
        <time>2014-11-30T09:23:46.000Z</time>
      </trkpt>
      <trkpt lat="45.96515" lon="4.54149">
        <ele>412</ele>
        <time>2014-11-30T09:23:50.000Z</time>
      </trkpt>
      <trkpt lat="45.96522" lon="4.54156">
        <ele>412</ele>
        <time>2014-11-30T09:23:56.000Z</time>
      </trkpt>
      <trkpt lat="45.96535" lon="4.54165">
        <ele>413</ele>
        <time>2014-11-30T09:24:02.000Z</time>
      </trkpt>
      <trkpt lat="45.96548" lon="4.54187">
        <ele>407</ele>
        <time>2014-11-30T09:24:08.000Z</time>
      </trkpt>
      <trkpt lat="45.96564" lon="4.54207">
        <ele>407</ele>
        <time>2014-11-30T09:24:14.000Z</time>
      </trkpt>
      <trkpt lat="45.96579" lon="4.54232">
        <ele>406</ele>
        <time>2014-11-30T09:24:22.000Z</time>
      </trkpt>
      <trkpt lat="45.96592" lon="4.54254">
        <ele>407</ele>
        <time>2014-11-30T09:24:30.000Z</time>
      </trkpt>
      <trkpt lat="45.96605" lon="4.54267">
        <ele>408</ele>
        <time>2014-11-30T09:24:36.000Z</time>
      </trkpt>
      <trkpt lat="45.96607" lon="4.54268">
        <ele>408</ele>
        <time>2014-11-30T09:24:37.000Z</time>
      </trkpt>
      <trkpt lat="45.96612" lon="4.54267">
        <ele>409</ele>
        <time>2014-11-30T09:24:41.000Z</time>
      </trkpt>
      <trkpt lat="45.96614" lon="4.54266">
        <ele>409</ele>
        <time>2014-11-30T09:24:44.000Z</time>
      </trkpt>
      <trkpt lat="45.96618" lon="4.54267">
        <ele>409</ele>
        <time>2014-11-30T09:24:47.000Z</time>
      </trkpt>
      <trkpt lat="45.96624" lon="4.54255">
        <ele>410</ele>
        <time>2014-11-30T09:24:55.000Z</time>
      </trkpt>
      <trkpt lat="45.9663" lon="4.54244">
        <ele>416</ele>
        <time>2014-11-30T09:25:02.000Z</time>
      </trkpt>
      <trkpt lat="45.96638" lon="4.54231">
        <ele>417</ele>
        <time>2014-11-30T09:25:11.000Z</time>
      </trkpt>
      <trkpt lat="45.96645" lon="4.54219">
        <ele>418</ele>
        <time>2014-11-30T09:25:20.000Z</time>
      </trkpt>
      <trkpt lat="45.96645" lon="4.54217">
        <ele>418</ele>
        <time>2014-11-30T09:25:21.000Z</time>
      </trkpt>
      <trkpt lat="45.96651" lon="4.54206">
        <ele>419</ele>
        <time>2014-11-30T09:25:28.000Z</time>
      </trkpt>
      <trkpt lat="45.96657" lon="4.54194">
        <ele>420</ele>
        <time>2014-11-30T09:25:36.000Z</time>
      </trkpt>
      <trkpt lat="45.96661" lon="4.54199">
        <ele>420</ele>
        <time>2014-11-30T09:25:40.000Z</time>
      </trkpt>
      <trkpt lat="45.96665" lon="4.5422">
        <ele>419</ele>
        <time>2014-11-30T09:25:46.000Z</time>
      </trkpt>
      <trkpt lat="45.9667" lon="4.54237">
        <ele>423</ele>
        <time>2014-11-30T09:25:51.000Z</time>
      </trkpt>
      <trkpt lat="45.96676" lon="4.54258">
        <ele>421</ele>
        <time>2014-11-30T09:25:57.000Z</time>
      </trkpt>
      <trkpt lat="45.96684" lon="4.54276">
        <ele>421</ele>
        <time>2014-11-30T09:26:02.000Z</time>
      </trkpt>
      <trkpt lat="45.96703" lon="4.54316">
        <ele>420</ele>
        <time>2014-11-30T09:26:16.000Z</time>
      </trkpt>
      <trkpt lat="45.96716" lon="4.54335">
        <ele>417</ele>
        <time>2014-11-30T09:26:22.000Z</time>
      </trkpt>
      <trkpt lat="45.96725" lon="4.54349">
        <ele>418</ele>
        <time>2014-11-30T09:26:28.000Z</time>
      </trkpt>
      <trkpt lat="45.96732" lon="4.54358">
        <ele>418</ele>
        <time>2014-11-30T09:26:33.000Z</time>
      </trkpt>
      <trkpt lat="45.96743" lon="4.54375">
        <ele>417</ele>
        <time>2014-11-30T09:26:41.000Z</time>
      </trkpt>
      <trkpt lat="45.96753" lon="4.54392">
        <ele>422</ele>
        <time>2014-11-30T09:26:49.000Z</time>
      </trkpt>
      <trkpt lat="45.96762" lon="4.54405">
        <ele>421</ele>
        <time>2014-11-30T09:26:59.000Z</time>
      </trkpt>
      <trkpt lat="45.96768" lon="4.54414">
        <ele>421</ele>
        <time>2014-11-30T09:27:05.000Z</time>
      </trkpt>
      <trkpt lat="45.96787" lon="4.54408">
        <ele>423</ele>
        <time>2014-11-30T09:27:16.000Z</time>
      </trkpt>
      <trkpt lat="45.968" lon="4.54401">
        <ele>424</ele>
        <time>2014-11-30T09:27:21.000Z</time>
      </trkpt>
      <trkpt lat="45.96816" lon="4.54399">
        <ele>424</ele>
        <time>2014-11-30T09:27:27.000Z</time>
      </trkpt>
      <trkpt lat="45.96827" lon="4.544">
        <ele>424</ele>
        <time>2014-11-30T09:27:32.000Z</time>
      </trkpt>
      <trkpt lat="45.96844" lon="4.54401">
        <ele>427</ele>
        <time>2014-11-30T09:27:44.000Z</time>
      </trkpt>
      <trkpt lat="45.96855" lon="4.54395">
        <ele>428</ele>
        <time>2014-11-30T09:27:53.000Z</time>
      </trkpt>
      <trkpt lat="45.96863" lon="4.54377">
        <ele>430</ele>
        <time>2014-11-30T09:28:01.000Z</time>
      </trkpt>
      <trkpt lat="45.96866" lon="4.54368">
        <ele>430</ele>
        <time>2014-11-30T09:28:04.000Z</time>
      </trkpt>
      <trkpt lat="45.96882" lon="4.54366">
        <ele>431</ele>
        <time>2014-11-30T09:28:10.000Z</time>
      </trkpt>
      <trkpt lat="45.96893" lon="4.54369">
        <ele>431</ele>
        <time>2014-11-30T09:28:15.000Z</time>
      </trkpt>
      <trkpt lat="45.96901" lon="4.54374">
        <ele>431</ele>
        <time>2014-11-30T09:28:19.000Z</time>
      </trkpt>
      <trkpt lat="45.96917" lon="4.5438">
        <ele>437</ele>
        <time>2014-11-30T09:28:25.000Z</time>
      </trkpt>
      <trkpt lat="45.96934" lon="4.5439">
        <ele>437</ele>
        <time>2014-11-30T09:28:31.000Z</time>
      </trkpt>
      <trkpt lat="45.96948" lon="4.54405">
        <ele>437</ele>
        <time>2014-11-30T09:28:37.000Z</time>
      </trkpt>
      <trkpt lat="45.9696" lon="4.54417">
        <ele>435</ele>
        <time>2014-11-30T09:28:43.000Z</time>
      </trkpt>
      <trkpt lat="45.96964" lon="4.54422">
        <ele>436</ele>
        <time>2014-11-30T09:28:50.000Z</time>
      </trkpt>
      <trkpt lat="45.96967" lon="4.54423">
        <ele>436</ele>
        <time>2014-11-30T09:28:56.000Z</time>
      </trkpt>
      <trkpt lat="45.9697" lon="4.54425">
        <ele>437</ele>
        <time>2014-11-30T09:29:01.000Z</time>
      </trkpt>
      <trkpt lat="45.96968" lon="4.54429">
        <ele>436</ele>
        <time>2014-11-30T09:29:04.000Z</time>
      </trkpt>
      <trkpt lat="45.96975" lon="4.54451">
        <ele>436</ele>
        <time>2014-11-30T09:29:17.000Z</time>
      </trkpt>
      <trkpt lat="45.96987" lon="4.5447">
        <ele>437</ele>
        <time>2014-11-30T09:29:28.000Z</time>
      </trkpt>
      <trkpt lat="45.96994" lon="4.54482">
        <ele>439</ele>
        <time>2014-11-30T09:29:33.000Z</time>
      </trkpt>
      <trkpt lat="45.97" lon="4.54496">
        <ele>445</ele>
        <time>2014-11-30T09:29:41.000Z</time>
      </trkpt>
      <trkpt lat="45.97004" lon="4.54502">
        <ele>445</ele>
        <time>2014-11-30T09:29:45.000Z</time>
      </trkpt>
      <trkpt lat="45.97006" lon="4.54507">
        <ele>446</ele>
        <time>2014-11-30T09:29:48.000Z</time>
      </trkpt>
      <trkpt lat="45.97011" lon="4.54507">
        <ele>447</ele>
        <time>2014-11-30T09:29:53.000Z</time>
      </trkpt>
      <trkpt lat="45.97012" lon="4.54507">
        <ele>447</ele>
        <time>2014-11-30T09:29:54.000Z</time>
      </trkpt>
      <trkpt lat="45.97016" lon="4.54508">
        <ele>448</ele>
        <time>2014-11-30T09:29:59.000Z</time>
      </trkpt>
      <trkpt lat="45.97017" lon="4.54509">
        <ele>448</ele>
        <time>2014-11-30T09:30:00.000Z</time>
      </trkpt>
      <trkpt lat="45.97022" lon="4.54513">
        <ele>449</ele>
        <time>2014-11-30T09:30:05.000Z</time>
      </trkpt>
      <trkpt lat="45.97031" lon="4.54521">
        <ele>450</ele>
        <time>2014-11-30T09:30:13.000Z</time>
      </trkpt>
      <trkpt lat="45.97043" lon="4.54529">
        <ele>451</ele>
        <time>2014-11-30T09:30:25.000Z</time>
      </trkpt>
      <trkpt lat="45.97049" lon="4.54532">
        <ele>452</ele>
        <time>2014-11-30T09:30:31.000Z</time>
      </trkpt>
      <trkpt lat="45.97054" lon="4.54534">
        <ele>452</ele>
        <time>2014-11-30T09:30:37.000Z</time>
      </trkpt>
      <trkpt lat="45.97054" lon="4.54535">
        <ele>452</ele>
        <time>2014-11-30T09:30:38.000Z</time>
      </trkpt>
      <trkpt lat="45.9705" lon="4.54543">
        <ele>452</ele>
        <time>2014-11-30T09:30:43.000Z</time>
      </trkpt>
      <trkpt lat="45.97049" lon="4.54558">
        <ele>451</ele>
        <time>2014-11-30T09:30:48.000Z</time>
      </trkpt>
      <trkpt lat="45.97049" lon="4.54563">
        <ele>451</ele>
        <time>2014-11-30T09:30:50.000Z</time>
      </trkpt>
      <trkpt lat="45.97048" lon="4.5458">
        <ele>451</ele>
        <time>2014-11-30T09:30:55.000Z</time>
      </trkpt>
      <trkpt lat="45.97037" lon="4.54588">
        <ele>444</ele>
        <time>2014-11-30T09:31:01.000Z</time>
      </trkpt>
      <trkpt lat="45.97034" lon="4.5459">
        <ele>443</ele>
        <time>2014-11-30T09:31:03.000Z</time>
      </trkpt>
      <trkpt lat="45.97031" lon="4.54601">
        <ele>442</ele>
        <time>2014-11-30T09:31:06.000Z</time>
      </trkpt>
      <trkpt lat="45.97045" lon="4.54622">
        <ele>443</ele>
        <time>2014-11-30T09:31:13.000Z</time>
      </trkpt>
      <trkpt lat="45.97056" lon="4.54636">
        <ele>444</ele>
        <time>2014-11-30T09:31:20.000Z</time>
      </trkpt>
      <trkpt lat="45.9706" lon="4.54641">
        <ele>444</ele>
        <time>2014-11-30T09:31:27.000Z</time>
      </trkpt>
      <trkpt lat="45.97065" lon="4.54649">
        <ele>445</ele>
        <time>2014-11-30T09:31:32.000Z</time>
      </trkpt>
      <trkpt lat="45.97079" lon="4.54658">
        <ele>447</ele>
        <time>2014-11-30T09:31:37.000Z</time>
      </trkpt>
      <trkpt lat="45.97091" lon="4.54663">
        <ele>452</ele>
        <time>2014-11-30T09:31:42.000Z</time>
      </trkpt>
      <trkpt lat="45.97092" lon="4.54664">
        <ele>452</ele>
        <time>2014-11-30T09:31:43.000Z</time>
      </trkpt>
      <trkpt lat="45.97094" lon="4.54668">
        <ele>447</ele>
        <time>2014-11-30T09:31:49.000Z</time>
      </trkpt>
      <trkpt lat="45.97099" lon="4.54669">
        <ele>447</ele>
        <time>2014-11-30T09:32:03.000Z</time>
      </trkpt>
      <trkpt lat="45.97103" lon="4.54671">
        <ele>447</ele>
        <time>2014-11-30T09:32:09.000Z</time>
      </trkpt>
      <trkpt lat="45.97107" lon="4.54678">
        <ele>446</ele>
        <time>2014-11-30T09:32:15.000Z</time>
      </trkpt>
      <trkpt lat="45.9711" lon="4.5468">
        <ele>446</ele>
        <time>2014-11-30T09:32:20.000Z</time>
      </trkpt>
      <trkpt lat="45.97115" lon="4.54685">
        <ele>446</ele>
        <time>2014-11-30T09:32:25.000Z</time>
      </trkpt>
      <trkpt lat="45.97117" lon="4.54686">
        <ele>446</ele>
        <time>2014-11-30T09:32:31.000Z</time>
      </trkpt>
      <trkpt lat="45.9712" lon="4.54686">
        <ele>446</ele>
        <time>2014-11-30T09:32:36.000Z</time>
      </trkpt>
      <trkpt lat="45.97124" lon="4.54686">
        <ele>446</ele>
        <time>2014-11-30T09:32:41.000Z</time>
      </trkpt>
      <trkpt lat="45.97126" lon="4.54687">
        <ele>446</ele>
        <time>2014-11-30T09:32:46.000Z</time>
      </trkpt>
      <trkpt lat="45.97129" lon="4.54689">
        <ele>446</ele>
        <time>2014-11-30T09:32:51.000Z</time>
      </trkpt>
      <trkpt lat="45.97133" lon="4.54692">
        <ele>446</ele>
        <time>2014-11-30T09:32:57.000Z</time>
      </trkpt>
      <trkpt lat="45.97137" lon="4.54694">
        <ele>446</ele>
        <time>2014-11-30T09:33:03.000Z</time>
      </trkpt>
      <trkpt lat="45.97142" lon="4.54701">
        <ele>446</ele>
        <time>2014-11-30T09:33:12.000Z</time>
      </trkpt>
      <trkpt lat="45.97143" lon="4.54701">
        <ele>446</ele>
        <time>2014-11-30T09:33:13.000Z</time>
      </trkpt>
      <trkpt lat="45.97145" lon="4.54703">
        <ele>446</ele>
        <time>2014-11-30T09:33:16.000Z</time>
      </trkpt>
      <trkpt lat="45.97148" lon="4.54702">
        <ele>446</ele>
        <time>2014-11-30T09:33:21.000Z</time>
      </trkpt>
      <trkpt lat="45.97151" lon="4.54704">
        <ele>446</ele>
        <time>2014-11-30T09:33:26.000Z</time>
      </trkpt>
      <trkpt lat="45.97156" lon="4.54705">
        <ele>446</ele>
        <time>2014-11-30T09:33:32.000Z</time>
      </trkpt>
      <trkpt lat="45.97159" lon="4.54706">
        <ele>446</ele>
        <time>2014-11-30T09:33:35.000Z</time>
      </trkpt>
      <trkpt lat="45.97164" lon="4.54706">
        <ele>446</ele>
        <time>2014-11-30T09:33:41.000Z</time>
      </trkpt>
      <trkpt lat="45.97164" lon="4.54707">
        <ele>446</ele>
        <time>2014-11-30T09:33:42.000Z</time>
      </trkpt>
      <trkpt lat="45.97165" lon="4.54707">
        <ele>446</ele>
        <time>2014-11-30T09:33:43.000Z</time>
      </trkpt>
      <trkpt lat="45.97167" lon="4.5471">
        <ele>458</ele>
        <time>2014-11-30T09:33:49.000Z</time>
      </trkpt>
      <trkpt lat="45.97171" lon="4.54713">
        <ele>458</ele>
        <time>2014-11-30T09:33:59.000Z</time>
      </trkpt>
      <trkpt lat="45.97172" lon="4.54719">
        <ele>456</ele>
        <time>2014-11-30T09:34:15.000Z</time>
      </trkpt>
      <trkpt lat="45.97174" lon="4.54726">
        <ele>455</ele>
        <time>2014-11-30T09:34:31.000Z</time>
      </trkpt>
      <trkpt lat="45.97177" lon="4.54731">
        <ele>454</ele>
        <time>2014-11-30T09:34:35.000Z</time>
      </trkpt>
      <trkpt lat="45.97178" lon="4.54739">
        <ele>451</ele>
        <time>2014-11-30T09:34:42.000Z</time>
      </trkpt>
      <trkpt lat="45.97176" lon="4.54742">
        <ele>449</ele>
        <time>2014-11-30T09:35:00.000Z</time>
      </trkpt>
      <trkpt lat="45.97175" lon="4.54744">
        <ele>448</ele>
        <time>2014-11-30T09:35:04.000Z</time>
      </trkpt>
      <trkpt lat="45.97173" lon="4.54749">
        <ele>445</ele>
        <time>2014-11-30T09:35:10.000Z</time>
      </trkpt>
      <trkpt lat="45.97171" lon="4.54753">
        <ele>442</ele>
        <time>2014-11-30T09:35:14.000Z</time>
      </trkpt>
      <trkpt lat="45.97168" lon="4.54754">
        <ele>442</ele>
        <time>2014-11-30T09:35:20.000Z</time>
      </trkpt>
      <trkpt lat="45.97163" lon="4.54758">
        <ele>436</ele>
        <time>2014-11-30T09:35:26.000Z</time>
      </trkpt>
      <trkpt lat="45.97162" lon="4.54758">
        <ele>436</ele>
        <time>2014-11-30T09:35:27.000Z</time>
      </trkpt>
      <trkpt lat="45.97159" lon="4.5476">
        <ele>435</ele>
        <time>2014-11-30T09:35:32.000Z</time>
      </trkpt>
      <trkpt lat="45.97156" lon="4.54764">
        <ele>433</ele>
        <time>2014-11-30T09:35:37.000Z</time>
      </trkpt>
      <trkpt lat="45.97155" lon="4.54766">
        <ele>433</ele>
        <time>2014-11-30T09:35:38.000Z</time>
      </trkpt>
      <trkpt lat="45.97152" lon="4.54773">
        <ele>431</ele>
        <time>2014-11-30T09:35:44.000Z</time>
      </trkpt>
      <trkpt lat="45.97151" lon="4.54783">
        <ele>430</ele>
        <time>2014-11-30T09:35:48.000Z</time>
      </trkpt>
      <trkpt lat="45.97151" lon="4.54786">
        <ele>429</ele>
        <time>2014-11-30T09:35:49.000Z</time>
      </trkpt>
      <trkpt lat="45.97151" lon="4.5479">
        <ele>429</ele>
        <time>2014-11-30T09:35:51.000Z</time>
      </trkpt>
      <trkpt lat="45.97155" lon="4.54799">
        <ele>429</ele>
        <time>2014-11-30T09:35:57.000Z</time>
      </trkpt>
      <trkpt lat="45.97155" lon="4.54802">
        <ele>429</ele>
        <time>2014-11-30T09:36:00.000Z</time>
      </trkpt>
      <trkpt lat="45.9716" lon="4.54807">
        <ele>429</ele>
        <time>2014-11-30T09:36:08.000Z</time>
      </trkpt>
      <trkpt lat="45.97161" lon="4.54809">
        <ele>429</ele>
        <time>2014-11-30T09:36:09.000Z</time>
      </trkpt>
      <trkpt lat="45.9716" lon="4.54824">
        <ele>430</ele>
        <time>2014-11-30T09:36:14.000Z</time>
      </trkpt>
      <trkpt lat="45.97161" lon="4.54828">
        <ele>431</ele>
        <time>2014-11-30T09:36:15.000Z</time>
      </trkpt>
      <trkpt lat="45.97161" lon="4.54837">
        <ele>427</ele>
        <time>2014-11-30T09:36:18.000Z</time>
      </trkpt>
      <trkpt lat="45.97165" lon="4.54846">
        <ele>425</ele>
        <time>2014-11-30T09:36:23.000Z</time>
      </trkpt>
      <trkpt lat="45.97167" lon="4.54855">
        <ele>421</ele>
        <time>2014-11-30T09:36:28.000Z</time>
      </trkpt>
      <trkpt lat="45.97169" lon="4.54863">
        <ele>436</ele>
        <time>2014-11-30T09:36:33.000Z</time>
      </trkpt>
      <trkpt lat="45.97171" lon="4.54867">
        <ele>436</ele>
        <time>2014-11-30T09:36:36.000Z</time>
      </trkpt>
      <trkpt lat="45.97173" lon="4.54869">
        <ele>436</ele>
        <time>2014-11-30T09:36:38.000Z</time>
      </trkpt>
      <trkpt lat="45.97178" lon="4.54874">
        <ele>436</ele>
        <time>2014-11-30T09:36:47.000Z</time>
      </trkpt>
      <trkpt lat="45.97179" lon="4.54876">
        <ele>435</ele>
        <time>2014-11-30T09:36:53.000Z</time>
      </trkpt>
      <trkpt lat="45.97179" lon="4.54881">
        <ele>435</ele>
        <time>2014-11-30T09:37:01.000Z</time>
      </trkpt>
      <trkpt lat="45.9718" lon="4.54885">
        <ele>434</ele>
        <time>2014-11-30T09:37:05.000Z</time>
      </trkpt>
      <trkpt lat="45.97182" lon="4.54889">
        <ele>433</ele>
        <time>2014-11-30T09:37:12.000Z</time>
      </trkpt>
      <trkpt lat="45.97183" lon="4.54892">
        <ele>433</ele>
        <time>2014-11-30T09:37:15.000Z</time>
      </trkpt>
      <trkpt lat="45.97184" lon="4.54894">
        <ele>433</ele>
        <time>2014-11-30T09:37:23.000Z</time>
      </trkpt>
      <trkpt lat="45.97184" lon="4.54894">
        <ele>433</ele>
        <time>2014-11-30T09:37:25.000Z</time>
      </trkpt>
      <trkpt lat="45.97189" lon="4.54903">
        <ele>432</ele>
        <time>2014-11-30T09:37:32.000Z</time>
      </trkpt>
      <trkpt lat="45.9719" lon="4.54904">
        <ele>433</ele>
        <time>2014-11-30T09:37:35.000Z</time>
      </trkpt>
      <trkpt lat="45.97194" lon="4.5491">
        <ele>433</ele>
        <time>2014-11-30T09:37:41.000Z</time>
      </trkpt>
      <trkpt lat="45.97194" lon="4.54911">
        <ele>433</ele>
        <time>2014-11-30T09:37:42.000Z</time>
      </trkpt>
      <trkpt lat="45.97197" lon="4.54915">
        <ele>434</ele>
        <time>2014-11-30T09:37:49.000Z</time>
      </trkpt>
      <trkpt lat="45.972" lon="4.54924">
        <ele>422</ele>
        <time>2014-11-30T09:37:56.000Z</time>
      </trkpt>
      <trkpt lat="45.97201" lon="4.54926">
        <ele>422</ele>
        <time>2014-11-30T09:37:58.000Z</time>
      </trkpt>
      <trkpt lat="45.97206" lon="4.54932">
        <ele>423</ele>
        <time>2014-11-30T09:38:05.000Z</time>
      </trkpt>
      <trkpt lat="45.97207" lon="4.54932">
        <ele>423</ele>
        <time>2014-11-30T09:38:06.000Z</time>
      </trkpt>
      <trkpt lat="45.97212" lon="4.54938">
        <ele>424</ele>
        <time>2014-11-30T09:38:12.000Z</time>
      </trkpt>
      <trkpt lat="45.97213" lon="4.54939">
        <ele>424</ele>
        <time>2014-11-30T09:38:13.000Z</time>
      </trkpt>
      <trkpt lat="45.97213" lon="4.54943">
        <ele>423</ele>
        <time>2014-11-30T09:38:19.000Z</time>
      </trkpt>
      <trkpt lat="45.97215" lon="4.54945">
        <ele>423</ele>
        <time>2014-11-30T09:38:25.000Z</time>
      </trkpt>
      <trkpt lat="45.97219" lon="4.54952">
        <ele>423</ele>
        <time>2014-11-30T09:38:32.000Z</time>
      </trkpt>
      <trkpt lat="45.97221" lon="4.54955">
        <ele>423</ele>
        <time>2014-11-30T09:38:36.000Z</time>
      </trkpt>
      <trkpt lat="45.97221" lon="4.54962">
        <ele>422</ele>
        <time>2014-11-30T09:38:42.000Z</time>
      </trkpt>
      <trkpt lat="45.97222" lon="4.54967">
        <ele>421</ele>
        <time>2014-11-30T09:38:45.000Z</time>
      </trkpt>
      <trkpt lat="45.97223" lon="4.54969">
        <ele>421</ele>
        <time>2014-11-30T09:38:46.000Z</time>
      </trkpt>
      <trkpt lat="45.97221" lon="4.54975">
        <ele>420</ele>
        <time>2014-11-30T09:38:51.000Z</time>
      </trkpt>
      <trkpt lat="45.97222" lon="4.54982">
        <ele>420</ele>
        <time>2014-11-30T09:38:55.000Z</time>
      </trkpt>
      <trkpt lat="45.97221" lon="4.54987">
        <ele>419</ele>
        <time>2014-11-30T09:38:57.000Z</time>
      </trkpt>
      <trkpt lat="45.97225" lon="4.54996">
        <ele>419</ele>
        <time>2014-11-30T09:39:04.000Z</time>
      </trkpt>
      <trkpt lat="45.97225" lon="4.54999">
        <ele>419</ele>
        <time>2014-11-30T09:39:06.000Z</time>
      </trkpt>
      <trkpt lat="45.97226" lon="4.55">
        <ele>419</ele>
        <time>2014-11-30T09:39:08.000Z</time>
      </trkpt>
      <trkpt lat="45.9723" lon="4.55006">
        <ele>410</ele>
        <time>2014-11-30T09:39:16.000Z</time>
      </trkpt>
      <trkpt lat="45.97232" lon="4.55009">
        <ele>410</ele>
        <time>2014-11-30T09:39:19.000Z</time>
      </trkpt>
      <trkpt lat="45.97236" lon="4.55015">
        <ele>410</ele>
        <time>2014-11-30T09:39:24.000Z</time>
      </trkpt>
      <trkpt lat="45.97242" lon="4.5502">
        <ele>410</ele>
        <time>2014-11-30T09:39:31.000Z</time>
      </trkpt>
      <trkpt lat="45.97244" lon="4.55021">
        <ele>410</ele>
        <time>2014-11-30T09:39:37.000Z</time>
      </trkpt>
      <trkpt lat="45.97249" lon="4.55024">
        <ele>409</ele>
        <time>2014-11-30T09:39:41.000Z</time>
      </trkpt>
      <trkpt lat="45.97251" lon="4.55029">
        <ele>424</ele>
        <time>2014-11-30T09:39:46.000Z</time>
      </trkpt>
      <trkpt lat="45.97252" lon="4.55032">
        <ele>423</ele>
        <time>2014-11-30T09:39:53.000Z</time>
      </trkpt>
      <trkpt lat="45.97253" lon="4.55037">
        <ele>423</ele>
        <time>2014-11-30T09:40:01.000Z</time>
      </trkpt>
      <trkpt lat="45.97253" lon="4.5504">
        <ele>422</ele>
        <time>2014-11-30T09:40:09.000Z</time>
      </trkpt>
      <trkpt lat="45.97253" lon="4.55046">
        <ele>421</ele>
        <time>2014-11-30T09:40:18.000Z</time>
      </trkpt>
      <trkpt lat="45.97253" lon="4.55049">
        <ele>420</ele>
        <time>2014-11-30T09:40:21.000Z</time>
      </trkpt>
      <trkpt lat="45.97255" lon="4.55057">
        <ele>418</ele>
        <time>2014-11-30T09:40:27.000Z</time>
      </trkpt>
      <trkpt lat="45.97255" lon="4.55057">
        <ele>418</ele>
        <time>2014-11-30T09:40:28.000Z</time>
      </trkpt>
      <trkpt lat="45.97255" lon="4.55058">
        <ele>418</ele>
        <time>2014-11-30T09:40:29.000Z</time>
      </trkpt>
      <trkpt lat="45.97256" lon="4.5506">
        <ele>417</ele>
        <time>2014-11-30T09:40:33.000Z</time>
      </trkpt>
      <trkpt lat="45.97259" lon="4.55065">
        <ele>416</ele>
        <time>2014-11-30T09:40:38.000Z</time>
      </trkpt>
      <trkpt lat="45.97263" lon="4.55068">
        <ele>416</ele>
        <time>2014-11-30T09:40:45.000Z</time>
      </trkpt>
      <trkpt lat="45.97265" lon="4.5507">
        <ele>416</ele>
        <time>2014-11-30T09:40:49.000Z</time>
      </trkpt>
      <trkpt lat="45.97266" lon="4.55072">
        <ele>416</ele>
        <time>2014-11-30T09:40:54.000Z</time>
      </trkpt>
      <trkpt lat="45.97263" lon="4.55075">
        <ele>413</ele>
        <time>2014-11-30T09:41:06.000Z</time>
      </trkpt>
      <trkpt lat="45.97259" lon="4.55079">
        <ele>410</ele>
        <time>2014-11-30T09:41:18.000Z</time>
      </trkpt>
      <trkpt lat="45.97256" lon="4.55082">
        <ele>406</ele>
        <time>2014-11-30T09:41:24.000Z</time>
      </trkpt>
      <trkpt lat="45.97254" lon="4.55083">
        <ele>404</ele>
        <time>2014-11-30T09:41:27.000Z</time>
      </trkpt>
      <trkpt lat="45.97252" lon="4.55085">
        <ele>401</ele>
        <time>2014-11-30T09:41:31.000Z</time>
      </trkpt>
      <trkpt lat="45.97249" lon="4.55087">
        <ele>400</ele>
        <time>2014-11-30T09:41:35.000Z</time>
      </trkpt>
      <trkpt lat="45.97246" lon="4.55089">
        <ele>400</ele>
        <time>2014-11-30T09:41:39.000Z</time>
      </trkpt>
      <trkpt lat="45.97244" lon="4.55089">
        <ele>399</ele>
        <time>2014-11-30T09:41:41.000Z</time>
      </trkpt>
      <trkpt lat="45.97238" lon="4.55092">
        <ele>399</ele>
        <time>2014-11-30T09:41:48.000Z</time>
      </trkpt>
      <trkpt lat="45.97237" lon="4.55092">
        <ele>399</ele>
        <time>2014-11-30T09:41:49.000Z</time>
      </trkpt>
      <trkpt lat="45.97237" lon="4.55093">
        <ele>399</ele>
        <time>2014-11-30T09:41:50.000Z</time>
      </trkpt>
      <trkpt lat="45.97236" lon="4.55095">
        <ele>399</ele>
        <time>2014-11-30T09:41:52.000Z</time>
      </trkpt>
      <trkpt lat="45.97232" lon="4.55098">
        <ele>399</ele>
        <time>2014-11-30T09:41:57.000Z</time>
      </trkpt>
      <trkpt lat="45.97227" lon="4.55098">
        <ele>399</ele>
        <time>2014-11-30T09:42:01.000Z</time>
      </trkpt>
      <trkpt lat="45.97227" lon="4.55097">
        <ele>399</ele>
        <time>2014-11-30T09:42:02.000Z</time>
      </trkpt>
      <trkpt lat="45.97218" lon="4.55089">
        <ele>398</ele>
        <time>2014-11-30T09:42:38.000Z</time>
      </trkpt>
      <trkpt lat="45.97212" lon="4.55083">
        <ele>399</ele>
        <time>2014-11-30T09:42:41.000Z</time>
      </trkpt>
      <trkpt lat="45.97198" lon="4.55077">
        <ele>397</ele>
        <time>2014-11-30T09:42:47.000Z</time>
      </trkpt>
      <trkpt lat="45.97187" lon="4.55068">
        <ele>396</ele>
        <time>2014-11-30T09:42:51.000Z</time>
      </trkpt>
      <trkpt lat="45.97178" lon="4.5506">
        <ele>396</ele>
        <time>2014-11-30T09:42:55.000Z</time>
      </trkpt>
      <trkpt lat="45.9717" lon="4.55052">
        <ele>396</ele>
        <time>2014-11-30T09:42:58.000Z</time>
      </trkpt>
      <trkpt lat="45.97164" lon="4.55044">
        <ele>390</ele>
        <time>2014-11-30T09:43:01.000Z</time>
      </trkpt>
      <trkpt lat="45.97153" lon="4.55037">
        <ele>390</ele>
        <time>2014-11-30T09:43:05.000Z</time>
      </trkpt>
      <trkpt lat="45.97147" lon="4.55037">
        <ele>390</ele>
        <time>2014-11-30T09:43:09.000Z</time>
      </trkpt>
      <trkpt lat="45.97144" lon="4.55037">
        <ele>390</ele>
        <time>2014-11-30T09:43:11.000Z</time>
      </trkpt>
      <trkpt lat="45.9714" lon="4.55037">
        <ele>390</ele>
        <time>2014-11-30T09:43:13.000Z</time>
      </trkpt>
      <trkpt lat="45.97134" lon="4.55035">
        <ele>390</ele>
        <time>2014-11-30T09:43:19.000Z</time>
      </trkpt>
      <trkpt lat="45.97132" lon="4.55034">
        <ele>390</ele>
        <time>2014-11-30T09:43:20.000Z</time>
      </trkpt>
      <trkpt lat="45.97128" lon="4.55033">
        <ele>390</ele>
        <time>2014-11-30T09:43:23.000Z</time>
      </trkpt>
      <trkpt lat="45.97117" lon="4.55035">
        <ele>390</ele>
        <time>2014-11-30T09:43:28.000Z</time>
      </trkpt>
      <trkpt lat="45.97108" lon="4.55036">
        <ele>389</ele>
        <time>2014-11-30T09:43:31.000Z</time>
      </trkpt>
      <trkpt lat="45.97095" lon="4.55039">
        <ele>389</ele>
        <time>2014-11-30T09:43:35.000Z</time>
      </trkpt>
      <trkpt lat="45.97092" lon="4.55039">
        <ele>389</ele>
        <time>2014-11-30T09:43:36.000Z</time>
      </trkpt>
      <trkpt lat="45.97073" lon="4.5504">
        <ele>387</ele>
        <time>2014-11-30T09:43:43.000Z</time>
      </trkpt>
      <trkpt lat="45.97062" lon="4.55042">
        <ele>387</ele>
        <time>2014-11-30T09:43:47.000Z</time>
      </trkpt>
      <trkpt lat="45.97044" lon="4.55039">
        <ele>386</ele>
        <time>2014-11-30T09:43:52.000Z</time>
      </trkpt>
      <trkpt lat="45.97032" lon="4.55037">
        <ele>385</ele>
        <time>2014-11-30T09:43:56.000Z</time>
      </trkpt>
      <trkpt lat="45.97013" lon="4.55035">
        <ele>384</ele>
        <time>2014-11-30T09:44:01.000Z</time>
      </trkpt>
      <trkpt lat="45.96993" lon="4.55037">
        <ele>383</ele>
        <time>2014-11-30T09:44:06.000Z</time>
      </trkpt>
      <trkpt lat="45.96983" lon="4.55039">
        <ele>383</ele>
        <time>2014-11-30T09:44:09.000Z</time>
      </trkpt>
      <trkpt lat="45.96971" lon="4.55043">
        <ele>383</ele>
        <time>2014-11-30T09:44:13.000Z</time>
      </trkpt>
      <trkpt lat="45.96956" lon="4.55049">
        <ele>384</ele>
        <time>2014-11-30T09:44:18.000Z</time>
      </trkpt>
      <trkpt lat="45.96953" lon="4.5505">
        <ele>384</ele>
        <time>2014-11-30T09:44:19.000Z</time>
      </trkpt>
      <trkpt lat="45.96941" lon="4.55055">
        <ele>384</ele>
        <time>2014-11-30T09:44:25.000Z</time>
      </trkpt>
      <trkpt lat="45.96933" lon="4.55062">
        <ele>385</ele>
        <time>2014-11-30T09:44:32.000Z</time>
      </trkpt>
      <trkpt lat="45.96929" lon="4.55066">
        <ele>386</ele>
        <time>2014-11-30T09:44:36.000Z</time>
      </trkpt>
      <trkpt lat="45.96925" lon="4.5507">
        <ele>386</ele>
        <time>2014-11-30T09:44:40.000Z</time>
      </trkpt>
      <trkpt lat="45.96917" lon="4.55075">
        <ele>387</ele>
        <time>2014-11-30T09:44:46.000Z</time>
      </trkpt>
      <trkpt lat="45.96908" lon="4.55079">
        <ele>389</ele>
        <time>2014-11-30T09:44:50.000Z</time>
      </trkpt>
      <trkpt lat="45.96902" lon="4.55083">
        <ele>390</ele>
        <time>2014-11-30T09:44:54.000Z</time>
      </trkpt>
      <trkpt lat="45.96896" lon="4.55086">
        <ele>396</ele>
        <time>2014-11-30T09:44:58.000Z</time>
      </trkpt>
      <trkpt lat="45.9689" lon="4.55088">
        <ele>397</ele>
        <time>2014-11-30T09:45:01.000Z</time>
      </trkpt>
      <trkpt lat="45.96886" lon="4.55089">
        <ele>398</ele>
        <time>2014-11-30T09:45:04.000Z</time>
      </trkpt>
      <trkpt lat="45.96874" lon="4.55092">
        <ele>399</ele>
        <time>2014-11-30T09:45:11.000Z</time>
      </trkpt>
      <trkpt lat="45.96867" lon="4.55094">
        <ele>400</ele>
        <time>2014-11-30T09:45:15.000Z</time>
      </trkpt>
      <trkpt lat="45.96859" lon="4.55096">
        <ele>400</ele>
        <time>2014-11-30T09:45:22.000Z</time>
      </trkpt>
      <trkpt lat="45.96852" lon="4.55099">
        <ele>401</ele>
        <time>2014-11-30T09:45:27.000Z</time>
      </trkpt>
      <trkpt lat="45.9685" lon="4.551">
        <ele>401</ele>
        <time>2014-11-30T09:45:28.000Z</time>
      </trkpt>
      <trkpt lat="45.96846" lon="4.55102">
        <ele>401</ele>
        <time>2014-11-30T09:45:31.000Z</time>
      </trkpt>
      <trkpt lat="45.96838" lon="4.55105">
        <ele>401</ele>
        <time>2014-11-30T09:45:36.000Z</time>
      </trkpt>
      <trkpt lat="45.96831" lon="4.55109">
        <ele>406</ele>
        <time>2014-11-30T09:45:41.000Z</time>
      </trkpt>
      <trkpt lat="45.96826" lon="4.55111">
        <ele>406</ele>
        <time>2014-11-30T09:45:44.000Z</time>
      </trkpt>
      <trkpt lat="45.96818" lon="4.55115">
        <ele>407</ele>
        <time>2014-11-30T09:45:49.000Z</time>
      </trkpt>
      <trkpt lat="45.9681" lon="4.55119">
        <ele>408</ele>
        <time>2014-11-30T09:45:55.000Z</time>
      </trkpt>
      <trkpt lat="45.96801" lon="4.55121">
        <ele>408</ele>
        <time>2014-11-30T09:46:01.000Z</time>
      </trkpt>
      <trkpt lat="45.96797" lon="4.55124">
        <ele>409</ele>
        <time>2014-11-30T09:46:05.000Z</time>
      </trkpt>
      <trkpt lat="45.96785" lon="4.55129">
        <ele>409</ele>
        <time>2014-11-30T09:46:16.000Z</time>
      </trkpt>
      <trkpt lat="45.96779" lon="4.55132">
        <ele>410</ele>
        <time>2014-11-30T09:46:20.000Z</time>
      </trkpt>
      <trkpt lat="45.96772" lon="4.55134">
        <ele>410</ele>
        <time>2014-11-30T09:46:25.000Z</time>
      </trkpt>
      <trkpt lat="45.9677" lon="4.55135">
        <ele>410</ele>
        <time>2014-11-30T09:46:26.000Z</time>
      </trkpt>
      <trkpt lat="45.96764" lon="4.55135">
        <ele>410</ele>
        <time>2014-11-30T09:46:32.000Z</time>
      </trkpt>
      <trkpt lat="45.9676" lon="4.55136">
        <ele>411</ele>
        <time>2014-11-30T09:46:37.000Z</time>
      </trkpt>
      <trkpt lat="45.96756" lon="4.55134">
        <ele>411</ele>
        <time>2014-11-30T09:46:41.000Z</time>
      </trkpt>
      <trkpt lat="45.96753" lon="4.55135">
        <ele>411</ele>
        <time>2014-11-30T09:46:46.000Z</time>
      </trkpt>
      <trkpt lat="45.96752" lon="4.55134">
        <ele>411</ele>
        <time>2014-11-30T09:46:47.000Z</time>
      </trkpt>
      <trkpt lat="45.96748" lon="4.55133">
        <ele>423</ele>
        <time>2014-11-30T09:46:53.000Z</time>
      </trkpt>
      <trkpt lat="45.96747" lon="4.55134">
        <ele>423</ele>
        <time>2014-11-30T09:46:55.000Z</time>
      </trkpt>
      <trkpt lat="45.96744" lon="4.55135">
        <ele>423</ele>
        <time>2014-11-30T09:46:58.000Z</time>
      </trkpt>
      <trkpt lat="45.9674" lon="4.55132">
        <ele>423</ele>
        <time>2014-11-30T09:47:04.000Z</time>
      </trkpt>
      <trkpt lat="45.96737" lon="4.55133">
        <ele>424</ele>
        <time>2014-11-30T09:47:09.000Z</time>
      </trkpt>
      <trkpt lat="45.96732" lon="4.55133">
        <ele>424</ele>
        <time>2014-11-30T09:47:14.000Z</time>
      </trkpt>
      <trkpt lat="45.96725" lon="4.55135">
        <ele>425</ele>
        <time>2014-11-30T09:47:20.000Z</time>
      </trkpt>
      <trkpt lat="45.96721" lon="4.55136">
        <ele>426</ele>
        <time>2014-11-30T09:47:25.000Z</time>
      </trkpt>
      <trkpt lat="45.9672" lon="4.55135">
        <ele>426</ele>
        <time>2014-11-30T09:47:31.000Z</time>
      </trkpt>
      <trkpt lat="45.9672" lon="4.55134">
        <ele>426</ele>
        <time>2014-11-30T09:47:39.000Z</time>
      </trkpt>
      <trkpt lat="45.96716" lon="4.5512">
        <ele>427</ele>
        <time>2014-11-30T09:48:27.000Z</time>
      </trkpt>
      <trkpt lat="45.96716" lon="4.55117">
        <ele>427</ele>
        <time>2014-11-30T09:48:31.000Z</time>
      </trkpt>
      <trkpt lat="45.96716" lon="4.55114">
        <ele>427</ele>
        <time>2014-11-30T09:48:36.000Z</time>
      </trkpt>
      <trkpt lat="45.96714" lon="4.55111">
        <ele>428</ele>
        <time>2014-11-30T09:48:41.000Z</time>
      </trkpt>
      <trkpt lat="45.96713" lon="4.55108">
        <ele>428</ele>
        <time>2014-11-30T09:48:45.000Z</time>
      </trkpt>
      <trkpt lat="45.96711" lon="4.55105">
        <ele>428</ele>
        <time>2014-11-30T09:48:51.000Z</time>
      </trkpt>
      <trkpt lat="45.96709" lon="4.55102">
        <ele>428</ele>
        <time>2014-11-30T09:48:57.000Z</time>
      </trkpt>
      <trkpt lat="45.96708" lon="4.55098">
        <ele>429</ele>
        <time>2014-11-30T09:49:02.000Z</time>
      </trkpt>
      <trkpt lat="45.96706" lon="4.55095">
        <ele>429</ele>
        <time>2014-11-30T09:49:11.000Z</time>
      </trkpt>
      <trkpt lat="45.96705" lon="4.55091">
        <ele>429</ele>
        <time>2014-11-30T09:49:16.000Z</time>
      </trkpt>
      <trkpt lat="45.96702" lon="4.55088">
        <ele>430</ele>
        <time>2014-11-30T09:49:23.000Z</time>
      </trkpt>
      <trkpt lat="45.967" lon="4.55085">
        <ele>431</ele>
        <time>2014-11-30T09:49:28.000Z</time>
      </trkpt>
      <trkpt lat="45.96699" lon="4.55083">
        <ele>428</ele>
        <time>2014-11-30T09:49:31.000Z</time>
      </trkpt>
      <trkpt lat="45.96697" lon="4.5508">
        <ele>428</ele>
        <time>2014-11-30T09:49:34.000Z</time>
      </trkpt>
      <trkpt lat="45.96695" lon="4.55077">
        <ele>428</ele>
        <time>2014-11-30T09:49:38.000Z</time>
      </trkpt>
      <trkpt lat="45.96693" lon="4.55075">
        <ele>429</ele>
        <time>2014-11-30T09:49:40.000Z</time>
      </trkpt>
      <trkpt lat="45.96688" lon="4.55072">
        <ele>430</ele>
        <time>2014-11-30T09:49:46.000Z</time>
      </trkpt>
      <trkpt lat="45.96687" lon="4.55071">
        <ele>430</ele>
        <time>2014-11-30T09:49:47.000Z</time>
      </trkpt>
      <trkpt lat="45.96684" lon="4.55061">
        <ele>429</ele>
        <time>2014-11-30T09:52:02.000Z</time>
      </trkpt>
      <trkpt lat="45.96682" lon="4.55058">
        <ele>428</ele>
        <time>2014-11-30T09:52:07.000Z</time>
      </trkpt>
      <trkpt lat="45.96678" lon="4.55055">
        <ele>428</ele>
        <time>2014-11-30T09:52:10.000Z</time>
      </trkpt>
      <trkpt lat="45.96676" lon="4.55052">
        <ele>428</ele>
        <time>2014-11-30T09:52:17.000Z</time>
      </trkpt>
      <trkpt lat="45.96676" lon="4.55051">
        <ele>428</ele>
        <time>2014-11-30T09:52:18.000Z</time>
      </trkpt>
      <trkpt lat="45.96672" lon="4.55047">
        <ele>427</ele>
        <time>2014-11-30T09:52:22.000Z</time>
      </trkpt>
      <trkpt lat="45.96666" lon="4.55044">
        <ele>432</ele>
        <time>2014-11-30T09:52:28.000Z</time>
      </trkpt>
      <trkpt lat="45.9666" lon="4.55044">
        <ele>432</ele>
        <time>2014-11-30T09:52:32.000Z</time>
      </trkpt>
      <trkpt lat="45.96656" lon="4.55042">
        <ele>432</ele>
        <time>2014-11-30T09:52:34.000Z</time>
      </trkpt>
      <trkpt lat="45.96652" lon="4.55039">
        <ele>431</ele>
        <time>2014-11-30T09:52:37.000Z</time>
      </trkpt>
      <trkpt lat="45.96643" lon="4.55031">
        <ele>430</ele>
        <time>2014-11-30T09:52:42.000Z</time>
      </trkpt>
      <trkpt lat="45.96641" lon="4.55031">
        <ele>430</ele>
        <time>2014-11-30T09:52:43.000Z</time>
      </trkpt>
      <trkpt lat="45.96636" lon="4.55032">
        <ele>430</ele>
        <time>2014-11-30T09:52:46.000Z</time>
      </trkpt>
      <trkpt lat="45.96635" lon="4.55032">
        <ele>430</ele>
        <time>2014-11-30T09:52:48.000Z</time>
      </trkpt>
      <trkpt lat="45.96631" lon="4.55032">
        <ele>430</ele>
        <time>2014-11-30T09:52:51.000Z</time>
      </trkpt>
      <trkpt lat="45.96626" lon="4.5503">
        <ele>430</ele>
        <time>2014-11-30T09:52:55.000Z</time>
      </trkpt>
      <trkpt lat="45.96618" lon="4.55033">
        <ele>430</ele>
        <time>2014-11-30T09:53:01.000Z</time>
      </trkpt>
      <trkpt lat="45.96616" lon="4.55032">
        <ele>430</ele>
        <time>2014-11-30T09:53:03.000Z</time>
      </trkpt>
      <trkpt lat="45.96614" lon="4.55031">
        <ele>430</ele>
        <time>2014-11-30T09:53:05.000Z</time>
      </trkpt>
      <trkpt lat="45.96605" lon="4.55035">
        <ele>430</ele>
        <time>2014-11-30T09:53:12.000Z</time>
      </trkpt>
      <trkpt lat="45.96601" lon="4.55035">
        <ele>430</ele>
        <time>2014-11-30T09:53:16.000Z</time>
      </trkpt>
      <trkpt lat="45.96598" lon="4.55035">
        <ele>430</ele>
        <time>2014-11-30T09:53:18.000Z</time>
      </trkpt>
      <trkpt lat="45.96595" lon="4.55035">
        <ele>430</ele>
        <time>2014-11-30T09:53:22.000Z</time>
      </trkpt>
      <trkpt lat="45.96591" lon="4.55032">
        <ele>429</ele>
        <time>2014-11-30T09:53:27.000Z</time>
      </trkpt>
      <trkpt lat="45.96587" lon="4.5503">
        <ele>429</ele>
        <time>2014-11-30T09:53:31.000Z</time>
      </trkpt>
      <trkpt lat="45.96586" lon="4.55031">
        <ele>429</ele>
        <time>2014-11-30T09:53:32.000Z</time>
      </trkpt>
      <trkpt lat="45.96584" lon="4.55031">
        <ele>429</ele>
        <time>2014-11-30T09:53:34.000Z</time>
      </trkpt>
      <trkpt lat="45.96584" lon="4.5503">
        <ele>429</ele>
        <time>2014-11-30T09:53:35.000Z</time>
      </trkpt>
      <trkpt lat="45.96576" lon="4.55033">
        <ele>431</ele>
        <time>2014-11-30T09:53:42.000Z</time>
      </trkpt>
      <trkpt lat="45.96569" lon="4.55034">
        <ele>432</ele>
        <time>2014-11-30T09:53:47.000Z</time>
      </trkpt>
      <trkpt lat="45.96566" lon="4.55033">
        <ele>432</ele>
        <time>2014-11-30T09:53:49.000Z</time>
      </trkpt>
      <trkpt lat="45.96564" lon="4.55031">
        <ele>432</ele>
        <time>2014-11-30T09:53:51.000Z</time>
      </trkpt>
      <trkpt lat="45.96557" lon="4.5503">
        <ele>432</ele>
        <time>2014-11-30T09:53:57.000Z</time>
      </trkpt>
      <trkpt lat="45.96554" lon="4.55029">
        <ele>432</ele>
        <time>2014-11-30T09:54:00.000Z</time>
      </trkpt>
      <trkpt lat="45.9655" lon="4.55029">
        <ele>432</ele>
        <time>2014-11-30T09:54:10.000Z</time>
      </trkpt>
      <trkpt lat="45.96547" lon="4.55029">
        <ele>432</ele>
        <time>2014-11-30T09:54:18.000Z</time>
      </trkpt>
      <trkpt lat="45.96544" lon="4.5503">
        <ele>433</ele>
        <time>2014-11-30T09:54:29.000Z</time>
      </trkpt>
      <trkpt lat="45.96537" lon="4.55022">
        <ele>431</ele>
        <time>2014-11-30T09:54:36.000Z</time>
      </trkpt>
      <trkpt lat="45.96536" lon="4.5502">
        <ele>431</ele>
        <time>2014-11-30T09:54:37.000Z</time>
      </trkpt>
      <trkpt lat="45.96531" lon="4.55018">
        <ele>431</ele>
        <time>2014-11-30T09:54:41.000Z</time>
      </trkpt>
      <trkpt lat="45.96524" lon="4.5501">
        <ele>429</ele>
        <time>2014-11-30T09:54:47.000Z</time>
      </trkpt>
      <trkpt lat="45.96522" lon="4.55008">
        <ele>429</ele>
        <time>2014-11-30T09:54:49.000Z</time>
      </trkpt>
      <trkpt lat="45.96514" lon="4.55002">
        <ele>427</ele>
        <time>2014-11-30T09:54:55.000Z</time>
      </trkpt>
      <trkpt lat="45.9651" lon="4.54998">
        <ele>417</ele>
        <time>2014-11-30T09:55:01.000Z</time>
      </trkpt>
      <trkpt lat="45.96509" lon="4.54998">
        <ele>417</ele>
        <time>2014-11-30T09:55:02.000Z</time>
      </trkpt>
      <trkpt lat="45.96507" lon="4.54997">
        <ele>418</ele>
        <time>2014-11-30T09:55:05.000Z</time>
      </trkpt>
      <trkpt lat="45.96505" lon="4.54998">
        <ele>419</ele>
        <time>2014-11-30T09:55:07.000Z</time>
      </trkpt>
      <trkpt lat="45.96502" lon="4.54998">
        <ele>420</ele>
        <time>2014-11-30T09:55:11.000Z</time>
      </trkpt>
      <trkpt lat="45.96498" lon="4.54996">
        <ele>421</ele>
        <time>2014-11-30T09:55:15.000Z</time>
      </trkpt>
      <trkpt lat="45.96494" lon="4.54997">
        <ele>421</ele>
        <time>2014-11-30T09:55:31.000Z</time>
      </trkpt>
      <trkpt lat="45.96489" lon="4.54998">
        <ele>420</ele>
        <time>2014-11-30T09:55:36.000Z</time>
      </trkpt>
      <trkpt lat="45.96485" lon="4.54997">
        <ele>420</ele>
        <time>2014-11-30T09:55:39.000Z</time>
      </trkpt>
      <trkpt lat="45.96482" lon="4.55">
        <ele>430</ele>
        <time>2014-11-30T09:55:44.000Z</time>
      </trkpt>
      <trkpt lat="45.96481" lon="4.55002">
        <ele>430</ele>
        <time>2014-11-30T09:55:46.000Z</time>
      </trkpt>
      <trkpt lat="45.96481" lon="4.55002">
        <ele>430</ele>
        <time>2014-11-30T09:55:47.000Z</time>
      </trkpt>
      <trkpt lat="45.96475" lon="4.55006">
        <ele>431</ele>
        <time>2014-11-30T09:55:53.000Z</time>
      </trkpt>
      <trkpt lat="45.96472" lon="4.55006">
        <ele>432</ele>
        <time>2014-11-30T09:55:56.000Z</time>
      </trkpt>
      <trkpt lat="45.96469" lon="4.55009">
        <ele>433</ele>
        <time>2014-11-30T09:55:59.000Z</time>
      </trkpt>
      <trkpt lat="45.96461" lon="4.55013">
        <ele>434</ele>
        <time>2014-11-30T09:56:04.000Z</time>
      </trkpt>
      <trkpt lat="45.96456" lon="4.55015">
        <ele>434</ele>
        <time>2014-11-30T09:56:07.000Z</time>
      </trkpt>
      <trkpt lat="45.96455" lon="4.55016">
        <ele>434</ele>
        <time>2014-11-30T09:56:08.000Z</time>
      </trkpt>
      <trkpt lat="45.9645" lon="4.55019">
        <ele>434</ele>
        <time>2014-11-30T09:56:13.000Z</time>
      </trkpt>
      <trkpt lat="45.96439" lon="4.55015">
        <ele>433</ele>
        <time>2014-11-30T09:56:39.000Z</time>
      </trkpt>
      <trkpt lat="45.96438" lon="4.55014">
        <ele>433</ele>
        <time>2014-11-30T09:56:40.000Z</time>
      </trkpt>
      <trkpt lat="45.96433" lon="4.55012">
        <ele>433</ele>
        <time>2014-11-30T09:56:45.000Z</time>
      </trkpt>
      <trkpt lat="45.96432" lon="4.55011">
        <ele>432</ele>
        <time>2014-11-30T09:56:47.000Z</time>
      </trkpt>
      <trkpt lat="45.96429" lon="4.55007">
        <ele>431</ele>
        <time>2014-11-30T09:56:52.000Z</time>
      </trkpt>
      <trkpt lat="45.96427" lon="4.55007">
        <ele>431</ele>
        <time>2014-11-30T09:56:53.000Z</time>
      </trkpt>
      <trkpt lat="45.96427" lon="4.55007">
        <ele>431</ele>
        <time>2014-11-30T09:56:54.000Z</time>
      </trkpt>
      <trkpt lat="45.96423" lon="4.55004">
        <ele>429</ele>
        <time>2014-11-30T09:56:59.000Z</time>
      </trkpt>
      <trkpt lat="45.96421" lon="4.55001">
        <ele>429</ele>
        <time>2014-11-30T09:57:01.000Z</time>
      </trkpt>
      <trkpt lat="45.96419" lon="4.54999">
        <ele>426</ele>
        <time>2014-11-30T09:57:03.000Z</time>
      </trkpt>
      <trkpt lat="45.96419" lon="4.54997">
        <ele>426</ele>
        <time>2014-11-30T09:57:05.000Z</time>
      </trkpt>
      <trkpt lat="45.96418" lon="4.54989">
        <ele>424</ele>
        <time>2014-11-30T09:57:10.000Z</time>
      </trkpt>
      <trkpt lat="45.96417" lon="4.54983">
        <ele>422</ele>
        <time>2014-11-30T09:57:14.000Z</time>
      </trkpt>
      <trkpt lat="45.96412" lon="4.5498">
        <ele>430</ele>
        <time>2014-11-30T09:57:20.000Z</time>
      </trkpt>
      <trkpt lat="45.96406" lon="4.54977">
        <ele>430</ele>
        <time>2014-11-30T09:57:25.000Z</time>
      </trkpt>
      <trkpt lat="45.96406" lon="4.54977">
        <ele>430</ele>
        <time>2014-11-30T09:57:26.000Z</time>
      </trkpt>
      <trkpt lat="45.96403" lon="4.54971">
        <ele>431</ele>
        <time>2014-11-30T09:57:30.000Z</time>
      </trkpt>
      <trkpt lat="45.96399" lon="4.54963">
        <ele>431</ele>
        <time>2014-11-30T09:57:44.000Z</time>
      </trkpt>
      <trkpt lat="45.964" lon="4.5496">
        <ele>430</ele>
        <time>2014-11-30T09:57:46.000Z</time>
      </trkpt>
      <trkpt lat="45.96399" lon="4.54955">
        <ele>430</ele>
        <time>2014-11-30T09:57:52.000Z</time>
      </trkpt>
      <trkpt lat="45.96399" lon="4.54948">
        <ele>429</ele>
        <time>2014-11-30T09:57:57.000Z</time>
      </trkpt>
      <trkpt lat="45.964" lon="4.54945">
        <ele>429</ele>
        <time>2014-11-30T09:58:01.000Z</time>
      </trkpt>
      <trkpt lat="45.96396" lon="4.54931">
        <ele>428</ele>
        <time>2014-11-30T09:58:09.000Z</time>
      </trkpt>
      <trkpt lat="45.96396" lon="4.54927">
        <ele>427</ele>
        <time>2014-11-30T09:58:12.000Z</time>
      </trkpt>
      <trkpt lat="45.96396" lon="4.54926">
        <ele>427</ele>
        <time>2014-11-30T09:58:14.000Z</time>
      </trkpt>
      <trkpt lat="45.96397" lon="4.54922">
        <ele>427</ele>
        <time>2014-11-30T09:58:18.000Z</time>
      </trkpt>
      <trkpt lat="45.96395" lon="4.54917">
        <ele>427</ele>
        <time>2014-11-30T09:58:28.000Z</time>
      </trkpt>
      <trkpt lat="45.96392" lon="4.54914">
        <ele>420</ele>
        <time>2014-11-30T09:58:32.000Z</time>
      </trkpt>
      <trkpt lat="45.9639" lon="4.54912">
        <ele>420</ele>
        <time>2014-11-30T09:58:37.000Z</time>
      </trkpt>
      <trkpt lat="45.96388" lon="4.5491">
        <ele>420</ele>
        <time>2014-11-30T09:58:42.000Z</time>
      </trkpt>
      <trkpt lat="45.96385" lon="4.54902">
        <ele>420</ele>
        <time>2014-11-30T09:58:52.000Z</time>
      </trkpt>
      <trkpt lat="45.96385" lon="4.54901">
        <ele>420</ele>
        <time>2014-11-30T09:58:53.000Z</time>
      </trkpt>
      <trkpt lat="45.96381" lon="4.54899">
        <ele>421</ele>
        <time>2014-11-30T09:59:01.000Z</time>
      </trkpt>
      <trkpt lat="45.96377" lon="4.549">
        <ele>421</ele>
        <time>2014-11-30T09:59:06.000Z</time>
      </trkpt>
      <trkpt lat="45.96372" lon="4.54902">
        <ele>422</ele>
        <time>2014-11-30T09:59:12.000Z</time>
      </trkpt>
      <trkpt lat="45.96372" lon="4.54902">
        <ele>422</ele>
        <time>2014-11-30T09:59:13.000Z</time>
      </trkpt>
      <trkpt lat="45.96369" lon="4.54909">
        <ele>423</ele>
        <time>2014-11-30T09:59:20.000Z</time>
      </trkpt>
      <trkpt lat="45.96366" lon="4.54911">
        <ele>423</ele>
        <time>2014-11-30T09:59:24.000Z</time>
      </trkpt>
      <trkpt lat="45.96365" lon="4.54913">
        <ele>424</ele>
        <time>2014-11-30T09:59:26.000Z</time>
      </trkpt>
      <trkpt lat="45.96363" lon="4.54915">
        <ele>424</ele>
        <time>2014-11-30T09:59:30.000Z</time>
      </trkpt>
      <trkpt lat="45.9636" lon="4.54914">
        <ele>425</ele>
        <time>2014-11-30T09:59:36.000Z</time>
      </trkpt>
      <trkpt lat="45.96353" lon="4.54909">
        <ele>426</ele>
        <time>2014-11-30T10:00:32.000Z</time>
      </trkpt>
      <trkpt lat="45.9635" lon="4.54894">
        <ele>424</ele>
        <time>2014-11-30T10:00:39.000Z</time>
      </trkpt>
      <trkpt lat="45.96346" lon="4.54879">
        <ele>422</ele>
        <time>2014-11-30T10:00:44.000Z</time>
      </trkpt>
      <trkpt lat="45.96339" lon="4.54862">
        <ele>420</ele>
        <time>2014-11-30T10:00:49.000Z</time>
      </trkpt>
      <trkpt lat="45.96332" lon="4.54852">
        <ele>422</ele>
        <time>2014-11-30T10:00:53.000Z</time>
      </trkpt>
      <trkpt lat="45.9633" lon="4.54851">
        <ele>422</ele>
        <time>2014-11-30T10:00:54.000Z</time>
      </trkpt>
      <trkpt lat="45.96321" lon="4.54836">
        <ele>421</ele>
        <time>2014-11-30T10:01:00.000Z</time>
      </trkpt>
      <trkpt lat="45.96319" lon="4.54834">
        <ele>421</ele>
        <time>2014-11-30T10:01:01.000Z</time>
      </trkpt>
      <trkpt lat="45.96315" lon="4.54829">
        <ele>412</ele>
        <time>2014-11-30T10:01:04.000Z</time>
      </trkpt>
      <trkpt lat="45.96305" lon="4.54814">
        <ele>409</ele>
        <time>2014-11-30T10:01:11.000Z</time>
      </trkpt>
      <trkpt lat="45.963" lon="4.54802">
        <ele>408</ele>
        <time>2014-11-30T10:01:15.000Z</time>
      </trkpt>
      <trkpt lat="45.96288" lon="4.54788">
        <ele>406</ele>
        <time>2014-11-30T10:01:19.000Z</time>
      </trkpt>
      <trkpt lat="45.96275" lon="4.54793">
        <ele>406</ele>
        <time>2014-11-30T10:01:25.000Z</time>
      </trkpt>
      <trkpt lat="45.96274" lon="4.54794">
        <ele>407</ele>
        <time>2014-11-30T10:01:26.000Z</time>
      </trkpt>
      <trkpt lat="45.96269" lon="4.54797">
        <ele>407</ele>
        <time>2014-11-30T10:01:30.000Z</time>
      </trkpt>
      <trkpt lat="45.96263" lon="4.54801">
        <ele>408</ele>
        <time>2014-11-30T10:01:35.000Z</time>
      </trkpt>
      <trkpt lat="45.96257" lon="4.54805">
        <ele>409</ele>
        <time>2014-11-30T10:01:39.000Z</time>
      </trkpt>
      <trkpt lat="45.96251" lon="4.54808">
        <ele>410</ele>
        <time>2014-11-30T10:01:42.000Z</time>
      </trkpt>
      <trkpt lat="45.96247" lon="4.54812">
        <ele>411</ele>
        <time>2014-11-30T10:01:46.000Z</time>
      </trkpt>
      <trkpt lat="45.9624" lon="4.54814">
        <ele>411</ele>
        <time>2014-11-30T10:01:51.000Z</time>
      </trkpt>
      <trkpt lat="45.96232" lon="4.5482">
        <ele>411</ele>
        <time>2014-11-30T10:01:58.000Z</time>
      </trkpt>
      <trkpt lat="45.96228" lon="4.54825">
        <ele>411</ele>
        <time>2014-11-30T10:02:03.000Z</time>
      </trkpt>
      <trkpt lat="45.96225" lon="4.54827">
        <ele>411</ele>
        <time>2014-11-30T10:02:06.000Z</time>
      </trkpt>
      <trkpt lat="45.9622" lon="4.54827">
        <ele>411</ele>
        <time>2014-11-30T10:02:25.000Z</time>
      </trkpt>
      <trkpt lat="45.96216" lon="4.54824">
        <ele>410</ele>
        <time>2014-11-30T10:02:35.000Z</time>
      </trkpt>
      <trkpt lat="45.96215" lon="4.54818">
        <ele>410</ele>
        <time>2014-11-30T10:02:39.000Z</time>
      </trkpt>
      <trkpt lat="45.96212" lon="4.54816">
        <ele>409</ele>
        <time>2014-11-30T10:02:44.000Z</time>
      </trkpt>
      <trkpt lat="45.96211" lon="4.54816">
        <ele>409</ele>
        <time>2014-11-30T10:02:45.000Z</time>
      </trkpt>
      <trkpt lat="45.9621" lon="4.54815">
        <ele>409</ele>
        <time>2014-11-30T10:02:46.000Z</time>
      </trkpt>
      <trkpt lat="45.96204" lon="4.54814">
        <ele>409</ele>
        <time>2014-11-30T10:02:52.000Z</time>
      </trkpt>
      <trkpt lat="45.96203" lon="4.54813">
        <ele>409</ele>
        <time>2014-11-30T10:02:53.000Z</time>
      </trkpt>
      <trkpt lat="45.962" lon="4.54812">
        <ele>409</ele>
        <time>2014-11-30T10:02:56.000Z</time>
      </trkpt>
      <trkpt lat="45.96198" lon="4.54805">
        <ele>408</ele>
        <time>2014-11-30T10:03:01.000Z</time>
      </trkpt>
      <trkpt lat="45.96198" lon="4.54804">
        <ele>408</ele>
        <time>2014-11-30T10:03:02.000Z</time>
      </trkpt>
      <trkpt lat="45.96197" lon="4.54803">
        <ele>408</ele>
        <time>2014-11-30T10:03:03.000Z</time>
      </trkpt>
      <trkpt lat="45.96195" lon="4.54802">
        <ele>408</ele>
        <time>2014-11-30T10:03:06.000Z</time>
      </trkpt>
      <trkpt lat="45.96194" lon="4.54801">
        <ele>408</ele>
        <time>2014-11-30T10:03:07.000Z</time>
      </trkpt>
      <trkpt lat="45.96191" lon="4.54792">
        <ele>407</ele>
        <time>2014-11-30T10:03:17.000Z</time>
      </trkpt>
      <trkpt lat="45.96186" lon="4.54788">
        <ele>407</ele>
        <time>2014-11-30T10:03:21.000Z</time>
      </trkpt>
      <trkpt lat="45.96181" lon="4.54785">
        <ele>406</ele>
        <time>2014-11-30T10:03:25.000Z</time>
      </trkpt>
      <trkpt lat="45.96179" lon="4.54783">
        <ele>406</ele>
        <time>2014-11-30T10:03:28.000Z</time>
      </trkpt>
      <trkpt lat="45.96177" lon="4.54778">
        <ele>406</ele>
        <time>2014-11-30T10:03:32.000Z</time>
      </trkpt>
      <trkpt lat="45.96175" lon="4.54778">
        <ele>406</ele>
        <time>2014-11-30T10:03:34.000Z</time>
      </trkpt>
      <trkpt lat="45.96172" lon="4.54778">
        <ele>406</ele>
        <time>2014-11-30T10:03:36.000Z</time>
      </trkpt>
      <trkpt lat="45.9617" lon="4.54769">
        <ele>404</ele>
        <time>2014-11-30T10:03:42.000Z</time>
      </trkpt>
      <trkpt lat="45.96169" lon="4.54767">
        <ele>404</ele>
        <time>2014-11-30T10:03:43.000Z</time>
      </trkpt>
      <trkpt lat="45.96169" lon="4.54765">
        <ele>404</ele>
        <time>2014-11-30T10:03:45.000Z</time>
      </trkpt>
      <trkpt lat="45.96167" lon="4.54762">
        <ele>403</ele>
        <time>2014-11-30T10:03:49.000Z</time>
      </trkpt>
      <trkpt lat="45.96166" lon="4.54757">
        <ele>404</ele>
        <time>2014-11-30T10:03:58.000Z</time>
      </trkpt>
      <trkpt lat="45.96161" lon="4.54746">
        <ele>401</ele>
        <time>2014-11-30T10:04:23.000Z</time>
      </trkpt>
      <trkpt lat="45.9616" lon="4.54741">
        <ele>401</ele>
        <time>2014-11-30T10:04:27.000Z</time>
      </trkpt>
      <trkpt lat="45.96157" lon="4.54732">
        <ele>401</ele>
        <time>2014-11-30T10:04:32.000Z</time>
      </trkpt>
      <trkpt lat="45.96155" lon="4.54729">
        <ele>401</ele>
        <time>2014-11-30T10:04:34.000Z</time>
      </trkpt>
      <trkpt lat="45.96155" lon="4.54719">
        <ele>401</ele>
        <time>2014-11-30T10:04:41.000Z</time>
      </trkpt>
      <trkpt lat="45.96153" lon="4.54716">
        <ele>400</ele>
        <time>2014-11-30T10:04:44.000Z</time>
      </trkpt>
      <trkpt lat="45.96151" lon="4.54702">
        <ele>399</ele>
        <time>2014-11-30T10:04:53.000Z</time>
      </trkpt>
      <trkpt lat="45.96151" lon="4.54698">
        <ele>399</ele>
        <time>2014-11-30T10:04:59.000Z</time>
      </trkpt>
      <trkpt lat="45.96149" lon="4.54695">
        <ele>398</ele>
        <time>2014-11-30T10:05:05.000Z</time>
      </trkpt>
      <trkpt lat="45.96145" lon="4.54692">
        <ele>399</ele>
        <time>2014-11-30T10:05:09.000Z</time>
      </trkpt>
      <trkpt lat="45.96141" lon="4.54692">
        <ele>399</ele>
        <time>2014-11-30T10:05:13.000Z</time>
      </trkpt>
      <trkpt lat="45.96139" lon="4.54691">
        <ele>399</ele>
        <time>2014-11-30T10:05:15.000Z</time>
      </trkpt>
      <trkpt lat="45.96131" lon="4.5469">
        <ele>400</ele>
        <time>2014-11-30T10:05:22.000Z</time>
      </trkpt>
      <trkpt lat="45.96124" lon="4.54687">
        <ele>400</ele>
        <time>2014-11-30T10:05:28.000Z</time>
      </trkpt>
      <trkpt lat="45.96119" lon="4.54686">
        <ele>401</ele>
        <time>2014-11-30T10:05:32.000Z</time>
      </trkpt>
      <trkpt lat="45.96113" lon="4.54685">
        <ele>401</ele>
        <time>2014-11-30T10:05:38.000Z</time>
      </trkpt>
      <trkpt lat="45.96109" lon="4.5468">
        <ele>401</ele>
        <time>2014-11-30T10:05:43.000Z</time>
      </trkpt>
      <trkpt lat="45.96107" lon="4.54679">
        <ele>401</ele>
        <time>2014-11-30T10:05:45.000Z</time>
      </trkpt>
      <trkpt lat="45.96106" lon="4.54678">
        <ele>401</ele>
        <time>2014-11-30T10:05:47.000Z</time>
      </trkpt>
      <trkpt lat="45.96103" lon="4.54672">
        <ele>401</ele>
        <time>2014-11-30T10:05:52.000Z</time>
      </trkpt>
      <trkpt lat="45.961" lon="4.54671">
        <ele>401</ele>
        <time>2014-11-30T10:05:54.000Z</time>
      </trkpt>
      <trkpt lat="45.96097" lon="4.5467">
        <ele>401</ele>
        <time>2014-11-30T10:05:56.000Z</time>
      </trkpt>
      <trkpt lat="45.96092" lon="4.54666">
        <ele>396</ele>
        <time>2014-11-30T10:05:59.000Z</time>
      </trkpt>
      <trkpt lat="45.96088" lon="4.54661">
        <ele>397</ele>
        <time>2014-11-30T10:06:02.000Z</time>
      </trkpt>
      <trkpt lat="45.96082" lon="4.54652">
        <ele>398</ele>
        <time>2014-11-30T10:06:12.000Z</time>
      </trkpt>
      <trkpt lat="45.96079" lon="4.5465">
        <ele>398</ele>
        <time>2014-11-30T10:06:14.000Z</time>
      </trkpt>
      <trkpt lat="45.96074" lon="4.54648">
        <ele>398</ele>
        <time>2014-11-30T10:06:18.000Z</time>
      </trkpt>
      <trkpt lat="45.96068" lon="4.54644">
        <ele>397</ele>
        <time>2014-11-30T10:06:23.000Z</time>
      </trkpt>
      <trkpt lat="45.96068" lon="4.54643">
        <ele>397</ele>
        <time>2014-11-30T10:06:24.000Z</time>
      </trkpt>
      <trkpt lat="45.96067" lon="4.54643">
        <ele>397</ele>
        <time>2014-11-30T10:06:25.000Z</time>
      </trkpt>
      <trkpt lat="45.96064" lon="4.5464">
        <ele>396</ele>
        <time>2014-11-30T10:06:28.000Z</time>
      </trkpt>
      <trkpt lat="45.96063" lon="4.54639">
        <ele>396</ele>
        <time>2014-11-30T10:06:29.000Z</time>
      </trkpt>
      <trkpt lat="45.9606" lon="4.54631">
        <ele>395</ele>
        <time>2014-11-30T10:06:33.000Z</time>
      </trkpt>
      <trkpt lat="45.96056" lon="4.54625">
        <ele>395</ele>
        <time>2014-11-30T10:06:36.000Z</time>
      </trkpt>
      <trkpt lat="45.96055" lon="4.5462">
        <ele>394</ele>
        <time>2014-11-30T10:06:40.000Z</time>
      </trkpt>
      <trkpt lat="45.9605" lon="4.54615">
        <ele>394</ele>
        <time>2014-11-30T10:06:45.000Z</time>
      </trkpt>
      <trkpt lat="45.9605" lon="4.54611">
        <ele>394</ele>
        <time>2014-11-30T10:06:50.000Z</time>
      </trkpt>
      <trkpt lat="45.96048" lon="4.54605">
        <ele>393</ele>
        <time>2014-11-30T10:07:03.000Z</time>
      </trkpt>
      <trkpt lat="45.96043" lon="4.54597">
        <ele>393</ele>
        <time>2014-11-30T10:07:07.000Z</time>
      </trkpt>
      <trkpt lat="45.96041" lon="4.54589">
        <ele>393</ele>
        <time>2014-11-30T10:07:11.000Z</time>
      </trkpt>
      <trkpt lat="45.96038" lon="4.54587">
        <ele>393</ele>
        <time>2014-11-30T10:07:15.000Z</time>
      </trkpt>
      <trkpt lat="45.96039" lon="4.54579">
        <ele>382</ele>
        <time>2014-11-30T10:07:21.000Z</time>
      </trkpt>
      <trkpt lat="45.96039" lon="4.54575">
        <ele>382</ele>
        <time>2014-11-30T10:07:24.000Z</time>
      </trkpt>
      <trkpt lat="45.96034" lon="4.54568">
        <ele>382</ele>
        <time>2014-11-30T10:07:37.000Z</time>
      </trkpt>
      <trkpt lat="45.96027" lon="4.54554">
        <ele>381</ele>
        <time>2014-11-30T10:07:44.000Z</time>
      </trkpt>
      <trkpt lat="45.9602" lon="4.54541">
        <ele>381</ele>
        <time>2014-11-30T10:07:49.000Z</time>
      </trkpt>
      <trkpt lat="45.96013" lon="4.54524">
        <ele>380</ele>
        <time>2014-11-30T10:07:54.000Z</time>
      </trkpt>
      <trkpt lat="45.96004" lon="4.54506">
        <ele>381</ele>
        <time>2014-11-30T10:07:59.000Z</time>
      </trkpt>
      <trkpt lat="45.95998" lon="4.54495">
        <ele>382</ele>
        <time>2014-11-30T10:08:03.000Z</time>
      </trkpt>
      <trkpt lat="45.95996" lon="4.54492">
        <ele>381</ele>
        <time>2014-11-30T10:08:04.000Z</time>
      </trkpt>
      <trkpt lat="45.95992" lon="4.54487">
        <ele>381</ele>
        <time>2014-11-30T10:08:07.000Z</time>
      </trkpt>
      <trkpt lat="45.95988" lon="4.54483">
        <ele>381</ele>
        <time>2014-11-30T10:08:13.000Z</time>
      </trkpt>
      <trkpt lat="45.95986" lon="4.5448">
        <ele>380</ele>
        <time>2014-11-30T10:08:15.000Z</time>
      </trkpt>
      <trkpt lat="45.95983" lon="4.54477">
        <ele>380</ele>
        <time>2014-11-30T10:08:19.000Z</time>
      </trkpt>
      <trkpt lat="45.95982" lon="4.54476">
        <ele>380</ele>
        <time>2014-11-30T10:08:20.000Z</time>
      </trkpt>
      <trkpt lat="45.95976" lon="4.54459">
        <ele>378</ele>
        <time>2014-11-30T10:08:27.000Z</time>
      </trkpt>
      <trkpt lat="45.95975" lon="4.54456">
        <ele>378</ele>
        <time>2014-11-30T10:08:28.000Z</time>
      </trkpt>
      <trkpt lat="45.95971" lon="4.54449">
        <ele>377</ele>
        <time>2014-11-30T10:08:33.000Z</time>
      </trkpt>
      <trkpt lat="45.95963" lon="4.54439">
        <ele>377</ele>
        <time>2014-11-30T10:08:39.000Z</time>
      </trkpt>
      <trkpt lat="45.95961" lon="4.54437">
        <ele>377</ele>
        <time>2014-11-30T10:08:40.000Z</time>
      </trkpt>
      <trkpt lat="45.95957" lon="4.54431">
        <ele>377</ele>
        <time>2014-11-30T10:08:44.000Z</time>
      </trkpt>
      <trkpt lat="45.95955" lon="4.54429">
        <ele>377</ele>
        <time>2014-11-30T10:08:46.000Z</time>
      </trkpt>
      <trkpt lat="45.95951" lon="4.54424">
        <ele>377</ele>
        <time>2014-11-30T10:08:50.000Z</time>
      </trkpt>
      <trkpt lat="45.9595" lon="4.54422">
        <ele>378</ele>
        <time>2014-11-30T10:08:52.000Z</time>
      </trkpt>
      <trkpt lat="45.95948" lon="4.54421">
        <ele>378</ele>
        <time>2014-11-30T10:08:54.000Z</time>
      </trkpt>
      <trkpt lat="45.95943" lon="4.54415">
        <ele>367</ele>
        <time>2014-11-30T10:08:59.000Z</time>
      </trkpt>
      <trkpt lat="45.95937" lon="4.54409">
        <ele>368</ele>
        <time>2014-11-30T10:09:06.000Z</time>
      </trkpt>
      <trkpt lat="45.95935" lon="4.54406">
        <ele>368</ele>
        <time>2014-11-30T10:09:11.000Z</time>
      </trkpt>
      <trkpt lat="45.95931" lon="4.54402">
        <ele>368</ele>
        <time>2014-11-30T10:09:17.000Z</time>
      </trkpt>
      <trkpt lat="45.95923" lon="4.54382">
        <ele>365</ele>
        <time>2014-11-30T10:09:28.000Z</time>
      </trkpt>
      <trkpt lat="45.9592" lon="4.54377">
        <ele>364</ele>
        <time>2014-11-30T10:09:32.000Z</time>
      </trkpt>
      <trkpt lat="45.9592" lon="4.54376">
        <ele>364</ele>
        <time>2014-11-30T10:09:33.000Z</time>
      </trkpt>
      <trkpt lat="45.9592" lon="4.54375">
        <ele>364</ele>
        <time>2014-11-30T10:09:34.000Z</time>
      </trkpt>
      <trkpt lat="45.95916" lon="4.54367">
        <ele>365</ele>
        <time>2014-11-30T10:09:40.000Z</time>
      </trkpt>
      <trkpt lat="45.95915" lon="4.54367">
        <ele>365</ele>
        <time>2014-11-30T10:09:41.000Z</time>
      </trkpt>
      <trkpt lat="45.95914" lon="4.54366">
        <ele>365</ele>
        <time>2014-11-30T10:09:42.000Z</time>
      </trkpt>
      <trkpt lat="45.95911" lon="4.54365">
        <ele>364</ele>
        <time>2014-11-30T10:09:47.000Z</time>
      </trkpt>
      <trkpt lat="45.9591" lon="4.54365">
        <ele>364</ele>
        <time>2014-11-30T10:09:49.000Z</time>
      </trkpt>
      <trkpt lat="45.95904" lon="4.54365">
        <ele>364</ele>
        <time>2014-11-30T10:09:56.000Z</time>
      </trkpt>
      <trkpt lat="45.95902" lon="4.54363">
        <ele>364</ele>
        <time>2014-11-30T10:09:59.000Z</time>
      </trkpt>
      <trkpt lat="45.95898" lon="4.54363">
        <ele>364</ele>
        <time>2014-11-30T10:10:03.000Z</time>
      </trkpt>
      <trkpt lat="45.95897" lon="4.54364">
        <ele>364</ele>
        <time>2014-11-30T10:10:05.000Z</time>
      </trkpt>
      <trkpt lat="45.95894" lon="4.54365">
        <ele>364</ele>
        <time>2014-11-30T10:10:08.000Z</time>
      </trkpt>
      <trkpt lat="45.95891" lon="4.54369">
        <ele>364</ele>
        <time>2014-11-30T10:10:12.000Z</time>
      </trkpt>
      <trkpt lat="45.95889" lon="4.54372">
        <ele>364</ele>
        <time>2014-11-30T10:10:19.000Z</time>
      </trkpt>
      <trkpt lat="45.95886" lon="4.54372">
        <ele>364</ele>
        <time>2014-11-30T10:10:23.000Z</time>
      </trkpt>
      <trkpt lat="45.9588" lon="4.5437">
        <ele>363</ele>
        <time>2014-11-30T10:10:45.000Z</time>
      </trkpt>
      <trkpt lat="45.95875" lon="4.54369">
        <ele>363</ele>
        <time>2014-11-30T10:10:51.000Z</time>
      </trkpt>
      <trkpt lat="45.95868" lon="4.54371">
        <ele>363</ele>
        <time>2014-11-30T10:10:56.000Z</time>
      </trkpt>
      <trkpt lat="45.95864" lon="4.54372">
        <ele>362</ele>
        <time>2014-11-30T10:11:01.000Z</time>
      </trkpt>
      <trkpt lat="45.95863" lon="4.54372">
        <ele>362</ele>
        <time>2014-11-30T10:11:03.000Z</time>
      </trkpt>
      <trkpt lat="45.95859" lon="4.54371">
        <ele>362</ele>
        <time>2014-11-30T10:11:08.000Z</time>
      </trkpt>
      <trkpt lat="45.95851" lon="4.5437">
        <ele>361</ele>
        <time>2014-11-30T10:11:13.000Z</time>
      </trkpt>
      <trkpt lat="45.95846" lon="4.54371">
        <ele>361</ele>
        <time>2014-11-30T10:11:17.000Z</time>
      </trkpt>
      <trkpt lat="45.95838" lon="4.54366">
        <ele>360</ele>
        <time>2014-11-30T10:11:22.000Z</time>
      </trkpt>
      <trkpt lat="45.95837" lon="4.54366">
        <ele>360</ele>
        <time>2014-11-30T10:11:23.000Z</time>
      </trkpt>
      <trkpt lat="45.95832" lon="4.54364">
        <ele>357</ele>
        <time>2014-11-30T10:11:28.000Z</time>
      </trkpt>
      <trkpt lat="45.95825" lon="4.54361">
        <ele>357</ele>
        <time>2014-11-30T10:11:33.000Z</time>
      </trkpt>
      <trkpt lat="45.95824" lon="4.54357">
        <ele>357</ele>
        <time>2014-11-30T10:11:35.000Z</time>
      </trkpt>
      <trkpt lat="45.95821" lon="4.54353">
        <ele>356</ele>
        <time>2014-11-30T10:11:42.000Z</time>
      </trkpt>
      <trkpt lat="45.95817" lon="4.54352">
        <ele>356</ele>
        <time>2014-11-30T10:11:46.000Z</time>
      </trkpt>
      <trkpt lat="45.95812" lon="4.54346">
        <ele>356</ele>
        <time>2014-11-30T10:11:50.000Z</time>
      </trkpt>
      <trkpt lat="45.95811" lon="4.54346">
        <ele>356</ele>
        <time>2014-11-30T10:11:51.000Z</time>
      </trkpt>
      <trkpt lat="45.95806" lon="4.54342">
        <ele>357</ele>
        <time>2014-11-30T10:12:16.000Z</time>
      </trkpt>
      <trkpt lat="45.95803" lon="4.54338">
        <ele>357</ele>
        <time>2014-11-30T10:12:36.000Z</time>
      </trkpt>
      <trkpt lat="45.95801" lon="4.54334">
        <ele>357</ele>
        <time>2014-11-30T10:12:40.000Z</time>
      </trkpt>
      <trkpt lat="45.95801" lon="4.54333">
        <ele>352</ele>
        <time>2014-11-30T10:12:41.000Z</time>
      </trkpt>
      <trkpt lat="45.958" lon="4.54325">
        <ele>352</ele>
        <time>2014-11-30T10:12:45.000Z</time>
      </trkpt>
      <trkpt lat="45.95802" lon="4.54315">
        <ele>351</ele>
        <time>2014-11-30T10:12:51.000Z</time>
      </trkpt>
      <trkpt lat="45.95806" lon="4.54307">
        <ele>351</ele>
        <time>2014-11-30T10:12:55.000Z</time>
      </trkpt>
      <trkpt lat="45.95809" lon="4.54295">
        <ele>350</ele>
        <time>2014-11-30T10:12:59.000Z</time>
      </trkpt>
      <trkpt lat="45.95811" lon="4.54286">
        <ele>349</ele>
        <time>2014-11-30T10:13:03.000Z</time>
      </trkpt>
      <trkpt lat="45.95808" lon="4.54267">
        <ele>348</ele>
        <time>2014-11-30T10:13:11.000Z</time>
      </trkpt>
      <trkpt lat="45.95808" lon="4.54255">
        <ele>347</ele>
        <time>2014-11-30T10:13:15.000Z</time>
      </trkpt>
      <trkpt lat="45.95816" lon="4.54234">
        <ele>341</ele>
        <time>2014-11-30T10:13:23.000Z</time>
      </trkpt>
      <trkpt lat="45.95821" lon="4.54216">
        <ele>340</ele>
        <time>2014-11-30T10:13:28.000Z</time>
      </trkpt>
      <trkpt lat="45.95821" lon="4.54201">
        <ele>339</ele>
        <time>2014-11-30T10:13:30.000Z</time>
      </trkpt>
      <trkpt lat="45.9582" lon="4.54175">
        <ele>334</ele>
        <time>2014-11-30T10:13:36.000Z</time>
      </trkpt>
      <trkpt lat="45.95818" lon="4.54165">
        <ele>330</ele>
        <time>2014-11-30T10:13:39.000Z</time>
      </trkpt>
      <trkpt lat="45.95812" lon="4.54153">
        <ele>331</ele>
        <time>2014-11-30T10:13:43.000Z</time>
      </trkpt>
      <trkpt lat="45.95808" lon="4.54145">
        <ele>332</ele>
        <time>2014-11-30T10:13:46.000Z</time>
      </trkpt>
      <trkpt lat="45.95802" lon="4.54128">
        <ele>332</ele>
        <time>2014-11-30T10:13:51.000Z</time>
      </trkpt>
      <trkpt lat="45.95797" lon="4.54119">
        <ele>332</ele>
        <time>2014-11-30T10:13:54.000Z</time>
      </trkpt>
      <trkpt lat="45.95788" lon="4.541">
        <ele>332</ele>
        <time>2014-11-30T10:13:59.000Z</time>
      </trkpt>
      <trkpt lat="45.95786" lon="4.54096">
        <ele>333</ele>
        <time>2014-11-30T10:14:00.000Z</time>
      </trkpt>
      <trkpt lat="45.95775" lon="4.54074">
        <ele>328</ele>
        <time>2014-11-30T10:14:07.000Z</time>
      </trkpt>
      <trkpt lat="45.95772" lon="4.54063">
        <ele>328</ele>
        <time>2014-11-30T10:14:12.000Z</time>
      </trkpt>
      <trkpt lat="45.95767" lon="4.54054">
        <ele>327</ele>
        <time>2014-11-30T10:14:17.000Z</time>
      </trkpt>
      <trkpt lat="45.95766" lon="4.54052">
        <ele>327</ele>
        <time>2014-11-30T10:14:19.000Z</time>
      </trkpt>
      <trkpt lat="45.95765" lon="4.54047">
        <ele>327</ele>
        <time>2014-11-30T10:14:31.000Z</time>
      </trkpt>
      <trkpt lat="45.95761" lon="4.54046">
        <ele>327</ele>
        <time>2014-11-30T10:14:40.000Z</time>
      </trkpt>
      <trkpt lat="45.95756" lon="4.54045">
        <ele>327</ele>
        <time>2014-11-30T10:14:46.000Z</time>
      </trkpt>
      <trkpt lat="45.95751" lon="4.54044">
        <ele>327</ele>
        <time>2014-11-30T10:14:54.000Z</time>
      </trkpt>
      <trkpt lat="45.95747" lon="4.54046">
        <ele>331</ele>
        <time>2014-11-30T10:15:00.000Z</time>
      </trkpt>
      <trkpt lat="45.95744" lon="4.54046">
        <ele>331</ele>
        <time>2014-11-30T10:15:05.000Z</time>
      </trkpt>
      <trkpt lat="45.95741" lon="4.54044">
        <ele>331</ele>
        <time>2014-11-30T10:15:09.000Z</time>
      </trkpt>
      <trkpt lat="45.9574" lon="4.54045">
        <ele>331</ele>
        <time>2014-11-30T10:15:11.000Z</time>
      </trkpt>
      <trkpt lat="45.95738" lon="4.54046">
        <ele>331</ele>
        <time>2014-11-30T10:15:16.000Z</time>
      </trkpt>
      <trkpt lat="45.95732" lon="4.54044">
        <ele>331</ele>
        <time>2014-11-30T10:15:22.000Z</time>
      </trkpt>
      <trkpt lat="45.95729" lon="4.54044">
        <ele>331</ele>
        <time>2014-11-30T10:15:28.000Z</time>
      </trkpt>
      <trkpt lat="45.95726" lon="4.54044">
        <ele>331</ele>
        <time>2014-11-30T10:15:33.000Z</time>
      </trkpt>
      <trkpt lat="45.95723" lon="4.54042">
        <ele>331</ele>
        <time>2014-11-30T10:15:38.000Z</time>
      </trkpt>
      <trkpt lat="45.95722" lon="4.54041">
        <ele>331</ele>
        <time>2014-11-30T10:15:46.000Z</time>
      </trkpt>
      <trkpt lat="45.9572" lon="4.54041">
        <ele>331</ele>
        <time>2014-11-30T10:15:48.000Z</time>
      </trkpt>
      <trkpt lat="45.95716" lon="4.5404">
        <ele>331</ele>
        <time>2014-11-30T10:15:52.000Z</time>
      </trkpt>
      <trkpt lat="45.95713" lon="4.54042">
        <ele>331</ele>
        <time>2014-11-30T10:15:56.000Z</time>
      </trkpt>
      <trkpt lat="45.95707" lon="4.54045">
        <ele>331</ele>
        <time>2014-11-30T10:16:02.000Z</time>
      </trkpt>
      <trkpt lat="45.95699" lon="4.54048">
        <ele>332</ele>
        <time>2014-11-30T10:16:10.000Z</time>
      </trkpt>
      <trkpt lat="45.95699" lon="4.54049">
        <ele>332</ele>
        <time>2014-11-30T10:16:11.000Z</time>
      </trkpt>
      <trkpt lat="45.95697" lon="4.54052">
        <ele>332</ele>
        <time>2014-11-30T10:16:13.000Z</time>
      </trkpt>
      <trkpt lat="45.9569" lon="4.54055">
        <ele>333</ele>
        <time>2014-11-30T10:16:21.000Z</time>
      </trkpt>
      <trkpt lat="45.95689" lon="4.54055">
        <ele>333</ele>
        <time>2014-11-30T10:16:22.000Z</time>
      </trkpt>
      <trkpt lat="45.95686" lon="4.54059">
        <ele>334</ele>
        <time>2014-11-30T10:16:30.000Z</time>
      </trkpt>
      <trkpt lat="45.95683" lon="4.54061">
        <ele>334</ele>
        <time>2014-11-30T10:16:35.000Z</time>
      </trkpt>
      <trkpt lat="45.9568" lon="4.54061">
        <ele>335</ele>
        <time>2014-11-30T10:16:39.000Z</time>
      </trkpt>
      <trkpt lat="45.95677" lon="4.54062">
        <ele>335</ele>
        <time>2014-11-30T10:16:43.000Z</time>
      </trkpt>
      <trkpt lat="45.95676" lon="4.54062">
        <ele>335</ele>
        <time>2014-11-30T10:16:45.000Z</time>
      </trkpt>
      <trkpt lat="45.95675" lon="4.54057">
        <ele>334</ele>
        <time>2014-11-30T10:16:50.000Z</time>
      </trkpt>
      <trkpt lat="45.95672" lon="4.54055">
        <ele>334</ele>
        <time>2014-11-30T10:16:53.000Z</time>
      </trkpt>
      <trkpt lat="45.95668" lon="4.54052">
        <ele>334</ele>
        <time>2014-11-30T10:16:58.000Z</time>
      </trkpt>
      <trkpt lat="45.95666" lon="4.54052">
        <ele>339</ele>
        <time>2014-11-30T10:17:00.000Z</time>
      </trkpt>
      <trkpt lat="45.95658" lon="4.54046">
        <ele>339</ele>
        <time>2014-11-30T10:17:51.000Z</time>
      </trkpt>
      <trkpt lat="45.95658" lon="4.54047">
        <ele>339</ele>
        <time>2014-11-30T10:17:52.000Z</time>
      </trkpt>
      <trkpt lat="45.95654" lon="4.54047">
        <ele>339</ele>
        <time>2014-11-30T10:17:55.000Z</time>
      </trkpt>
      <trkpt lat="45.95652" lon="4.5405">
        <ele>339</ele>
        <time>2014-11-30T10:18:00.000Z</time>
      </trkpt>
      <trkpt lat="45.95651" lon="4.54053">
        <ele>340</ele>
        <time>2014-11-30T10:18:04.000Z</time>
      </trkpt>
      <trkpt lat="45.95649" lon="4.54058">
        <ele>340</ele>
        <time>2014-11-30T10:18:09.000Z</time>
      </trkpt>
      <trkpt lat="45.95649" lon="4.54062">
        <ele>341</ele>
        <time>2014-11-30T10:18:11.000Z</time>
      </trkpt>
      <trkpt lat="45.95644" lon="4.54066">
        <ele>341</ele>
        <time>2014-11-30T10:18:18.000Z</time>
      </trkpt>
      <trkpt lat="45.9564" lon="4.54068">
        <ele>342</ele>
        <time>2014-11-30T10:18:23.000Z</time>
      </trkpt>
      <trkpt lat="45.95639" lon="4.54068">
        <ele>342</ele>
        <time>2014-11-30T10:18:24.000Z</time>
      </trkpt>
      <trkpt lat="45.95634" lon="4.54072">
        <ele>342</ele>
        <time>2014-11-30T10:18:30.000Z</time>
      </trkpt>
      <trkpt lat="45.95632" lon="4.54072">
        <ele>342</ele>
        <time>2014-11-30T10:18:32.000Z</time>
      </trkpt>
      <trkpt lat="45.95627" lon="4.54072">
        <ele>343</ele>
        <time>2014-11-30T10:18:38.000Z</time>
      </trkpt>
      <trkpt lat="45.95626" lon="4.54072">
        <ele>343</ele>
        <time>2014-11-30T10:18:39.000Z</time>
      </trkpt>
      <trkpt lat="45.95623" lon="4.54072">
        <ele>343</ele>
        <time>2014-11-30T10:18:43.000Z</time>
      </trkpt>
      <trkpt lat="45.95621" lon="4.54076">
        <ele>344</ele>
        <time>2014-11-30T10:18:47.000Z</time>
      </trkpt>
      <trkpt lat="45.95617" lon="4.54077">
        <ele>344</ele>
        <time>2014-11-30T10:18:51.000Z</time>
      </trkpt>
      <trkpt lat="45.95611" lon="4.54077">
        <ele>345</ele>
        <time>2014-11-30T10:18:57.000Z</time>
      </trkpt>
      <trkpt lat="45.9561" lon="4.54077">
        <ele>346</ele>
        <time>2014-11-30T10:18:58.000Z</time>
      </trkpt>
      <trkpt lat="45.95606" lon="4.54079">
        <ele>346</ele>
        <time>2014-11-30T10:19:03.000Z</time>
      </trkpt>
      <trkpt lat="45.95605" lon="4.54078">
        <ele>347</ele>
        <time>2014-11-30T10:19:04.000Z</time>
      </trkpt>
      <trkpt lat="45.95601" lon="4.54076">
        <ele>347</ele>
        <time>2014-11-30T10:19:08.000Z</time>
      </trkpt>
      <trkpt lat="45.95598" lon="4.54075">
        <ele>348</ele>
        <time>2014-11-30T10:19:11.000Z</time>
      </trkpt>
      <trkpt lat="45.95596" lon="4.54074">
        <ele>348</ele>
        <time>2014-11-30T10:19:13.000Z</time>
      </trkpt>
      <trkpt lat="45.95592" lon="4.5407">
        <ele>348</ele>
        <time>2014-11-30T10:19:18.000Z</time>
      </trkpt>
      <trkpt lat="45.95591" lon="4.5407">
        <ele>348</ele>
        <time>2014-11-30T10:19:19.000Z</time>
      </trkpt>
      <trkpt lat="45.9559" lon="4.5407">
        <ele>349</ele>
        <time>2014-11-30T10:19:21.000Z</time>
      </trkpt>
      <trkpt lat="45.95586" lon="4.54068">
        <ele>348</ele>
        <time>2014-11-30T10:19:26.000Z</time>
      </trkpt>
      <trkpt lat="45.95581" lon="4.54067">
        <ele>358</ele>
        <time>2014-11-30T10:19:33.000Z</time>
      </trkpt>
      <trkpt lat="45.95577" lon="4.54066">
        <ele>358</ele>
        <time>2014-11-30T10:19:39.000Z</time>
      </trkpt>
      <trkpt lat="45.95576" lon="4.54065">
        <ele>358</ele>
        <time>2014-11-30T10:19:40.000Z</time>
      </trkpt>
      <trkpt lat="45.95572" lon="4.54065">
        <ele>359</ele>
        <time>2014-11-30T10:19:50.000Z</time>
      </trkpt>
      <trkpt lat="45.95569" lon="4.54067">
        <ele>359</ele>
        <time>2014-11-30T10:20:05.000Z</time>
      </trkpt>
      <trkpt lat="45.95567" lon="4.54068">
        <ele>359</ele>
        <time>2014-11-30T10:20:10.000Z</time>
      </trkpt>
      <trkpt lat="45.95565" lon="4.54067">
        <ele>360</ele>
        <time>2014-11-30T10:20:12.000Z</time>
      </trkpt>
      <trkpt lat="45.95561" lon="4.54067">
        <ele>360</ele>
        <time>2014-11-30T10:20:20.000Z</time>
      </trkpt>
      <trkpt lat="45.95559" lon="4.54067">
        <ele>361</ele>
        <time>2014-11-30T10:20:27.000Z</time>
      </trkpt>
      <trkpt lat="45.95556" lon="4.54065">
        <ele>361</ele>
        <time>2014-11-30T10:20:33.000Z</time>
      </trkpt>
      <trkpt lat="45.95556" lon="4.54064">
        <ele>361</ele>
        <time>2014-11-30T10:20:39.000Z</time>
      </trkpt>
      <trkpt lat="45.95556" lon="4.54063">
        <ele>361</ele>
        <time>2014-11-30T10:21:03.000Z</time>
      </trkpt>
      <trkpt lat="45.95553" lon="4.5406">
        <ele>362</ele>
        <time>2014-11-30T10:21:13.000Z</time>
      </trkpt>
      <trkpt lat="45.9555" lon="4.54056">
        <ele>362</ele>
        <time>2014-11-30T10:21:19.000Z</time>
      </trkpt>
      <trkpt lat="45.95547" lon="4.54052">
        <ele>362</ele>
        <time>2014-11-30T10:21:25.000Z</time>
      </trkpt>
      <trkpt lat="45.95546" lon="4.5405">
        <ele>362</ele>
        <time>2014-11-30T10:21:30.000Z</time>
      </trkpt>
      <trkpt lat="45.95541" lon="4.5405">
        <ele>363</ele>
        <time>2014-11-30T10:21:36.000Z</time>
      </trkpt>
      <trkpt lat="45.95538" lon="4.54048">
        <ele>364</ele>
        <time>2014-11-30T10:21:41.000Z</time>
      </trkpt>
      <trkpt lat="45.95534" lon="4.54049">
        <ele>364</ele>
        <time>2014-11-30T10:21:47.000Z</time>
      </trkpt>
      <trkpt lat="45.95532" lon="4.54048">
        <ele>365</ele>
        <time>2014-11-30T10:21:48.000Z</time>
      </trkpt>
      <trkpt lat="45.9553" lon="4.5405">
        <ele>365</ele>
        <time>2014-11-30T10:21:51.000Z</time>
      </trkpt>
      <trkpt lat="45.95529" lon="4.5405">
        <ele>365</ele>
        <time>2014-11-30T10:21:53.000Z</time>
      </trkpt>
      <trkpt lat="45.95527" lon="4.54051">
        <ele>366</ele>
        <time>2014-11-30T10:21:56.000Z</time>
      </trkpt>
      <trkpt lat="45.95523" lon="4.54051">
        <ele>366</ele>
        <time>2014-11-30T10:22:02.000Z</time>
      </trkpt>
      <trkpt lat="45.95519" lon="4.54051">
        <ele>367</ele>
        <time>2014-11-30T10:22:08.000Z</time>
      </trkpt>
      <trkpt lat="45.95516" lon="4.54054">
        <ele>368</ele>
        <time>2014-11-30T10:22:12.000Z</time>
      </trkpt>
      <trkpt lat="45.95513" lon="4.54053">
        <ele>368</ele>
        <time>2014-11-30T10:22:15.000Z</time>
      </trkpt>
      <trkpt lat="45.95509" lon="4.54052">
        <ele>369</ele>
        <time>2014-11-30T10:22:20.000Z</time>
      </trkpt>
      <trkpt lat="45.95507" lon="4.54051">
        <ele>369</ele>
        <time>2014-11-30T10:22:22.000Z</time>
      </trkpt>
      <trkpt lat="45.95505" lon="4.54056">
        <ele>370</ele>
        <time>2014-11-30T10:22:27.000Z</time>
      </trkpt>
      <trkpt lat="45.95502" lon="4.54061">
        <ele>371</ele>
        <time>2014-11-30T10:22:31.000Z</time>
      </trkpt>
      <trkpt lat="45.95501" lon="4.54063">
        <ele>372</ele>
        <time>2014-11-30T10:22:33.000Z</time>
      </trkpt>
      <trkpt lat="45.955" lon="4.54065">
        <ele>382</ele>
        <time>2014-11-30T10:22:40.000Z</time>
      </trkpt>
      <trkpt lat="45.955" lon="4.54059">
        <ele>381</ele>
        <time>2014-11-30T10:23:15.000Z</time>
      </trkpt>
      <trkpt lat="45.95505" lon="4.54051">
        <ele>369</ele>
        <time>2014-11-30T10:24:21.000Z</time>
      </trkpt>
      <trkpt lat="45.95506" lon="4.54048">
        <ele>368</ele>
        <time>2014-11-30T10:24:27.000Z</time>
      </trkpt>
      <trkpt lat="45.95508" lon="4.54046">
        <ele>368</ele>
        <time>2014-11-30T10:24:36.000Z</time>
      </trkpt>
      <trkpt lat="45.95508" lon="4.54047">
        <ele>368</ele>
        <time>2014-11-30T10:24:44.000Z</time>
      </trkpt>
      <trkpt lat="45.95513" lon="4.54049">
        <ele>368</ele>
        <time>2014-11-30T10:25:02.000Z</time>
      </trkpt>
      <trkpt lat="45.95515" lon="4.54048">
        <ele>367</ele>
        <time>2014-11-30T10:25:03.000Z</time>
      </trkpt>
      <trkpt lat="45.95519" lon="4.54044">
        <ele>366</ele>
        <time>2014-11-30T10:25:07.000Z</time>
      </trkpt>
      <trkpt lat="45.95523" lon="4.54042">
        <ele>366</ele>
        <time>2014-11-30T10:25:11.000Z</time>
      </trkpt>
      <trkpt lat="45.95526" lon="4.54042">
        <ele>365</ele>
        <time>2014-11-30T10:25:13.000Z</time>
      </trkpt>
      <trkpt lat="45.95528" lon="4.54043">
        <ele>365</ele>
        <time>2014-11-30T10:25:15.000Z</time>
      </trkpt>
      <trkpt lat="45.95537" lon="4.5404">
        <ele>363</ele>
        <time>2014-11-30T10:25:22.000Z</time>
      </trkpt>
      <trkpt lat="45.95544" lon="4.54039">
        <ele>362</ele>
        <time>2014-11-30T10:25:26.000Z</time>
      </trkpt>
      <trkpt lat="45.95544" lon="4.54039">
        <ele>362</ele>
        <time>2014-11-30T10:25:27.000Z</time>
      </trkpt>
      <trkpt lat="45.95546" lon="4.54036">
        <ele>361</ele>
        <time>2014-11-30T10:25:30.000Z</time>
      </trkpt>
      <trkpt lat="45.95553" lon="4.54034">
        <ele>360</ele>
        <time>2014-11-30T10:25:35.000Z</time>
      </trkpt>
      <trkpt lat="45.95558" lon="4.54033">
        <ele>359</ele>
        <time>2014-11-30T10:25:38.000Z</time>
      </trkpt>
      <trkpt lat="45.9556" lon="4.54032">
        <ele>358</ele>
        <time>2014-11-30T10:25:40.000Z</time>
      </trkpt>
      <trkpt lat="45.95563" lon="4.54028">
        <ele>357</ele>
        <time>2014-11-30T10:25:43.000Z</time>
      </trkpt>
      <trkpt lat="45.95567" lon="4.54024">
        <ele>356</ele>
        <time>2014-11-30T10:25:55.000Z</time>
      </trkpt>
      <trkpt lat="45.95568" lon="4.54022">
        <ele>355</ele>
        <time>2014-11-30T10:25:57.000Z</time>
      </trkpt>
      <trkpt lat="45.95573" lon="4.5402">
        <ele>353</ele>
        <time>2014-11-30T10:26:02.000Z</time>
      </trkpt>
      <trkpt lat="45.95574" lon="4.54019">
        <ele>353</ele>
        <time>2014-11-30T10:26:03.000Z</time>
      </trkpt>
      <trkpt lat="45.95575" lon="4.54018">
        <ele>352</ele>
        <time>2014-11-30T10:26:04.000Z</time>
      </trkpt>
      <trkpt lat="45.9558" lon="4.54015">
        <ele>350</ele>
        <time>2014-11-30T10:26:09.000Z</time>
      </trkpt>
      <trkpt lat="45.95589" lon="4.54015">
        <ele>340</ele>
        <time>2014-11-30T10:26:17.000Z</time>
      </trkpt>
      <trkpt lat="45.95592" lon="4.54013">
        <ele>340</ele>
        <time>2014-11-30T10:26:19.000Z</time>
      </trkpt>
      <trkpt lat="45.95606" lon="4.54004">
        <ele>339</ele>
        <time>2014-11-30T10:26:32.000Z</time>
      </trkpt>
      <trkpt lat="45.95607" lon="4.54004">
        <ele>339</ele>
        <time>2014-11-30T10:26:33.000Z</time>
      </trkpt>
      <trkpt lat="45.9561" lon="4.54001">
        <ele>339</ele>
        <time>2014-11-30T10:26:41.000Z</time>
      </trkpt>
      <trkpt lat="45.95615" lon="4.53998">
        <ele>330</ele>
        <time>2014-11-30T10:26:47.000Z</time>
      </trkpt>
      <trkpt lat="45.95616" lon="4.53996">
        <ele>330</ele>
        <time>2014-11-30T10:26:48.000Z</time>
      </trkpt>
      <trkpt lat="45.95619" lon="4.53992">
        <ele>330</ele>
        <time>2014-11-30T10:26:51.000Z</time>
      </trkpt>
      <trkpt lat="45.9562" lon="4.53992">
        <ele>330</ele>
        <time>2014-11-30T10:26:52.000Z</time>
      </trkpt>
      <trkpt lat="45.9562" lon="4.53991">
        <ele>329</ele>
        <time>2014-11-30T10:26:53.000Z</time>
      </trkpt>
      <trkpt lat="45.95623" lon="4.53986">
        <ele>329</ele>
        <time>2014-11-30T10:27:00.000Z</time>
      </trkpt>
      <trkpt lat="45.95624" lon="4.53982">
        <ele>329</ele>
        <time>2014-11-30T10:27:05.000Z</time>
      </trkpt>
      <trkpt lat="45.95627" lon="4.5398">
        <ele>328</ele>
        <time>2014-11-30T10:27:09.000Z</time>
      </trkpt>
      <trkpt lat="45.95629" lon="4.53974">
        <ele>328</ele>
        <time>2014-11-30T10:27:12.000Z</time>
      </trkpt>
      <trkpt lat="45.95633" lon="4.53962">
        <ele>327</ele>
        <time>2014-11-30T10:27:16.000Z</time>
      </trkpt>
      <trkpt lat="45.95642" lon="4.53944">
        <ele>324</ele>
        <time>2014-11-30T10:27:23.000Z</time>
      </trkpt>
      <trkpt lat="45.95643" lon="4.53943">
        <ele>324</ele>
        <time>2014-11-30T10:27:24.000Z</time>
      </trkpt>
      <trkpt lat="45.95646" lon="4.53938">
        <ele>323</ele>
        <time>2014-11-30T10:27:28.000Z</time>
      </trkpt>
      <trkpt lat="45.95647" lon="4.53935">
        <ele>323</ele>
        <time>2014-11-30T10:27:29.000Z</time>
      </trkpt>
      <trkpt lat="45.95648" lon="4.53928">
        <ele>322</ele>
        <time>2014-11-30T10:27:33.000Z</time>
      </trkpt>
      <trkpt lat="45.95649" lon="4.53926">
        <ele>322</ele>
        <time>2014-11-30T10:27:34.000Z</time>
      </trkpt>
      <trkpt lat="45.95653" lon="4.53925">
        <ele>321</ele>
        <time>2014-11-30T10:27:39.000Z</time>
      </trkpt>
      <trkpt lat="45.95663" lon="4.53915">
        <ele>316</ele>
        <time>2014-11-30T10:27:45.000Z</time>
      </trkpt>
      <trkpt lat="45.95666" lon="4.53913">
        <ele>316</ele>
        <time>2014-11-30T10:27:47.000Z</time>
      </trkpt>
      <trkpt lat="45.95672" lon="4.53912">
        <ele>317</ele>
        <time>2014-11-30T10:27:55.000Z</time>
      </trkpt>
      <trkpt lat="45.95673" lon="4.53912">
        <ele>317</ele>
        <time>2014-11-30T10:28:00.000Z</time>
      </trkpt>
      <trkpt lat="45.95677" lon="4.53907">
        <ele>318</ele>
        <time>2014-11-30T10:28:14.000Z</time>
      </trkpt>
      <trkpt lat="45.95678" lon="4.53904">
        <ele>318</ele>
        <time>2014-11-30T10:28:17.000Z</time>
      </trkpt>
      <trkpt lat="45.95683" lon="4.53895">
        <ele>320</ele>
        <time>2014-11-30T10:28:24.000Z</time>
      </trkpt>
      <trkpt lat="45.95686" lon="4.53892">
        <ele>320</ele>
        <time>2014-11-30T10:28:33.000Z</time>
      </trkpt>
      <trkpt lat="45.95691" lon="4.53895">
        <ele>320</ele>
        <time>2014-11-30T10:28:42.000Z</time>
      </trkpt>
      <trkpt lat="45.95699" lon="4.53903">
        <ele>321</ele>
        <time>2014-11-30T10:28:59.000Z</time>
      </trkpt>
      <trkpt lat="45.95704" lon="4.53908">
        <ele>321</ele>
        <time>2014-11-30T10:29:05.000Z</time>
      </trkpt>
      <trkpt lat="45.95711" lon="4.53914">
        <ele>322</ele>
        <time>2014-11-30T10:29:21.000Z</time>
      </trkpt>
      <trkpt lat="45.95712" lon="4.53916">
        <ele>322</ele>
        <time>2014-11-30T10:29:22.000Z</time>
      </trkpt>
      <trkpt lat="45.95722" lon="4.53924">
        <ele>322</ele>
        <time>2014-11-30T10:29:26.000Z</time>
      </trkpt>
      <trkpt lat="45.95737" lon="4.5393">
        <ele>323</ele>
        <time>2014-11-30T10:29:32.000Z</time>
      </trkpt>
      <trkpt lat="45.95749" lon="4.53935">
        <ele>323</ele>
        <time>2014-11-30T10:29:37.000Z</time>
      </trkpt>
      <trkpt lat="45.95764" lon="4.53937">
        <ele>326</ele>
        <time>2014-11-30T10:29:42.000Z</time>
      </trkpt>
      <trkpt lat="45.95773" lon="4.53939">
        <ele>326</ele>
        <time>2014-11-30T10:29:45.000Z</time>
      </trkpt>
      <trkpt lat="45.95787" lon="4.53948">
        <ele>327</ele>
        <time>2014-11-30T10:29:50.000Z</time>
      </trkpt>
      <trkpt lat="45.95803" lon="4.53958">
        <ele>327</ele>
        <time>2014-11-30T10:29:54.000Z</time>
      </trkpt>
      <trkpt lat="45.95816" lon="4.53964">
        <ele>327</ele>
        <time>2014-11-30T10:29:58.000Z</time>
      </trkpt>
      <trkpt lat="45.95828" lon="4.53973">
        <ele>327</ele>
        <time>2014-11-30T10:30:03.000Z</time>
      </trkpt>
      <trkpt lat="45.95832" lon="4.53974">
        <ele>326</ele>
        <time>2014-11-30T10:30:05.000Z</time>
      </trkpt>
      <trkpt lat="45.95839" lon="4.53982">
        <ele>331</ele>
        <time>2014-11-30T10:30:08.000Z</time>
      </trkpt>
      <trkpt lat="45.95846" lon="4.53993">
        <ele>330</ele>
        <time>2014-11-30T10:30:12.000Z</time>
      </trkpt>
      <trkpt lat="45.95862" lon="4.54023">
        <ele>329</ele>
        <time>2014-11-30T10:30:22.000Z</time>
      </trkpt>
      <trkpt lat="45.95863" lon="4.54026">
        <ele>329</ele>
        <time>2014-11-30T10:30:23.000Z</time>
      </trkpt>
      <trkpt lat="45.95868" lon="4.54042">
        <ele>329</ele>
        <time>2014-11-30T10:30:28.000Z</time>
      </trkpt>
      <trkpt lat="45.95879" lon="4.5406">
        <ele>329</ele>
        <time>2014-11-30T10:30:34.000Z</time>
      </trkpt>
      <trkpt lat="45.95882" lon="4.54062">
        <ele>329</ele>
        <time>2014-11-30T10:30:35.000Z</time>
      </trkpt>
      <trkpt lat="45.95891" lon="4.54074">
        <ele>330</ele>
        <time>2014-11-30T10:30:40.000Z</time>
      </trkpt>
      <trkpt lat="45.95898" lon="4.5408">
        <ele>330</ele>
        <time>2014-11-30T10:30:43.000Z</time>
      </trkpt>
      <trkpt lat="45.95914" lon="4.54089">
        <ele>330</ele>
        <time>2014-11-30T10:30:50.000Z</time>
      </trkpt>
      <trkpt lat="45.95928" lon="4.5409">
        <ele>333</ele>
        <time>2014-11-30T10:30:55.000Z</time>
      </trkpt>
      <trkpt lat="45.95945" lon="4.54091">
        <ele>334</ele>
        <time>2014-11-30T10:31:01.000Z</time>
      </trkpt>
      <trkpt lat="45.95956" lon="4.54089">
        <ele>335</ele>
        <time>2014-11-30T10:31:07.000Z</time>
      </trkpt>
      <trkpt lat="45.95959" lon="4.54088">
        <ele>336</ele>
        <time>2014-11-30T10:31:09.000Z</time>
      </trkpt>
      <trkpt lat="45.95962" lon="4.54091">
        <ele>336</ele>
        <time>2014-11-30T10:31:12.000Z</time>
      </trkpt>
      <trkpt lat="45.95966" lon="4.54096">
        <ele>336</ele>
        <time>2014-11-30T10:31:17.000Z</time>
      </trkpt>
      <trkpt lat="45.95968" lon="4.54117">
        <ele>335</ele>
        <time>2014-11-30T10:31:22.000Z</time>
      </trkpt>
      <trkpt lat="45.95974" lon="4.54133">
        <ele>334</ele>
        <time>2014-11-30T10:31:26.000Z</time>
      </trkpt>
      <trkpt lat="45.95981" lon="4.54147">
        <ele>334</ele>
        <time>2014-11-30T10:31:30.000Z</time>
      </trkpt>
      <trkpt lat="45.95985" lon="4.54154">
        <ele>335</ele>
        <time>2014-11-30T10:31:32.000Z</time>
      </trkpt>
      <trkpt lat="45.96" lon="4.5417">
        <ele>337</ele>
        <time>2014-11-30T10:31:39.000Z</time>
      </trkpt>
      <trkpt lat="45.96003" lon="4.54172">
        <ele>337</ele>
        <time>2014-11-30T10:31:40.000Z</time>
      </trkpt>
      <trkpt lat="45.96013" lon="4.54181">
        <ele>339</ele>
        <time>2014-11-30T10:31:44.000Z</time>
      </trkpt>
      <trkpt lat="45.96024" lon="4.5419">
        <ele>341</ele>
        <time>2014-11-30T10:31:48.000Z</time>
      </trkpt>
      <trkpt lat="45.96035" lon="4.54203">
        <ele>341</ele>
        <time>2014-11-30T10:31:53.000Z</time>
      </trkpt>
      <trkpt lat="45.96046" lon="4.54218">
        <ele>342</ele>
        <time>2014-11-30T10:31:58.000Z</time>
      </trkpt>
      <trkpt lat="45.96053" lon="4.54235">
        <ele>343</ele>
        <time>2014-11-30T10:32:03.000Z</time>
      </trkpt>
      <trkpt lat="45.96058" lon="4.54247">
        <ele>343</ele>
        <time>2014-11-30T10:32:06.000Z</time>
      </trkpt>
      <trkpt lat="45.96067" lon="4.54269">
        <ele>342</ele>
        <time>2014-11-30T10:32:12.000Z</time>
      </trkpt>
      <trkpt lat="45.96069" lon="4.5429">
        <ele>340</ele>
        <time>2014-11-30T10:32:17.000Z</time>
      </trkpt>
      <trkpt lat="45.96073" lon="4.5431">
        <ele>339</ele>
        <time>2014-11-30T10:32:23.000Z</time>
      </trkpt>
      <trkpt lat="45.96079" lon="4.54323">
        <ele>339</ele>
        <time>2014-11-30T10:32:28.000Z</time>
      </trkpt>
      <trkpt lat="45.96089" lon="4.54337">
        <ele>340</ele>
        <time>2014-11-30T10:32:34.000Z</time>
      </trkpt>
      <trkpt lat="45.96097" lon="4.54345">
        <ele>342</ele>
        <time>2014-11-30T10:32:38.000Z</time>
      </trkpt>
      <trkpt lat="45.96104" lon="4.54352">
        <ele>343</ele>
        <time>2014-11-30T10:32:41.000Z</time>
      </trkpt>
      <trkpt lat="45.9611" lon="4.54364">
        <ele>344</ele>
        <time>2014-11-30T10:32:45.000Z</time>
      </trkpt>
      <trkpt lat="45.96119" lon="4.54375">
        <ele>344</ele>
        <time>2014-11-30T10:32:50.000Z</time>
      </trkpt>
      <trkpt lat="45.96131" lon="4.54386">
        <ele>345</ele>
        <time>2014-11-30T10:32:53.000Z</time>
      </trkpt>
      <trkpt lat="45.9614" lon="4.54398">
        <ele>345</ele>
        <time>2014-11-30T10:32:57.000Z</time>
      </trkpt>
      <trkpt lat="45.96149" lon="4.54415">
        <ele>345</ele>
        <time>2014-11-30T10:33:03.000Z</time>
      </trkpt>
      <trkpt lat="45.96159" lon="4.54433">
        <ele>345</ele>
        <time>2014-11-30T10:33:07.000Z</time>
      </trkpt>
      <trkpt lat="45.96171" lon="4.54449">
        <ele>348</ele>
        <time>2014-11-30T10:33:13.000Z</time>
      </trkpt>
      <trkpt lat="45.96179" lon="4.54455">
        <ele>348</ele>
        <time>2014-11-30T10:33:16.000Z</time>
      </trkpt>
      <trkpt lat="45.96189" lon="4.54466">
        <ele>348</ele>
        <time>2014-11-30T10:33:21.000Z</time>
      </trkpt>
      <trkpt lat="45.96197" lon="4.54476">
        <ele>348</ele>
        <time>2014-11-30T10:33:26.000Z</time>
      </trkpt>
      <trkpt lat="45.96211" lon="4.54487">
        <ele>349</ele>
        <time>2014-11-30T10:33:32.000Z</time>
      </trkpt>
      <trkpt lat="45.96228" lon="4.54497">
        <ele>349</ele>
        <time>2014-11-30T10:33:38.000Z</time>
      </trkpt>
      <trkpt lat="45.96233" lon="4.54502">
        <ele>349</ele>
        <time>2014-11-30T10:33:39.000Z</time>
      </trkpt>
      <trkpt lat="45.96243" lon="4.54516">
        <ele>349</ele>
        <time>2014-11-30T10:33:45.000Z</time>
      </trkpt>
      <trkpt lat="45.9625" lon="4.54534">
        <ele>350</ele>
        <time>2014-11-30T10:33:50.000Z</time>
      </trkpt>
      <trkpt lat="45.96253" lon="4.54545">
        <ele>349</ele>
        <time>2014-11-30T10:33:54.000Z</time>
      </trkpt>
      <trkpt lat="45.96253" lon="4.54547">
        <ele>349</ele>
        <time>2014-11-30T10:33:56.000Z</time>
      </trkpt>
      <trkpt lat="45.96254" lon="4.5455">
        <ele>348</ele>
        <time>2014-11-30T10:33:57.000Z</time>
      </trkpt>
      <trkpt lat="45.96257" lon="4.5456">
        <ele>348</ele>
        <time>2014-11-30T10:34:03.000Z</time>
      </trkpt>
      <trkpt lat="45.96257" lon="4.54575">
        <ele>347</ele>
        <time>2014-11-30T10:34:10.000Z</time>
      </trkpt>
      <trkpt lat="45.96257" lon="4.54577">
        <ele>347</ele>
        <time>2014-11-30T10:34:12.000Z</time>
      </trkpt>
      <trkpt lat="45.96257" lon="4.54579">
        <ele>347</ele>
        <time>2014-11-30T10:34:13.000Z</time>
      </trkpt>
      <trkpt lat="45.96258" lon="4.54596">
        <ele>351</ele>
        <time>2014-11-30T10:34:23.000Z</time>
      </trkpt>
      <trkpt lat="45.96258" lon="4.54598">
        <ele>351</ele>
        <time>2014-11-30T10:34:25.000Z</time>
      </trkpt>
      <trkpt lat="45.96263" lon="4.54604">
        <ele>353</ele>
        <time>2014-11-30T10:34:31.000Z</time>
      </trkpt>
      <trkpt lat="45.96268" lon="4.54612">
        <ele>355</ele>
        <time>2014-11-30T10:34:37.000Z</time>
      </trkpt>
      <trkpt lat="45.96269" lon="4.54613">
        <ele>355</ele>
        <time>2014-11-30T10:34:38.000Z</time>
      </trkpt>
      <trkpt lat="45.96277" lon="4.54615">
        <ele>355</ele>
        <time>2014-11-30T10:34:43.000Z</time>
      </trkpt>
      <trkpt lat="45.96284" lon="4.54619">
        <ele>356</ele>
        <time>2014-11-30T10:34:48.000Z</time>
      </trkpt>
      <trkpt lat="45.96298" lon="4.54624">
        <ele>356</ele>
        <time>2014-11-30T10:34:53.000Z</time>
      </trkpt>
      <trkpt lat="45.96314" lon="4.54628">
        <ele>357</ele>
        <time>2014-11-30T10:34:58.000Z</time>
      </trkpt>
      <trkpt lat="45.96326" lon="4.54631">
        <ele>357</ele>
        <time>2014-11-30T10:35:03.000Z</time>
      </trkpt>
      <trkpt lat="45.96337" lon="4.54634">
        <ele>357</ele>
        <time>2014-11-30T10:35:07.000Z</time>
      </trkpt>
      <trkpt lat="45.96348" lon="4.54636">
        <ele>357</ele>
        <time>2014-11-30T10:35:10.000Z</time>
      </trkpt>
      <trkpt lat="45.9636" lon="4.54643">
        <ele>357</ele>
        <time>2014-11-30T10:35:14.000Z</time>
      </trkpt>
      <trkpt lat="45.96376" lon="4.54663">
        <ele>357</ele>
        <time>2014-11-30T10:35:23.000Z</time>
      </trkpt>
      <trkpt lat="45.96389" lon="4.54669">
        <ele>366</ele>
        <time>2014-11-30T10:35:27.000Z</time>
      </trkpt>
      <trkpt lat="45.96405" lon="4.54678">
        <ele>364</ele>
        <time>2014-11-30T10:35:33.000Z</time>
      </trkpt>
      <trkpt lat="45.96415" lon="4.54683">
        <ele>364</ele>
        <time>2014-11-30T10:35:37.000Z</time>
      </trkpt>
      <trkpt lat="45.96418" lon="4.54684">
        <ele>360</ele>
        <time>2014-11-30T10:35:38.000Z</time>
      </trkpt>
      <trkpt lat="45.96428" lon="4.5469">
        <ele>361</ele>
        <time>2014-11-30T10:35:42.000Z</time>
      </trkpt>
      <trkpt lat="45.96434" lon="4.54697">
        <ele>362</ele>
        <time>2014-11-30T10:35:45.000Z</time>
      </trkpt>
      <trkpt lat="45.9645" lon="4.54706">
        <ele>363</ele>
        <time>2014-11-30T10:35:50.000Z</time>
      </trkpt>
      <trkpt lat="45.96464" lon="4.5471">
        <ele>362</ele>
        <time>2014-11-30T10:35:53.000Z</time>
      </trkpt>
      <trkpt lat="45.96472" lon="4.54713">
        <ele>362</ele>
        <time>2014-11-30T10:35:57.000Z</time>
      </trkpt>
      <trkpt lat="45.96484" lon="4.54716">
        <ele>362</ele>
        <time>2014-11-30T10:36:02.000Z</time>
      </trkpt>
      <trkpt lat="45.96503" lon="4.54721">
        <ele>358</ele>
        <time>2014-11-30T10:36:07.000Z</time>
      </trkpt>
      <trkpt lat="45.96516" lon="4.54732">
        <ele>358</ele>
        <time>2014-11-30T10:36:12.000Z</time>
      </trkpt>
      <trkpt lat="45.96538" lon="4.54759">
        <ele>363</ele>
        <time>2014-11-30T10:36:23.000Z</time>
      </trkpt>
      <trkpt lat="45.96543" lon="4.54765">
        <ele>363</ele>
        <time>2014-11-30T10:36:25.000Z</time>
      </trkpt>
      <trkpt lat="45.96551" lon="4.54777">
        <ele>363</ele>
        <time>2014-11-30T10:36:29.000Z</time>
      </trkpt>
      <trkpt lat="45.96554" lon="4.54785">
        <ele>364</ele>
        <time>2014-11-30T10:36:33.000Z</time>
      </trkpt>
      <trkpt lat="45.96557" lon="4.54791">
        <ele>364</ele>
        <time>2014-11-30T10:36:37.000Z</time>
      </trkpt>
      <trkpt lat="45.96566" lon="4.54801">
        <ele>365</ele>
        <time>2014-11-30T10:36:43.000Z</time>
      </trkpt>
      <trkpt lat="45.96572" lon="4.54807">
        <ele>365</ele>
        <time>2014-11-30T10:36:48.000Z</time>
      </trkpt>
      <trkpt lat="45.96582" lon="4.54815">
        <ele>365</ele>
        <time>2014-11-30T10:36:55.000Z</time>
      </trkpt>
      <trkpt lat="45.96585" lon="4.54816">
        <ele>363</ele>
        <time>2014-11-30T10:36:57.000Z</time>
      </trkpt>
      <trkpt lat="45.96592" lon="4.54822">
        <ele>364</ele>
        <time>2014-11-30T10:37:02.000Z</time>
      </trkpt>
      <trkpt lat="45.96602" lon="4.54827">
        <ele>363</ele>
        <time>2014-11-30T10:37:07.000Z</time>
      </trkpt>
      <trkpt lat="45.96615" lon="4.54835">
        <ele>373</ele>
        <time>2014-11-30T10:37:13.000Z</time>
      </trkpt>
      <trkpt lat="45.96621" lon="4.54833">
        <ele>363</ele>
        <time>2014-11-30T10:37:15.000Z</time>
      </trkpt>
      <trkpt lat="45.96643" lon="4.54829">
        <ele>363</ele>
        <time>2014-11-30T10:37:23.000Z</time>
      </trkpt>
      <trkpt lat="45.96653" lon="4.54824">
        <ele>363</ele>
        <time>2014-11-30T10:37:27.000Z</time>
      </trkpt>
      <trkpt lat="45.96671" lon="4.54825">
        <ele>364</ele>
        <time>2014-11-30T10:37:33.000Z</time>
      </trkpt>
      <trkpt lat="45.96688" lon="4.54828">
        <ele>364</ele>
        <time>2014-11-30T10:37:38.000Z</time>
      </trkpt>
      <trkpt lat="45.96706" lon="4.5483">
        <ele>364</ele>
        <time>2014-11-30T10:37:45.000Z</time>
      </trkpt>
      <trkpt lat="45.9672" lon="4.54833">
        <ele>363</ele>
        <time>2014-11-30T10:37:50.000Z</time>
      </trkpt>
      <trkpt lat="45.96734" lon="4.54835">
        <ele>369</ele>
        <time>2014-11-30T10:37:55.000Z</time>
      </trkpt>
      <trkpt lat="45.96736" lon="4.54836">
        <ele>369</ele>
        <time>2014-11-30T10:37:56.000Z</time>
      </trkpt>
      <trkpt lat="45.96749" lon="4.54836">
        <ele>365</ele>
        <time>2014-11-30T10:38:01.000Z</time>
      </trkpt>
      <trkpt lat="45.96751" lon="4.54836">
        <ele>364</ele>
        <time>2014-11-30T10:38:02.000Z</time>
      </trkpt>
      <trkpt lat="45.96757" lon="4.54836">
        <ele>366</ele>
        <time>2014-11-30T10:38:03.000Z</time>
      </trkpt>
      <trkpt lat="45.96772" lon="4.54848">
        <ele>370</ele>
        <time>2014-11-30T10:38:10.000Z</time>
      </trkpt>
      <trkpt lat="45.9678" lon="4.54857">
        <ele>372</ele>
        <time>2014-11-30T10:38:13.000Z</time>
      </trkpt>
      <trkpt lat="45.96798" lon="4.54879">
        <ele>373</ele>
        <time>2014-11-30T10:38:21.000Z</time>
      </trkpt>
      <trkpt lat="45.968" lon="4.54882">
        <ele>373</ele>
        <time>2014-11-30T10:38:23.000Z</time>
      </trkpt>
      <trkpt lat="45.96809" lon="4.54894">
        <ele>374</ele>
        <time>2014-11-30T10:38:27.000Z</time>
      </trkpt>
      <trkpt lat="45.96814" lon="4.54899">
        <ele>373</ele>
        <time>2014-11-30T10:38:30.000Z</time>
      </trkpt>
      <trkpt lat="45.96825" lon="4.54913">
        <ele>373</ele>
        <time>2014-11-30T10:38:36.000Z</time>
      </trkpt>
      <trkpt lat="45.96833" lon="4.54919">
        <ele>374</ele>
        <time>2014-11-30T10:38:39.000Z</time>
      </trkpt>
      <trkpt lat="45.96843" lon="4.54928">
        <ele>375</ele>
        <time>2014-11-30T10:38:45.000Z</time>
      </trkpt>
      <trkpt lat="45.96856" lon="4.54938">
        <ele>377</ele>
        <time>2014-11-30T10:38:51.000Z</time>
      </trkpt>
      <trkpt lat="45.9687" lon="4.54946">
        <ele>378</ele>
        <time>2014-11-30T10:38:59.000Z</time>
      </trkpt>
      <trkpt lat="45.96878" lon="4.54949">
        <ele>378</ele>
        <time>2014-11-30T10:39:03.000Z</time>
      </trkpt>
      <trkpt lat="45.9689" lon="4.54953">
        <ele>377</ele>
        <time>2014-11-30T10:39:07.000Z</time>
      </trkpt>
      <trkpt lat="45.96906" lon="4.5496">
        <ele>377</ele>
        <time>2014-11-30T10:39:13.000Z</time>
      </trkpt>
      <trkpt lat="45.96916" lon="4.54967">
        <ele>377</ele>
        <time>2014-11-30T10:39:17.000Z</time>
      </trkpt>
      <trkpt lat="45.96923" lon="4.54975">
        <ele>376</ele>
        <time>2014-11-30T10:39:22.000Z</time>
      </trkpt>
      <trkpt lat="45.96925" lon="4.5498">
        <ele>376</ele>
        <time>2014-11-30T10:39:24.000Z</time>
      </trkpt>
      <trkpt lat="45.96931" lon="4.54997">
        <ele>376</ele>
        <time>2014-11-30T10:39:29.000Z</time>
      </trkpt>
      <trkpt lat="45.96932" lon="4.55008">
        <ele>380</ele>
        <time>2014-11-30T10:39:36.000Z</time>
      </trkpt>
      <trkpt lat="45.96931" lon="4.55018">
        <ele>381</ele>
        <time>2014-11-30T10:39:42.000Z</time>
      </trkpt>
      <trkpt lat="45.96929" lon="4.55028">
        <ele>382</ele>
        <time>2014-11-30T10:39:48.000Z</time>
      </trkpt>
      <trkpt lat="45.96929" lon="4.55031">
        <ele>382</ele>
        <time>2014-11-30T10:39:49.000Z</time>
      </trkpt>
      <trkpt lat="45.96929" lon="4.55035">
        <ele>382</ele>
        <time>2014-11-30T10:39:51.000Z</time>
      </trkpt>
      <trkpt lat="45.9693" lon="4.55042">
        <ele>383</ele>
        <time>2014-11-30T10:39:56.000Z</time>
      </trkpt>
      <trkpt lat="45.96933" lon="4.55052">
        <ele>384</ele>
        <time>2014-11-30T10:40:23.000Z</time>
      </trkpt>
      <trkpt lat="45.96928" lon="4.55058">
        <ele>385</ele>
        <time>2014-11-30T10:40:27.000Z</time>
      </trkpt>
      <trkpt lat="45.9692" lon="4.55065">
        <ele>386</ele>
        <time>2014-11-30T10:40:35.000Z</time>
      </trkpt>
      <trkpt lat="45.96918" lon="4.55068">
        <ele>386</ele>
        <time>2014-11-30T10:40:37.000Z</time>
      </trkpt>
      <trkpt lat="45.96909" lon="4.55073">
        <ele>389</ele>
        <time>2014-11-30T10:40:44.000Z</time>
      </trkpt>
      <trkpt lat="45.96899" lon="4.55075">
        <ele>390</ele>
        <time>2014-11-30T10:40:51.000Z</time>
      </trkpt>
      <trkpt lat="45.96892" lon="4.55075">
        <ele>390</ele>
        <time>2014-11-30T10:40:57.000Z</time>
      </trkpt>
      <trkpt lat="45.96891" lon="4.55077">
        <ele>390</ele>
        <time>2014-11-30T10:40:59.000Z</time>
      </trkpt>
      <trkpt lat="45.96883" lon="4.55079">
        <ele>391</ele>
        <time>2014-11-30T10:41:03.000Z</time>
      </trkpt>
      <trkpt lat="45.96881" lon="4.55079">
        <ele>391</ele>
        <time>2014-11-30T10:41:05.000Z</time>
      </trkpt>
      <trkpt lat="45.96872" lon="4.55082">
        <ele>392</ele>
        <time>2014-11-30T10:41:11.000Z</time>
      </trkpt>
      <trkpt lat="45.96871" lon="4.55083">
        <ele>392</ele>
        <time>2014-11-30T10:41:12.000Z</time>
      </trkpt>
      <trkpt lat="45.96857" lon="4.55091">
        <ele>400</ele>
        <time>2014-11-30T10:41:21.000Z</time>
      </trkpt>
      <trkpt lat="45.96854" lon="4.55093">
        <ele>400</ele>
        <time>2014-11-30T10:41:24.000Z</time>
      </trkpt>
      <trkpt lat="45.96853" lon="4.55093">
        <ele>400</ele>
        <time>2014-11-30T10:41:25.000Z</time>
      </trkpt>
      <trkpt lat="45.96847" lon="4.55095">
        <ele>401</ele>
        <time>2014-11-30T10:41:29.000Z</time>
      </trkpt>
      <trkpt lat="45.9684" lon="4.55098">
        <ele>401</ele>
        <time>2014-11-30T10:41:36.000Z</time>
      </trkpt>
      <trkpt lat="45.96835" lon="4.551">
        <ele>401</ele>
        <time>2014-11-30T10:41:40.000Z</time>
      </trkpt>
      <trkpt lat="45.96826" lon="4.55104">
        <ele>406</ele>
        <time>2014-11-30T10:41:46.000Z</time>
      </trkpt>
      <trkpt lat="45.96816" lon="4.55109">
        <ele>407</ele>
        <time>2014-11-30T10:41:52.000Z</time>
      </trkpt>
      <trkpt lat="45.96806" lon="4.55114">
        <ele>408</ele>
        <time>2014-11-30T10:41:59.000Z</time>
      </trkpt>
      <trkpt lat="45.96796" lon="4.55119">
        <ele>409</ele>
        <time>2014-11-30T10:42:07.000Z</time>
      </trkpt>
      <trkpt lat="45.96789" lon="4.55122">
        <ele>409</ele>
        <time>2014-11-30T10:42:13.000Z</time>
      </trkpt>
      <trkpt lat="45.96766" lon="4.55138">
        <ele>410</ele>
        <time>2014-11-30T10:42:30.000Z</time>
      </trkpt>
      <trkpt lat="45.96765" lon="4.5514">
        <ele>410</ele>
        <time>2014-11-30T10:42:32.000Z</time>
      </trkpt>
      <trkpt lat="45.96761" lon="4.55142">
        <ele>411</ele>
        <time>2014-11-30T10:42:35.000Z</time>
      </trkpt>
      <trkpt lat="45.96752" lon="4.55151">
        <ele>411</ele>
        <time>2014-11-30T10:42:43.000Z</time>
      </trkpt>
      <trkpt lat="45.9675" lon="4.55154">
        <ele>411</ele>
        <time>2014-11-30T10:42:45.000Z</time>
      </trkpt>
      <trkpt lat="45.96746" lon="4.55159">
        <ele>417</ele>
        <time>2014-11-30T10:42:50.000Z</time>
      </trkpt>
      <trkpt lat="45.96738" lon="4.55166">
        <ele>418</ele>
        <time>2014-11-30T10:42:56.000Z</time>
      </trkpt>
      <trkpt lat="45.96733" lon="4.55171">
        <ele>420</ele>
        <time>2014-11-30T10:43:01.000Z</time>
      </trkpt>
      <trkpt lat="45.96727" lon="4.55177">
        <ele>422</ele>
        <time>2014-11-30T10:43:07.000Z</time>
      </trkpt>
      <trkpt lat="45.96726" lon="4.55178">
        <ele>422</ele>
        <time>2014-11-30T10:43:08.000Z</time>
      </trkpt>
      <trkpt lat="45.96722" lon="4.55181">
        <ele>424</ele>
        <time>2014-11-30T10:43:11.000Z</time>
      </trkpt>
      <trkpt lat="45.96717" lon="4.55186">
        <ele>425</ele>
        <time>2014-11-30T10:43:16.000Z</time>
      </trkpt>
      <trkpt lat="45.96711" lon="4.55192">
        <ele>426</ele>
        <time>2014-11-30T10:43:22.000Z</time>
      </trkpt>
      <trkpt lat="45.9671" lon="4.55195">
        <ele>426</ele>
        <time>2014-11-30T10:43:25.000Z</time>
      </trkpt>
      <trkpt lat="45.96708" lon="4.55199">
        <ele>427</ele>
        <time>2014-11-30T10:43:28.000Z</time>
      </trkpt>
      <trkpt lat="45.96706" lon="4.55202">
        <ele>427</ele>
        <time>2014-11-30T10:43:32.000Z</time>
      </trkpt>
      <trkpt lat="45.96704" lon="4.55205">
        <ele>427</ele>
        <time>2014-11-30T10:43:36.000Z</time>
      </trkpt>
      <trkpt lat="45.96707" lon="4.55215">
        <ele>427</ele>
        <time>2014-11-30T10:43:43.000Z</time>
      </trkpt>
      <trkpt lat="45.96707" lon="4.55218">
        <ele>427</ele>
        <time>2014-11-30T10:43:46.000Z</time>
      </trkpt>
      <trkpt lat="45.96707" lon="4.55222">
        <ele>427</ele>
        <time>2014-11-30T10:43:50.000Z</time>
      </trkpt>
      <trkpt lat="45.96707" lon="4.55222">
        <ele>427</ele>
        <time>2014-11-30T10:43:52.000Z</time>
      </trkpt>
      <trkpt lat="45.96704" lon="4.55226">
        <ele>427</ele>
        <time>2014-11-30T10:43:57.000Z</time>
      </trkpt>
      <trkpt lat="45.96703" lon="4.55226">
        <ele>427</ele>
        <time>2014-11-30T10:43:58.000Z</time>
      </trkpt>
      <trkpt lat="45.967" lon="4.5523">
        <ele>427</ele>
        <time>2014-11-30T10:44:02.000Z</time>
      </trkpt>
      <trkpt lat="45.96698" lon="4.55234">
        <ele>428</ele>
        <time>2014-11-30T10:44:07.000Z</time>
      </trkpt>
      <trkpt lat="45.96698" lon="4.55241">
        <ele>428</ele>
        <time>2014-11-30T10:44:12.000Z</time>
      </trkpt>
      <trkpt lat="45.96699" lon="4.55241">
        <ele>428</ele>
        <time>2014-11-30T10:44:13.000Z</time>
      </trkpt>
      <trkpt lat="45.96698" lon="4.55249">
        <ele>428</ele>
        <time>2014-11-30T10:44:17.000Z</time>
      </trkpt>
      <trkpt lat="45.96699" lon="4.55256">
        <ele>429</ele>
        <time>2014-11-30T10:44:21.000Z</time>
      </trkpt>
      <trkpt lat="45.967" lon="4.55261">
        <ele>430</ele>
        <time>2014-11-30T10:44:25.000Z</time>
      </trkpt>
      <trkpt lat="45.96699" lon="4.55267">
        <ele>430</ele>
        <time>2014-11-30T10:44:30.000Z</time>
      </trkpt>
      <trkpt lat="45.96696" lon="4.55272">
        <ele>430</ele>
        <time>2014-11-30T10:44:35.000Z</time>
      </trkpt>
      <trkpt lat="45.96696" lon="4.55273">
        <ele>430</ele>
        <time>2014-11-30T10:44:36.000Z</time>
      </trkpt>
      <trkpt lat="45.96695" lon="4.55275">
        <ele>430</ele>
        <time>2014-11-30T10:44:38.000Z</time>
      </trkpt>
      <trkpt lat="45.96694" lon="4.55279">
        <ele>430</ele>
        <time>2014-11-30T10:44:41.000Z</time>
      </trkpt>
      <trkpt lat="45.96693" lon="4.55286">
        <ele>430</ele>
        <time>2014-11-30T10:44:46.000Z</time>
      </trkpt>
      <trkpt lat="45.96693" lon="4.55288">
        <ele>430</ele>
        <time>2014-11-30T10:44:47.000Z</time>
      </trkpt>
      <trkpt lat="45.96693" lon="4.55292">
        <ele>430</ele>
        <time>2014-11-30T10:44:49.000Z</time>
      </trkpt>
      <trkpt lat="45.96689" lon="4.55297">
        <ele>431</ele>
        <time>2014-11-30T10:44:54.000Z</time>
      </trkpt>
      <trkpt lat="45.96686" lon="4.55301">
        <ele>431</ele>
        <time>2014-11-30T10:44:58.000Z</time>
      </trkpt>
      <trkpt lat="45.96686" lon="4.55301">
        <ele>431</ele>
        <time>2014-11-30T10:44:59.000Z</time>
      </trkpt>
      <trkpt lat="45.96686" lon="4.55302">
        <ele>431</ele>
        <time>2014-11-30T10:45:00.000Z</time>
      </trkpt>
      <trkpt lat="45.96685" lon="4.55308">
        <ele>431</ele>
        <time>2014-11-30T10:45:05.000Z</time>
      </trkpt>
      <trkpt lat="45.96685" lon="4.5531">
        <ele>431</ele>
        <time>2014-11-30T10:45:06.000Z</time>
      </trkpt>
      <trkpt lat="45.96685" lon="4.55313">
        <ele>431</ele>
        <time>2014-11-30T10:45:10.000Z</time>
      </trkpt>
      <trkpt lat="45.96687" lon="4.55318">
        <ele>431</ele>
        <time>2014-11-30T10:45:18.000Z</time>
      </trkpt>
      <trkpt lat="45.96687" lon="4.55323">
        <ele>431</ele>
        <time>2014-11-30T10:45:28.000Z</time>
      </trkpt>
      <trkpt lat="45.96687" lon="4.55327">
        <ele>431</ele>
        <time>2014-11-30T10:45:34.000Z</time>
      </trkpt>
      <trkpt lat="45.96687" lon="4.5533">
        <ele>431</ele>
        <time>2014-11-30T10:45:38.000Z</time>
      </trkpt>
      <trkpt lat="45.96687" lon="4.55335">
        <ele>436</ele>
        <time>2014-11-30T10:45:44.000Z</time>
      </trkpt>
      <trkpt lat="45.96686" lon="4.55341">
        <ele>436</ele>
        <time>2014-11-30T10:45:49.000Z</time>
      </trkpt>
      <trkpt lat="45.96685" lon="4.55345">
        <ele>436</ele>
        <time>2014-11-30T10:45:54.000Z</time>
      </trkpt>
      <trkpt lat="45.96685" lon="4.55347">
        <ele>436</ele>
        <time>2014-11-30T10:45:55.000Z</time>
      </trkpt>
      <trkpt lat="45.96684" lon="4.55351">
        <ele>437</ele>
        <time>2014-11-30T10:45:59.000Z</time>
      </trkpt>
      <trkpt lat="45.96682" lon="4.55355">
        <ele>437</ele>
        <time>2014-11-30T10:46:05.000Z</time>
      </trkpt>
      <trkpt lat="45.96681" lon="4.55359">
        <ele>437</ele>
        <time>2014-11-30T10:46:10.000Z</time>
      </trkpt>
      <trkpt lat="45.9668" lon="4.55364">
        <ele>437</ele>
        <time>2014-11-30T10:46:18.000Z</time>
      </trkpt>
      <trkpt lat="45.9668" lon="4.55368">
        <ele>438</ele>
        <time>2014-11-30T10:46:25.000Z</time>
      </trkpt>
      <trkpt lat="45.96681" lon="4.55374">
        <ele>438</ele>
        <time>2014-11-30T10:46:32.000Z</time>
      </trkpt>
      <trkpt lat="45.96681" lon="4.55377">
        <ele>438</ele>
        <time>2014-11-30T10:46:37.000Z</time>
      </trkpt>
      <trkpt lat="45.96683" lon="4.55381">
        <ele>439</ele>
        <time>2014-11-30T10:46:42.000Z</time>
      </trkpt>
      <trkpt lat="45.96684" lon="4.55385">
        <ele>439</ele>
        <time>2014-11-30T10:46:47.000Z</time>
      </trkpt>
      <trkpt lat="45.96682" lon="4.55391">
        <ele>439</ele>
        <time>2014-11-30T10:46:50.000Z</time>
      </trkpt>
      <trkpt lat="45.9668" lon="4.55393">
        <ele>439</ele>
        <time>2014-11-30T10:46:56.000Z</time>
      </trkpt>
      <trkpt lat="45.9668" lon="4.55395">
        <ele>439</ele>
        <time>2014-11-30T10:47:01.000Z</time>
      </trkpt>
      <trkpt lat="45.9668" lon="4.55398">
        <ele>439</ele>
        <time>2014-11-30T10:47:03.000Z</time>
      </trkpt>
      <trkpt lat="45.96681" lon="4.55405">
        <ele>439</ele>
        <time>2014-11-30T10:47:11.000Z</time>
      </trkpt>
      <trkpt lat="45.96684" lon="4.55407">
        <ele>439</ele>
        <time>2014-11-30T10:47:16.000Z</time>
      </trkpt>
      <trkpt lat="45.96686" lon="4.5541">
        <ele>439</ele>
        <time>2014-11-30T10:47:21.000Z</time>
      </trkpt>
      <trkpt lat="45.9669" lon="4.55414">
        <ele>440</ele>
        <time>2014-11-30T10:47:28.000Z</time>
      </trkpt>
      <trkpt lat="45.96692" lon="4.55416">
        <ele>440</ele>
        <time>2014-11-30T10:47:30.000Z</time>
      </trkpt>
      <trkpt lat="45.96692" lon="4.55426">
        <ele>447</ele>
        <time>2014-11-30T10:47:36.000Z</time>
      </trkpt>
      <trkpt lat="45.9669" lon="4.55431">
        <ele>448</ele>
        <time>2014-11-30T10:47:40.000Z</time>
      </trkpt>
      <trkpt lat="45.96693" lon="4.55439">
        <ele>449</ele>
        <time>2014-11-30T10:47:45.000Z</time>
      </trkpt>
      <trkpt lat="45.96695" lon="4.55442">
        <ele>450</ele>
        <time>2014-11-30T10:47:48.000Z</time>
      </trkpt>
      <trkpt lat="45.96696" lon="4.55444">
        <ele>450</ele>
        <time>2014-11-30T10:47:50.000Z</time>
      </trkpt>
      <trkpt lat="45.96699" lon="4.55453">
        <ele>451</ele>
        <time>2014-11-30T10:47:56.000Z</time>
      </trkpt>
      <trkpt lat="45.967" lon="4.55461">
        <ele>452</ele>
        <time>2014-11-30T10:48:02.000Z</time>
      </trkpt>
      <trkpt lat="45.967" lon="4.5547">
        <ele>453</ele>
        <time>2014-11-30T10:48:08.000Z</time>
      </trkpt>
      <trkpt lat="45.96701" lon="4.55471">
        <ele>453</ele>
        <time>2014-11-30T10:48:10.000Z</time>
      </trkpt>
      <trkpt lat="45.96701" lon="4.55476">
        <ele>453</ele>
        <time>2014-11-30T10:48:15.000Z</time>
      </trkpt>
      <trkpt lat="45.96702" lon="4.55481">
        <ele>454</ele>
        <time>2014-11-30T10:48:20.000Z</time>
      </trkpt>
      <trkpt lat="45.96704" lon="4.55484">
        <ele>454</ele>
        <time>2014-11-30T10:48:24.000Z</time>
      </trkpt>
      <trkpt lat="45.96705" lon="4.55489">
        <ele>455</ele>
        <time>2014-11-30T10:48:30.000Z</time>
      </trkpt>
      <trkpt lat="45.96705" lon="4.55492">
        <ele>455</ele>
        <time>2014-11-30T10:48:33.000Z</time>
      </trkpt>
      <trkpt lat="45.96706" lon="4.555">
        <ele>455</ele>
        <time>2014-11-30T10:48:40.000Z</time>
      </trkpt>
      <trkpt lat="45.96707" lon="4.55505">
        <ele>466</ele>
        <time>2014-11-30T10:48:45.000Z</time>
      </trkpt>
      <trkpt lat="45.96707" lon="4.55505">
        <ele>466</ele>
        <time>2014-11-30T10:48:46.000Z</time>
      </trkpt>
      <trkpt lat="45.96707" lon="4.55508">
        <ele>466</ele>
        <time>2014-11-30T10:48:51.000Z</time>
      </trkpt>
      <trkpt lat="45.9671" lon="4.55511">
        <ele>467</ele>
        <time>2014-11-30T10:48:54.000Z</time>
      </trkpt>
      <trkpt lat="45.96711" lon="4.55513">
        <ele>467</ele>
        <time>2014-11-30T10:48:57.000Z</time>
      </trkpt>
      <trkpt lat="45.96711" lon="4.55515">
        <ele>467</ele>
        <time>2014-11-30T10:48:59.000Z</time>
      </trkpt>
      <trkpt lat="45.96712" lon="4.55518">
        <ele>467</ele>
        <time>2014-11-30T10:49:03.000Z</time>
      </trkpt>
      <trkpt lat="45.9671" lon="4.5552">
        <ele>467</ele>
        <time>2014-11-30T10:49:15.000Z</time>
      </trkpt>
      <trkpt lat="45.96709" lon="4.5552">
        <ele>467</ele>
        <time>2014-11-30T10:49:46.000Z</time>
      </trkpt>
      <trkpt lat="45.9671" lon="4.55523">
        <ele>467</ele>
        <time>2014-11-30T10:49:51.000Z</time>
      </trkpt>
      <trkpt lat="45.96712" lon="4.55527">
        <ele>468</ele>
        <time>2014-11-30T10:49:58.000Z</time>
      </trkpt>
      <trkpt lat="45.96714" lon="4.55531">
        <ele>469</ele>
        <time>2014-11-30T10:50:03.000Z</time>
      </trkpt>
      <trkpt lat="45.96716" lon="4.55535">
        <ele>469</ele>
        <time>2014-11-30T10:50:07.000Z</time>
      </trkpt>
      <trkpt lat="45.96717" lon="4.55538">
        <ele>470</ele>
        <time>2014-11-30T10:50:12.000Z</time>
      </trkpt>
      <trkpt lat="45.96718" lon="4.55542">
        <ele>470</ele>
        <time>2014-11-30T10:50:16.000Z</time>
      </trkpt>
      <trkpt lat="45.96722" lon="4.55546">
        <ele>471</ele>
        <time>2014-11-30T10:50:22.000Z</time>
      </trkpt>
      <trkpt lat="45.96724" lon="4.55549">
        <ele>471</ele>
        <time>2014-11-30T10:50:27.000Z</time>
      </trkpt>
      <trkpt lat="45.96725" lon="4.55548">
        <ele>471</ele>
        <time>2014-11-30T10:50:37.000Z</time>
      </trkpt>
      <trkpt lat="45.96723" lon="4.55549">
        <ele>471</ele>
        <time>2014-11-30T10:50:46.000Z</time>
      </trkpt>
      <trkpt lat="45.96718" lon="4.55555">
        <ele>471</ele>
        <time>2014-11-30T10:51:06.000Z</time>
      </trkpt>
      <trkpt lat="45.96718" lon="4.55556">
        <ele>471</ele>
        <time>2014-11-30T10:51:07.000Z</time>
      </trkpt>
      <trkpt lat="45.96715" lon="4.55563">
        <ele>472</ele>
        <time>2014-11-30T10:51:12.000Z</time>
      </trkpt>
      <trkpt lat="45.96714" lon="4.55567">
        <ele>472</ele>
        <time>2014-11-30T10:51:18.000Z</time>
      </trkpt>
      <trkpt lat="45.96714" lon="4.55576">
        <ele>473</ele>
        <time>2014-11-30T10:51:44.000Z</time>
      </trkpt>
      <trkpt lat="45.96714" lon="4.55577">
        <ele>473</ele>
        <time>2014-11-30T10:51:45.000Z</time>
      </trkpt>
      <trkpt lat="45.96717" lon="4.55583">
        <ele>484</ele>
        <time>2014-11-30T10:51:52.000Z</time>
      </trkpt>
      <trkpt lat="45.96718" lon="4.55584">
        <ele>484</ele>
        <time>2014-11-30T10:51:53.000Z</time>
      </trkpt>
      <trkpt lat="45.96719" lon="4.55584">
        <ele>484</ele>
        <time>2014-11-30T10:51:54.000Z</time>
      </trkpt>
      <trkpt lat="45.96721" lon="4.55588">
        <ele>485</ele>
        <time>2014-11-30T10:51:58.000Z</time>
      </trkpt>
      <trkpt lat="45.96723" lon="4.55595">
        <ele>485</ele>
        <time>2014-11-30T10:52:03.000Z</time>
      </trkpt>
      <trkpt lat="45.96725" lon="4.55596">
        <ele>485</ele>
        <time>2014-11-30T10:52:05.000Z</time>
      </trkpt>
      <trkpt lat="45.96728" lon="4.55605">
        <ele>486</ele>
        <time>2014-11-30T10:52:12.000Z</time>
      </trkpt>
      <trkpt lat="45.96731" lon="4.55611">
        <ele>486</ele>
        <time>2014-11-30T10:52:22.000Z</time>
      </trkpt>
      <trkpt lat="45.96733" lon="4.55615">
        <ele>487</ele>
        <time>2014-11-30T10:52:27.000Z</time>
      </trkpt>
      <trkpt lat="45.96734" lon="4.55618">
        <ele>487</ele>
        <time>2014-11-30T10:52:33.000Z</time>
      </trkpt>
      <trkpt lat="45.96737" lon="4.55617">
        <ele>487</ele>
        <time>2014-11-30T10:52:37.000Z</time>
      </trkpt>
      <trkpt lat="45.96741" lon="4.5562">
        <ele>488</ele>
        <time>2014-11-30T10:52:44.000Z</time>
      </trkpt>
      <trkpt lat="45.96743" lon="4.55622">
        <ele>488</ele>
        <time>2014-11-30T10:52:49.000Z</time>
      </trkpt>
      <trkpt lat="45.96744" lon="4.55622">
        <ele>488</ele>
        <time>2014-11-30T10:52:54.000Z</time>
      </trkpt>
      <trkpt lat="45.96746" lon="4.55624">
        <ele>488</ele>
        <time>2014-11-30T10:52:58.000Z</time>
      </trkpt>
      <trkpt lat="45.96747" lon="4.55624">
        <ele>488</ele>
        <time>2014-11-30T10:53:05.000Z</time>
      </trkpt>
      <trkpt lat="45.96753" lon="4.55614">
        <ele>496</ele>
        <time>2014-11-30T10:53:35.000Z</time>
      </trkpt>
      <trkpt lat="45.96758" lon="4.55604">
        <ele>494</ele>
        <time>2014-11-30T10:53:42.000Z</time>
      </trkpt>
      <trkpt lat="45.96762" lon="4.5559">
        <ele>491</ele>
        <time>2014-11-30T10:53:50.000Z</time>
      </trkpt>
      <trkpt lat="45.96763" lon="4.55588">
        <ele>491</ele>
        <time>2014-11-30T10:53:51.000Z</time>
      </trkpt>
      <trkpt lat="45.96765" lon="4.55576">
        <ele>484</ele>
        <time>2014-11-30T10:53:55.000Z</time>
      </trkpt>
      <trkpt lat="45.9677" lon="4.55557">
        <ele>483</ele>
        <time>2014-11-30T10:54:03.000Z</time>
      </trkpt>
      <trkpt lat="45.96776" lon="4.55549">
        <ele>483</ele>
        <time>2014-11-30T10:54:10.000Z</time>
      </trkpt>
      <trkpt lat="45.96778" lon="4.55546">
        <ele>483</ele>
        <time>2014-11-30T10:54:12.000Z</time>
      </trkpt>
      <trkpt lat="45.96783" lon="4.55547">
        <ele>484</ele>
        <time>2014-11-30T10:54:17.000Z</time>
      </trkpt>
      <trkpt lat="45.96784" lon="4.55553">
        <ele>484</ele>
        <time>2014-11-30T10:54:25.000Z</time>
      </trkpt>
      <trkpt lat="45.96787" lon="4.55563">
        <ele>486</ele>
        <time>2014-11-30T10:54:35.000Z</time>
      </trkpt>
      <trkpt lat="45.96789" lon="4.55573">
        <ele>486</ele>
        <time>2014-11-30T10:54:44.000Z</time>
      </trkpt>
      <trkpt lat="45.9679" lon="4.55579">
        <ele>487</ele>
        <time>2014-11-30T10:54:49.000Z</time>
      </trkpt>
      <trkpt lat="45.96793" lon="4.5559">
        <ele>499</ele>
        <time>2014-11-30T10:55:00.000Z</time>
      </trkpt>
      <trkpt lat="45.96798" lon="4.55607">
        <ele>501</ele>
        <time>2014-11-30T10:55:17.000Z</time>
      </trkpt>
      <trkpt lat="45.96801" lon="4.55611">
        <ele>502</ele>
        <time>2014-11-30T10:55:22.000Z</time>
      </trkpt>
      <trkpt lat="45.96809" lon="4.55611">
        <ele>503</ele>
        <time>2014-11-30T10:55:28.000Z</time>
      </trkpt>
      <trkpt lat="45.96818" lon="4.55609">
        <ele>503</ele>
        <time>2014-11-30T10:55:35.000Z</time>
      </trkpt>
      <trkpt lat="45.96828" lon="4.5561">
        <ele>504</ele>
        <time>2014-11-30T10:55:43.000Z</time>
      </trkpt>
      <trkpt lat="45.96838" lon="4.55609">
        <ele>512</ele>
        <time>2014-11-30T10:55:51.000Z</time>
      </trkpt>
      <trkpt lat="45.96846" lon="4.55608">
        <ele>513</ele>
        <time>2014-11-30T10:55:58.000Z</time>
      </trkpt>
      <trkpt lat="45.96856" lon="4.55605">
        <ele>513</ele>
        <time>2014-11-30T10:56:05.000Z</time>
      </trkpt>
      <trkpt lat="45.96868" lon="4.55601">
        <ele>514</ele>
        <time>2014-11-30T10:56:14.000Z</time>
      </trkpt>
      <trkpt lat="45.96873" lon="4.556">
        <ele>514</ele>
        <time>2014-11-30T10:56:18.000Z</time>
      </trkpt>
      <trkpt lat="45.96874" lon="4.55604">
        <ele>515</ele>
        <time>2014-11-30T10:56:26.000Z</time>
      </trkpt>
      <trkpt lat="45.96872" lon="4.5561">
        <ele>515</ele>
        <time>2014-11-30T10:56:32.000Z</time>
      </trkpt>
      <trkpt lat="45.96873" lon="4.55617">
        <ele>516</ele>
        <time>2014-11-30T10:56:38.000Z</time>
      </trkpt>
      <trkpt lat="45.96874" lon="4.55624">
        <ele>517</ele>
        <time>2014-11-30T10:56:44.000Z</time>
      </trkpt>
      <trkpt lat="45.96875" lon="4.55632">
        <ele>518</ele>
        <time>2014-11-30T10:56:51.000Z</time>
      </trkpt>
      <trkpt lat="45.96875" lon="4.55632">
        <ele>518</ele>
        <time>2014-11-30T10:56:52.000Z</time>
      </trkpt>
      <trkpt lat="45.96875" lon="4.55637">
        <ele>519</ele>
        <time>2014-11-30T10:56:57.000Z</time>
      </trkpt>
      <trkpt lat="45.96877" lon="4.55642">
        <ele>519</ele>
        <time>2014-11-30T10:57:02.000Z</time>
      </trkpt>
      <trkpt lat="45.96879" lon="4.55646">
        <ele>520</ele>
        <time>2014-11-30T10:57:07.000Z</time>
      </trkpt>
      <trkpt lat="45.96881" lon="4.5565">
        <ele>521</ele>
        <time>2014-11-30T10:57:12.000Z</time>
      </trkpt>
      <trkpt lat="45.96881" lon="4.55652">
        <ele>521</ele>
        <time>2014-11-30T10:57:13.000Z</time>
      </trkpt>
      <trkpt lat="45.96882" lon="4.55656">
        <ele>521</ele>
        <time>2014-11-30T10:57:17.000Z</time>
      </trkpt>
      <trkpt lat="45.96884" lon="4.55663">
        <ele>522</ele>
        <time>2014-11-30T10:57:24.000Z</time>
      </trkpt>
      <trkpt lat="45.96885" lon="4.55672">
        <ele>533</ele>
        <time>2014-11-30T10:57:31.000Z</time>
      </trkpt>
      <trkpt lat="45.96886" lon="4.5568">
        <ele>533</ele>
        <time>2014-11-30T10:57:38.000Z</time>
      </trkpt>
      <trkpt lat="45.96887" lon="4.55688">
        <ele>533</ele>
        <time>2014-11-30T10:57:46.000Z</time>
      </trkpt>
      <trkpt lat="45.96888" lon="4.55696">
        <ele>534</ele>
        <time>2014-11-30T10:57:53.000Z</time>
      </trkpt>
      <trkpt lat="45.96889" lon="4.55701">
        <ele>534</ele>
        <time>2014-11-30T10:57:57.000Z</time>
      </trkpt>
      <trkpt lat="45.96893" lon="4.55706">
        <ele>535</ele>
        <time>2014-11-30T10:58:05.000Z</time>
      </trkpt>
      <trkpt lat="45.96894" lon="4.55708">
        <ele>535</ele>
        <time>2014-11-30T10:58:12.000Z</time>
      </trkpt>
      <trkpt lat="45.96897" lon="4.55706">
        <ele>535</ele>
        <time>2014-11-30T10:58:21.000Z</time>
      </trkpt>
      <trkpt lat="45.96907" lon="4.55689">
        <ele>534</ele>
        <time>2014-11-30T10:58:29.000Z</time>
      </trkpt>
      <trkpt lat="45.96919" lon="4.55677">
        <ele>531</ele>
        <time>2014-11-30T10:58:35.000Z</time>
      </trkpt>
      <trkpt lat="45.9693" lon="4.55665">
        <ele>526</ele>
        <time>2014-11-30T10:58:41.000Z</time>
      </trkpt>
      <trkpt lat="45.96944" lon="4.55654">
        <ele>523</ele>
        <time>2014-11-30T10:58:47.000Z</time>
      </trkpt>
      <trkpt lat="45.96954" lon="4.55651">
        <ele>521</ele>
        <time>2014-11-30T10:58:51.000Z</time>
      </trkpt>
      <trkpt lat="45.96963" lon="4.55653">
        <ele>521</ele>
        <time>2014-11-30T10:58:54.000Z</time>
      </trkpt>
      <trkpt lat="45.96969" lon="4.55656">
        <ele>521</ele>
        <time>2014-11-30T10:58:56.000Z</time>
      </trkpt>
      <trkpt lat="45.96978" lon="4.55673">
        <ele>525</ele>
        <time>2014-11-30T10:59:01.000Z</time>
      </trkpt>
      <trkpt lat="45.96981" lon="4.55695">
        <ele>525</ele>
        <time>2014-11-30T10:59:06.000Z</time>
      </trkpt>
      <trkpt lat="45.96981" lon="4.55715">
        <ele>525</ele>
        <time>2014-11-30T10:59:10.000Z</time>
      </trkpt>
      <trkpt lat="45.96981" lon="4.55728">
        <ele>525</ele>
        <time>2014-11-30T10:59:12.000Z</time>
      </trkpt>
      <trkpt lat="45.96985" lon="4.5575">
        <ele>522</ele>
        <time>2014-11-30T10:59:18.000Z</time>
      </trkpt>
      <trkpt lat="45.96985" lon="4.55757">
        <ele>522</ele>
        <time>2014-11-30T10:59:19.000Z</time>
      </trkpt>
      <trkpt lat="45.96991" lon="4.55791">
        <ele>523</ele>
        <time>2014-11-30T10:59:26.000Z</time>
      </trkpt>
      <trkpt lat="45.97" lon="4.55819">
        <ele>518</ele>
        <time>2014-11-30T10:59:32.000Z</time>
      </trkpt>
      <trkpt lat="45.97007" lon="4.55839">
        <ele>508</ele>
        <time>2014-11-30T10:59:37.000Z</time>
      </trkpt>
      <trkpt lat="45.97015" lon="4.55864">
        <ele>505</ele>
        <time>2014-11-30T10:59:43.000Z</time>
      </trkpt>
      <trkpt lat="45.97023" lon="4.55886">
        <ele>504</ele>
        <time>2014-11-30T10:59:48.000Z</time>
      </trkpt>
      <trkpt lat="45.97033" lon="4.559">
        <ele>503</ele>
        <time>2014-11-30T10:59:52.000Z</time>
      </trkpt>
      <trkpt lat="45.97036" lon="4.55902">
        <ele>503</ele>
        <time>2014-11-30T10:59:53.000Z</time>
      </trkpt>
      <trkpt lat="45.97042" lon="4.55906">
        <ele>502</ele>
        <time>2014-11-30T10:59:56.000Z</time>
      </trkpt>
      <trkpt lat="45.97055" lon="4.55912">
        <ele>501</ele>
        <time>2014-11-30T11:00:01.000Z</time>
      </trkpt>
      <trkpt lat="45.97061" lon="4.55917">
        <ele>501</ele>
        <time>2014-11-30T11:00:06.000Z</time>
      </trkpt>
      <trkpt lat="45.97066" lon="4.55924">
        <ele>500</ele>
        <time>2014-11-30T11:00:14.000Z</time>
      </trkpt>
      <trkpt lat="45.9707" lon="4.55929">
        <ele>500</ele>
        <time>2014-11-30T11:00:18.000Z</time>
      </trkpt>
      <trkpt lat="45.9708" lon="4.55937">
        <ele>500</ele>
        <time>2014-11-30T11:00:23.000Z</time>
      </trkpt>
      <trkpt lat="45.97096" lon="4.5595">
        <ele>494</ele>
        <time>2014-11-30T11:00:29.000Z</time>
      </trkpt>
      <trkpt lat="45.97114" lon="4.55964">
        <ele>494</ele>
        <time>2014-11-30T11:00:35.000Z</time>
      </trkpt>
      <trkpt lat="45.97129" lon="4.55973">
        <ele>493</ele>
        <time>2014-11-30T11:00:40.000Z</time>
      </trkpt>
      <trkpt lat="45.9714" lon="4.5598">
        <ele>492</ele>
        <time>2014-11-30T11:00:43.000Z</time>
      </trkpt>
      <trkpt lat="45.97156" lon="4.55994">
        <ele>491</ele>
        <time>2014-11-30T11:00:48.000Z</time>
      </trkpt>
      <trkpt lat="45.97169" lon="4.56003">
        <ele>492</ele>
        <time>2014-11-30T11:00:54.000Z</time>
      </trkpt>
      <trkpt lat="45.97173" lon="4.56008">
        <ele>494</ele>
        <time>2014-11-30T11:00:58.000Z</time>
      </trkpt>
      <trkpt lat="45.97178" lon="4.56008">
        <ele>495</ele>
        <time>2014-11-30T11:01:41.000Z</time>
      </trkpt>
      <trkpt lat="45.97187" lon="4.55999">
        <ele>491</ele>
        <time>2014-11-30T11:01:47.000Z</time>
      </trkpt>
      <trkpt lat="45.97197" lon="4.55982">
        <ele>491</ele>
        <time>2014-11-30T11:01:53.000Z</time>
      </trkpt>
      <trkpt lat="45.97202" lon="4.55961">
        <ele>490</ele>
        <time>2014-11-30T11:01:58.000Z</time>
      </trkpt>
      <trkpt lat="45.97206" lon="4.55936">
        <ele>489</ele>
        <time>2014-11-30T11:02:03.000Z</time>
      </trkpt>
      <trkpt lat="45.97208" lon="4.55917">
        <ele>488</ele>
        <time>2014-11-30T11:02:09.000Z</time>
      </trkpt>
      <trkpt lat="45.97224" lon="4.55889">
        <ele>480</ele>
        <time>2014-11-30T11:02:16.000Z</time>
      </trkpt>
      <trkpt lat="45.97229" lon="4.5588">
        <ele>479</ele>
        <time>2014-11-30T11:02:19.000Z</time>
      </trkpt>
      <trkpt lat="45.97236" lon="4.55848">
        <ele>475</ele>
        <time>2014-11-30T11:02:28.000Z</time>
      </trkpt>
      <trkpt lat="45.97237" lon="4.55845">
        <ele>475</ele>
        <time>2014-11-30T11:02:29.000Z</time>
      </trkpt>
      <trkpt lat="45.97242" lon="4.55832">
        <ele>470</ele>
        <time>2014-11-30T11:02:33.000Z</time>
      </trkpt>
      <trkpt lat="45.97258" lon="4.55838">
        <ele>473</ele>
        <time>2014-11-30T11:02:39.000Z</time>
      </trkpt>
      <trkpt lat="45.97271" lon="4.55843">
        <ele>476</ele>
        <time>2014-11-30T11:02:43.000Z</time>
      </trkpt>
      <trkpt lat="45.97286" lon="4.55834">
        <ele>477</ele>
        <time>2014-11-30T11:02:47.000Z</time>
      </trkpt>
      <trkpt lat="45.97301" lon="4.55818">
        <ele>470</ele>
        <time>2014-11-30T11:02:52.000Z</time>
      </trkpt>
      <trkpt lat="45.97314" lon="4.5581">
        <ele>470</ele>
        <time>2014-11-30T11:02:56.000Z</time>
      </trkpt>
      <trkpt lat="45.97323" lon="4.55811">
        <ele>471</ele>
        <time>2014-11-30T11:03:00.000Z</time>
      </trkpt>
      <trkpt lat="45.97331" lon="4.55814">
        <ele>471</ele>
        <time>2014-11-30T11:03:04.000Z</time>
      </trkpt>
      <trkpt lat="45.97344" lon="4.5582">
        <ele>478</ele>
        <time>2014-11-30T11:03:11.000Z</time>
      </trkpt>
      <trkpt lat="45.97352" lon="4.55825">
        <ele>479</ele>
        <time>2014-11-30T11:03:16.000Z</time>
      </trkpt>
      <trkpt lat="45.97361" lon="4.55836">
        <ele>485</ele>
        <time>2014-11-30T11:03:23.000Z</time>
      </trkpt>
      <trkpt lat="45.97364" lon="4.5584">
        <ele>486</ele>
        <time>2014-11-30T11:03:26.000Z</time>
      </trkpt>
      <trkpt lat="45.97367" lon="4.55845">
        <ele>487</ele>
        <time>2014-11-30T11:03:30.000Z</time>
      </trkpt>
      <trkpt lat="45.97372" lon="4.55851">
        <ele>488</ele>
        <time>2014-11-30T11:03:37.000Z</time>
      </trkpt>
      <trkpt lat="45.97373" lon="4.55852">
        <ele>488</ele>
        <time>2014-11-30T11:03:39.000Z</time>
      </trkpt>
      <trkpt lat="45.97375" lon="4.55856">
        <ele>489</ele>
        <time>2014-11-30T11:03:47.000Z</time>
      </trkpt>
      <trkpt lat="45.97376" lon="4.55857">
        <ele>489</ele>
        <time>2014-11-30T11:03:49.000Z</time>
      </trkpt>
      <trkpt lat="45.97377" lon="4.5586">
        <ele>489</ele>
        <time>2014-11-30T11:03:51.000Z</time>
      </trkpt>
      <trkpt lat="45.97381" lon="4.55867">
        <ele>490</ele>
        <time>2014-11-30T11:03:57.000Z</time>
      </trkpt>
      <trkpt lat="45.97382" lon="4.55869">
        <ele>490</ele>
        <time>2014-11-30T11:03:58.000Z</time>
      </trkpt>
      <trkpt lat="45.97386" lon="4.55876">
        <ele>491</ele>
        <time>2014-11-30T11:04:03.000Z</time>
      </trkpt>
      <trkpt lat="45.97388" lon="4.55879">
        <ele>491</ele>
        <time>2014-11-30T11:04:05.000Z</time>
      </trkpt>
      <trkpt lat="45.97392" lon="4.55885">
        <ele>492</ele>
        <time>2014-11-30T11:04:10.000Z</time>
      </trkpt>
      <trkpt lat="45.97393" lon="4.55886">
        <ele>492</ele>
        <time>2014-11-30T11:04:11.000Z</time>
      </trkpt>
      <trkpt lat="45.97397" lon="4.55888">
        <ele>493</ele>
        <time>2014-11-30T11:04:18.000Z</time>
      </trkpt>
      <trkpt lat="45.97399" lon="4.55886">
        <ele>493</ele>
        <time>2014-11-30T11:04:29.000Z</time>
      </trkpt>
      <trkpt lat="45.97399" lon="4.55882">
        <ele>492</ele>
        <time>2014-11-30T11:04:38.000Z</time>
      </trkpt>
      <trkpt lat="45.974" lon="4.55879">
        <ele>492</ele>
        <time>2014-11-30T11:04:46.000Z</time>
      </trkpt>
      <trkpt lat="45.97403" lon="4.55876">
        <ele>492</ele>
        <time>2014-11-30T11:04:54.000Z</time>
      </trkpt>
      <trkpt lat="45.97404" lon="4.55873">
        <ele>492</ele>
        <time>2014-11-30T11:04:58.000Z</time>
      </trkpt>
      <trkpt lat="45.97403" lon="4.55871">
        <ele>492</ele>
        <time>2014-11-30T11:05:04.000Z</time>
      </trkpt>
      <trkpt lat="45.97403" lon="4.55865">
        <ele>492</ele>
        <time>2014-11-30T11:05:15.000Z</time>
      </trkpt>
      <trkpt lat="45.97404" lon="4.55859">
        <ele>491</ele>
        <time>2014-11-30T11:05:21.000Z</time>
      </trkpt>
      <trkpt lat="45.97402" lon="4.55854">
        <ele>491</ele>
        <time>2014-11-30T11:05:26.000Z</time>
      </trkpt>
      <trkpt lat="45.97402" lon="4.55853">
        <ele>491</ele>
        <time>2014-11-30T11:05:27.000Z</time>
      </trkpt>
      <trkpt lat="45.974" lon="4.55844">
        <ele>491</ele>
        <time>2014-11-30T11:05:32.000Z</time>
      </trkpt>
      <trkpt lat="45.97401" lon="4.55842">
        <ele>491</ele>
        <time>2014-11-30T11:05:33.000Z</time>
      </trkpt>
      <trkpt lat="45.97399" lon="4.55837">
        <ele>491</ele>
        <time>2014-11-30T11:05:38.000Z</time>
      </trkpt>
      <trkpt lat="45.97397" lon="4.55829">
        <ele>487</ele>
        <time>2014-11-30T11:05:43.000Z</time>
      </trkpt>
      <trkpt lat="45.97396" lon="4.55828">
        <ele>487</ele>
        <time>2014-11-30T11:05:44.000Z</time>
      </trkpt>
      <trkpt lat="45.97394" lon="4.55822">
        <ele>486</ele>
        <time>2014-11-30T11:05:48.000Z</time>
      </trkpt>
      <trkpt lat="45.97393" lon="4.55818">
        <ele>486</ele>
        <time>2014-11-30T11:05:51.000Z</time>
      </trkpt>
      <trkpt lat="45.97392" lon="4.55811">
        <ele>485</ele>
        <time>2014-11-30T11:05:57.000Z</time>
      </trkpt>
      <trkpt lat="45.9739" lon="4.55803">
        <ele>484</ele>
        <time>2014-11-30T11:06:01.000Z</time>
      </trkpt>
      <trkpt lat="45.97389" lon="4.55795">
        <ele>484</ele>
        <time>2014-11-30T11:06:07.000Z</time>
      </trkpt>
      <trkpt lat="45.97386" lon="4.5579">
        <ele>484</ele>
        <time>2014-11-30T11:06:12.000Z</time>
      </trkpt>
      <trkpt lat="45.97383" lon="4.55784">
        <ele>483</ele>
        <time>2014-11-30T11:06:20.000Z</time>
      </trkpt>
      <trkpt lat="45.9738" lon="4.55778">
        <ele>483</ele>
        <time>2014-11-30T11:06:29.000Z</time>
      </trkpt>
      <trkpt lat="45.97378" lon="4.55775">
        <ele>482</ele>
        <time>2014-11-30T11:06:32.000Z</time>
      </trkpt>
      <trkpt lat="45.97378" lon="4.55768">
        <ele>482</ele>
        <time>2014-11-30T11:06:43.000Z</time>
      </trkpt>
      <trkpt lat="45.97378" lon="4.55762">
        <ele>482</ele>
        <time>2014-11-30T11:06:50.000Z</time>
      </trkpt>
      <trkpt lat="45.97379" lon="4.55754">
        <ele>482</ele>
        <time>2014-11-30T11:07:03.000Z</time>
      </trkpt>
      <trkpt lat="45.97377" lon="4.5575">
        <ele>478</ele>
        <time>2014-11-30T11:07:07.000Z</time>
      </trkpt>
      <trkpt lat="45.97374" lon="4.55743">
        <ele>477</ele>
        <time>2014-11-30T11:07:12.000Z</time>
      </trkpt>
      <trkpt lat="45.97373" lon="4.55741">
        <ele>477</ele>
        <time>2014-11-30T11:07:14.000Z</time>
      </trkpt>
      <trkpt lat="45.97373" lon="4.55734">
        <ele>476</ele>
        <time>2014-11-30T11:07:18.000Z</time>
      </trkpt>
      <trkpt lat="45.97373" lon="4.5573">
        <ele>476</ele>
        <time>2014-11-30T11:07:20.000Z</time>
      </trkpt>
      <trkpt lat="45.9738" lon="4.55719">
        <ele>477</ele>
        <time>2014-11-30T11:07:25.000Z</time>
      </trkpt>
      <trkpt lat="45.97381" lon="4.55713">
        <ele>477</ele>
        <time>2014-11-30T11:07:28.000Z</time>
      </trkpt>
      <trkpt lat="45.97385" lon="4.55701">
        <ele>477</ele>
        <time>2014-11-30T11:07:35.000Z</time>
      </trkpt>
      <trkpt lat="45.97386" lon="4.55699">
        <ele>477</ele>
        <time>2014-11-30T11:07:36.000Z</time>
      </trkpt>
      <trkpt lat="45.97389" lon="4.55691">
        <ele>477</ele>
        <time>2014-11-30T11:07:41.000Z</time>
      </trkpt>
      <trkpt lat="45.9739" lon="4.55688">
        <ele>477</ele>
        <time>2014-11-30T11:07:43.000Z</time>
      </trkpt>
      <trkpt lat="45.97392" lon="4.55679">
        <ele>477</ele>
        <time>2014-11-30T11:07:47.000Z</time>
      </trkpt>
      <trkpt lat="45.97394" lon="4.5567">
        <ele>478</ele>
        <time>2014-11-30T11:07:52.000Z</time>
      </trkpt>
      <trkpt lat="45.97393" lon="4.55664">
        <ele>471</ele>
        <time>2014-11-30T11:07:56.000Z</time>
      </trkpt>
      <trkpt lat="45.97393" lon="4.55656">
        <ele>470</ele>
        <time>2014-11-30T11:08:03.000Z</time>
      </trkpt>
      <trkpt lat="45.97392" lon="4.55652">
        <ele>469</ele>
        <time>2014-11-30T11:08:06.000Z</time>
      </trkpt>
      <trkpt lat="45.97396" lon="4.55638">
        <ele>467</ele>
        <time>2014-11-30T11:08:48.000Z</time>
      </trkpt>
      <trkpt lat="45.97398" lon="4.55637">
        <ele>467</ele>
        <time>2014-11-30T11:08:57.000Z</time>
      </trkpt>
      <trkpt lat="45.97403" lon="4.55632">
        <ele>467</ele>
        <time>2014-11-30T11:09:37.000Z</time>
      </trkpt>
      <trkpt lat="45.97404" lon="4.55631">
        <ele>467</ele>
        <time>2014-11-30T11:09:40.000Z</time>
      </trkpt>
      <trkpt lat="45.97405" lon="4.55634">
        <ele>468</ele>
        <time>2014-11-30T11:09:45.000Z</time>
      </trkpt>
      <trkpt lat="45.97408" lon="4.5564">
        <ele>469</ele>
        <time>2014-11-30T11:09:52.000Z</time>
      </trkpt>
      <trkpt lat="45.97412" lon="4.55642">
        <ele>471</ele>
        <time>2014-11-30T11:09:57.000Z</time>
      </trkpt>
      <trkpt lat="45.97415" lon="4.55647">
        <ele>472</ele>
        <time>2014-11-30T11:10:02.000Z</time>
      </trkpt>
      <trkpt lat="45.97415" lon="4.55648">
        <ele>473</ele>
        <time>2014-11-30T11:10:03.000Z</time>
      </trkpt>
      <trkpt lat="45.97418" lon="4.55649">
        <ele>478</ele>
        <time>2014-11-30T11:10:07.000Z</time>
      </trkpt>
      <trkpt lat="45.97423" lon="4.55649">
        <ele>478</ele>
        <time>2014-11-30T11:10:13.000Z</time>
      </trkpt>
      <trkpt lat="45.9743" lon="4.55649">
        <ele>478</ele>
        <time>2014-11-30T11:10:18.000Z</time>
      </trkpt>
      <trkpt lat="45.97433" lon="4.5565">
        <ele>478</ele>
        <time>2014-11-30T11:10:20.000Z</time>
      </trkpt>
      <trkpt lat="45.97436" lon="4.55652">
        <ele>478</ele>
        <time>2014-11-30T11:10:27.000Z</time>
      </trkpt>
      <trkpt lat="45.9744" lon="4.55657">
        <ele>478</ele>
        <time>2014-11-30T11:10:38.000Z</time>
      </trkpt>
      <trkpt lat="45.97441" lon="4.55662">
        <ele>478</ele>
        <time>2014-11-30T11:10:53.000Z</time>
      </trkpt>
      <trkpt lat="45.97442" lon="4.55663">
        <ele>478</ele>
        <time>2014-11-30T11:11:00.000Z</time>
      </trkpt>
      <trkpt lat="45.97446" lon="4.55668">
        <ele>489</ele>
        <time>2014-11-30T11:11:07.000Z</time>
      </trkpt>
      <trkpt lat="45.97449" lon="4.55672">
        <ele>489</ele>
        <time>2014-11-30T11:11:12.000Z</time>
      </trkpt>
      <trkpt lat="45.97452" lon="4.55676">
        <ele>490</ele>
        <time>2014-11-30T11:11:17.000Z</time>
      </trkpt>
      <trkpt lat="45.97453" lon="4.55677">
        <ele>490</ele>
        <time>2014-11-30T11:11:18.000Z</time>
      </trkpt>
      <trkpt lat="45.97454" lon="4.55683">
        <ele>490</ele>
        <time>2014-11-30T11:11:23.000Z</time>
      </trkpt>
      <trkpt lat="45.97455" lon="4.55687">
        <ele>491</ele>
        <time>2014-11-30T11:11:27.000Z</time>
      </trkpt>
      <trkpt lat="45.9746" lon="4.55694">
        <ele>492</ele>
        <time>2014-11-30T11:11:34.000Z</time>
      </trkpt>
      <trkpt lat="45.97468" lon="4.55695">
        <ele>492</ele>
        <time>2014-11-30T11:11:42.000Z</time>
      </trkpt>
      <trkpt lat="45.97471" lon="4.55695">
        <ele>492</ele>
        <time>2014-11-30T11:11:44.000Z</time>
      </trkpt>
      <trkpt lat="45.97479" lon="4.55699">
        <ele>493</ele>
        <time>2014-11-30T11:11:52.000Z</time>
      </trkpt>
      <trkpt lat="45.97481" lon="4.55699">
        <ele>493</ele>
        <time>2014-11-30T11:11:56.000Z</time>
      </trkpt>
      <trkpt lat="45.97482" lon="4.55703">
        <ele>493</ele>
        <time>2014-11-30T11:12:02.000Z</time>
      </trkpt>
      <trkpt lat="45.97474" lon="4.55708">
        <ele>494</ele>
        <time>2014-11-30T11:12:14.000Z</time>
      </trkpt>
      <trkpt lat="45.97469" lon="4.55711">
        <ele>494</ele>
        <time>2014-11-30T11:12:20.000Z</time>
      </trkpt>
      <trkpt lat="45.97465" lon="4.55716">
        <ele>494</ele>
        <time>2014-11-30T11:12:29.000Z</time>
      </trkpt>
      <trkpt lat="45.97462" lon="4.55718">
        <ele>494</ele>
        <time>2014-11-30T11:12:34.000Z</time>
      </trkpt>
      <trkpt lat="45.97463" lon="4.5572">
        <ele>495</ele>
        <time>2014-11-30T11:12:40.000Z</time>
      </trkpt>
      <trkpt lat="45.97465" lon="4.55724">
        <ele>495</ele>
        <time>2014-11-30T11:12:45.000Z</time>
      </trkpt>
      <trkpt lat="45.97466" lon="4.55725">
        <ele>495</ele>
        <time>2014-11-30T11:12:49.000Z</time>
      </trkpt>
      <trkpt lat="45.97465" lon="4.55729">
        <ele>496</ele>
        <time>2014-11-30T11:12:56.000Z</time>
      </trkpt>
      <trkpt lat="45.97464" lon="4.55734">
        <ele>496</ele>
        <time>2014-11-30T11:13:04.000Z</time>
      </trkpt>
      <trkpt lat="45.97461" lon="4.55737">
        <ele>496</ele>
        <time>2014-11-30T11:13:10.000Z</time>
      </trkpt>
      <trkpt lat="45.9746" lon="4.55737">
        <ele>496</ele>
        <time>2014-11-30T11:13:11.000Z</time>
      </trkpt>
      <trkpt lat="45.97457" lon="4.55741">
        <ele>496</ele>
        <time>2014-11-30T11:13:18.000Z</time>
      </trkpt>
      <trkpt lat="45.97454" lon="4.55747">
        <ele>496</ele>
        <time>2014-11-30T11:13:25.000Z</time>
      </trkpt>
      <trkpt lat="45.97453" lon="4.5575">
        <ele>502</ele>
        <time>2014-11-30T11:13:35.000Z</time>
      </trkpt>
      <trkpt lat="45.97453" lon="4.55754">
        <ele>502</ele>
        <time>2014-11-30T11:13:41.000Z</time>
      </trkpt>
      <trkpt lat="45.97454" lon="4.5576">
        <ele>502</ele>
        <time>2014-11-30T11:13:49.000Z</time>
      </trkpt>
      <trkpt lat="45.97454" lon="4.55765">
        <ele>502</ele>
        <time>2014-11-30T11:13:54.000Z</time>
      </trkpt>
      <trkpt lat="45.97457" lon="4.55765">
        <ele>503</ele>
        <time>2014-11-30T11:14:00.000Z</time>
      </trkpt>
      <trkpt lat="45.9746" lon="4.55768">
        <ele>503</ele>
        <time>2014-11-30T11:14:06.000Z</time>
      </trkpt>
      <trkpt lat="45.97464" lon="4.55766">
        <ele>504</ele>
        <time>2014-11-30T11:14:10.000Z</time>
      </trkpt>
      <trkpt lat="45.9747" lon="4.55772">
        <ele>504</ele>
        <time>2014-11-30T11:14:17.000Z</time>
      </trkpt>
      <trkpt lat="45.97474" lon="4.55781">
        <ele>505</ele>
        <time>2014-11-30T11:14:25.000Z</time>
      </trkpt>
      <trkpt lat="45.9748" lon="4.55792">
        <ele>506</ele>
        <time>2014-11-30T11:14:34.000Z</time>
      </trkpt>
      <trkpt lat="45.97489" lon="4.55801">
        <ele>508</ele>
        <time>2014-11-30T11:14:43.000Z</time>
      </trkpt>
      <trkpt lat="45.97494" lon="4.5581">
        <ele>509</ele>
        <time>2014-11-30T11:14:48.000Z</time>
      </trkpt>
      <trkpt lat="45.97496" lon="4.5582">
        <ele>512</ele>
        <time>2014-11-30T11:14:55.000Z</time>
      </trkpt>
      <trkpt lat="45.97501" lon="4.55832">
        <ele>518</ele>
        <time>2014-11-30T11:15:04.000Z</time>
      </trkpt>
      <trkpt lat="45.97506" lon="4.55849">
        <ele>521</ele>
        <time>2014-11-30T11:15:14.000Z</time>
      </trkpt>
      <trkpt lat="45.97513" lon="4.55864">
        <ele>523</ele>
        <time>2014-11-30T11:15:25.000Z</time>
      </trkpt>
      <trkpt lat="45.97514" lon="4.55865">
        <ele>523</ele>
        <time>2014-11-30T11:15:26.000Z</time>
      </trkpt>
      <trkpt lat="45.97514" lon="4.55865">
        <ele>523</ele>
        <time>2014-11-30T11:15:27.000Z</time>
      </trkpt>
      <trkpt lat="45.97515" lon="4.55862">
        <ele>523</ele>
        <time>2014-11-30T11:15:36.000Z</time>
      </trkpt>
      <trkpt lat="45.97515" lon="4.55863">
        <ele>523</ele>
        <time>2014-11-30T11:15:44.000Z</time>
      </trkpt>
      <trkpt lat="45.97515" lon="4.5587">
        <ele>524</ele>
        <time>2014-11-30T11:15:48.000Z</time>
      </trkpt>
      <trkpt lat="45.97515" lon="4.55876">
        <ele>524</ele>
        <time>2014-11-30T11:15:54.000Z</time>
      </trkpt>
      <trkpt lat="45.97515" lon="4.55876">
        <ele>524</ele>
        <time>2014-11-30T11:16:06.000Z</time>
      </trkpt>
      <trkpt lat="45.97518" lon="4.55878">
        <ele>524</ele>
        <time>2014-11-30T11:16:09.000Z</time>
      </trkpt>
      <trkpt lat="45.97525" lon="4.55878">
        <ele>525</ele>
        <time>2014-11-30T11:16:13.000Z</time>
      </trkpt>
      <trkpt lat="45.97545" lon="4.55877">
        <ele>526</ele>
        <time>2014-11-30T11:16:23.000Z</time>
      </trkpt>
      <trkpt lat="45.97557" lon="4.55876">
        <ele>526</ele>
        <time>2014-11-30T11:16:29.000Z</time>
      </trkpt>
      <trkpt lat="45.97559" lon="4.55876">
        <ele>527</ele>
        <time>2014-11-30T11:16:30.000Z</time>
      </trkpt>
      <trkpt lat="45.97559" lon="4.55878">
        <ele>527</ele>
        <time>2014-11-30T11:16:37.000Z</time>
      </trkpt>
      <trkpt lat="45.97559" lon="4.55877">
        <ele>527</ele>
        <time>2014-11-30T11:16:42.000Z</time>
      </trkpt>
      <trkpt lat="45.97561" lon="4.55881">
        <ele>527</ele>
        <time>2014-11-30T11:16:50.000Z</time>
      </trkpt>
      <trkpt lat="45.97561" lon="4.55882">
        <ele>527</ele>
        <time>2014-11-30T11:16:51.000Z</time>
      </trkpt>
      <trkpt lat="45.97568" lon="4.55883">
        <ele>528</ele>
        <time>2014-11-30T11:16:58.000Z</time>
      </trkpt>
      <trkpt lat="45.97574" lon="4.55883">
        <ele>528</ele>
        <time>2014-11-30T11:17:05.000Z</time>
      </trkpt>
      <trkpt lat="45.97586" lon="4.55886">
        <ele>533</ele>
        <time>2014-11-30T11:17:14.000Z</time>
      </trkpt>
      <trkpt lat="45.97598" lon="4.55884">
        <ele>532</ele>
        <time>2014-11-30T11:17:22.000Z</time>
      </trkpt>
      <trkpt lat="45.97615" lon="4.5588">
        <ele>532</ele>
        <time>2014-11-30T11:17:28.000Z</time>
      </trkpt>
      <trkpt lat="45.97635" lon="4.55874">
        <ele>531</ele>
        <time>2014-11-30T11:17:35.000Z</time>
      </trkpt>
      <trkpt lat="45.97651" lon="4.5587">
        <ele>531</ele>
        <time>2014-11-30T11:17:41.000Z</time>
      </trkpt>
      <trkpt lat="45.97653" lon="4.55856">
        <ele>529</ele>
        <time>2014-11-30T11:17:46.000Z</time>
      </trkpt>
      <trkpt lat="45.97656" lon="4.55835">
        <ele>526</ele>
        <time>2014-11-30T11:17:52.000Z</time>
      </trkpt>
      <trkpt lat="45.9766" lon="4.55821">
        <ele>519</ele>
        <time>2014-11-30T11:17:57.000Z</time>
      </trkpt>
      <trkpt lat="45.97665" lon="4.55817">
        <ele>519</ele>
        <time>2014-11-30T11:18:01.000Z</time>
      </trkpt>
      <trkpt lat="45.97666" lon="4.55817">
        <ele>519</ele>
        <time>2014-11-30T11:18:18.000Z</time>
      </trkpt>
      <trkpt lat="45.9767" lon="4.55815">
        <ele>519</ele>
        <time>2014-11-30T11:18:25.000Z</time>
      </trkpt>
      <trkpt lat="45.97685" lon="4.5581">
        <ele>518</ele>
        <time>2014-11-30T11:18:31.000Z</time>
      </trkpt>
      <trkpt lat="45.9769" lon="4.55808">
        <ele>518</ele>
        <time>2014-11-30T11:18:33.000Z</time>
      </trkpt>
      <trkpt lat="45.97699" lon="4.5581">
        <ele>518</ele>
        <time>2014-11-30T11:18:39.000Z</time>
      </trkpt>
      <trkpt lat="45.977" lon="4.5581">
        <ele>518</ele>
        <time>2014-11-30T11:18:40.000Z</time>
      </trkpt>
      <trkpt lat="45.97701" lon="4.5581">
        <ele>518</ele>
        <time>2014-11-30T11:18:48.000Z</time>
      </trkpt>
      <trkpt lat="45.97701" lon="4.55811">
        <ele>518</ele>
        <time>2014-11-30T11:18:55.000Z</time>
      </trkpt>
      <trkpt lat="45.97703" lon="4.55812">
        <ele>518</ele>
        <time>2014-11-30T11:19:01.000Z</time>
      </trkpt>
      <trkpt lat="45.97702" lon="4.55812">
        <ele>518</ele>
        <time>2014-11-30T11:19:05.000Z</time>
      </trkpt>
      <trkpt lat="45.97693" lon="4.55813">
        <ele>518</ele>
        <time>2014-11-30T11:19:15.000Z</time>
      </trkpt>
      <trkpt lat="45.97692" lon="4.55814">
        <ele>518</ele>
        <time>2014-11-30T11:19:24.000Z</time>
      </trkpt>
      <trkpt lat="45.97692" lon="4.55817">
        <ele>518</ele>
        <time>2014-11-30T11:19:29.000Z</time>
      </trkpt>
      <trkpt lat="45.97692" lon="4.55819">
        <ele>518</ele>
        <time>2014-11-30T11:19:37.000Z</time>
      </trkpt>
      <trkpt lat="45.97694" lon="4.55821">
        <ele>519</ele>
        <time>2014-11-30T11:19:48.000Z</time>
      </trkpt>
      <trkpt lat="45.97694" lon="4.55823">
        <ele>519</ele>
        <time>2014-11-30T11:19:50.000Z</time>
      </trkpt>
      <trkpt lat="45.97698" lon="4.55835">
        <ele>528</ele>
        <time>2014-11-30T11:19:56.000Z</time>
      </trkpt>
      <trkpt lat="45.977" lon="4.55839">
        <ele>528</ele>
        <time>2014-11-30T11:19:59.000Z</time>
      </trkpt>
      <trkpt lat="45.97702" lon="4.55849">
        <ele>529</ele>
        <time>2014-11-30T11:20:05.000Z</time>
      </trkpt>
      <trkpt lat="45.97702" lon="4.55851">
        <ele>529</ele>
        <time>2014-11-30T11:20:06.000Z</time>
      </trkpt>
      <trkpt lat="45.97704" lon="4.55858">
        <ele>530</ele>
        <time>2014-11-30T11:20:16.000Z</time>
      </trkpt>
      <trkpt lat="45.97709" lon="4.55861">
        <ele>530</ele>
        <time>2014-11-30T11:20:40.000Z</time>
      </trkpt>
      <trkpt lat="45.97715" lon="4.55868">
        <ele>530</ele>
        <time>2014-11-30T11:20:48.000Z</time>
      </trkpt>
      <trkpt lat="45.97721" lon="4.55878">
        <ele>531</ele>
        <time>2014-11-30T11:20:56.000Z</time>
      </trkpt>
      <trkpt lat="45.97728" lon="4.5589">
        <ele>532</ele>
        <time>2014-11-30T11:21:04.000Z</time>
      </trkpt>
      <trkpt lat="45.97735" lon="4.55913">
        <ele>534</ele>
        <time>2014-11-30T11:21:11.000Z</time>
      </trkpt>
      <trkpt lat="45.97737" lon="4.55916">
        <ele>534</ele>
        <time>2014-11-30T11:21:13.000Z</time>
      </trkpt>
      <trkpt lat="45.97737" lon="4.55917">
        <ele>537</ele>
        <time>2014-11-30T11:21:16.000Z</time>
      </trkpt>
      <trkpt lat="45.97743" lon="4.55919">
        <ele>537</ele>
        <time>2014-11-30T11:21:20.000Z</time>
      </trkpt>
      <trkpt lat="45.97743" lon="4.55922">
        <ele>537</ele>
        <time>2014-11-30T11:21:22.000Z</time>
      </trkpt>
      <trkpt lat="45.97747" lon="4.55926">
        <ele>537</ele>
        <time>2014-11-30T11:21:26.000Z</time>
      </trkpt>
      <trkpt lat="45.97749" lon="4.55929">
        <ele>537</ele>
        <time>2014-11-30T11:21:28.000Z</time>
      </trkpt>
      <trkpt lat="45.97752" lon="4.55935">
        <ele>532</ele>
        <time>2014-11-30T11:21:32.000Z</time>
      </trkpt>
      <trkpt lat="45.97753" lon="4.55943">
        <ele>532</ele>
        <time>2014-11-30T11:21:36.000Z</time>
      </trkpt>
      <trkpt lat="45.97754" lon="4.5595">
        <ele>531</ele>
        <time>2014-11-30T11:21:39.000Z</time>
      </trkpt>
      <trkpt lat="45.97755" lon="4.55963">
        <ele>532</ele>
        <time>2014-11-30T11:21:44.000Z</time>
      </trkpt>
      <trkpt lat="45.97755" lon="4.55964">
        <ele>532</ele>
        <time>2014-11-30T11:21:45.000Z</time>
      </trkpt>
      <trkpt lat="45.97757" lon="4.55972">
        <ele>532</ele>
        <time>2014-11-30T11:21:49.000Z</time>
      </trkpt>
      <trkpt lat="45.97757" lon="4.55973">
        <ele>532</ele>
        <time>2014-11-30T11:21:50.000Z</time>
      </trkpt>
      <trkpt lat="45.97757" lon="4.55978">
        <ele>533</ele>
        <time>2014-11-30T11:21:57.000Z</time>
      </trkpt>
      <trkpt lat="45.97754" lon="4.5598">
        <ele>533</ele>
        <time>2014-11-30T11:22:00.000Z</time>
      </trkpt>
      <trkpt lat="45.97755" lon="4.55981">
        <ele>533</ele>
        <time>2014-11-30T11:22:01.000Z</time>
      </trkpt>
      <trkpt lat="45.97756" lon="4.55983">
        <ele>534</ele>
        <time>2014-11-30T11:22:04.000Z</time>
      </trkpt>
      <trkpt lat="45.97759" lon="4.55987">
        <ele>534</ele>
        <time>2014-11-30T11:22:08.000Z</time>
      </trkpt>
      <trkpt lat="45.97764" lon="4.55995">
        <ele>534</ele>
        <time>2014-11-30T11:22:15.000Z</time>
      </trkpt>
      <trkpt lat="45.97767" lon="4.56001">
        <ele>537</ele>
        <time>2014-11-30T11:22:23.000Z</time>
      </trkpt>
      <trkpt lat="45.9777" lon="4.56006">
        <ele>536</ele>
        <time>2014-11-30T11:22:30.000Z</time>
      </trkpt>
      <trkpt lat="45.97773" lon="4.56011">
        <ele>536</ele>
        <time>2014-11-30T11:22:46.000Z</time>
      </trkpt>
      <trkpt lat="45.97775" lon="4.56014">
        <ele>536</ele>
        <time>2014-11-30T11:22:47.000Z</time>
      </trkpt>
      <trkpt lat="45.97793" lon="4.56023">
        <ele>535</ele>
        <time>2014-11-30T11:22:53.000Z</time>
      </trkpt>
      <trkpt lat="45.97806" lon="4.56033">
        <ele>535</ele>
        <time>2014-11-30T11:22:58.000Z</time>
      </trkpt>
      <trkpt lat="45.97821" lon="4.56045">
        <ele>536</ele>
        <time>2014-11-30T11:23:04.000Z</time>
      </trkpt>
      <trkpt lat="45.97831" lon="4.56053">
        <ele>537</ele>
        <time>2014-11-30T11:23:10.000Z</time>
      </trkpt>
      <trkpt lat="45.97832" lon="4.56054">
        <ele>537</ele>
        <time>2014-11-30T11:23:18.000Z</time>
      </trkpt>
      <trkpt lat="45.97835" lon="4.56056">
        <ele>538</ele>
        <time>2014-11-30T11:23:22.000Z</time>
      </trkpt>
      <trkpt lat="45.97838" lon="4.56054">
        <ele>538</ele>
        <time>2014-11-30T11:23:29.000Z</time>
      </trkpt>
      <trkpt lat="45.97839" lon="4.56061">
        <ele>539</ele>
        <time>2014-11-30T11:23:53.000Z</time>
      </trkpt>
      <trkpt lat="45.9784" lon="4.56079">
        <ele>541</ele>
        <time>2014-11-30T11:24:01.000Z</time>
      </trkpt>
      <trkpt lat="45.97842" lon="4.56083">
        <ele>541</ele>
        <time>2014-11-30T11:24:03.000Z</time>
      </trkpt>
      <trkpt lat="45.97847" lon="4.56087">
        <ele>546</ele>
        <time>2014-11-30T11:24:08.000Z</time>
      </trkpt>
      <trkpt lat="45.97852" lon="4.56087">
        <ele>547</ele>
        <time>2014-11-30T11:24:13.000Z</time>
      </trkpt>
      <trkpt lat="45.97853" lon="4.56086">
        <ele>547</ele>
        <time>2014-11-30T11:24:15.000Z</time>
      </trkpt>
      <trkpt lat="45.97856" lon="4.56088">
        <ele>548</ele>
        <time>2014-11-30T11:24:22.000Z</time>
      </trkpt>
      <trkpt lat="45.97856" lon="4.56092">
        <ele>548</ele>
        <time>2014-11-30T11:24:27.000Z</time>
      </trkpt>
      <trkpt lat="45.9786" lon="4.56092">
        <ele>548</ele>
        <time>2014-11-30T11:24:31.000Z</time>
      </trkpt>
      <trkpt lat="45.97876" lon="4.56086">
        <ele>549</ele>
        <time>2014-11-30T11:24:38.000Z</time>
      </trkpt>
      <trkpt lat="45.97887" lon="4.56088">
        <ele>550</ele>
        <time>2014-11-30T11:24:43.000Z</time>
      </trkpt>
      <trkpt lat="45.97901" lon="4.56089">
        <ele>549</ele>
        <time>2014-11-30T11:24:48.000Z</time>
      </trkpt>
      <trkpt lat="45.97922" lon="4.56092">
        <ele>553</ele>
        <time>2014-11-30T11:24:55.000Z</time>
      </trkpt>
      <trkpt lat="45.97934" lon="4.56091">
        <ele>558</ele>
        <time>2014-11-30T11:25:01.000Z</time>
      </trkpt>
      <trkpt lat="45.97936" lon="4.56091">
        <ele>558</ele>
        <time>2014-11-30T11:25:03.000Z</time>
      </trkpt>
      <trkpt lat="45.97941" lon="4.56084">
        <ele>559</ele>
        <time>2014-11-30T11:25:11.000Z</time>
      </trkpt>
      <trkpt lat="45.97945" lon="4.56081">
        <ele>554</ele>
        <time>2014-11-30T11:25:21.000Z</time>
      </trkpt>
      <trkpt lat="45.97949" lon="4.56071">
        <ele>555</ele>
        <time>2014-11-30T11:25:27.000Z</time>
      </trkpt>
      <trkpt lat="45.97949" lon="4.5606">
        <ele>554</ele>
        <time>2014-11-30T11:25:30.000Z</time>
      </trkpt>
      <trkpt lat="45.9795" lon="4.56051">
        <ele>554</ele>
        <time>2014-11-30T11:25:32.000Z</time>
      </trkpt>
      <trkpt lat="45.97952" lon="4.56025">
        <ele>553</ele>
        <time>2014-11-30T11:25:38.000Z</time>
      </trkpt>
      <trkpt lat="45.97955" lon="4.5601">
        <ele>553</ele>
        <time>2014-11-30T11:25:43.000Z</time>
      </trkpt>
      <trkpt lat="45.97955" lon="4.55988">
        <ele>550</ele>
        <time>2014-11-30T11:25:49.000Z</time>
      </trkpt>
      <trkpt lat="45.97955" lon="4.55973">
        <ele>550</ele>
        <time>2014-11-30T11:25:56.000Z</time>
      </trkpt>
      <trkpt lat="45.97955" lon="4.55958">
        <ele>550</ele>
        <time>2014-11-30T11:26:03.000Z</time>
      </trkpt>
      <trkpt lat="45.97954" lon="4.55942">
        <ele>549</ele>
        <time>2014-11-30T11:26:09.000Z</time>
      </trkpt>
      <trkpt lat="45.97952" lon="4.55916">
        <ele>545</ele>
        <time>2014-11-30T11:26:17.000Z</time>
      </trkpt>
      <trkpt lat="45.9795" lon="4.55891">
        <ele>545</ele>
        <time>2014-11-30T11:26:24.000Z</time>
      </trkpt>
      <trkpt lat="45.97952" lon="4.55869">
        <ele>544</ele>
        <time>2014-11-30T11:26:29.000Z</time>
      </trkpt>
      <trkpt lat="45.97957" lon="4.55848">
        <ele>544</ele>
        <time>2014-11-30T11:26:35.000Z</time>
      </trkpt>
      <trkpt lat="45.97962" lon="4.55839">
        <ele>545</ele>
        <time>2014-11-30T11:26:40.000Z</time>
      </trkpt>
      <trkpt lat="45.97967" lon="4.55829">
        <ele>541</ele>
        <time>2014-11-30T11:26:47.000Z</time>
      </trkpt>
      <trkpt lat="45.97971" lon="4.55822">
        <ele>542</ele>
        <time>2014-11-30T11:26:52.000Z</time>
      </trkpt>
      <trkpt lat="45.97976" lon="4.55811">
        <ele>542</ele>
        <time>2014-11-30T11:26:58.000Z</time>
      </trkpt>
      <trkpt lat="45.97985" lon="4.558">
        <ele>542</ele>
        <time>2014-11-30T11:27:05.000Z</time>
      </trkpt>
      <trkpt lat="45.97988" lon="4.55796">
        <ele>542</ele>
        <time>2014-11-30T11:27:08.000Z</time>
      </trkpt>
      <trkpt lat="45.97994" lon="4.55795">
        <ele>542</ele>
        <time>2014-11-30T11:27:15.000Z</time>
      </trkpt>
      <trkpt lat="45.97998" lon="4.55793">
        <ele>542</ele>
        <time>2014-11-30T11:27:19.000Z</time>
      </trkpt>
      <trkpt lat="45.98003" lon="4.55784">
        <ele>550</ele>
        <time>2014-11-30T11:27:24.000Z</time>
      </trkpt>
      <trkpt lat="45.98004" lon="4.55781">
        <ele>550</ele>
        <time>2014-11-30T11:27:25.000Z</time>
      </trkpt>
      <trkpt lat="45.98006" lon="4.55777">
        <ele>550</ele>
        <time>2014-11-30T11:27:27.000Z</time>
      </trkpt>
      <trkpt lat="45.98004" lon="4.5577">
        <ele>549</ele>
        <time>2014-11-30T11:27:32.000Z</time>
      </trkpt>
      <trkpt lat="45.98004" lon="4.55766">
        <ele>548</ele>
        <time>2014-11-30T11:27:34.000Z</time>
      </trkpt>
      <trkpt lat="45.98007" lon="4.55756">
        <ele>547</ele>
        <time>2014-11-30T11:27:41.000Z</time>
      </trkpt>
      <trkpt lat="45.98009" lon="4.55746">
        <ele>542</ele>
        <time>2014-11-30T11:27:45.000Z</time>
      </trkpt>
      <trkpt lat="45.98011" lon="4.55732">
        <ele>539</ele>
        <time>2014-11-30T11:27:52.000Z</time>
      </trkpt>
      <trkpt lat="45.9801" lon="4.55729">
        <ele>538</ele>
        <time>2014-11-30T11:27:54.000Z</time>
      </trkpt>
      <trkpt lat="45.9801" lon="4.55725">
        <ele>538</ele>
        <time>2014-11-30T11:27:56.000Z</time>
      </trkpt>
      <trkpt lat="45.9801" lon="4.55721">
        <ele>537</ele>
        <time>2014-11-30T11:28:03.000Z</time>
      </trkpt>
      <trkpt lat="45.9801" lon="4.55716">
        <ele>536</ele>
        <time>2014-11-30T11:28:08.000Z</time>
      </trkpt>
      <trkpt lat="45.9801" lon="4.55708">
        <ele>534</ele>
        <time>2014-11-30T11:28:16.000Z</time>
      </trkpt>
      <trkpt lat="45.98011" lon="4.55701">
        <ele>533</ele>
        <time>2014-11-30T11:28:23.000Z</time>
      </trkpt>
      <trkpt lat="45.98013" lon="4.55696">
        <ele>532</ele>
        <time>2014-11-30T11:28:30.000Z</time>
      </trkpt>
      <trkpt lat="45.98015" lon="4.55691">
        <ele>531</ele>
        <time>2014-11-30T11:28:36.000Z</time>
      </trkpt>
      <trkpt lat="45.98017" lon="4.55688">
        <ele>531</ele>
        <time>2014-11-30T11:28:41.000Z</time>
      </trkpt>
      <trkpt lat="45.98018" lon="4.55682">
        <ele>530</ele>
        <time>2014-11-30T11:28:47.000Z</time>
      </trkpt>
      <trkpt lat="45.98019" lon="4.55679">
        <ele>530</ele>
        <time>2014-11-30T11:28:53.000Z</time>
      </trkpt>
      <trkpt lat="45.98022" lon="4.55678">
        <ele>530</ele>
        <time>2014-11-30T11:29:01.000Z</time>
      </trkpt>
      <trkpt lat="45.98025" lon="4.55678">
        <ele>530</ele>
        <time>2014-11-30T11:29:15.000Z</time>
      </trkpt>
      <trkpt lat="45.9803" lon="4.55675">
        <ele>531</ele>
        <time>2014-11-30T11:29:59.000Z</time>
      </trkpt>
      <trkpt lat="45.98031" lon="4.55676">
        <ele>531</ele>
        <time>2014-11-30T11:30:00.000Z</time>
      </trkpt>
      <trkpt lat="45.98034" lon="4.55676">
        <ele>531</ele>
        <time>2014-11-30T11:30:03.000Z</time>
      </trkpt>
      <trkpt lat="45.98035" lon="4.55673">
        <ele>531</ele>
        <time>2014-11-30T11:30:14.000Z</time>
      </trkpt>
      <trkpt lat="45.98038" lon="4.55671">
        <ele>531</ele>
        <time>2014-11-30T11:30:28.000Z</time>
      </trkpt>
      <trkpt lat="45.9804" lon="4.55668">
        <ele>531</ele>
        <time>2014-11-30T11:30:31.000Z</time>
      </trkpt>
      <trkpt lat="45.98041" lon="4.55665">
        <ele>516</ele>
        <time>2014-11-30T11:30:33.000Z</time>
      </trkpt>
      <trkpt lat="45.98048" lon="4.55663">
        <ele>516</ele>
        <time>2014-11-30T11:30:38.000Z</time>
      </trkpt>
      <trkpt lat="45.98052" lon="4.55658">
        <ele>516</ele>
        <time>2014-11-30T11:30:43.000Z</time>
      </trkpt>
      <trkpt lat="45.98056" lon="4.55656">
        <ele>516</ele>
        <time>2014-11-30T11:30:46.000Z</time>
      </trkpt>
      <trkpt lat="45.98057" lon="4.55655">
        <ele>516</ele>
        <time>2014-11-30T11:30:48.000Z</time>
      </trkpt>
      <trkpt lat="45.98061" lon="4.55654">
        <ele>517</ele>
        <time>2014-11-30T11:30:55.000Z</time>
      </trkpt>
      <trkpt lat="45.98065" lon="4.55653">
        <ele>517</ele>
        <time>2014-11-30T11:31:05.000Z</time>
      </trkpt>
      <trkpt lat="45.98068" lon="4.55652">
        <ele>517</ele>
        <time>2014-11-30T11:31:13.000Z</time>
      </trkpt>
      <trkpt lat="45.98071" lon="4.55647">
        <ele>517</ele>
        <time>2014-11-30T11:31:21.000Z</time>
      </trkpt>
      <trkpt lat="45.98072" lon="4.55644">
        <ele>516</ele>
        <time>2014-11-30T11:31:23.000Z</time>
      </trkpt>
      <trkpt lat="45.98077" lon="4.55641">
        <ele>516</ele>
        <time>2014-11-30T11:31:28.000Z</time>
      </trkpt>
      <trkpt lat="45.98078" lon="4.5564">
        <ele>516</ele>
        <time>2014-11-30T11:31:29.000Z</time>
      </trkpt>
      <trkpt lat="45.98081" lon="4.55637">
        <ele>515</ele>
        <time>2014-11-30T11:31:48.000Z</time>
      </trkpt>
      <trkpt lat="45.98084" lon="4.55634">
        <ele>518</ele>
        <time>2014-11-30T11:31:54.000Z</time>
      </trkpt>
      <trkpt lat="45.98087" lon="4.55632">
        <ele>518</ele>
        <time>2014-11-30T11:31:58.000Z</time>
      </trkpt>
      <trkpt lat="45.9809" lon="4.55632">
        <ele>518</ele>
        <time>2014-11-30T11:32:03.000Z</time>
      </trkpt>
      <trkpt lat="45.98093" lon="4.55631">
        <ele>518</ele>
        <time>2014-11-30T11:32:08.000Z</time>
      </trkpt>
      <trkpt lat="45.98097" lon="4.55631">
        <ele>518</ele>
        <time>2014-11-30T11:32:12.000Z</time>
      </trkpt>
      <trkpt lat="45.98102" lon="4.55627">
        <ele>518</ele>
        <time>2014-11-30T11:32:18.000Z</time>
      </trkpt>
      <trkpt lat="45.98106" lon="4.55622">
        <ele>517</ele>
        <time>2014-11-30T11:32:23.000Z</time>
      </trkpt>
      <trkpt lat="45.98109" lon="4.55617">
        <ele>516</ele>
        <time>2014-11-30T11:32:28.000Z</time>
      </trkpt>
      <trkpt lat="45.9811" lon="4.55613">
        <ele>516</ele>
        <time>2014-11-30T11:32:31.000Z</time>
      </trkpt>
      <trkpt lat="45.98111" lon="4.55613">
        <ele>516</ele>
        <time>2014-11-30T11:32:33.000Z</time>
      </trkpt>
      <trkpt lat="45.98112" lon="4.55612">
        <ele>516</ele>
        <time>2014-11-30T11:32:34.000Z</time>
      </trkpt>
      <trkpt lat="45.98114" lon="4.55609">
        <ele>516</ele>
        <time>2014-11-30T11:32:38.000Z</time>
      </trkpt>
      <trkpt lat="45.98116" lon="4.55609">
        <ele>516</ele>
        <time>2014-11-30T11:32:40.000Z</time>
      </trkpt>
      <trkpt lat="45.98119" lon="4.55605">
        <ele>516</ele>
        <time>2014-11-30T11:32:45.000Z</time>
      </trkpt>
      <trkpt lat="45.98121" lon="4.55605">
        <ele>516</ele>
        <time>2014-11-30T11:32:46.000Z</time>
      </trkpt>
      <trkpt lat="45.98124" lon="4.55599">
        <ele>516</ele>
        <time>2014-11-30T11:32:51.000Z</time>
      </trkpt>
      <trkpt lat="45.98125" lon="4.55594">
        <ele>515</ele>
        <time>2014-11-30T11:32:55.000Z</time>
      </trkpt>
      <trkpt lat="45.98128" lon="4.55587">
        <ele>515</ele>
        <time>2014-11-30T11:32:59.000Z</time>
      </trkpt>
      <trkpt lat="45.98129" lon="4.55584">
        <ele>515</ele>
        <time>2014-11-30T11:33:01.000Z</time>
      </trkpt>
      <trkpt lat="45.98131" lon="4.55576">
        <ele>501</ele>
        <time>2014-11-30T11:33:05.000Z</time>
      </trkpt>
      <trkpt lat="45.98132" lon="4.55575">
        <ele>501</ele>
        <time>2014-11-30T11:33:06.000Z</time>
      </trkpt>
      <trkpt lat="45.98139" lon="4.55568">
        <ele>501</ele>
        <time>2014-11-30T11:33:13.000Z</time>
      </trkpt>
      <trkpt lat="45.98149" lon="4.55561">
        <ele>501</ele>
        <time>2014-11-30T11:33:17.000Z</time>
      </trkpt>
      <trkpt lat="45.98151" lon="4.55559">
        <ele>501</ele>
        <time>2014-11-30T11:33:18.000Z</time>
      </trkpt>
      <trkpt lat="45.98162" lon="4.55548">
        <ele>499</ele>
        <time>2014-11-30T11:33:25.000Z</time>
      </trkpt>
      <trkpt lat="45.98167" lon="4.55543">
        <ele>498</ele>
        <time>2014-11-30T11:33:29.000Z</time>
      </trkpt>
      <trkpt lat="45.98174" lon="4.55535">
        <ele>502</ele>
        <time>2014-11-30T11:33:33.000Z</time>
      </trkpt>
      <trkpt lat="45.9818" lon="4.55527">
        <ele>501</ele>
        <time>2014-11-30T11:33:37.000Z</time>
      </trkpt>
      <trkpt lat="45.98189" lon="4.55519">
        <ele>500</ele>
        <time>2014-11-30T11:33:42.000Z</time>
      </trkpt>
      <trkpt lat="45.98196" lon="4.55515">
        <ele>501</ele>
        <time>2014-11-30T11:33:47.000Z</time>
      </trkpt>
      <trkpt lat="45.98197" lon="4.55514">
        <ele>501</ele>
        <time>2014-11-30T11:33:49.000Z</time>
      </trkpt>
      <trkpt lat="45.98204" lon="4.55506">
        <ele>501</ele>
        <time>2014-11-30T11:33:56.000Z</time>
      </trkpt>
      <trkpt lat="45.9821" lon="4.55504">
        <ele>501</ele>
        <time>2014-11-30T11:34:01.000Z</time>
      </trkpt>
      <trkpt lat="45.98212" lon="4.55504">
        <ele>501</ele>
        <time>2014-11-30T11:34:02.000Z</time>
      </trkpt>
      <trkpt lat="45.98214" lon="4.55503">
        <ele>502</ele>
        <time>2014-11-30T11:34:04.000Z</time>
      </trkpt>
      <trkpt lat="45.9822" lon="4.55503">
        <ele>502</ele>
        <time>2014-11-30T11:34:09.000Z</time>
      </trkpt>
      <trkpt lat="45.98223" lon="4.55503">
        <ele>502</ele>
        <time>2014-11-30T11:34:11.000Z</time>
      </trkpt>
      <trkpt lat="45.98223" lon="4.55504">
        <ele>502</ele>
        <time>2014-11-30T11:34:12.000Z</time>
      </trkpt>
      <trkpt lat="45.98236" lon="4.55505">
        <ele>502</ele>
        <time>2014-11-30T11:34:27.000Z</time>
      </trkpt>
      <trkpt lat="45.98237" lon="4.55507">
        <ele>502</ele>
        <time>2014-11-30T11:34:28.000Z</time>
      </trkpt>
      <trkpt lat="45.98243" lon="4.55511">
        <ele>502</ele>
        <time>2014-11-30T11:34:33.000Z</time>
      </trkpt>
      <trkpt lat="45.98247" lon="4.55511">
        <ele>502</ele>
        <time>2014-11-30T11:34:37.000Z</time>
      </trkpt>
      <trkpt lat="45.98249" lon="4.55509">
        <ele>501</ele>
        <time>2014-11-30T11:34:39.000Z</time>
      </trkpt>
      <trkpt lat="45.98254" lon="4.55508">
        <ele>505</ele>
        <time>2014-11-30T11:34:43.000Z</time>
      </trkpt>
      <trkpt lat="45.98254" lon="4.55508">
        <ele>505</ele>
        <time>2014-11-30T11:34:44.000Z</time>
      </trkpt>
      <trkpt lat="45.9826" lon="4.55507">
        <ele>506</ele>
        <time>2014-11-30T11:34:50.000Z</time>
      </trkpt>
      <trkpt lat="45.9826" lon="4.55507">
        <ele>507</ele>
        <time>2014-11-30T11:34:51.000Z</time>
      </trkpt>
      <trkpt lat="45.98262" lon="4.55503">
        <ele>507</ele>
        <time>2014-11-30T11:35:00.000Z</time>
      </trkpt>
      <trkpt lat="45.98264" lon="4.55502">
        <ele>507</ele>
        <time>2014-11-30T11:35:04.000Z</time>
      </trkpt>
      <trkpt lat="45.98267" lon="4.55497">
        <ele>503</ele>
        <time>2014-11-30T11:35:11.000Z</time>
      </trkpt>
      <trkpt lat="45.98266" lon="4.55493">
        <ele>503</ele>
        <time>2014-11-30T11:35:17.000Z</time>
      </trkpt>
      <trkpt lat="45.98267" lon="4.55489">
        <ele>503</ele>
        <time>2014-11-30T11:35:21.000Z</time>
      </trkpt>
      <trkpt lat="45.98267" lon="4.55488">
        <ele>503</ele>
        <time>2014-11-30T11:35:22.000Z</time>
      </trkpt>
      <trkpt lat="45.98271" lon="4.55482">
        <ele>503</ele>
        <time>2014-11-30T11:35:28.000Z</time>
      </trkpt>
      <trkpt lat="45.98272" lon="4.55479">
        <ele>503</ele>
        <time>2014-11-30T11:35:31.000Z</time>
      </trkpt>
      <trkpt lat="45.98273" lon="4.55471">
        <ele>503</ele>
        <time>2014-11-30T11:35:36.000Z</time>
      </trkpt>
      <trkpt lat="45.98274" lon="4.55469">
        <ele>503</ele>
        <time>2014-11-30T11:35:37.000Z</time>
      </trkpt>
      <trkpt lat="45.98275" lon="4.55463">
        <ele>503</ele>
        <time>2014-11-30T11:35:42.000Z</time>
      </trkpt>
      <trkpt lat="45.98275" lon="4.55463">
        <ele>503</ele>
        <time>2014-11-30T11:35:43.000Z</time>
      </trkpt>
      <trkpt lat="45.98276" lon="4.55461">
        <ele>503</ele>
        <time>2014-11-30T11:35:45.000Z</time>
      </trkpt>
      <trkpt lat="45.98276" lon="4.55455">
        <ele>502</ele>
        <time>2014-11-30T11:35:50.000Z</time>
      </trkpt>
      <trkpt lat="45.98276" lon="4.5545">
        <ele>502</ele>
        <time>2014-11-30T11:35:53.000Z</time>
      </trkpt>
      <trkpt lat="45.98273" lon="4.55442">
        <ele>500</ele>
        <time>2014-11-30T11:36:00.000Z</time>
      </trkpt>
      <trkpt lat="45.98273" lon="4.55439">
        <ele>500</ele>
        <time>2014-11-30T11:36:03.000Z</time>
      </trkpt>
      <trkpt lat="45.98272" lon="4.55435">
        <ele>499</ele>
        <time>2014-11-30T11:36:09.000Z</time>
      </trkpt>
      <trkpt lat="45.98271" lon="4.55431">
        <ele>498</ele>
        <time>2014-11-30T11:36:13.000Z</time>
      </trkpt>
      <trkpt lat="45.98271" lon="4.55429">
        <ele>497</ele>
        <time>2014-11-30T11:36:14.000Z</time>
      </trkpt>
      <trkpt lat="45.98271" lon="4.55425">
        <ele>497</ele>
        <time>2014-11-30T11:36:17.000Z</time>
      </trkpt>
      <trkpt lat="45.98272" lon="4.55418">
        <ele>497</ele>
        <time>2014-11-30T11:36:23.000Z</time>
      </trkpt>
      <trkpt lat="45.98272" lon="4.55416">
        <ele>489</ele>
        <time>2014-11-30T11:36:25.000Z</time>
      </trkpt>
      <trkpt lat="45.98272" lon="4.55406">
        <ele>489</ele>
        <time>2014-11-30T11:36:31.000Z</time>
      </trkpt>
      <trkpt lat="45.98272" lon="4.55403">
        <ele>489</ele>
        <time>2014-11-30T11:36:32.000Z</time>
      </trkpt>
      <trkpt lat="45.9827" lon="4.55391">
        <ele>489</ele>
        <time>2014-11-30T11:36:36.000Z</time>
      </trkpt>
      <trkpt lat="45.9827" lon="4.5539">
        <ele>489</ele>
        <time>2014-11-30T11:36:37.000Z</time>
      </trkpt>
      <trkpt lat="45.98272" lon="4.55387">
        <ele>489</ele>
        <time>2014-11-30T11:36:44.000Z</time>
      </trkpt>
      <trkpt lat="45.98274" lon="4.55378">
        <ele>488</ele>
        <time>2014-11-30T11:37:26.000Z</time>
      </trkpt>
      <trkpt lat="45.98274" lon="4.55376">
        <ele>488</ele>
        <time>2014-11-30T11:37:33.000Z</time>
      </trkpt>
      <trkpt lat="45.98273" lon="4.55374">
        <ele>488</ele>
        <time>2014-11-30T11:37:44.000Z</time>
      </trkpt>
      <trkpt lat="45.98272" lon="4.55373">
        <ele>488</ele>
        <time>2014-11-30T11:37:48.000Z</time>
      </trkpt>
      <trkpt lat="45.98271" lon="4.55373">
        <ele>487</ele>
        <time>2014-11-30T11:37:51.000Z</time>
      </trkpt>
      <trkpt lat="45.98268" lon="4.55373">
        <ele>487</ele>
        <time>2014-11-30T11:37:54.000Z</time>
      </trkpt>
      <trkpt lat="45.98266" lon="4.55371">
        <ele>487</ele>
        <time>2014-11-30T11:37:57.000Z</time>
      </trkpt>
      <trkpt lat="45.98266" lon="4.55365">
        <ele>486</ele>
        <time>2014-11-30T11:38:01.000Z</time>
      </trkpt>
      <trkpt lat="45.98266" lon="4.55364">
        <ele>486</ele>
        <time>2014-11-30T11:38:03.000Z</time>
      </trkpt>
      <trkpt lat="45.98266" lon="4.55361">
        <ele>485</ele>
        <time>2014-11-30T11:38:08.000Z</time>
      </trkpt>
      <trkpt lat="45.98266" lon="4.55361">
        <ele>485</ele>
        <time>2014-11-30T11:38:36.000Z</time>
      </trkpt>
      <trkpt lat="45.98262" lon="4.55362">
        <ele>485</ele>
        <time>2014-11-30T11:38:41.000Z</time>
      </trkpt>
      <trkpt lat="45.98257" lon="4.55359">
        <ele>483</ele>
        <time>2014-11-30T11:38:47.000Z</time>
      </trkpt>
      <trkpt lat="45.98256" lon="4.55358">
        <ele>483</ele>
        <time>2014-11-30T11:38:48.000Z</time>
      </trkpt>
      <trkpt lat="45.98254" lon="4.55354">
        <ele>482</ele>
        <time>2014-11-30T11:38:53.000Z</time>
      </trkpt>
      <trkpt lat="45.98252" lon="4.55353">
        <ele>481</ele>
        <time>2014-11-30T11:38:58.000Z</time>
      </trkpt>
      <trkpt lat="45.9825" lon="4.55347">
        <ele>479</ele>
        <time>2014-11-30T11:39:03.000Z</time>
      </trkpt>
      <trkpt lat="45.9825" lon="4.5534">
        <ele>476</ele>
        <time>2014-11-30T11:39:10.000Z</time>
      </trkpt>
      <trkpt lat="45.9825" lon="4.55336">
        <ele>471</ele>
        <time>2014-11-30T11:39:15.000Z</time>
      </trkpt>
      <trkpt lat="45.98251" lon="4.55324">
        <ele>473</ele>
        <time>2014-11-30T11:39:23.000Z</time>
      </trkpt>
      <trkpt lat="45.98251" lon="4.55323">
        <ele>473</ele>
        <time>2014-11-30T11:39:24.000Z</time>
      </trkpt>
      <trkpt lat="45.98252" lon="4.5532">
        <ele>473</ele>
        <time>2014-11-30T11:39:29.000Z</time>
      </trkpt>
      <trkpt lat="45.9825" lon="4.55315">
        <ele>470</ele>
        <time>2014-11-30T11:39:49.000Z</time>
      </trkpt>
      <trkpt lat="45.98251" lon="4.55311">
        <ele>473</ele>
        <time>2014-11-30T11:40:08.000Z</time>
      </trkpt>
      <trkpt lat="45.98253" lon="4.55308">
        <ele>473</ele>
        <time>2014-11-30T11:40:13.000Z</time>
      </trkpt>
      <trkpt lat="45.98252" lon="4.55298">
        <ele>473</ele>
        <time>2014-11-30T11:40:35.000Z</time>
      </trkpt>
      <trkpt lat="45.98253" lon="4.55294">
        <ele>473</ele>
        <time>2014-11-30T11:40:40.000Z</time>
      </trkpt>
      <trkpt lat="45.98253" lon="4.55288">
        <ele>473</ele>
        <time>2014-11-30T11:40:46.000Z</time>
      </trkpt>
      <trkpt lat="45.98254" lon="4.55285">
        <ele>472</ele>
        <time>2014-11-30T11:40:51.000Z</time>
      </trkpt>
      <trkpt lat="45.98258" lon="4.55284">
        <ele>473</ele>
        <time>2014-11-30T11:40:56.000Z</time>
      </trkpt>
      <trkpt lat="45.98259" lon="4.55283">
        <ele>472</ele>
        <time>2014-11-30T11:40:57.000Z</time>
      </trkpt>
      <trkpt lat="45.9826" lon="4.55281">
        <ele>472</ele>
        <time>2014-11-30T11:40:59.000Z</time>
      </trkpt>
      <trkpt lat="45.98263" lon="4.55278">
        <ele>472</ele>
        <time>2014-11-30T11:41:04.000Z</time>
      </trkpt>
      <trkpt lat="45.98266" lon="4.55272">
        <ele>472</ele>
        <time>2014-11-30T11:41:11.000Z</time>
      </trkpt>
      <trkpt lat="45.98268" lon="4.55268">
        <ele>472</ele>
        <time>2014-11-30T11:41:16.000Z</time>
      </trkpt>
      <trkpt lat="45.98271" lon="4.55264">
        <ele>471</ele>
        <time>2014-11-30T11:41:29.000Z</time>
      </trkpt>
      <trkpt lat="45.98274" lon="4.55263">
        <ele>472</ele>
        <time>2014-11-30T11:41:34.000Z</time>
      </trkpt>
      <trkpt lat="45.98277" lon="4.55262">
        <ele>472</ele>
        <time>2014-11-30T11:41:38.000Z</time>
      </trkpt>
      <trkpt lat="45.98283" lon="4.55258">
        <ele>472</ele>
        <time>2014-11-30T11:41:44.000Z</time>
      </trkpt>
      <trkpt lat="45.98286" lon="4.55257">
        <ele>473</ele>
        <time>2014-11-30T11:41:46.000Z</time>
      </trkpt>
      <trkpt lat="45.98296" lon="4.55251">
        <ele>473</ele>
        <time>2014-11-30T11:41:53.000Z</time>
      </trkpt>
      <trkpt lat="45.98297" lon="4.5525">
        <ele>471</ele>
        <time>2014-11-30T11:41:54.000Z</time>
      </trkpt>
      <trkpt lat="45.98299" lon="4.55248">
        <ele>472</ele>
        <time>2014-11-30T11:41:56.000Z</time>
      </trkpt>
      <trkpt lat="45.98303" lon="4.5525">
        <ele>474</ele>
        <time>2014-11-30T11:42:00.000Z</time>
      </trkpt>
      <trkpt lat="45.98307" lon="4.55249">
        <ele>472</ele>
        <time>2014-11-30T11:42:04.000Z</time>
      </trkpt>
      <trkpt lat="45.98311" lon="4.55248">
        <ele>472</ele>
        <time>2014-11-30T11:42:08.000Z</time>
      </trkpt>
      <trkpt lat="45.98314" lon="4.55247">
        <ele>472</ele>
        <time>2014-11-30T11:42:12.000Z</time>
      </trkpt>
      <trkpt lat="45.98315" lon="4.55246">
        <ele>472</ele>
        <time>2014-11-30T11:42:14.000Z</time>
      </trkpt>
      <trkpt lat="45.98317" lon="4.55245">
        <ele>472</ele>
        <time>2014-11-30T11:42:17.000Z</time>
      </trkpt>
      <trkpt lat="45.98321" lon="4.55245">
        <ele>472</ele>
        <time>2014-11-30T11:42:22.000Z</time>
      </trkpt>
      <trkpt lat="45.98325" lon="4.55243">
        <ele>472</ele>
        <time>2014-11-30T11:42:27.000Z</time>
      </trkpt>
      <trkpt lat="45.98327" lon="4.55242">
        <ele>472</ele>
        <time>2014-11-30T11:42:28.000Z</time>
      </trkpt>
      <trkpt lat="45.98331" lon="4.55239">
        <ele>472</ele>
        <time>2014-11-30T11:42:32.000Z</time>
      </trkpt>
      <trkpt lat="45.98338" lon="4.55238">
        <ele>473</ele>
        <time>2014-11-30T11:42:37.000Z</time>
      </trkpt>
      <trkpt lat="45.98341" lon="4.55238">
        <ele>473</ele>
        <time>2014-11-30T11:42:40.000Z</time>
      </trkpt>
      <trkpt lat="45.98345" lon="4.55237">
        <ele>474</ele>
        <time>2014-11-30T11:42:44.000Z</time>
      </trkpt>
      <trkpt lat="45.98352" lon="4.55237">
        <ele>474</ele>
        <time>2014-11-30T11:43:07.000Z</time>
      </trkpt>
      <trkpt lat="45.9836" lon="4.55235">
        <ele>475</ele>
        <time>2014-11-30T11:43:40.000Z</time>
      </trkpt>
      <trkpt lat="45.98362" lon="4.55233">
        <ele>475</ele>
        <time>2014-11-30T11:43:45.000Z</time>
      </trkpt>
      <trkpt lat="45.98364" lon="4.55235">
        <ele>475</ele>
        <time>2014-11-30T11:43:51.000Z</time>
      </trkpt>
      <trkpt lat="45.98368" lon="4.55235">
        <ele>475</ele>
        <time>2014-11-30T11:43:56.000Z</time>
      </trkpt>
      <trkpt lat="45.98372" lon="4.55233">
        <ele>476</ele>
        <time>2014-11-30T11:43:59.000Z</time>
      </trkpt>
      <trkpt lat="45.98376" lon="4.55236">
        <ele>476</ele>
        <time>2014-11-30T11:44:04.000Z</time>
      </trkpt>
      <trkpt lat="45.98383" lon="4.55231">
        <ele>477</ele>
        <time>2014-11-30T11:44:17.000Z</time>
      </trkpt>
      <trkpt lat="45.98386" lon="4.55228">
        <ele>477</ele>
        <time>2014-11-30T11:44:23.000Z</time>
      </trkpt>
      <trkpt lat="45.98387" lon="4.55225">
        <ele>477</ele>
        <time>2014-11-30T11:44:25.000Z</time>
      </trkpt>
      <trkpt lat="45.98393" lon="4.55222">
        <ele>477</ele>
        <time>2014-11-30T11:44:31.000Z</time>
      </trkpt>
      <trkpt lat="45.98396" lon="4.55221">
        <ele>477</ele>
        <time>2014-11-30T11:44:34.000Z</time>
      </trkpt>
      <trkpt lat="45.98399" lon="4.55221">
        <ele>477</ele>
        <time>2014-11-30T11:44:38.000Z</time>
      </trkpt>
      <trkpt lat="45.98402" lon="4.55219">
        <ele>477</ele>
        <time>2014-11-30T11:44:43.000Z</time>
      </trkpt>
      <trkpt lat="45.98405" lon="4.5522">
        <ele>478</ele>
        <time>2014-11-30T11:44:48.000Z</time>
      </trkpt>
      <trkpt lat="45.98409" lon="4.55218">
        <ele>477</ele>
        <time>2014-11-30T11:44:54.000Z</time>
      </trkpt>
      <trkpt lat="45.98412" lon="4.55216">
        <ele>477</ele>
        <time>2014-11-30T11:45:01.000Z</time>
      </trkpt>
      <trkpt lat="45.98419" lon="4.55219">
        <ele>483</ele>
        <time>2014-11-30T11:45:18.000Z</time>
      </trkpt>
      <trkpt lat="45.98422" lon="4.55221">
        <ele>484</ele>
        <time>2014-11-30T11:45:22.000Z</time>
      </trkpt>
      <trkpt lat="45.98426" lon="4.55224">
        <ele>484</ele>
        <time>2014-11-30T11:45:27.000Z</time>
      </trkpt>
      <trkpt lat="45.98427" lon="4.55224">
        <ele>484</ele>
        <time>2014-11-30T11:45:28.000Z</time>
      </trkpt>
      <trkpt lat="45.98432" lon="4.55225">
        <ele>484</ele>
        <time>2014-11-30T11:45:34.000Z</time>
      </trkpt>
      <trkpt lat="45.98434" lon="4.55228">
        <ele>484</ele>
        <time>2014-11-30T11:45:36.000Z</time>
      </trkpt>
      <trkpt lat="45.98437" lon="4.55231">
        <ele>485</ele>
        <time>2014-11-30T11:45:41.000Z</time>
      </trkpt>
      <trkpt lat="45.9844" lon="4.55232">
        <ele>485</ele>
        <time>2014-11-30T11:45:47.000Z</time>
      </trkpt>
      <trkpt lat="45.98441" lon="4.55235">
        <ele>485</ele>
        <time>2014-11-30T11:45:51.000Z</time>
      </trkpt>
      <trkpt lat="45.98442" lon="4.55236">
        <ele>485</ele>
        <time>2014-11-30T11:45:59.000Z</time>
      </trkpt>
      <trkpt lat="45.98445" lon="4.55235">
        <ele>485</ele>
        <time>2014-11-30T11:46:11.000Z</time>
      </trkpt>
      <trkpt lat="45.98449" lon="4.55236">
        <ele>485</ele>
        <time>2014-11-30T11:46:17.000Z</time>
      </trkpt>
      <trkpt lat="45.98453" lon="4.55234">
        <ele>485</ele>
        <time>2014-11-30T11:46:21.000Z</time>
      </trkpt>
      <trkpt lat="45.98455" lon="4.55236">
        <ele>486</ele>
        <time>2014-11-30T11:46:25.000Z</time>
      </trkpt>
      <trkpt lat="45.9846" lon="4.55238">
        <ele>486</ele>
        <time>2014-11-30T11:46:30.000Z</time>
      </trkpt>
      <trkpt lat="45.98463" lon="4.55241">
        <ele>487</ele>
        <time>2014-11-30T11:46:35.000Z</time>
      </trkpt>
      <trkpt lat="45.98466" lon="4.55244">
        <ele>487</ele>
        <time>2014-11-30T11:46:40.000Z</time>
      </trkpt>
      <trkpt lat="45.98469" lon="4.55247">
        <ele>487</ele>
        <time>2014-11-30T11:46:46.000Z</time>
      </trkpt>
      <trkpt lat="45.98472" lon="4.55249">
        <ele>488</ele>
        <time>2014-11-30T11:46:51.000Z</time>
      </trkpt>
      <trkpt lat="45.98475" lon="4.55251">
        <ele>497</ele>
        <time>2014-11-30T11:46:56.000Z</time>
      </trkpt>
      <trkpt lat="45.98478" lon="4.55254">
        <ele>497</ele>
        <time>2014-11-30T11:47:02.000Z</time>
      </trkpt>
      <trkpt lat="45.9848" lon="4.55257">
        <ele>497</ele>
        <time>2014-11-30T11:47:07.000Z</time>
      </trkpt>
      <trkpt lat="45.98482" lon="4.55261">
        <ele>497</ele>
        <time>2014-11-30T11:47:13.000Z</time>
      </trkpt>
      <trkpt lat="45.98484" lon="4.55263">
        <ele>498</ele>
        <time>2014-11-30T11:47:23.000Z</time>
      </trkpt>
      <trkpt lat="45.98485" lon="4.55266">
        <ele>498</ele>
        <time>2014-11-30T11:47:30.000Z</time>
      </trkpt>
      <trkpt lat="45.98485" lon="4.55272">
        <ele>499</ele>
        <time>2014-11-30T11:47:36.000Z</time>
      </trkpt>
      <trkpt lat="45.98486" lon="4.55275">
        <ele>499</ele>
        <time>2014-11-30T11:47:41.000Z</time>
      </trkpt>
      <trkpt lat="45.9849" lon="4.55277">
        <ele>499</ele>
        <time>2014-11-30T11:47:45.000Z</time>
      </trkpt>
      <trkpt lat="45.98492" lon="4.55279">
        <ele>500</ele>
        <time>2014-11-30T11:47:49.000Z</time>
      </trkpt>
      <trkpt lat="45.98493" lon="4.55282">
        <ele>500</ele>
        <time>2014-11-30T11:48:05.000Z</time>
      </trkpt>
      <trkpt lat="45.98493" lon="4.55288">
        <ele>501</ele>
        <time>2014-11-30T11:48:11.000Z</time>
      </trkpt>
      <trkpt lat="45.98494" lon="4.55295">
        <ele>502</ele>
        <time>2014-11-30T11:48:16.000Z</time>
      </trkpt>
      <trkpt lat="45.98494" lon="4.55296">
        <ele>502</ele>
        <time>2014-11-30T11:48:17.000Z</time>
      </trkpt>
      <trkpt lat="45.98493" lon="4.55301">
        <ele>503</ele>
        <time>2014-11-30T11:48:22.000Z</time>
      </trkpt>
      <trkpt lat="45.98495" lon="4.55306">
        <ele>505</ele>
        <time>2014-11-30T11:48:27.000Z</time>
      </trkpt>
      <trkpt lat="45.98494" lon="4.55309">
        <ele>505</ele>
        <time>2014-11-30T11:48:29.000Z</time>
      </trkpt>
      <trkpt lat="45.98495" lon="4.55315">
        <ele>507</ele>
        <time>2014-11-30T11:48:35.000Z</time>
      </trkpt>
      <trkpt lat="45.98496" lon="4.5532">
        <ele>509</ele>
        <time>2014-11-30T11:48:40.000Z</time>
      </trkpt>
      <trkpt lat="45.98499" lon="4.55324">
        <ele>510</ele>
        <time>2014-11-30T11:48:45.000Z</time>
      </trkpt>
      <trkpt lat="45.98499" lon="4.55324">
        <ele>510</ele>
        <time>2014-11-30T11:48:46.000Z</time>
      </trkpt>
      <trkpt lat="45.98501" lon="4.55327">
        <ele>512</ele>
        <time>2014-11-30T11:48:50.000Z</time>
      </trkpt>
      <trkpt lat="45.98507" lon="4.55325">
        <ele>511</ele>
        <time>2014-11-30T11:48:57.000Z</time>
      </trkpt>
      <trkpt lat="45.98513" lon="4.55324">
        <ele>509</ele>
        <time>2014-11-30T11:49:05.000Z</time>
      </trkpt>
      <trkpt lat="45.9852" lon="4.55323">
        <ele>508</ele>
        <time>2014-11-30T11:49:12.000Z</time>
      </trkpt>
      <trkpt lat="45.98532" lon="4.5532">
        <ele>507</ele>
        <time>2014-11-30T11:49:20.000Z</time>
      </trkpt>
      <trkpt lat="45.98538" lon="4.55318">
        <ele>506</ele>
        <time>2014-11-30T11:49:26.000Z</time>
      </trkpt>
      <trkpt lat="45.98541" lon="4.55317">
        <ele>506</ele>
        <time>2014-11-30T11:49:32.000Z</time>
      </trkpt>
      <trkpt lat="45.98555" lon="4.55312">
        <ele>506</ele>
        <time>2014-11-30T11:49:39.000Z</time>
      </trkpt>
      <trkpt lat="45.98568" lon="4.5531">
        <ele>506</ele>
        <time>2014-11-30T11:49:45.000Z</time>
      </trkpt>
      <trkpt lat="45.98576" lon="4.55311">
        <ele>506</ele>
        <time>2014-11-30T11:49:48.000Z</time>
      </trkpt>
      <trkpt lat="45.98587" lon="4.55318">
        <ele>509</ele>
        <time>2014-11-30T11:49:54.000Z</time>
      </trkpt>
      <trkpt lat="45.98595" lon="4.55322">
        <ele>510</ele>
        <time>2014-11-30T11:49:58.000Z</time>
      </trkpt>
      <trkpt lat="45.98603" lon="4.55331">
        <ele>510</ele>
        <time>2014-11-30T11:50:03.000Z</time>
      </trkpt>
      <trkpt lat="45.98609" lon="4.55339">
        <ele>520</ele>
        <time>2014-11-30T11:50:07.000Z</time>
      </trkpt>
      <trkpt lat="45.98614" lon="4.55351">
        <ele>522</ele>
        <time>2014-11-30T11:50:13.000Z</time>
      </trkpt>
      <trkpt lat="45.98614" lon="4.55354">
        <ele>522</ele>
        <time>2014-11-30T11:50:16.000Z</time>
      </trkpt>
      <trkpt lat="45.98615" lon="4.55356">
        <ele>522</ele>
        <time>2014-11-30T11:50:18.000Z</time>
      </trkpt>
      <trkpt lat="45.98618" lon="4.55362">
        <ele>523</ele>
        <time>2014-11-30T11:50:22.000Z</time>
      </trkpt>
      <trkpt lat="45.98619" lon="4.55365">
        <ele>523</ele>
        <time>2014-11-30T11:50:25.000Z</time>
      </trkpt>
      <trkpt lat="45.98622" lon="4.55371">
        <ele>524</ele>
        <time>2014-11-30T11:50:31.000Z</time>
      </trkpt>
      <trkpt lat="45.98623" lon="4.55377">
        <ele>525</ele>
        <time>2014-11-30T11:50:36.000Z</time>
      </trkpt>
      <trkpt lat="45.98625" lon="4.55379">
        <ele>525</ele>
        <time>2014-11-30T11:50:38.000Z</time>
      </trkpt>
      <trkpt lat="45.98626" lon="4.55382">
        <ele>525</ele>
        <time>2014-11-30T11:50:40.000Z</time>
      </trkpt>
      <trkpt lat="45.98628" lon="4.55388">
        <ele>526</ele>
        <time>2014-11-30T11:50:45.000Z</time>
      </trkpt>
      <trkpt lat="45.98628" lon="4.55389">
        <ele>526</ele>
        <time>2014-11-30T11:50:46.000Z</time>
      </trkpt>
      <trkpt lat="45.98628" lon="4.55389">
        <ele>526</ele>
        <time>2014-11-30T11:50:47.000Z</time>
      </trkpt>
      <trkpt lat="45.98627" lon="4.55395">
        <ele>526</ele>
        <time>2014-11-30T11:50:53.000Z</time>
      </trkpt>
      <trkpt lat="45.98626" lon="4.55398">
        <ele>527</ele>
        <time>2014-11-30T11:50:57.000Z</time>
      </trkpt>
      <trkpt lat="45.98632" lon="4.55391">
        <ele>526</ele>
        <time>2014-11-30T11:52:56.000Z</time>
      </trkpt>
      <trkpt lat="45.9863" lon="4.55384">
        <ele>526</ele>
        <time>2014-11-30T11:53:01.000Z</time>
      </trkpt>
      <trkpt lat="45.98629" lon="4.5538">
        <ele>525</ele>
        <time>2014-11-30T11:53:05.000Z</time>
      </trkpt>
      <trkpt lat="45.98629" lon="4.55379">
        <ele>525</ele>
        <time>2014-11-30T11:53:06.000Z</time>
      </trkpt>
      <trkpt lat="45.98626" lon="4.55373">
        <ele>524</ele>
        <time>2014-11-30T11:53:11.000Z</time>
      </trkpt>
      <trkpt lat="45.98624" lon="4.5537">
        <ele>524</ele>
        <time>2014-11-30T11:53:16.000Z</time>
      </trkpt>
      <trkpt lat="45.98622" lon="4.55365">
        <ele>523</ele>
        <time>2014-11-30T11:53:19.000Z</time>
      </trkpt>
      <trkpt lat="45.98621" lon="4.55364">
        <ele>523</ele>
        <time>2014-11-30T11:53:20.000Z</time>
      </trkpt>
      <trkpt lat="45.98619" lon="4.55358">
        <ele>523</ele>
        <time>2014-11-30T11:53:26.000Z</time>
      </trkpt>
      <trkpt lat="45.9862" lon="4.55348">
        <ele>522</ele>
        <time>2014-11-30T11:53:30.000Z</time>
      </trkpt>
      <trkpt lat="45.9862" lon="4.55347">
        <ele>522</ele>
        <time>2014-11-30T11:53:31.000Z</time>
      </trkpt>
      <trkpt lat="45.98621" lon="4.55344">
        <ele>522</ele>
        <time>2014-11-30T11:53:33.000Z</time>
      </trkpt>
      <trkpt lat="45.98621" lon="4.55342">
        <ele>521</ele>
        <time>2014-11-30T11:53:44.000Z</time>
      </trkpt>
      <trkpt lat="45.98619" lon="4.55339">
        <ele>521</ele>
        <time>2014-11-30T11:54:15.000Z</time>
      </trkpt>
      <trkpt lat="45.98621" lon="4.55336">
        <ele>521</ele>
        <time>2014-11-30T11:54:18.000Z</time>
      </trkpt>
      <trkpt lat="45.98621" lon="4.55334">
        <ele>521</ele>
        <time>2014-11-30T11:54:20.000Z</time>
      </trkpt>
      <trkpt lat="45.98621" lon="4.55326">
        <ele>509</ele>
        <time>2014-11-30T11:54:26.000Z</time>
      </trkpt>
      <trkpt lat="45.98622" lon="4.55325">
        <ele>509</ele>
        <time>2014-11-30T11:54:27.000Z</time>
      </trkpt>
      <trkpt lat="45.98621" lon="4.5532">
        <ele>509</ele>
        <time>2014-11-30T11:54:31.000Z</time>
      </trkpt>
      <trkpt lat="45.98622" lon="4.55318">
        <ele>509</ele>
        <time>2014-11-30T11:54:36.000Z</time>
      </trkpt>
      <trkpt lat="45.9862" lon="4.55313">
        <ele>508</ele>
        <time>2014-11-30T11:54:54.000Z</time>
      </trkpt>
      <trkpt lat="45.98621" lon="4.55308">
        <ele>508</ele>
        <time>2014-11-30T11:54:58.000Z</time>
      </trkpt>
      <trkpt lat="45.98622" lon="4.55297">
        <ele>507</ele>
        <time>2014-11-30T11:55:02.000Z</time>
      </trkpt>
      <trkpt lat="45.98624" lon="4.55276">
        <ele>504</ele>
        <time>2014-11-30T11:55:07.000Z</time>
      </trkpt>
      <trkpt lat="45.98631" lon="4.55253">
        <ele>503</ele>
        <time>2014-11-30T11:55:13.000Z</time>
      </trkpt>
      <trkpt lat="45.98635" lon="4.55248">
        <ele>497</ele>
        <time>2014-11-30T11:55:15.000Z</time>
      </trkpt>
      <trkpt lat="45.98639" lon="4.55239">
        <ele>497</ele>
        <time>2014-11-30T11:55:18.000Z</time>
      </trkpt>
      <trkpt lat="45.98648" lon="4.55226">
        <ele>498</ele>
        <time>2014-11-30T11:55:22.000Z</time>
      </trkpt>
      <trkpt lat="45.98661" lon="4.5521">
        <ele>498</ele>
        <time>2014-11-30T11:55:28.000Z</time>
      </trkpt>
      <trkpt lat="45.98671" lon="4.55195">
        <ele>505</ele>
        <time>2014-11-30T11:55:32.000Z</time>
      </trkpt>
      <trkpt lat="45.98672" lon="4.5519">
        <ele>505</ele>
        <time>2014-11-30T11:55:33.000Z</time>
      </trkpt>
      <trkpt lat="45.98671" lon="4.55181">
        <ele>503</ele>
        <time>2014-11-30T11:55:37.000Z</time>
      </trkpt>
      <trkpt lat="45.98672" lon="4.55179">
        <ele>503</ele>
        <time>2014-11-30T11:55:45.000Z</time>
      </trkpt>
      <trkpt lat="45.9868" lon="4.55174">
        <ele>504</ele>
        <time>2014-11-30T11:56:15.000Z</time>
      </trkpt>
      <trkpt lat="45.98681" lon="4.55173">
        <ele>504</ele>
        <time>2014-11-30T11:56:16.000Z</time>
      </trkpt>
      <trkpt lat="45.98685" lon="4.55167">
        <ele>504</ele>
        <time>2014-11-30T11:56:23.000Z</time>
      </trkpt>
      <trkpt lat="45.98686" lon="4.55165">
        <ele>506</ele>
        <time>2014-11-30T11:56:26.000Z</time>
      </trkpt>
      <trkpt lat="45.98694" lon="4.55161">
        <ele>508</ele>
        <time>2014-11-30T11:56:31.000Z</time>
      </trkpt>
      <trkpt lat="45.98701" lon="4.55155">
        <ele>509</ele>
        <time>2014-11-30T11:56:35.000Z</time>
      </trkpt>
      <trkpt lat="45.98708" lon="4.55148">
        <ele>510</ele>
        <time>2014-11-30T11:56:39.000Z</time>
      </trkpt>
      <trkpt lat="45.98718" lon="4.55141">
        <ele>511</ele>
        <time>2014-11-30T11:56:43.000Z</time>
      </trkpt>
      <trkpt lat="45.98725" lon="4.55137">
        <ele>511</ele>
        <time>2014-11-30T11:56:45.000Z</time>
      </trkpt>
      <trkpt lat="45.98737" lon="4.5513">
        <ele>512</ele>
        <time>2014-11-30T11:56:49.000Z</time>
      </trkpt>
      <trkpt lat="45.9874" lon="4.55129">
        <ele>512</ele>
        <time>2014-11-30T11:56:50.000Z</time>
      </trkpt>
      <trkpt lat="45.98747" lon="4.5512">
        <ele>512</ele>
        <time>2014-11-30T11:56:54.000Z</time>
      </trkpt>
      <trkpt lat="45.98749" lon="4.55118">
        <ele>513</ele>
        <time>2014-11-30T11:56:55.000Z</time>
      </trkpt>
      <trkpt lat="45.98751" lon="4.55117">
        <ele>514</ele>
        <time>2014-11-30T11:56:56.000Z</time>
      </trkpt>
      <trkpt lat="45.98752" lon="4.55114">
        <ele>514</ele>
        <time>2014-11-30T11:56:58.000Z</time>
      </trkpt>
      <trkpt lat="45.98766" lon="4.55107">
        <ele>515</ele>
        <time>2014-11-30T11:57:05.000Z</time>
      </trkpt>
      <trkpt lat="45.98768" lon="4.55105">
        <ele>515</ele>
        <time>2014-11-30T11:57:06.000Z</time>
      </trkpt>
      <trkpt lat="45.98773" lon="4.55103">
        <ele>515</ele>
        <time>2014-11-30T11:57:10.000Z</time>
      </trkpt>
      <trkpt lat="45.98774" lon="4.55103">
        <ele>515</ele>
        <time>2014-11-30T11:57:11.000Z</time>
      </trkpt>
      <trkpt lat="45.9878" lon="4.55097">
        <ele>515</ele>
        <time>2014-11-30T11:57:16.000Z</time>
      </trkpt>
      <trkpt lat="45.98782" lon="4.55094">
        <ele>515</ele>
        <time>2014-11-30T11:57:18.000Z</time>
      </trkpt>
      <trkpt lat="45.98789" lon="4.55091">
        <ele>514</ele>
        <time>2014-11-30T11:57:23.000Z</time>
      </trkpt>
      <trkpt lat="45.98797" lon="4.55088">
        <ele>514</ele>
        <time>2014-11-30T11:57:28.000Z</time>
      </trkpt>
      <trkpt lat="45.98805" lon="4.55085">
        <ele>514</ele>
        <time>2014-11-30T11:57:33.000Z</time>
      </trkpt>
      <trkpt lat="45.98812" lon="4.55081">
        <ele>519</ele>
        <time>2014-11-30T11:57:37.000Z</time>
      </trkpt>
      <trkpt lat="45.98813" lon="4.5508">
        <ele>519</ele>
        <time>2014-11-30T11:57:38.000Z</time>
      </trkpt>
      <trkpt lat="45.98824" lon="4.55075">
        <ele>517</ele>
        <time>2014-11-30T11:57:42.000Z</time>
      </trkpt>
      <trkpt lat="45.98833" lon="4.55069">
        <ele>517</ele>
        <time>2014-11-30T11:57:46.000Z</time>
      </trkpt>
      <trkpt lat="45.98835" lon="4.55069">
        <ele>517</ele>
        <time>2014-11-30T11:57:47.000Z</time>
      </trkpt>
      <trkpt lat="45.98847" lon="4.55065">
        <ele>519</ele>
        <time>2014-11-30T11:57:52.000Z</time>
      </trkpt>
      <trkpt lat="45.98858" lon="4.55061">
        <ele>520</ele>
        <time>2014-11-30T11:57:56.000Z</time>
      </trkpt>
      <trkpt lat="45.98862" lon="4.55061">
        <ele>521</ele>
        <time>2014-11-30T11:57:58.000Z</time>
      </trkpt>
      <trkpt lat="45.98864" lon="4.5506">
        <ele>521</ele>
        <time>2014-11-30T11:58:00.000Z</time>
      </trkpt>
      <trkpt lat="45.98875" lon="4.55055">
        <ele>522</ele>
        <time>2014-11-30T11:58:05.000Z</time>
      </trkpt>
      <trkpt lat="45.9888" lon="4.55053">
        <ele>522</ele>
        <time>2014-11-30T11:58:07.000Z</time>
      </trkpt>
      <trkpt lat="45.98892" lon="4.5505">
        <ele>522</ele>
        <time>2014-11-30T11:58:15.000Z</time>
      </trkpt>
      <trkpt lat="45.98899" lon="4.55041">
        <ele>523</ele>
        <time>2014-11-30T11:58:21.000Z</time>
      </trkpt>
      <trkpt lat="45.98899" lon="4.55039">
        <ele>523</ele>
        <time>2014-11-30T11:58:22.000Z</time>
      </trkpt>
      <trkpt lat="45.98901" lon="4.55038">
        <ele>524</ele>
        <time>2014-11-30T11:58:23.000Z</time>
      </trkpt>
      <trkpt lat="45.98905" lon="4.5503">
        <ele>524</ele>
        <time>2014-11-30T11:58:28.000Z</time>
      </trkpt>
      <trkpt lat="45.98906" lon="4.55028">
        <ele>525</ele>
        <time>2014-11-30T11:58:29.000Z</time>
      </trkpt>
      <trkpt lat="45.9891" lon="4.55023">
        <ele>525</ele>
        <time>2014-11-30T11:58:33.000Z</time>
      </trkpt>
      <trkpt lat="45.98917" lon="4.55014">
        <ele>529</ele>
        <time>2014-11-30T11:58:40.000Z</time>
      </trkpt>
      <trkpt lat="45.98921" lon="4.55011">
        <ele>529</ele>
        <time>2014-11-30T11:58:46.000Z</time>
      </trkpt>
      <trkpt lat="45.98921" lon="4.5501">
        <ele>529</ele>
        <time>2014-11-30T11:58:55.000Z</time>
      </trkpt>
      <trkpt lat="45.98924" lon="4.55009">
        <ele>529</ele>
        <time>2014-11-30T11:58:57.000Z</time>
      </trkpt>
      <trkpt lat="45.98928" lon="4.55007">
        <ele>529</ele>
        <time>2014-11-30T11:59:03.000Z</time>
      </trkpt>
      <trkpt lat="45.98928" lon="4.55007">
        <ele>529</ele>
        <time>2014-11-30T11:59:04.000Z</time>
      </trkpt>
      <trkpt lat="45.98934" lon="4.55002">
        <ele>530</ele>
        <time>2014-11-30T11:59:10.000Z</time>
      </trkpt>
      <trkpt lat="45.98936" lon="4.55">
        <ele>530</ele>
        <time>2014-11-30T11:59:12.000Z</time>
      </trkpt>
      <trkpt lat="45.98936" lon="4.54999">
        <ele>536</ele>
        <time>2014-11-30T11:59:14.000Z</time>
      </trkpt>
      <trkpt lat="45.98938" lon="4.54995">
        <ele>536</ele>
        <time>2014-11-30T11:59:17.000Z</time>
      </trkpt>
      <trkpt lat="45.98939" lon="4.54992">
        <ele>537</ele>
        <time>2014-11-30T11:59:19.000Z</time>
      </trkpt>
      <trkpt lat="45.98941" lon="4.54986">
        <ele>538</ele>
        <time>2014-11-30T11:59:23.000Z</time>
      </trkpt>
      <trkpt lat="45.98944" lon="4.54978">
        <ele>539</ele>
        <time>2014-11-30T11:59:27.000Z</time>
      </trkpt>
      <trkpt lat="45.98946" lon="4.54974">
        <ele>540</ele>
        <time>2014-11-30T11:59:30.000Z</time>
      </trkpt>
      <trkpt lat="45.98949" lon="4.54968">
        <ele>540</ele>
        <time>2014-11-30T11:59:34.000Z</time>
      </trkpt>
      <trkpt lat="45.98951" lon="4.54966">
        <ele>541</ele>
        <time>2014-11-30T11:59:37.000Z</time>
      </trkpt>
      <trkpt lat="45.98955" lon="4.54962">
        <ele>541</ele>
        <time>2014-11-30T11:59:41.000Z</time>
      </trkpt>
      <trkpt lat="45.98958" lon="4.54953">
        <ele>542</ele>
        <time>2014-11-30T11:59:47.000Z</time>
      </trkpt>
      <trkpt lat="45.98962" lon="4.54946">
        <ele>542</ele>
        <time>2014-11-30T11:59:52.000Z</time>
      </trkpt>
      <trkpt lat="45.98965" lon="4.54936">
        <ele>543</ele>
        <time>2014-11-30T11:59:58.000Z</time>
      </trkpt>
      <trkpt lat="45.98965" lon="4.54934">
        <ele>543</ele>
        <time>2014-11-30T11:59:59.000Z</time>
      </trkpt>
      <trkpt lat="45.98963" lon="4.54928">
        <ele>544</ele>
        <time>2014-11-30T12:00:02.000Z</time>
      </trkpt>
      <trkpt lat="45.98967" lon="4.54917">
        <ele>544</ele>
        <time>2014-11-30T12:00:08.000Z</time>
      </trkpt>
      <trkpt lat="45.98968" lon="4.54908">
        <ele>552</ele>
        <time>2014-11-30T12:00:12.000Z</time>
      </trkpt>
      <trkpt lat="45.98968" lon="4.54899">
        <ele>552</ele>
        <time>2014-11-30T12:00:17.000Z</time>
      </trkpt>
      <trkpt lat="45.98969" lon="4.54896">
        <ele>552</ele>
        <time>2014-11-30T12:00:19.000Z</time>
      </trkpt>
      <trkpt lat="45.98972" lon="4.54889">
        <ele>553</ele>
        <time>2014-11-30T12:00:24.000Z</time>
      </trkpt>
      <trkpt lat="45.98972" lon="4.54888">
        <ele>553</ele>
        <time>2014-11-30T12:00:25.000Z</time>
      </trkpt>
      <trkpt lat="45.98971" lon="4.54883">
        <ele>553</ele>
        <time>2014-11-30T12:00:30.000Z</time>
      </trkpt>
      <trkpt lat="45.98975" lon="4.54878">
        <ele>553</ele>
        <time>2014-11-30T12:00:35.000Z</time>
      </trkpt>
      <trkpt lat="45.98975" lon="4.54876">
        <ele>553</ele>
        <time>2014-11-30T12:00:38.000Z</time>
      </trkpt>
      <trkpt lat="45.98978" lon="4.54874">
        <ele>553</ele>
        <time>2014-11-30T12:00:41.000Z</time>
      </trkpt>
      <trkpt lat="45.98981" lon="4.54869">
        <ele>554</ele>
        <time>2014-11-30T12:00:46.000Z</time>
      </trkpt>
      <trkpt lat="45.98982" lon="4.54866">
        <ele>554</ele>
        <time>2014-11-30T12:00:48.000Z</time>
      </trkpt>
      <trkpt lat="45.98982" lon="4.54865">
        <ele>554</ele>
        <time>2014-11-30T12:00:49.000Z</time>
      </trkpt>
      <trkpt lat="45.98982" lon="4.54864">
        <ele>554</ele>
        <time>2014-11-30T12:00:50.000Z</time>
      </trkpt>
      <trkpt lat="45.98985" lon="4.54858">
        <ele>554</ele>
        <time>2014-11-30T12:00:54.000Z</time>
      </trkpt>
      <trkpt lat="45.98986" lon="4.54855">
        <ele>554</ele>
        <time>2014-11-30T12:00:57.000Z</time>
      </trkpt>
      <trkpt lat="45.98989" lon="4.54848">
        <ele>555</ele>
        <time>2014-11-30T12:01:02.000Z</time>
      </trkpt>
      <trkpt lat="45.98993" lon="4.54841">
        <ele>555</ele>
        <time>2014-11-30T12:01:07.000Z</time>
      </trkpt>
      <trkpt lat="45.98999" lon="4.54835">
        <ele>555</ele>
        <time>2014-11-30T12:01:15.000Z</time>
      </trkpt>
      <trkpt lat="45.99" lon="4.54834">
        <ele>555</ele>
        <time>2014-11-30T12:01:16.000Z</time>
      </trkpt>
      <trkpt lat="45.99003" lon="4.5483">
        <ele>557</ele>
        <time>2014-11-30T12:01:21.000Z</time>
      </trkpt>
      <trkpt lat="45.99005" lon="4.54828">
        <ele>558</ele>
        <time>2014-11-30T12:01:23.000Z</time>
      </trkpt>
      <trkpt lat="45.99007" lon="4.54824">
        <ele>560</ele>
        <time>2014-11-30T12:01:27.000Z</time>
      </trkpt>
      <trkpt lat="45.99009" lon="4.54823">
        <ele>560</ele>
        <time>2014-11-30T12:01:29.000Z</time>
      </trkpt>
      <trkpt lat="45.99009" lon="4.54821">
        <ele>561</ele>
        <time>2014-11-30T12:01:32.000Z</time>
      </trkpt>
      <trkpt lat="45.99011" lon="4.54815">
        <ele>562</ele>
        <time>2014-11-30T12:01:36.000Z</time>
      </trkpt>
      <trkpt lat="45.99012" lon="4.54813">
        <ele>563</ele>
        <time>2014-11-30T12:01:38.000Z</time>
      </trkpt>
      <trkpt lat="45.99015" lon="4.54809">
        <ele>564</ele>
        <time>2014-11-30T12:01:42.000Z</time>
      </trkpt>
      <trkpt lat="45.99016" lon="4.54807">
        <ele>564</ele>
        <time>2014-11-30T12:01:44.000Z</time>
      </trkpt>
      <trkpt lat="45.99019" lon="4.54803">
        <ele>565</ele>
        <time>2014-11-30T12:01:49.000Z</time>
      </trkpt>
      <trkpt lat="45.99019" lon="4.54801">
        <ele>565</ele>
        <time>2014-11-30T12:01:51.000Z</time>
      </trkpt>
      <trkpt lat="45.99023" lon="4.54796">
        <ele>566</ele>
        <time>2014-11-30T12:01:56.000Z</time>
      </trkpt>
      <trkpt lat="45.99025" lon="4.54795">
        <ele>566</ele>
        <time>2014-11-30T12:01:59.000Z</time>
      </trkpt>
      <trkpt lat="45.99028" lon="4.54794">
        <ele>566</ele>
        <time>2014-11-30T12:02:03.000Z</time>
      </trkpt>
      <trkpt lat="45.9903" lon="4.54794">
        <ele>566</ele>
        <time>2014-11-30T12:02:05.000Z</time>
      </trkpt>
      <trkpt lat="45.99036" lon="4.54796">
        <ele>567</ele>
        <time>2014-11-30T12:02:13.000Z</time>
      </trkpt>
      <trkpt lat="45.9904" lon="4.54796">
        <ele>567</ele>
        <time>2014-11-30T12:02:20.000Z</time>
      </trkpt>
      <trkpt lat="45.99043" lon="4.54792">
        <ele>567</ele>
        <time>2014-11-30T12:02:23.000Z</time>
      </trkpt>
      <trkpt lat="45.99044" lon="4.54791">
        <ele>567</ele>
        <time>2014-11-30T12:02:25.000Z</time>
      </trkpt>
      <trkpt lat="45.99047" lon="4.54791">
        <ele>568</ele>
        <time>2014-11-30T12:02:28.000Z</time>
      </trkpt>
      <trkpt lat="45.99049" lon="4.5479">
        <ele>568</ele>
        <time>2014-11-30T12:02:32.000Z</time>
      </trkpt>
      <trkpt lat="45.99052" lon="4.54786">
        <ele>568</ele>
        <time>2014-11-30T12:02:38.000Z</time>
      </trkpt>
      <trkpt lat="45.99054" lon="4.54785">
        <ele>568</ele>
        <time>2014-11-30T12:02:42.000Z</time>
      </trkpt>
      <trkpt lat="45.99057" lon="4.54781">
        <ele>568</ele>
        <time>2014-11-30T12:02:48.000Z</time>
      </trkpt>
      <trkpt lat="45.99059" lon="4.54778">
        <ele>569</ele>
        <time>2014-11-30T12:02:56.000Z</time>
      </trkpt>
      <trkpt lat="45.99061" lon="4.54777">
        <ele>569</ele>
        <time>2014-11-30T12:03:01.000Z</time>
      </trkpt>
      <trkpt lat="45.99063" lon="4.54776">
        <ele>569</ele>
        <time>2014-11-30T12:03:07.000Z</time>
      </trkpt>
      <trkpt lat="45.99065" lon="4.5478">
        <ele>569</ele>
        <time>2014-11-30T12:03:20.000Z</time>
      </trkpt>
      <trkpt lat="45.99067" lon="4.5478">
        <ele>569</ele>
        <time>2014-11-30T12:03:26.000Z</time>
      </trkpt>
      <trkpt lat="45.99069" lon="4.54778">
        <ele>569</ele>
        <time>2014-11-30T12:03:31.000Z</time>
      </trkpt>
      <trkpt lat="45.9907" lon="4.54781">
        <ele>569</ele>
        <time>2014-11-30T12:03:37.000Z</time>
      </trkpt>
      <trkpt lat="45.99072" lon="4.54781">
        <ele>569</ele>
        <time>2014-11-30T12:03:44.000Z</time>
      </trkpt>
      <trkpt lat="45.99075" lon="4.54772">
        <ele>569</ele>
        <time>2014-11-30T12:03:51.000Z</time>
      </trkpt>
      <trkpt lat="45.99075" lon="4.54771">
        <ele>570</ele>
        <time>2014-11-30T12:03:57.000Z</time>
      </trkpt>
      <trkpt lat="45.99079" lon="4.54761">
        <ele>570</ele>
        <time>2014-11-30T12:04:04.000Z</time>
      </trkpt>
      <trkpt lat="45.99084" lon="4.54751">
        <ele>573</ele>
        <time>2014-11-30T12:04:12.000Z</time>
      </trkpt>
      <trkpt lat="45.99089" lon="4.54745">
        <ele>577</ele>
        <time>2014-11-30T12:04:19.000Z</time>
      </trkpt>
      <trkpt lat="45.99093" lon="4.54742">
        <ele>580</ele>
        <time>2014-11-30T12:04:24.000Z</time>
      </trkpt>
      <trkpt lat="45.99096" lon="4.54738">
        <ele>582</ele>
        <time>2014-11-30T12:04:32.000Z</time>
      </trkpt>
      <trkpt lat="45.99098" lon="4.54736">
        <ele>583</ele>
        <time>2014-11-30T12:04:37.000Z</time>
      </trkpt>
      <trkpt lat="45.99101" lon="4.54735">
        <ele>584</ele>
        <time>2014-11-30T12:04:40.000Z</time>
      </trkpt>
      <trkpt lat="45.99106" lon="4.54731">
        <ele>586</ele>
        <time>2014-11-30T12:04:47.000Z</time>
      </trkpt>
      <trkpt lat="45.9911" lon="4.54728">
        <ele>588</ele>
        <time>2014-11-30T12:04:53.000Z</time>
      </trkpt>
      <trkpt lat="45.99112" lon="4.54727">
        <ele>588</ele>
        <time>2014-11-30T12:04:55.000Z</time>
      </trkpt>
      <trkpt lat="45.99114" lon="4.54722">
        <ele>589</ele>
        <time>2014-11-30T12:05:01.000Z</time>
      </trkpt>
      <trkpt lat="45.99119" lon="4.54719">
        <ele>590</ele>
        <time>2014-11-30T12:05:07.000Z</time>
      </trkpt>
      <trkpt lat="45.99124" lon="4.54716">
        <ele>591</ele>
        <time>2014-11-30T12:05:14.000Z</time>
      </trkpt>
      <trkpt lat="45.99127" lon="4.54714">
        <ele>592</ele>
        <time>2014-11-30T12:05:19.000Z</time>
      </trkpt>
      <trkpt lat="45.99128" lon="4.54713">
        <ele>592</ele>
        <time>2014-11-30T12:05:20.000Z</time>
      </trkpt>
      <trkpt lat="45.99134" lon="4.54707">
        <ele>593</ele>
        <time>2014-11-30T12:05:28.000Z</time>
      </trkpt>
      <trkpt lat="45.99134" lon="4.54706">
        <ele>593</ele>
        <time>2014-11-30T12:05:29.000Z</time>
      </trkpt>
      <trkpt lat="45.99134" lon="4.547">
        <ele>593</ele>
        <time>2014-11-30T12:05:37.000Z</time>
      </trkpt>
      <trkpt lat="45.99133" lon="4.54694">
        <ele>593</ele>
        <time>2014-11-30T12:05:43.000Z</time>
      </trkpt>
      <trkpt lat="45.99137" lon="4.54689">
        <ele>594</ele>
        <time>2014-11-30T12:06:42.000Z</time>
      </trkpt>
      <trkpt lat="45.99139" lon="4.54688">
        <ele>594</ele>
        <time>2014-11-30T12:06:44.000Z</time>
      </trkpt>
      <trkpt lat="45.99146" lon="4.54687">
        <ele>595</ele>
        <time>2014-11-30T12:06:51.000Z</time>
      </trkpt>
      <trkpt lat="45.99147" lon="4.54686">
        <ele>596</ele>
        <time>2014-11-30T12:06:52.000Z</time>
      </trkpt>
      <trkpt lat="45.9915" lon="4.54685">
        <ele>596</ele>
        <time>2014-11-30T12:06:57.000Z</time>
      </trkpt>
      <trkpt lat="45.99155" lon="4.5468">
        <ele>597</ele>
        <time>2014-11-30T12:07:03.000Z</time>
      </trkpt>
      <trkpt lat="45.99155" lon="4.54679">
        <ele>598</ele>
        <time>2014-11-30T12:07:04.000Z</time>
      </trkpt>
      <trkpt lat="45.99157" lon="4.54675">
        <ele>599</ele>
        <time>2014-11-30T12:07:08.000Z</time>
      </trkpt>
      <trkpt lat="45.99159" lon="4.54674">
        <ele>599</ele>
        <time>2014-11-30T12:07:11.000Z</time>
      </trkpt>
      <trkpt lat="45.99164" lon="4.5467">
        <ele>601</ele>
        <time>2014-11-30T12:07:16.000Z</time>
      </trkpt>
      <trkpt lat="45.99167" lon="4.54669">
        <ele>604</ele>
        <time>2014-11-30T12:07:20.000Z</time>
      </trkpt>
      <trkpt lat="45.99171" lon="4.54668">
        <ele>605</ele>
        <time>2014-11-30T12:07:25.000Z</time>
      </trkpt>
      <trkpt lat="45.99172" lon="4.54668">
        <ele>606</ele>
        <time>2014-11-30T12:07:26.000Z</time>
      </trkpt>
      <trkpt lat="45.99176" lon="4.54667">
        <ele>609</ele>
        <time>2014-11-30T12:07:31.000Z</time>
      </trkpt>
      <trkpt lat="45.99179" lon="4.54666">
        <ele>610</ele>
        <time>2014-11-30T12:07:36.000Z</time>
      </trkpt>
      <trkpt lat="45.99182" lon="4.54667">
        <ele>609</ele>
        <time>2014-11-30T12:07:41.000Z</time>
      </trkpt>
      <trkpt lat="45.99185" lon="4.54667">
        <ele>610</ele>
        <time>2014-11-30T12:07:45.000Z</time>
      </trkpt>
      <trkpt lat="45.99186" lon="4.54668">
        <ele>611</ele>
        <time>2014-11-30T12:07:49.000Z</time>
      </trkpt>
      <trkpt lat="45.99192" lon="4.54673">
        <ele>612</ele>
        <time>2014-11-30T12:08:15.000Z</time>
      </trkpt>
      <trkpt lat="45.99194" lon="4.54676">
        <ele>613</ele>
        <time>2014-11-30T12:08:20.000Z</time>
      </trkpt>
      <trkpt lat="45.99198" lon="4.54679">
        <ele>614</ele>
        <time>2014-11-30T12:08:27.000Z</time>
      </trkpt>
      <trkpt lat="45.99201" lon="4.54679">
        <ele>615</ele>
        <time>2014-11-30T12:08:32.000Z</time>
      </trkpt>
      <trkpt lat="45.99204" lon="4.54679">
        <ele>615</ele>
        <time>2014-11-30T12:08:37.000Z</time>
      </trkpt>
      <trkpt lat="45.99207" lon="4.54678">
        <ele>616</ele>
        <time>2014-11-30T12:08:42.000Z</time>
      </trkpt>
      <trkpt lat="45.99215" lon="4.54674">
        <ele>618</ele>
        <time>2014-11-30T12:08:55.000Z</time>
      </trkpt>
      <trkpt lat="45.99219" lon="4.54672">
        <ele>619</ele>
        <time>2014-11-30T12:09:00.000Z</time>
      </trkpt>
      <trkpt lat="45.99223" lon="4.54671">
        <ele>620</ele>
        <time>2014-11-30T12:09:08.000Z</time>
      </trkpt>
      <trkpt lat="45.99227" lon="4.54671">
        <ele>621</ele>
        <time>2014-11-30T12:09:15.000Z</time>
      </trkpt>
      <trkpt lat="45.9923" lon="4.54669">
        <ele>622</ele>
        <time>2014-11-30T12:09:20.000Z</time>
      </trkpt>
      <trkpt lat="45.99233" lon="4.54668">
        <ele>622</ele>
        <time>2014-11-30T12:09:24.000Z</time>
      </trkpt>
      <trkpt lat="45.99236" lon="4.54667">
        <ele>623</ele>
        <time>2014-11-30T12:09:28.000Z</time>
      </trkpt>
      <trkpt lat="45.99238" lon="4.54667">
        <ele>624</ele>
        <time>2014-11-30T12:09:31.000Z</time>
      </trkpt>
      <trkpt lat="45.99243" lon="4.54668">
        <ele>626</ele>
        <time>2014-11-30T12:09:36.000Z</time>
      </trkpt>
      <trkpt lat="45.99243" lon="4.54668">
        <ele>626</ele>
        <time>2014-11-30T12:09:37.000Z</time>
      </trkpt>
      <trkpt lat="45.99248" lon="4.54668">
        <ele>628</ele>
        <time>2014-11-30T12:09:42.000Z</time>
      </trkpt>
      <trkpt lat="45.99249" lon="4.54668">
        <ele>628</ele>
        <time>2014-11-30T12:09:43.000Z</time>
      </trkpt>
      <trkpt lat="45.99253" lon="4.54669">
        <ele>630</ele>
        <time>2014-11-30T12:09:49.000Z</time>
      </trkpt>
      <trkpt lat="45.99257" lon="4.54669">
        <ele>631</ele>
        <time>2014-11-30T12:09:55.000Z</time>
      </trkpt>
      <trkpt lat="45.99261" lon="4.54667">
        <ele>632</ele>
        <time>2014-11-30T12:10:08.000Z</time>
      </trkpt>
      <trkpt lat="45.99261" lon="4.54665">
        <ele>635</ele>
        <time>2014-11-30T12:10:15.000Z</time>
      </trkpt>
      <trkpt lat="45.99258" lon="4.54656">
        <ele>636</ele>
        <time>2014-11-30T12:10:23.000Z</time>
      </trkpt>
      <trkpt lat="45.99257" lon="4.54654">
        <ele>636</ele>
        <time>2014-11-30T12:10:25.000Z</time>
      </trkpt>
      <trkpt lat="45.99257" lon="4.54652">
        <ele>636</ele>
        <time>2014-11-30T12:10:27.000Z</time>
      </trkpt>
      <trkpt lat="45.99256" lon="4.54648">
        <ele>637</ele>
        <time>2014-11-30T12:10:31.000Z</time>
      </trkpt>
      <trkpt lat="45.99254" lon="4.54642">
        <ele>638</ele>
        <time>2014-11-30T12:10:37.000Z</time>
      </trkpt>
      <trkpt lat="45.99253" lon="4.54636">
        <ele>640</ele>
        <time>2014-11-30T12:10:42.000Z</time>
      </trkpt>
      <trkpt lat="45.99253" lon="4.54635">
        <ele>640</ele>
        <time>2014-11-30T12:10:44.000Z</time>
      </trkpt>
      <trkpt lat="45.99252" lon="4.54631">
        <ele>640</ele>
        <time>2014-11-30T12:10:52.000Z</time>
      </trkpt>
      <trkpt lat="45.99251" lon="4.54626">
        <ele>640</ele>
        <time>2014-11-30T12:10:57.000Z</time>
      </trkpt>
      <trkpt lat="45.99248" lon="4.54623">
        <ele>626</ele>
        <time>2014-11-30T12:11:01.000Z</time>
      </trkpt>
      <trkpt lat="45.99245" lon="4.54617">
        <ele>627</ele>
        <time>2014-11-30T12:11:07.000Z</time>
      </trkpt>
      <trkpt lat="45.99244" lon="4.5461">
        <ele>628</ele>
        <time>2014-11-30T12:11:18.000Z</time>
      </trkpt>
      <trkpt lat="45.99245" lon="4.54607">
        <ele>628</ele>
        <time>2014-11-30T12:11:23.000Z</time>
      </trkpt>
      <trkpt lat="45.99246" lon="4.54605">
        <ele>629</ele>
        <time>2014-11-30T12:11:28.000Z</time>
      </trkpt>
      <trkpt lat="45.99245" lon="4.546">
        <ele>630</ele>
        <time>2014-11-30T12:11:43.000Z</time>
      </trkpt>
      <trkpt lat="45.99248" lon="4.54602">
        <ele>630</ele>
        <time>2014-11-30T12:11:50.000Z</time>
      </trkpt>
      <trkpt lat="45.9925" lon="4.54602">
        <ele>630</ele>
        <time>2014-11-30T12:11:55.000Z</time>
      </trkpt>
      <trkpt lat="45.99251" lon="4.54598">
        <ele>640</ele>
        <time>2014-11-30T12:12:32.000Z</time>
      </trkpt>
      <trkpt lat="45.99253" lon="4.54597">
        <ele>640</ele>
        <time>2014-11-30T12:12:48.000Z</time>
      </trkpt>
      <trkpt lat="45.99255" lon="4.54592">
        <ele>640</ele>
        <time>2014-11-30T12:13:02.000Z</time>
      </trkpt>
      <trkpt lat="45.99258" lon="4.54587">
        <ele>640</ele>
        <time>2014-11-30T12:13:08.000Z</time>
      </trkpt>
      <trkpt lat="45.99261" lon="4.54581">
        <ele>645</ele>
        <time>2014-11-30T12:13:14.000Z</time>
      </trkpt>
      <trkpt lat="45.99263" lon="4.5458">
        <ele>646</ele>
        <time>2014-11-30T12:13:16.000Z</time>
      </trkpt>
      <trkpt lat="45.99267" lon="4.54572">
        <ele>649</ele>
        <time>2014-11-30T12:13:23.000Z</time>
      </trkpt>
      <trkpt lat="45.99269" lon="4.54569">
        <ele>651</ele>
        <time>2014-11-30T12:13:28.000Z</time>
      </trkpt>
      <trkpt lat="45.99271" lon="4.54565">
        <ele>652</ele>
        <time>2014-11-30T12:13:35.000Z</time>
      </trkpt>
      <trkpt lat="45.99273" lon="4.54564">
        <ele>653</ele>
        <time>2014-11-30T12:13:39.000Z</time>
      </trkpt>
      <trkpt lat="45.99275" lon="4.54562">
        <ele>654</ele>
        <time>2014-11-30T12:13:50.000Z</time>
      </trkpt>
      <trkpt lat="45.99276" lon="4.54561">
        <ele>654</ele>
        <time>2014-11-30T12:13:57.000Z</time>
      </trkpt>
      <trkpt lat="45.99275" lon="4.54562">
        <ele>654</ele>
        <time>2014-11-30T12:14:17.000Z</time>
      </trkpt>
      <trkpt lat="45.99276" lon="4.54562">
        <ele>654</ele>
        <time>2014-11-30T12:14:33.000Z</time>
      </trkpt>
      <trkpt lat="45.99276" lon="4.54562">
        <ele>654</ele>
        <time>2014-11-30T12:14:40.000Z</time>
      </trkpt>
      <trkpt lat="45.99277" lon="4.54561">
        <ele>654</ele>
        <time>2014-11-30T12:15:13.000Z</time>
      </trkpt>
      <trkpt lat="45.99279" lon="4.54557">
        <ele>655</ele>
        <time>2014-11-30T12:15:20.000Z</time>
      </trkpt>
      <trkpt lat="45.99282" lon="4.54556">
        <ele>656</ele>
        <time>2014-11-30T12:15:25.000Z</time>
      </trkpt>
      <trkpt lat="45.99282" lon="4.54553">
        <ele>656</ele>
        <time>2014-11-30T12:15:38.000Z</time>
      </trkpt>
      <trkpt lat="45.99283" lon="4.54552">
        <ele>657</ele>
        <time>2014-11-30T12:15:44.000Z</time>
      </trkpt>
      <trkpt lat="45.99286" lon="4.54549">
        <ele>658</ele>
        <time>2014-11-30T12:15:51.000Z</time>
      </trkpt>
      <trkpt lat="45.99287" lon="4.54547">
        <ele>658</ele>
        <time>2014-11-30T12:15:55.000Z</time>
      </trkpt>
      <trkpt lat="45.99289" lon="4.54544">
        <ele>659</ele>
        <time>2014-11-30T12:16:01.000Z</time>
      </trkpt>
      <trkpt lat="45.99292" lon="4.54542">
        <ele>659</ele>
        <time>2014-11-30T12:16:06.000Z</time>
      </trkpt>
      <trkpt lat="45.99295" lon="4.54542">
        <ele>660</ele>
        <time>2014-11-30T12:16:11.000Z</time>
      </trkpt>
      <trkpt lat="45.99297" lon="4.5454">
        <ele>660</ele>
        <time>2014-11-30T12:16:16.000Z</time>
      </trkpt>
      <trkpt lat="45.99299" lon="4.54537">
        <ele>661</ele>
        <time>2014-11-30T12:16:20.000Z</time>
      </trkpt>
      <trkpt lat="45.99301" lon="4.54538">
        <ele>661</ele>
        <time>2014-11-30T12:16:25.000Z</time>
      </trkpt>
      <trkpt lat="45.99305" lon="4.54537">
        <ele>662</ele>
        <time>2014-11-30T12:16:33.000Z</time>
      </trkpt>
      <trkpt lat="45.99307" lon="4.54534">
        <ele>663</ele>
        <time>2014-11-30T12:16:38.000Z</time>
      </trkpt>
      <trkpt lat="45.9931" lon="4.54532">
        <ele>663</ele>
        <time>2014-11-30T12:16:46.000Z</time>
      </trkpt>
      <trkpt lat="45.99312" lon="4.54529">
        <ele>664</ele>
        <time>2014-11-30T12:16:52.000Z</time>
      </trkpt>
      <trkpt lat="45.99315" lon="4.54529">
        <ele>665</ele>
        <time>2014-11-30T12:16:59.000Z</time>
      </trkpt>
      <trkpt lat="45.99317" lon="4.54529">
        <ele>665</ele>
        <time>2014-11-30T12:17:03.000Z</time>
      </trkpt>
      <trkpt lat="45.99319" lon="4.54528">
        <ele>666</ele>
        <time>2014-11-30T12:17:07.000Z</time>
      </trkpt>
      <trkpt lat="45.99321" lon="4.54524">
        <ele>667</ele>
        <time>2014-11-30T12:17:13.000Z</time>
      </trkpt>
      <trkpt lat="45.99325" lon="4.54522">
        <ele>668</ele>
        <time>2014-11-30T12:17:24.000Z</time>
      </trkpt>
      <trkpt lat="45.99326" lon="4.54521">
        <ele>668</ele>
        <time>2014-11-30T12:17:30.000Z</time>
      </trkpt>
      <trkpt lat="45.99328" lon="4.5452">
        <ele>669</ele>
        <time>2014-11-30T12:17:35.000Z</time>
      </trkpt>
      <trkpt lat="45.99331" lon="4.54517">
        <ele>671</ele>
        <time>2014-11-30T12:17:45.000Z</time>
      </trkpt>
      <trkpt lat="45.99332" lon="4.54514">
        <ele>672</ele>
        <time>2014-11-30T12:17:50.000Z</time>
      </trkpt>
      <trkpt lat="45.99333" lon="4.5451">
        <ele>682</ele>
        <time>2014-11-30T12:17:55.000Z</time>
      </trkpt>
      <trkpt lat="45.99335" lon="4.54509">
        <ele>682</ele>
        <time>2014-11-30T12:17:59.000Z</time>
      </trkpt>
      <trkpt lat="45.99336" lon="4.54508">
        <ele>682</ele>
        <time>2014-11-30T12:18:05.000Z</time>
      </trkpt>
      <trkpt lat="45.99337" lon="4.54508">
        <ele>682</ele>
        <time>2014-11-30T12:18:13.000Z</time>
      </trkpt>
      <trkpt lat="45.99341" lon="4.54507">
        <ele>683</ele>
        <time>2014-11-30T12:18:23.000Z</time>
      </trkpt>
      <trkpt lat="45.99342" lon="4.54504">
        <ele>683</ele>
        <time>2014-11-30T12:18:28.000Z</time>
      </trkpt>
      <trkpt lat="45.99344" lon="4.54503">
        <ele>683</ele>
        <time>2014-11-30T12:18:33.000Z</time>
      </trkpt>
      <trkpt lat="45.99345" lon="4.54503">
        <ele>683</ele>
        <time>2014-11-30T12:18:39.000Z</time>
      </trkpt>
      <trkpt lat="45.99347" lon="4.54501">
        <ele>684</ele>
        <time>2014-11-30T12:18:47.000Z</time>
      </trkpt>
      <trkpt lat="45.99348" lon="4.545">
        <ele>688</ele>
        <time>2014-11-30T12:18:52.000Z</time>
      </trkpt>
      <trkpt lat="45.99349" lon="4.54496">
        <ele>688</ele>
        <time>2014-11-30T12:19:02.000Z</time>
      </trkpt>
      <trkpt lat="45.99351" lon="4.54495">
        <ele>689</ele>
        <time>2014-11-30T12:19:10.000Z</time>
      </trkpt>
      <trkpt lat="45.99353" lon="4.54494">
        <ele>690</ele>
        <time>2014-11-30T12:19:18.000Z</time>
      </trkpt>
      <trkpt lat="45.99354" lon="4.54491">
        <ele>690</ele>
        <time>2014-11-30T12:19:31.000Z</time>
      </trkpt>
      <trkpt lat="45.99355" lon="4.5449">
        <ele>690</ele>
        <time>2014-11-30T12:19:39.000Z</time>
      </trkpt>
      <trkpt lat="45.99357" lon="4.54487">
        <ele>691</ele>
        <time>2014-11-30T12:19:59.000Z</time>
      </trkpt>
      <trkpt lat="45.99359" lon="4.54487">
        <ele>692</ele>
        <time>2014-11-30T12:20:16.000Z</time>
      </trkpt>
      <trkpt lat="45.99361" lon="4.54485">
        <ele>692</ele>
        <time>2014-11-30T12:20:27.000Z</time>
      </trkpt>
      <trkpt lat="45.9936" lon="4.54482">
        <ele>692</ele>
        <time>2014-11-30T12:20:33.000Z</time>
      </trkpt>
      <trkpt lat="45.99361" lon="4.54478">
        <ele>693</ele>
        <time>2014-11-30T12:20:46.000Z</time>
      </trkpt>
      <trkpt lat="45.99362" lon="4.54477">
        <ele>693</ele>
        <time>2014-11-30T12:20:51.000Z</time>
      </trkpt>
      <trkpt lat="45.99363" lon="4.54475">
        <ele>693</ele>
        <time>2014-11-30T12:21:02.000Z</time>
      </trkpt>
      <trkpt lat="45.99365" lon="4.54473">
        <ele>693</ele>
        <time>2014-11-30T12:21:28.000Z</time>
      </trkpt>
      <trkpt lat="45.99367" lon="4.5447">
        <ele>694</ele>
        <time>2014-11-30T12:21:33.000Z</time>
      </trkpt>
      <trkpt lat="45.99368" lon="4.54468">
        <ele>694</ele>
        <time>2014-11-30T12:21:40.000Z</time>
      </trkpt>
      <trkpt lat="45.9937" lon="4.54468">
        <ele>694</ele>
        <time>2014-11-30T12:21:45.000Z</time>
      </trkpt>
      <trkpt lat="45.99372" lon="4.54466">
        <ele>695</ele>
        <time>2014-11-30T12:21:55.000Z</time>
      </trkpt>
      <trkpt lat="45.99375" lon="4.54466">
        <ele>695</ele>
        <time>2014-11-30T12:22:12.000Z</time>
      </trkpt>
      <trkpt lat="45.99379" lon="4.54462">
        <ele>696</ele>
        <time>2014-11-30T12:22:21.000Z</time>
      </trkpt>
      <trkpt lat="45.9938" lon="4.54458">
        <ele>696</ele>
        <time>2014-11-30T12:22:27.000Z</time>
      </trkpt>
      <trkpt lat="45.99381" lon="4.54458">
        <ele>696</ele>
        <time>2014-11-30T12:22:28.000Z</time>
      </trkpt>
      <trkpt lat="45.99384" lon="4.54453">
        <ele>696</ele>
        <time>2014-11-30T12:22:33.000Z</time>
      </trkpt>
      <trkpt lat="45.99388" lon="4.54445">
        <ele>697</ele>
        <time>2014-11-30T12:22:39.000Z</time>
      </trkpt>
      <trkpt lat="45.9939" lon="4.54442">
        <ele>697</ele>
        <time>2014-11-30T12:22:42.000Z</time>
      </trkpt>
      <trkpt lat="45.99396" lon="4.54434">
        <ele>698</ele>
        <time>2014-11-30T12:22:49.000Z</time>
      </trkpt>
      <trkpt lat="45.99401" lon="4.54432">
        <ele>699</ele>
        <time>2014-11-30T12:22:54.000Z</time>
      </trkpt>
      <trkpt lat="45.99402" lon="4.54432">
        <ele>699</ele>
        <time>2014-11-30T12:22:55.000Z</time>
      </trkpt>
      <trkpt lat="45.99402" lon="4.54432">
        <ele>699</ele>
        <time>2014-11-30T12:23:02.000Z</time>
      </trkpt>
      <trkpt lat="45.99407" lon="4.54431">
        <ele>700</ele>
        <time>2014-11-30T12:23:46.000Z</time>
      </trkpt>
      <trkpt lat="45.99409" lon="4.54428">
        <ele>701</ele>
        <time>2014-11-30T12:23:54.000Z</time>
      </trkpt>
      <trkpt lat="45.99411" lon="4.54425">
        <ele>701</ele>
        <time>2014-11-30T12:23:59.000Z</time>
      </trkpt>
      <trkpt lat="45.99413" lon="4.54421">
        <ele>702</ele>
        <time>2014-11-30T12:24:04.000Z</time>
      </trkpt>
      <trkpt lat="45.99414" lon="4.54421">
        <ele>703</ele>
        <time>2014-11-30T12:24:05.000Z</time>
      </trkpt>
      <trkpt lat="45.99414" lon="4.54417">
        <ele>703</ele>
        <time>2014-11-30T12:24:09.000Z</time>
      </trkpt>
      <trkpt lat="45.99416" lon="4.5441">
        <ele>701</ele>
        <time>2014-11-30T12:24:15.000Z</time>
      </trkpt>
      <trkpt lat="45.99419" lon="4.54407">
        <ele>700</ele>
        <time>2014-11-30T12:24:19.000Z</time>
      </trkpt>
      <trkpt lat="45.9942" lon="4.54406">
        <ele>700</ele>
        <time>2014-11-30T12:24:20.000Z</time>
      </trkpt>
      <trkpt lat="45.99419" lon="4.544">
        <ele>698</ele>
        <time>2014-11-30T12:24:26.000Z</time>
      </trkpt>
      <trkpt lat="45.99419" lon="4.54395">
        <ele>697</ele>
        <time>2014-11-30T12:24:32.000Z</time>
      </trkpt>
      <trkpt lat="45.9942" lon="4.54391">
        <ele>696</ele>
        <time>2014-11-30T12:24:36.000Z</time>
      </trkpt>
      <trkpt lat="45.99421" lon="4.54387">
        <ele>695</ele>
        <time>2014-11-30T12:24:40.000Z</time>
      </trkpt>
      <trkpt lat="45.99427" lon="4.54383">
        <ele>694</ele>
        <time>2014-11-30T12:25:21.000Z</time>
      </trkpt>
      <trkpt lat="45.99434" lon="4.54384">
        <ele>694</ele>
        <time>2014-11-30T12:25:27.000Z</time>
      </trkpt>
      <trkpt lat="45.99444" lon="4.54388">
        <ele>694</ele>
        <time>2014-11-30T12:25:34.000Z</time>
      </trkpt>
      <trkpt lat="45.99454" lon="4.54392">
        <ele>694</ele>
        <time>2014-11-30T12:25:42.000Z</time>
      </trkpt>
      <trkpt lat="45.99464" lon="4.54399">
        <ele>694</ele>
        <time>2014-11-30T12:25:49.000Z</time>
      </trkpt>
      <trkpt lat="45.99472" lon="4.54407">
        <ele>695</ele>
        <time>2014-11-30T12:25:56.000Z</time>
      </trkpt>
      <trkpt lat="45.99479" lon="4.54413">
        <ele>695</ele>
        <time>2014-11-30T12:26:02.000Z</time>
      </trkpt>
      <trkpt lat="45.99484" lon="4.54418">
        <ele>703</ele>
        <time>2014-11-30T12:26:06.000Z</time>
      </trkpt>
      <trkpt lat="45.99491" lon="4.54427">
        <ele>702</ele>
        <time>2014-11-30T12:26:15.000Z</time>
      </trkpt>
      <trkpt lat="45.99498" lon="4.54434">
        <ele>703</ele>
        <time>2014-11-30T12:26:21.000Z</time>
      </trkpt>
      <trkpt lat="45.99505" lon="4.54439">
        <ele>703</ele>
        <time>2014-11-30T12:26:28.000Z</time>
      </trkpt>
      <trkpt lat="45.99509" lon="4.54443">
        <ele>704</ele>
        <time>2014-11-30T12:26:33.000Z</time>
      </trkpt>
      <trkpt lat="45.99516" lon="4.5445">
        <ele>705</ele>
        <time>2014-11-30T12:26:40.000Z</time>
      </trkpt>
      <trkpt lat="45.99521" lon="4.54455">
        <ele>705</ele>
        <time>2014-11-30T12:26:45.000Z</time>
      </trkpt>
      <trkpt lat="45.99527" lon="4.54461">
        <ele>706</ele>
        <time>2014-11-30T12:26:49.000Z</time>
      </trkpt>
      <trkpt lat="45.99536" lon="4.5447">
        <ele>706</ele>
        <time>2014-11-30T12:26:57.000Z</time>
      </trkpt>
      <trkpt lat="45.99543" lon="4.54477">
        <ele>707</ele>
        <time>2014-11-30T12:27:04.000Z</time>
      </trkpt>
      <trkpt lat="45.99551" lon="4.54485">
        <ele>707</ele>
        <time>2014-11-30T12:27:12.000Z</time>
      </trkpt>
      <trkpt lat="45.99559" lon="4.54491">
        <ele>707</ele>
        <time>2014-11-30T12:27:19.000Z</time>
      </trkpt>
      <trkpt lat="45.99564" lon="4.54494">
        <ele>708</ele>
        <time>2014-11-30T12:27:23.000Z</time>
      </trkpt>
      <trkpt lat="45.99571" lon="4.54499">
        <ele>708</ele>
        <time>2014-11-30T12:27:30.000Z</time>
      </trkpt>
      <trkpt lat="45.99574" lon="4.545">
        <ele>710</ele>
        <time>2014-11-30T12:27:32.000Z</time>
      </trkpt>
      <trkpt lat="45.99576" lon="4.54497">
        <ele>709</ele>
        <time>2014-11-30T12:27:40.000Z</time>
      </trkpt>
      <trkpt lat="45.99577" lon="4.54492">
        <ele>708</ele>
        <time>2014-11-30T12:27:46.000Z</time>
      </trkpt>
      <trkpt lat="45.99578" lon="4.54492">
        <ele>708</ele>
        <time>2014-11-30T12:27:55.000Z</time>
      </trkpt>
      <trkpt lat="45.99579" lon="4.54497">
        <ele>709</ele>
        <time>2014-11-30T12:27:59.000Z</time>
      </trkpt>
      <trkpt lat="45.99582" lon="4.54504">
        <ele>710</ele>
        <time>2014-11-30T12:28:04.000Z</time>
      </trkpt>
      <trkpt lat="45.99588" lon="4.54505">
        <ele>709</ele>
        <time>2014-11-30T12:28:11.000Z</time>
      </trkpt>
      <trkpt lat="45.99591" lon="4.54506">
        <ele>709</ele>
        <time>2014-11-30T12:28:22.000Z</time>
      </trkpt>
      <trkpt lat="45.996" lon="4.54507">
        <ele>709</ele>
        <time>2014-11-30T12:28:31.000Z</time>
      </trkpt>
      <trkpt lat="45.99609" lon="4.54507">
        <ele>709</ele>
        <time>2014-11-30T12:28:35.000Z</time>
      </trkpt>
      <trkpt lat="45.99624" lon="4.54505">
        <ele>709</ele>
        <time>2014-11-30T12:28:40.000Z</time>
      </trkpt>
      <trkpt lat="45.99626" lon="4.54504">
        <ele>709</ele>
        <time>2014-11-30T12:28:41.000Z</time>
      </trkpt>
      <trkpt lat="45.99638" lon="4.54506">
        <ele>709</ele>
        <time>2014-11-30T12:28:45.000Z</time>
      </trkpt>
      <trkpt lat="45.99641" lon="4.54505">
        <ele>709</ele>
        <time>2014-11-30T12:28:46.000Z</time>
      </trkpt>
      <trkpt lat="45.99651" lon="4.54502">
        <ele>710</ele>
        <time>2014-11-30T12:28:50.000Z</time>
      </trkpt>
      <trkpt lat="45.99657" lon="4.54499">
        <ele>710</ele>
        <time>2014-11-30T12:28:52.000Z</time>
      </trkpt>
      <trkpt lat="45.99669" lon="4.54493">
        <ele>711</ele>
        <time>2014-11-30T12:28:56.000Z</time>
      </trkpt>
      <trkpt lat="45.99671" lon="4.54491">
        <ele>711</ele>
        <time>2014-11-30T12:28:57.000Z</time>
      </trkpt>
      <trkpt lat="45.99688" lon="4.54478">
        <ele>711</ele>
        <time>2014-11-30T12:29:04.000Z</time>
      </trkpt>
      <trkpt lat="45.99705" lon="4.54465">
        <ele>710</ele>
        <time>2014-11-30T12:29:10.000Z</time>
      </trkpt>
      <trkpt lat="45.99723" lon="4.54452">
        <ele>711</ele>
        <time>2014-11-30T12:29:17.000Z</time>
      </trkpt>
      <trkpt lat="45.99732" lon="4.54448">
        <ele>711</ele>
        <time>2014-11-30T12:29:21.000Z</time>
      </trkpt>
      <trkpt lat="45.99745" lon="4.54443">
        <ele>711</ele>
        <time>2014-11-30T12:29:26.000Z</time>
      </trkpt>
      <trkpt lat="45.99758" lon="4.54439">
        <ele>711</ele>
        <time>2014-11-30T12:29:30.000Z</time>
      </trkpt>
      <trkpt lat="45.9977" lon="4.54433">
        <ele>711</ele>
        <time>2014-11-30T12:29:35.000Z</time>
      </trkpt>
      <trkpt lat="45.99777" lon="4.54429">
        <ele>711</ele>
        <time>2014-11-30T12:29:38.000Z</time>
      </trkpt>
      <trkpt lat="45.99782" lon="4.54421">
        <ele>711</ele>
        <time>2014-11-30T12:29:41.000Z</time>
      </trkpt>
      <trkpt lat="45.99778" lon="4.54411">
        <ele>706</ele>
        <time>2014-11-30T12:29:47.000Z</time>
      </trkpt>
      <trkpt lat="45.99773" lon="4.54408">
        <ele>706</ele>
        <time>2014-11-30T12:29:50.000Z</time>
      </trkpt>
      <trkpt lat="45.99767" lon="4.54406">
        <ele>706</ele>
        <time>2014-11-30T12:29:53.000Z</time>
      </trkpt>
      <trkpt lat="45.99757" lon="4.54398">
        <ele>706</ele>
        <time>2014-11-30T12:29:58.000Z</time>
      </trkpt>
      <trkpt lat="45.99745" lon="4.54383">
        <ele>700</ele>
        <time>2014-11-30T12:30:04.000Z</time>
      </trkpt>
      <trkpt lat="45.99734" lon="4.54372">
        <ele>698</ele>
        <time>2014-11-30T12:30:10.000Z</time>
      </trkpt>
      <trkpt lat="45.99725" lon="4.54365">
        <ele>697</ele>
        <time>2014-11-30T12:30:15.000Z</time>
      </trkpt>
      <trkpt lat="45.9972" lon="4.54363">
        <ele>696</ele>
        <time>2014-11-30T12:30:18.000Z</time>
      </trkpt>
      <trkpt lat="45.99711" lon="4.54357">
        <ele>695</ele>
        <time>2014-11-30T12:30:23.000Z</time>
      </trkpt>
      <trkpt lat="45.99702" lon="4.54354">
        <ele>694</ele>
        <time>2014-11-30T12:30:27.000Z</time>
      </trkpt>
      <trkpt lat="45.99697" lon="4.54352">
        <ele>693</ele>
        <time>2014-11-30T12:30:29.000Z</time>
      </trkpt>
      <trkpt lat="45.99681" lon="4.54346">
        <ele>690</ele>
        <time>2014-11-30T12:30:35.000Z</time>
      </trkpt>
      <trkpt lat="45.99671" lon="4.54344">
        <ele>687</ele>
        <time>2014-11-30T12:30:39.000Z</time>
      </trkpt>
      <trkpt lat="45.99662" lon="4.5434">
        <ele>683</ele>
        <time>2014-11-30T12:30:44.000Z</time>
      </trkpt>
      <trkpt lat="45.99652" lon="4.54336">
        <ele>684</ele>
        <time>2014-11-30T12:30:49.000Z</time>
      </trkpt>
      <trkpt lat="45.99646" lon="4.54334">
        <ele>685</ele>
        <time>2014-11-30T12:30:52.000Z</time>
      </trkpt>
      <trkpt lat="45.99643" lon="4.54325">
        <ele>671</ele>
        <time>2014-11-30T12:30:56.000Z</time>
      </trkpt>
      <trkpt lat="45.99647" lon="4.54315">
        <ele>670</ele>
        <time>2014-11-30T12:30:59.000Z</time>
      </trkpt>
      <trkpt lat="45.99657" lon="4.543">
        <ele>667</ele>
        <time>2014-11-30T12:31:04.000Z</time>
      </trkpt>
      <trkpt lat="45.99665" lon="4.54289">
        <ele>665</ele>
        <time>2014-11-30T12:31:08.000Z</time>
      </trkpt>
      <trkpt lat="45.99678" lon="4.54278">
        <ele>670</ele>
        <time>2014-11-30T12:31:13.000Z</time>
      </trkpt>
      <trkpt lat="45.99686" lon="4.54266">
        <ele>668</ele>
        <time>2014-11-30T12:31:17.000Z</time>
      </trkpt>
      <trkpt lat="45.99695" lon="4.54244">
        <ele>653</ele>
        <time>2014-11-30T12:31:24.000Z</time>
      </trkpt>
      <trkpt lat="45.99698" lon="4.54232">
        <ele>652</ele>
        <time>2014-11-30T12:31:28.000Z</time>
      </trkpt>
      <trkpt lat="45.99701" lon="4.54219">
        <ele>651</ele>
        <time>2014-11-30T12:31:33.000Z</time>
      </trkpt>
      <trkpt lat="45.99706" lon="4.54211">
        <ele>650</ele>
        <time>2014-11-30T12:31:37.000Z</time>
      </trkpt>
      <trkpt lat="45.99709" lon="4.54197">
        <ele>649</ele>
        <time>2014-11-30T12:31:43.000Z</time>
      </trkpt>
      <trkpt lat="45.99713" lon="4.54181">
        <ele>647</ele>
        <time>2014-11-30T12:31:49.000Z</time>
      </trkpt>
      <trkpt lat="45.99714" lon="4.54178">
        <ele>647</ele>
        <time>2014-11-30T12:31:55.000Z</time>
      </trkpt>
      <trkpt lat="45.99714" lon="4.54177">
        <ele>647</ele>
        <time>2014-11-30T12:32:03.000Z</time>
      </trkpt>
      <trkpt lat="45.99718" lon="4.54168">
        <ele>647</ele>
        <time>2014-11-30T12:32:08.000Z</time>
      </trkpt>
      <trkpt lat="45.99733" lon="4.54153">
        <ele>634</ele>
        <time>2014-11-30T12:32:15.000Z</time>
      </trkpt>
      <trkpt lat="45.99747" lon="4.54145">
        <ele>633</ele>
        <time>2014-11-30T12:32:20.000Z</time>
      </trkpt>
      <trkpt lat="45.99765" lon="4.54133">
        <ele>640</ele>
        <time>2014-11-30T12:32:27.000Z</time>
      </trkpt>
      <trkpt lat="45.9978" lon="4.54124">
        <ele>639</ele>
        <time>2014-11-30T12:32:33.000Z</time>
      </trkpt>
      <trkpt lat="45.99782" lon="4.54122">
        <ele>639</ele>
        <time>2014-11-30T12:32:34.000Z</time>
      </trkpt>
      <trkpt lat="45.99776" lon="4.54117">
        <ele>637</ele>
        <time>2014-11-30T12:32:39.000Z</time>
      </trkpt>
      <trkpt lat="45.99768" lon="4.54117">
        <ele>637</ele>
        <time>2014-11-30T12:32:43.000Z</time>
      </trkpt>
      <trkpt lat="45.99766" lon="4.54118">
        <ele>637</ele>
        <time>2014-11-30T12:32:44.000Z</time>
      </trkpt>
      <trkpt lat="45.99762" lon="4.54117">
        <ele>636</ele>
        <time>2014-11-30T12:32:49.000Z</time>
      </trkpt>
      <trkpt lat="45.99764" lon="4.54116">
        <ele>636</ele>
        <time>2014-11-30T12:33:11.000Z</time>
      </trkpt>
      <trkpt lat="45.99761" lon="4.54115">
        <ele>636</ele>
        <time>2014-11-30T12:33:25.000Z</time>
      </trkpt>
      <trkpt lat="45.99757" lon="4.54115">
        <ele>635</ele>
        <time>2014-11-30T12:33:33.000Z</time>
      </trkpt>
      <trkpt lat="45.99752" lon="4.54113">
        <ele>634</ele>
        <time>2014-11-30T12:33:39.000Z</time>
      </trkpt>
      <trkpt lat="45.99747" lon="4.54111">
        <ele>624</ele>
        <time>2014-11-30T12:33:43.000Z</time>
      </trkpt>
      <trkpt lat="45.99737" lon="4.54107">
        <ele>624</ele>
        <time>2014-11-30T12:33:48.000Z</time>
      </trkpt>
      <trkpt lat="45.99736" lon="4.54106">
        <ele>623</ele>
        <time>2014-11-30T12:33:49.000Z</time>
      </trkpt>
      <trkpt lat="45.99734" lon="4.54101">
        <ele>623</ele>
        <time>2014-11-30T12:33:54.000Z</time>
      </trkpt>
      <trkpt lat="45.99733" lon="4.54091">
        <ele>622</ele>
        <time>2014-11-30T12:34:02.000Z</time>
      </trkpt>
      <trkpt lat="45.99733" lon="4.54089">
        <ele>621</ele>
        <time>2014-11-30T12:34:03.000Z</time>
      </trkpt>
      <trkpt lat="45.99731" lon="4.54079">
        <ele>608</ele>
        <time>2014-11-30T12:34:09.000Z</time>
      </trkpt>
      <trkpt lat="45.99727" lon="4.54069">
        <ele>605</ele>
        <time>2014-11-30T12:34:13.000Z</time>
      </trkpt>
      <trkpt lat="45.9972" lon="4.54056">
        <ele>601</ele>
        <time>2014-11-30T12:34:19.000Z</time>
      </trkpt>
      <trkpt lat="45.99718" lon="4.54043">
        <ele>598</ele>
        <time>2014-11-30T12:34:25.000Z</time>
      </trkpt>
      <trkpt lat="45.99717" lon="4.5404">
        <ele>598</ele>
        <time>2014-11-30T12:34:26.000Z</time>
      </trkpt>
      <trkpt lat="45.99714" lon="4.5403">
        <ele>596</ele>
        <time>2014-11-30T12:34:30.000Z</time>
      </trkpt>
      <trkpt lat="45.99714" lon="4.54025">
        <ele>595</ele>
        <time>2014-11-30T12:34:32.000Z</time>
      </trkpt>
      <trkpt lat="45.99711" lon="4.54013">
        <ele>593</ele>
        <time>2014-11-30T12:34:38.000Z</time>
      </trkpt>
      <trkpt lat="45.99711" lon="4.5401">
        <ele>593</ele>
        <time>2014-11-30T12:34:39.000Z</time>
      </trkpt>
      <trkpt lat="45.99718" lon="4.53994">
        <ele>578</ele>
        <time>2014-11-30T12:34:44.000Z</time>
      </trkpt>
      <trkpt lat="45.9972" lon="4.53992">
        <ele>578</ele>
        <time>2014-11-30T12:34:45.000Z</time>
      </trkpt>
      <trkpt lat="45.99737" lon="4.53983">
        <ele>581</ele>
        <time>2014-11-30T12:34:51.000Z</time>
      </trkpt>
      <trkpt lat="45.99744" lon="4.53975">
        <ele>579</ele>
        <time>2014-11-30T12:34:56.000Z</time>
      </trkpt>
      <trkpt lat="45.99745" lon="4.53971">
        <ele>578</ele>
        <time>2014-11-30T12:35:06.000Z</time>
      </trkpt>
      <trkpt lat="45.99744" lon="4.53967">
        <ele>577</ele>
        <time>2014-11-30T12:35:14.000Z</time>
      </trkpt>
      <trkpt lat="45.99739" lon="4.53965">
        <ele>577</ele>
        <time>2014-11-30T12:35:18.000Z</time>
      </trkpt>
      <trkpt lat="45.99727" lon="4.53966">
        <ele>576</ele>
        <time>2014-11-30T12:35:24.000Z</time>
      </trkpt>
      <trkpt lat="45.99724" lon="4.53965">
        <ele>575</ele>
        <time>2014-11-30T12:35:26.000Z</time>
      </trkpt>
      <trkpt lat="45.99718" lon="4.53957">
        <ele>574</ele>
        <time>2014-11-30T12:35:32.000Z</time>
      </trkpt>
      <trkpt lat="45.99713" lon="4.53948">
        <ele>572</ele>
        <time>2014-11-30T12:35:36.000Z</time>
      </trkpt>
      <trkpt lat="45.99712" lon="4.53946">
        <ele>572</ele>
        <time>2014-11-30T12:35:37.000Z</time>
      </trkpt>
      <trkpt lat="45.9971" lon="4.53942">
        <ele>571</ele>
        <time>2014-11-30T12:35:39.000Z</time>
      </trkpt>
      <trkpt lat="45.99711" lon="4.53928">
        <ele>570</ele>
        <time>2014-11-30T12:35:45.000Z</time>
      </trkpt>
      <trkpt lat="45.99712" lon="4.53925">
        <ele>570</ele>
        <time>2014-11-30T12:35:46.000Z</time>
      </trkpt>
      <trkpt lat="45.99713" lon="4.53916">
        <ele>559</ele>
        <time>2014-11-30T12:35:50.000Z</time>
      </trkpt>
      <trkpt lat="45.99713" lon="4.53906">
        <ele>558</ele>
        <time>2014-11-30T12:35:54.000Z</time>
      </trkpt>
      <trkpt lat="45.99709" lon="4.5389">
        <ele>557</ele>
        <time>2014-11-30T12:36:00.000Z</time>
      </trkpt>
      <trkpt lat="45.99704" lon="4.53882">
        <ele>556</ele>
        <time>2014-11-30T12:36:03.000Z</time>
      </trkpt>
      <trkpt lat="45.99702" lon="4.53871">
        <ele>555</ele>
        <time>2014-11-30T12:36:07.000Z</time>
      </trkpt>
      <trkpt lat="45.99699" lon="4.53865">
        <ele>554</ele>
        <time>2014-11-30T12:36:11.000Z</time>
      </trkpt>
      <trkpt lat="45.99696" lon="4.53859">
        <ele>553</ele>
        <time>2014-11-30T12:36:16.000Z</time>
      </trkpt>
      <trkpt lat="45.99693" lon="4.53854">
        <ele>552</ele>
        <time>2014-11-30T12:36:20.000Z</time>
      </trkpt>
      <trkpt lat="45.99688" lon="4.53846">
        <ele>551</ele>
        <time>2014-11-30T12:36:26.000Z</time>
      </trkpt>
      <trkpt lat="45.99686" lon="4.53839">
        <ele>549</ele>
        <time>2014-11-30T12:36:31.000Z</time>
      </trkpt>
      <trkpt lat="45.99682" lon="4.53839">
        <ele>548</ele>
        <time>2014-11-30T12:36:35.000Z</time>
      </trkpt>
      <trkpt lat="45.9968" lon="4.53836">
        <ele>548</ele>
        <time>2014-11-30T12:36:37.000Z</time>
      </trkpt>
      <trkpt lat="45.99678" lon="4.53833">
        <ele>542</ele>
        <time>2014-11-30T12:36:39.000Z</time>
      </trkpt>
      <trkpt lat="45.99676" lon="4.53824">
        <ele>542</ele>
        <time>2014-11-30T12:36:44.000Z</time>
      </trkpt>
      <trkpt lat="45.99676" lon="4.53821">
        <ele>542</ele>
        <time>2014-11-30T12:37:22.000Z</time>
      </trkpt>
      <trkpt lat="45.99675" lon="4.5382">
        <ele>542</ele>
        <time>2014-11-30T12:37:31.000Z</time>
      </trkpt>
      <trkpt lat="45.99675" lon="4.53819">
        <ele>542</ele>
        <time>2014-11-30T12:37:33.000Z</time>
      </trkpt>
      <trkpt lat="45.99672" lon="4.53811">
        <ele>542</ele>
        <time>2014-11-30T12:37:38.000Z</time>
      </trkpt>
      <trkpt lat="45.99671" lon="4.53799">
        <ele>541</ele>
        <time>2014-11-30T12:37:42.000Z</time>
      </trkpt>
      <trkpt lat="45.99669" lon="4.53784">
        <ele>540</ele>
        <time>2014-11-30T12:37:46.000Z</time>
      </trkpt>
      <trkpt lat="45.9967" lon="4.53771">
        <ele>539</ele>
        <time>2014-11-30T12:37:50.000Z</time>
      </trkpt>
      <trkpt lat="45.99673" lon="4.53759">
        <ele>538</ele>
        <time>2014-11-30T12:37:53.000Z</time>
      </trkpt>
      <trkpt lat="45.99675" lon="4.5375">
        <ele>537</ele>
        <time>2014-11-30T12:37:55.000Z</time>
      </trkpt>
      <trkpt lat="45.99679" lon="4.53744">
        <ele>533</ele>
        <time>2014-11-30T12:37:57.000Z</time>
      </trkpt>
      <trkpt lat="45.99684" lon="4.53738">
        <ele>532</ele>
        <time>2014-11-30T12:37:59.000Z</time>
      </trkpt>
      <trkpt lat="45.99686" lon="4.53736">
        <ele>532</ele>
        <time>2014-11-30T12:38:00.000Z</time>
      </trkpt>
      <trkpt lat="45.99695" lon="4.53734">
        <ele>531</ele>
        <time>2014-11-30T12:38:05.000Z</time>
      </trkpt>
      <trkpt lat="45.99697" lon="4.53722">
        <ele>530</ele>
        <time>2014-11-30T12:38:11.000Z</time>
      </trkpt>
      <trkpt lat="45.99696" lon="4.53719">
        <ele>530</ele>
        <time>2014-11-30T12:38:12.000Z</time>
      </trkpt>
      <trkpt lat="45.99701" lon="4.53702">
        <ele>529</ele>
        <time>2014-11-30T12:38:17.000Z</time>
      </trkpt>
      <trkpt lat="45.99705" lon="4.53689">
        <ele>528</ele>
        <time>2014-11-30T12:38:21.000Z</time>
      </trkpt>
      <trkpt lat="45.9972" lon="4.53675">
        <ele>525</ele>
        <time>2014-11-30T12:38:27.000Z</time>
      </trkpt>
      <trkpt lat="45.99732" lon="4.53662">
        <ele>516</ele>
        <time>2014-11-30T12:38:32.000Z</time>
      </trkpt>
      <trkpt lat="45.99737" lon="4.53652">
        <ele>515</ele>
        <time>2014-11-30T12:38:35.000Z</time>
      </trkpt>
      <trkpt lat="45.99739" lon="4.53646">
        <ele>515</ele>
        <time>2014-11-30T12:38:42.000Z</time>
      </trkpt>
      <trkpt lat="45.99741" lon="4.53646">
        <ele>515</ele>
        <time>2014-11-30T12:38:46.000Z</time>
      </trkpt>
      <trkpt lat="45.99747" lon="4.53647">
        <ele>515</ele>
        <time>2014-11-30T12:38:52.000Z</time>
      </trkpt>
      <trkpt lat="45.99754" lon="4.53651">
        <ele>513</ele>
        <time>2014-11-30T12:39:14.000Z</time>
      </trkpt>
      <trkpt lat="45.99746" lon="4.53642">
        <ele>515</ele>
        <time>2014-11-30T12:39:30.000Z</time>
      </trkpt>
      <trkpt lat="45.99745" lon="4.53641">
        <ele>515</ele>
        <time>2014-11-30T12:39:31.000Z</time>
      </trkpt>
      <trkpt lat="45.99742" lon="4.53635">
        <ele>514</ele>
        <time>2014-11-30T12:39:36.000Z</time>
      </trkpt>
      <trkpt lat="45.99741" lon="4.53633">
        <ele>514</ele>
        <time>2014-11-30T12:39:37.000Z</time>
      </trkpt>
      <trkpt lat="45.99741" lon="4.53631">
        <ele>514</ele>
        <time>2014-11-30T12:39:39.000Z</time>
      </trkpt>
      <trkpt lat="45.99743" lon="4.5363">
        <ele>514</ele>
        <time>2014-11-30T12:39:43.000Z</time>
      </trkpt>
      <trkpt lat="45.99746" lon="4.53626">
        <ele>514</ele>
        <time>2014-11-30T12:39:47.000Z</time>
      </trkpt>
      <trkpt lat="45.99746" lon="4.53626">
        <ele>513</ele>
        <time>2014-11-30T12:39:48.000Z</time>
      </trkpt>
      <trkpt lat="45.99747" lon="4.53622">
        <ele>513</ele>
        <time>2014-11-30T12:39:53.000Z</time>
      </trkpt>
      <trkpt lat="45.99745" lon="4.5362">
        <ele>513</ele>
        <time>2014-11-30T12:39:57.000Z</time>
      </trkpt>
      <trkpt lat="45.99744" lon="4.53618">
        <ele>513</ele>
        <time>2014-11-30T12:40:03.000Z</time>
      </trkpt>
      <trkpt lat="45.99742" lon="4.53618">
        <ele>513</ele>
        <time>2014-11-30T12:40:11.000Z</time>
      </trkpt>
      <trkpt lat="45.99751" lon="4.53617">
        <ele>511</ele>
        <time>2014-11-30T12:40:49.000Z</time>
      </trkpt>
      <trkpt lat="45.99751" lon="4.53614">
        <ele>511</ele>
        <time>2014-11-30T12:40:50.000Z</time>
      </trkpt>
      <trkpt lat="45.99753" lon="4.53611">
        <ele>511</ele>
        <time>2014-11-30T12:40:53.000Z</time>
      </trkpt>
      <trkpt lat="45.99757" lon="4.5361">
        <ele>511</ele>
        <time>2014-11-30T12:40:55.000Z</time>
      </trkpt>
      <trkpt lat="45.99758" lon="4.53609">
        <ele>511</ele>
        <time>2014-11-30T12:40:58.000Z</time>
      </trkpt>
      <trkpt lat="45.9976" lon="4.53605">
        <ele>510</ele>
        <time>2014-11-30T12:41:03.000Z</time>
      </trkpt>
      <trkpt lat="45.99761" lon="4.53602">
        <ele>510</ele>
        <time>2014-11-30T12:41:08.000Z</time>
      </trkpt>
      <trkpt lat="45.99764" lon="4.536">
        <ele>510</ele>
        <time>2014-11-30T12:41:14.000Z</time>
      </trkpt>
      <trkpt lat="45.99766" lon="4.53598">
        <ele>510</ele>
        <time>2014-11-30T12:41:19.000Z</time>
      </trkpt>
      <trkpt lat="45.99766" lon="4.53595">
        <ele>509</ele>
        <time>2014-11-30T12:41:22.000Z</time>
      </trkpt>
      <trkpt lat="45.99767" lon="4.53592">
        <ele>509</ele>
        <time>2014-11-30T12:41:27.000Z</time>
      </trkpt>
      <trkpt lat="45.99768" lon="4.53591">
        <ele>510</ele>
        <time>2014-11-30T12:41:34.000Z</time>
      </trkpt>
      <trkpt lat="45.99768" lon="4.53586">
        <ele>509</ele>
        <time>2014-11-30T12:41:41.000Z</time>
      </trkpt>
      <trkpt lat="45.99769" lon="4.53584">
        <ele>509</ele>
        <time>2014-11-30T12:41:46.000Z</time>
      </trkpt>
      <trkpt lat="45.9977" lon="4.53574">
        <ele>512</ele>
        <time>2014-11-30T12:42:09.000Z</time>
      </trkpt>
      <trkpt lat="45.99772" lon="4.53572">
        <ele>513</ele>
        <time>2014-11-30T12:42:14.000Z</time>
      </trkpt>
      <trkpt lat="45.99773" lon="4.5357">
        <ele>513</ele>
        <time>2014-11-30T12:42:19.000Z</time>
      </trkpt>
      <trkpt lat="45.99773" lon="4.53567">
        <ele>514</ele>
        <time>2014-11-30T12:42:23.000Z</time>
      </trkpt>
      <trkpt lat="45.99774" lon="4.53566">
        <ele>514</ele>
        <time>2014-11-30T12:42:27.000Z</time>
      </trkpt>
      <trkpt lat="45.99776" lon="4.53564">
        <ele>515</ele>
        <time>2014-11-30T12:42:32.000Z</time>
      </trkpt>
      <trkpt lat="45.99777" lon="4.53562">
        <ele>515</ele>
        <time>2014-11-30T12:42:37.000Z</time>
      </trkpt>
      <trkpt lat="45.99777" lon="4.53558">
        <ele>515</ele>
        <time>2014-11-30T12:42:41.000Z</time>
      </trkpt>
      <trkpt lat="45.99777" lon="4.53557">
        <ele>515</ele>
        <time>2014-11-30T12:42:46.000Z</time>
      </trkpt>
      <trkpt lat="45.99774" lon="4.53557">
        <ele>515</ele>
        <time>2014-11-30T12:42:56.000Z</time>
      </trkpt>
      <trkpt lat="45.99775" lon="4.53555">
        <ele>515</ele>
        <time>2014-11-30T12:43:04.000Z</time>
      </trkpt>
      <trkpt lat="45.99776" lon="4.53548">
        <ele>516</ele>
        <time>2014-11-30T12:43:16.000Z</time>
      </trkpt>
      <trkpt lat="45.99776" lon="4.53547">
        <ele>516</ele>
        <time>2014-11-30T12:43:17.000Z</time>
      </trkpt>
      <trkpt lat="45.99779" lon="4.53544">
        <ele>517</ele>
        <time>2014-11-30T12:43:23.000Z</time>
      </trkpt>
      <trkpt lat="45.9978" lon="4.53543">
        <ele>517</ele>
        <time>2014-11-30T12:43:28.000Z</time>
      </trkpt>
      <trkpt lat="45.9978" lon="4.53541">
        <ele>517</ele>
        <time>2014-11-30T12:43:38.000Z</time>
      </trkpt>
      <trkpt lat="45.99779" lon="4.53537">
        <ele>517</ele>
        <time>2014-11-30T12:43:45.000Z</time>
      </trkpt>
      <trkpt lat="45.9978" lon="4.53534">
        <ele>517</ele>
        <time>2014-11-30T12:43:51.000Z</time>
      </trkpt>
      <trkpt lat="45.99776" lon="4.53532">
        <ele>517</ele>
        <time>2014-11-30T12:44:02.000Z</time>
      </trkpt>
      <trkpt lat="45.99774" lon="4.53527">
        <ele>517</ele>
        <time>2014-11-30T12:44:08.000Z</time>
      </trkpt>
      <trkpt lat="45.99773" lon="4.53522">
        <ele>517</ele>
        <time>2014-11-30T12:44:14.000Z</time>
      </trkpt>
      <trkpt lat="45.99774" lon="4.53516">
        <ele>517</ele>
        <time>2014-11-30T12:44:21.000Z</time>
      </trkpt>
      <trkpt lat="45.99775" lon="4.53513">
        <ele>517</ele>
        <time>2014-11-30T12:44:26.000Z</time>
      </trkpt>
      <trkpt lat="45.99775" lon="4.53509">
        <ele>517</ele>
        <time>2014-11-30T12:44:32.000Z</time>
      </trkpt>
      <trkpt lat="45.99776" lon="4.53504">
        <ele>517</ele>
        <time>2014-11-30T12:44:37.000Z</time>
      </trkpt>
      <trkpt lat="45.99777" lon="4.53501">
        <ele>517</ele>
        <time>2014-11-30T12:44:41.000Z</time>
      </trkpt>
      <trkpt lat="45.99776" lon="4.53496">
        <ele>523</ele>
        <time>2014-11-30T12:44:46.000Z</time>
      </trkpt>
      <trkpt lat="45.99776" lon="4.53492">
        <ele>523</ele>
        <time>2014-11-30T12:44:51.000Z</time>
      </trkpt>
      <trkpt lat="45.99775" lon="4.53487">
        <ele>523</ele>
        <time>2014-11-30T12:44:55.000Z</time>
      </trkpt>
      <trkpt lat="45.99774" lon="4.53486">
        <ele>523</ele>
        <time>2014-11-30T12:44:57.000Z</time>
      </trkpt>
      <trkpt lat="45.99775" lon="4.5348">
        <ele>524</ele>
        <time>2014-11-30T12:45:00.000Z</time>
      </trkpt>
      <trkpt lat="45.9977" lon="4.53466">
        <ele>525</ele>
        <time>2014-11-30T12:45:24.000Z</time>
      </trkpt>
      <trkpt lat="45.99768" lon="4.53463">
        <ele>525</ele>
        <time>2014-11-30T12:45:29.000Z</time>
      </trkpt>
      <trkpt lat="45.99767" lon="4.53459">
        <ele>525</ele>
        <time>2014-11-30T12:45:35.000Z</time>
      </trkpt>
      <trkpt lat="45.99764" lon="4.53454">
        <ele>525</ele>
        <time>2014-11-30T12:45:41.000Z</time>
      </trkpt>
      <trkpt lat="45.99762" lon="4.53447">
        <ele>525</ele>
        <time>2014-11-30T12:45:47.000Z</time>
      </trkpt>
      <trkpt lat="45.99762" lon="4.53445">
        <ele>525</ele>
        <time>2014-11-30T12:45:49.000Z</time>
      </trkpt>
      <trkpt lat="45.9976" lon="4.53437">
        <ele>524</ele>
        <time>2014-11-30T12:45:56.000Z</time>
      </trkpt>
      <trkpt lat="45.99759" lon="4.53433">
        <ele>524</ele>
        <time>2014-11-30T12:45:58.000Z</time>
      </trkpt>
      <trkpt lat="45.99759" lon="4.53429">
        <ele>524</ele>
        <time>2014-11-30T12:46:01.000Z</time>
      </trkpt>
      <trkpt lat="45.99759" lon="4.53422">
        <ele>523</ele>
        <time>2014-11-30T12:46:05.000Z</time>
      </trkpt>
      <trkpt lat="45.99761" lon="4.53411">
        <ele>527</ele>
        <time>2014-11-30T12:46:12.000Z</time>
      </trkpt>
      <trkpt lat="45.99761" lon="4.53406">
        <ele>529</ele>
        <time>2014-11-30T12:46:15.000Z</time>
      </trkpt>
      <trkpt lat="45.99763" lon="4.53399">
        <ele>531</ele>
        <time>2014-11-30T12:46:18.000Z</time>
      </trkpt>
      <trkpt lat="45.99764" lon="4.53397">
        <ele>532</ele>
        <time>2014-11-30T12:46:21.000Z</time>
      </trkpt>
      <trkpt lat="45.99765" lon="4.53394">
        <ele>532</ele>
        <time>2014-11-30T12:46:23.000Z</time>
      </trkpt>
      <trkpt lat="45.99768" lon="4.53386">
        <ele>534</ele>
        <time>2014-11-30T12:46:28.000Z</time>
      </trkpt>
      <trkpt lat="45.99768" lon="4.53383">
        <ele>535</ele>
        <time>2014-11-30T12:46:30.000Z</time>
      </trkpt>
      <trkpt lat="45.99769" lon="4.5338">
        <ele>535</ele>
        <time>2014-11-30T12:46:32.000Z</time>
      </trkpt>
      <trkpt lat="45.99771" lon="4.53375">
        <ele>536</ele>
        <time>2014-11-30T12:46:36.000Z</time>
      </trkpt>
      <trkpt lat="45.99771" lon="4.53374">
        <ele>536</ele>
        <time>2014-11-30T12:46:37.000Z</time>
      </trkpt>
      <trkpt lat="45.99771" lon="4.53371">
        <ele>536</ele>
        <time>2014-11-30T12:46:43.000Z</time>
      </trkpt>
      <trkpt lat="45.99772" lon="4.53367">
        <ele>537</ele>
        <time>2014-11-30T12:46:48.000Z</time>
      </trkpt>
      <trkpt lat="45.99771" lon="4.53361">
        <ele>537</ele>
        <time>2014-11-30T12:46:54.000Z</time>
      </trkpt>
      <trkpt lat="45.99771" lon="4.53354">
        <ele>537</ele>
        <time>2014-11-30T12:47:05.000Z</time>
      </trkpt>
      <trkpt lat="45.99771" lon="4.53346">
        <ele>537</ele>
        <time>2014-11-30T12:47:10.000Z</time>
      </trkpt>
      <trkpt lat="45.99766" lon="4.53341">
        <ele>536</ele>
        <time>2014-11-30T12:47:15.000Z</time>
      </trkpt>
      <trkpt lat="45.99765" lon="4.5334">
        <ele>536</ele>
        <time>2014-11-30T12:47:16.000Z</time>
      </trkpt>
      <trkpt lat="45.99762" lon="4.53337">
        <ele>536</ele>
        <time>2014-11-30T12:47:19.000Z</time>
      </trkpt>
      <trkpt lat="45.99755" lon="4.53335">
        <ele>535</ele>
        <time>2014-11-30T12:47:24.000Z</time>
      </trkpt>
      <trkpt lat="45.9975" lon="4.53335">
        <ele>533</ele>
        <time>2014-11-30T12:47:28.000Z</time>
      </trkpt>
      <trkpt lat="45.99748" lon="4.53336">
        <ele>532</ele>
        <time>2014-11-30T12:47:29.000Z</time>
      </trkpt>
      <trkpt lat="45.99747" lon="4.53336">
        <ele>532</ele>
        <time>2014-11-30T12:47:30.000Z</time>
      </trkpt>
      <trkpt lat="45.99744" lon="4.53342">
        <ele>528</ele>
        <time>2014-11-30T12:47:34.000Z</time>
      </trkpt>
      <trkpt lat="45.9974" lon="4.53348">
        <ele>526</ele>
        <time>2014-11-30T12:47:37.000Z</time>
      </trkpt>
      <trkpt lat="45.99733" lon="4.53354">
        <ele>523</ele>
        <time>2014-11-30T12:47:42.000Z</time>
      </trkpt>
      <trkpt lat="45.99732" lon="4.53354">
        <ele>523</ele>
        <time>2014-11-30T12:47:43.000Z</time>
      </trkpt>
      <trkpt lat="45.99731" lon="4.53354">
        <ele>523</ele>
        <time>2014-11-30T12:47:45.000Z</time>
      </trkpt>
      <trkpt lat="45.99728" lon="4.53357">
        <ele>522</ele>
        <time>2014-11-30T12:47:48.000Z</time>
      </trkpt>
      <trkpt lat="45.99722" lon="4.53367">
        <ele>520</ele>
        <time>2014-11-30T12:47:53.000Z</time>
      </trkpt>
      <trkpt lat="45.99721" lon="4.53369">
        <ele>520</ele>
        <time>2014-11-30T12:47:57.000Z</time>
      </trkpt>
      <trkpt lat="45.99713" lon="4.53377">
        <ele>518</ele>
        <time>2014-11-30T12:48:02.000Z</time>
      </trkpt>
      <trkpt lat="45.99711" lon="4.53379">
        <ele>517</ele>
        <time>2014-11-30T12:48:03.000Z</time>
      </trkpt>
      <trkpt lat="45.99704" lon="4.53376">
        <ele>517</ele>
        <time>2014-11-30T12:48:09.000Z</time>
      </trkpt>
      <trkpt lat="45.99704" lon="4.53375">
        <ele>517</ele>
        <time>2014-11-30T12:48:10.000Z</time>
      </trkpt>
      <trkpt lat="45.99697" lon="4.53375">
        <ele>516</ele>
        <time>2014-11-30T12:48:15.000Z</time>
      </trkpt>
      <trkpt lat="45.99696" lon="4.53375">
        <ele>516</ele>
        <time>2014-11-30T12:48:16.000Z</time>
      </trkpt>
      <trkpt lat="45.99689" lon="4.53375">
        <ele>515</ele>
        <time>2014-11-30T12:48:23.000Z</time>
      </trkpt>
      <trkpt lat="45.99688" lon="4.53375">
        <ele>515</ele>
        <time>2014-11-30T12:48:24.000Z</time>
      </trkpt>
      <trkpt lat="45.99683" lon="4.53378">
        <ele>514</ele>
        <time>2014-11-30T12:48:30.000Z</time>
      </trkpt>
      <trkpt lat="45.99681" lon="4.53378">
        <ele>514</ele>
        <time>2014-11-30T12:48:32.000Z</time>
      </trkpt>
      <trkpt lat="45.99676" lon="4.53378">
        <ele>514</ele>
        <time>2014-11-30T12:48:45.000Z</time>
      </trkpt>
      <trkpt lat="45.99674" lon="4.53374">
        <ele>514</ele>
        <time>2014-11-30T12:48:50.000Z</time>
      </trkpt>
      <trkpt lat="45.9967" lon="4.53369">
        <ele>515</ele>
        <time>2014-11-30T12:48:55.000Z</time>
      </trkpt>
      <trkpt lat="45.99666" lon="4.53362">
        <ele>506</ele>
        <time>2014-11-30T12:48:59.000Z</time>
      </trkpt>
      <trkpt lat="45.99664" lon="4.53358">
        <ele>507</ele>
        <time>2014-11-30T12:49:04.000Z</time>
      </trkpt>
      <trkpt lat="45.99661" lon="4.53352">
        <ele>509</ele>
        <time>2014-11-30T12:49:11.000Z</time>
      </trkpt>
      <trkpt lat="45.9966" lon="4.53351">
        <ele>509</ele>
        <time>2014-11-30T12:49:12.000Z</time>
      </trkpt>
      <trkpt lat="45.99656" lon="4.53344">
        <ele>510</ele>
        <time>2014-11-30T12:49:17.000Z</time>
      </trkpt>
      <trkpt lat="45.99652" lon="4.53337">
        <ele>510</ele>
        <time>2014-11-30T12:49:22.000Z</time>
      </trkpt>
      <trkpt lat="45.99652" lon="4.53336">
        <ele>510</ele>
        <time>2014-11-30T12:49:23.000Z</time>
      </trkpt>
      <trkpt lat="45.99647" lon="4.53326">
        <ele>520</ele>
        <time>2014-11-30T12:49:51.000Z</time>
      </trkpt>
      <trkpt lat="45.99646" lon="4.53325">
        <ele>520</ele>
        <time>2014-11-30T12:49:52.000Z</time>
      </trkpt>
      <trkpt lat="45.99639" lon="4.53319">
        <ele>521</ele>
        <time>2014-11-30T12:49:57.000Z</time>
      </trkpt>
      <trkpt lat="45.99638" lon="4.53319">
        <ele>521</ele>
        <time>2014-11-30T12:49:58.000Z</time>
      </trkpt>
      <trkpt lat="45.99628" lon="4.53315">
        <ele>520</ele>
        <time>2014-11-30T12:50:03.000Z</time>
      </trkpt>
      <trkpt lat="45.99627" lon="4.53313">
        <ele>520</ele>
        <time>2014-11-30T12:50:04.000Z</time>
      </trkpt>
      <trkpt lat="45.99626" lon="4.53312">
        <ele>520</ele>
        <time>2014-11-30T12:50:05.000Z</time>
      </trkpt>
      <trkpt lat="45.9962" lon="4.53307">
        <ele>520</ele>
        <time>2014-11-30T12:50:12.000Z</time>
      </trkpt>
      <trkpt lat="45.99615" lon="4.53304">
        <ele>520</ele>
        <time>2014-11-30T12:50:16.000Z</time>
      </trkpt>
      <trkpt lat="45.99614" lon="4.53302">
        <ele>520</ele>
        <time>2014-11-30T12:50:17.000Z</time>
      </trkpt>
      <trkpt lat="45.99612" lon="4.53299">
        <ele>521</ele>
        <time>2014-11-30T12:50:20.000Z</time>
      </trkpt>
      <trkpt lat="45.99609" lon="4.53294">
        <ele>521</ele>
        <time>2014-11-30T12:50:24.000Z</time>
      </trkpt>
      <trkpt lat="45.99606" lon="4.5329">
        <ele>522</ele>
        <time>2014-11-30T12:50:28.000Z</time>
      </trkpt>
      <trkpt lat="45.99604" lon="4.53287">
        <ele>522</ele>
        <time>2014-11-30T12:50:32.000Z</time>
      </trkpt>
      <trkpt lat="45.99601" lon="4.53285">
        <ele>523</ele>
        <time>2014-11-30T12:50:36.000Z</time>
      </trkpt>
      <trkpt lat="45.99601" lon="4.53284">
        <ele>523</ele>
        <time>2014-11-30T12:50:37.000Z</time>
      </trkpt>
      <trkpt lat="45.99593" lon="4.53278">
        <ele>523</ele>
        <time>2014-11-30T12:50:45.000Z</time>
      </trkpt>
      <trkpt lat="45.9959" lon="4.53277">
        <ele>523</ele>
        <time>2014-11-30T12:50:47.000Z</time>
      </trkpt>
      <trkpt lat="45.99583" lon="4.53275">
        <ele>514</ele>
        <time>2014-11-30T12:50:52.000Z</time>
      </trkpt>
      <trkpt lat="45.99582" lon="4.53274">
        <ele>514</ele>
        <time>2014-11-30T12:50:53.000Z</time>
      </trkpt>
      <trkpt lat="45.99579" lon="4.53272">
        <ele>515</ele>
        <time>2014-11-30T12:50:56.000Z</time>
      </trkpt>
      <trkpt lat="45.99574" lon="4.53264">
        <ele>517</ele>
        <time>2014-11-30T12:51:02.000Z</time>
      </trkpt>
      <trkpt lat="45.99567" lon="4.53256">
        <ele>517</ele>
        <time>2014-11-30T12:51:07.000Z</time>
      </trkpt>
      <trkpt lat="45.99563" lon="4.5325">
        <ele>530</ele>
        <time>2014-11-30T12:51:10.000Z</time>
      </trkpt>
      <trkpt lat="45.99557" lon="4.53243">
        <ele>531</ele>
        <time>2014-11-30T12:51:14.000Z</time>
      </trkpt>
      <trkpt lat="45.99555" lon="4.53242">
        <ele>531</ele>
        <time>2014-11-30T12:51:15.000Z</time>
      </trkpt>
      <trkpt lat="45.99549" lon="4.53242">
        <ele>530</ele>
        <time>2014-11-30T12:51:19.000Z</time>
      </trkpt>
      <trkpt lat="45.99547" lon="4.53241">
        <ele>530</ele>
        <time>2014-11-30T12:51:29.000Z</time>
      </trkpt>
      <trkpt lat="45.99545" lon="4.53244">
        <ele>529</ele>
        <time>2014-11-30T12:51:41.000Z</time>
      </trkpt>
      <trkpt lat="45.9954" lon="4.53251">
        <ele>510</ele>
        <time>2014-11-30T12:51:46.000Z</time>
      </trkpt>
      <trkpt lat="45.99534" lon="4.53261">
        <ele>509</ele>
        <time>2014-11-30T12:51:51.000Z</time>
      </trkpt>
      <trkpt lat="45.99531" lon="4.53264">
        <ele>508</ele>
        <time>2014-11-30T12:51:53.000Z</time>
      </trkpt>
      <trkpt lat="45.99526" lon="4.53266">
        <ele>508</ele>
        <time>2014-11-30T12:51:58.000Z</time>
      </trkpt>
      <trkpt lat="45.99526" lon="4.53267">
        <ele>507</ele>
        <time>2014-11-30T12:51:59.000Z</time>
      </trkpt>
      <trkpt lat="45.99525" lon="4.53268">
        <ele>507</ele>
        <time>2014-11-30T12:52:00.000Z</time>
      </trkpt>
      <trkpt lat="45.99521" lon="4.5327">
        <ele>507</ele>
        <time>2014-11-30T12:52:04.000Z</time>
      </trkpt>
      <trkpt lat="45.99518" lon="4.53271">
        <ele>507</ele>
        <time>2014-11-30T12:52:10.000Z</time>
      </trkpt>
      <trkpt lat="45.99513" lon="4.53273">
        <ele>506</ele>
        <time>2014-11-30T12:52:21.000Z</time>
      </trkpt>
      <trkpt lat="45.99511" lon="4.53276">
        <ele>506</ele>
        <time>2014-11-30T12:52:25.000Z</time>
      </trkpt>
      <trkpt lat="45.99505" lon="4.53281">
        <ele>505</ele>
        <time>2014-11-30T12:52:30.000Z</time>
      </trkpt>
      <trkpt lat="45.99503" lon="4.53284">
        <ele>504</ele>
        <time>2014-11-30T12:52:32.000Z</time>
      </trkpt>
      <trkpt lat="45.99494" lon="4.5329">
        <ele>497</ele>
        <time>2014-11-30T12:52:37.000Z</time>
      </trkpt>
      <trkpt lat="45.99478" lon="4.53289">
        <ele>497</ele>
        <time>2014-11-30T12:52:42.000Z</time>
      </trkpt>
      <trkpt lat="45.9947" lon="4.53285">
        <ele>498</ele>
        <time>2014-11-30T12:52:45.000Z</time>
      </trkpt>
      <trkpt lat="45.9946" lon="4.53281">
        <ele>499</ele>
        <time>2014-11-30T12:52:51.000Z</time>
      </trkpt>
      <trkpt lat="45.99453" lon="4.53276">
        <ele>500</ele>
        <time>2014-11-30T12:52:56.000Z</time>
      </trkpt>
      <trkpt lat="45.9945" lon="4.53274">
        <ele>500</ele>
        <time>2014-11-30T12:52:58.000Z</time>
      </trkpt>
      <trkpt lat="45.9944" lon="4.5327">
        <ele>502</ele>
        <time>2014-11-30T12:53:04.000Z</time>
      </trkpt>
      <trkpt lat="45.99431" lon="4.53269">
        <ele>504</ele>
        <time>2014-11-30T12:53:09.000Z</time>
      </trkpt>
      <trkpt lat="45.99422" lon="4.53265">
        <ele>508</ele>
        <time>2014-11-30T12:53:15.000Z</time>
      </trkpt>
      <trkpt lat="45.99411" lon="4.53261">
        <ele>508</ele>
        <time>2014-11-30T12:53:21.000Z</time>
      </trkpt>
      <trkpt lat="45.99404" lon="4.53257">
        <ele>507</ele>
        <time>2014-11-30T12:53:26.000Z</time>
      </trkpt>
      <trkpt lat="45.99395" lon="4.5325">
        <ele>521</ele>
        <time>2014-11-30T12:53:33.000Z</time>
      </trkpt>
      <trkpt lat="45.99388" lon="4.53244">
        <ele>521</ele>
        <time>2014-11-30T12:53:39.000Z</time>
      </trkpt>
      <trkpt lat="45.99381" lon="4.53236">
        <ele>521</ele>
        <time>2014-11-30T12:53:44.000Z</time>
      </trkpt>
      <trkpt lat="45.99367" lon="4.53228">
        <ele>521</ele>
        <time>2014-11-30T12:53:50.000Z</time>
      </trkpt>
      <trkpt lat="45.99351" lon="4.53219">
        <ele>520</ele>
        <time>2014-11-30T12:53:56.000Z</time>
      </trkpt>
      <trkpt lat="45.99334" lon="4.53214">
        <ele>520</ele>
        <time>2014-11-30T12:54:02.000Z</time>
      </trkpt>
      <trkpt lat="45.99326" lon="4.53216">
        <ele>517</ele>
        <time>2014-11-30T12:54:07.000Z</time>
      </trkpt>
      <trkpt lat="45.99323" lon="4.53218">
        <ele>516</ele>
        <time>2014-11-30T12:54:10.000Z</time>
      </trkpt>
      <trkpt lat="45.99317" lon="4.5322">
        <ele>516</ele>
        <time>2014-11-30T12:54:16.000Z</time>
      </trkpt>
      <trkpt lat="45.9931" lon="4.53224">
        <ele>516</ele>
        <time>2014-11-30T12:54:22.000Z</time>
      </trkpt>
      <trkpt lat="45.99303" lon="4.53227">
        <ele>516</ele>
        <time>2014-11-30T12:54:27.000Z</time>
      </trkpt>
      <trkpt lat="45.99302" lon="4.53227">
        <ele>516</ele>
        <time>2014-11-30T12:54:28.000Z</time>
      </trkpt>
      <trkpt lat="45.99299" lon="4.53226">
        <ele>516</ele>
        <time>2014-11-30T12:54:30.000Z</time>
      </trkpt>
      <trkpt lat="45.99291" lon="4.53224">
        <ele>517</ele>
        <time>2014-11-30T12:54:37.000Z</time>
      </trkpt>
      <trkpt lat="45.99283" lon="4.5322">
        <ele>518</ele>
        <time>2014-11-30T12:54:42.000Z</time>
      </trkpt>
      <trkpt lat="45.99277" lon="4.53215">
        <ele>519</ele>
        <time>2014-11-30T12:54:46.000Z</time>
      </trkpt>
      <trkpt lat="45.99275" lon="4.53213">
        <ele>519</ele>
        <time>2014-11-30T12:54:48.000Z</time>
      </trkpt>
      <trkpt lat="45.99265" lon="4.53203">
        <ele>522</ele>
        <time>2014-11-30T12:54:55.000Z</time>
      </trkpt>
      <trkpt lat="45.99263" lon="4.53202">
        <ele>522</ele>
        <time>2014-11-30T12:54:56.000Z</time>
      </trkpt>
      <trkpt lat="45.99256" lon="4.53196">
        <ele>525</ele>
        <time>2014-11-30T12:55:01.000Z</time>
      </trkpt>
      <trkpt lat="45.99251" lon="4.53192">
        <ele>526</ele>
        <time>2014-11-30T12:55:05.000Z</time>
      </trkpt>
      <trkpt lat="45.99247" lon="4.5319">
        <ele>531</ele>
        <time>2014-11-30T12:55:08.000Z</time>
      </trkpt>
      <trkpt lat="45.99234" lon="4.53191">
        <ele>530</ele>
        <time>2014-11-30T12:55:16.000Z</time>
      </trkpt>
      <trkpt lat="45.99225" lon="4.53192">
        <ele>530</ele>
        <time>2014-11-30T12:55:22.000Z</time>
      </trkpt>
      <trkpt lat="45.99219" lon="4.53196">
        <ele>529</ele>
        <time>2014-11-30T12:55:27.000Z</time>
      </trkpt>
      <trkpt lat="45.99211" lon="4.532">
        <ele>529</ele>
        <time>2014-11-30T12:55:32.000Z</time>
      </trkpt>
      <trkpt lat="45.9921" lon="4.53201">
        <ele>529</ele>
        <time>2014-11-30T12:55:33.000Z</time>
      </trkpt>
      <trkpt lat="45.99201" lon="4.53206">
        <ele>528</ele>
        <time>2014-11-30T12:55:37.000Z</time>
      </trkpt>
      <trkpt lat="45.99187" lon="4.53204">
        <ele>529</ele>
        <time>2014-11-30T12:55:43.000Z</time>
      </trkpt>
      <trkpt lat="45.99175" lon="4.53203">
        <ele>530</ele>
        <time>2014-11-30T12:55:50.000Z</time>
      </trkpt>
      <trkpt lat="45.99174" lon="4.53203">
        <ele>530</ele>
        <time>2014-11-30T12:55:51.000Z</time>
      </trkpt>
      <trkpt lat="45.99168" lon="4.532">
        <ele>531</ele>
        <time>2014-11-30T12:55:56.000Z</time>
      </trkpt>
      <trkpt lat="45.99163" lon="4.53199">
        <ele>528</ele>
        <time>2014-11-30T12:56:00.000Z</time>
      </trkpt>
      <trkpt lat="45.99157" lon="4.53197">
        <ele>529</ele>
        <time>2014-11-30T12:56:05.000Z</time>
      </trkpt>
      <trkpt lat="45.99155" lon="4.53196">
        <ele>529</ele>
        <time>2014-11-30T12:56:06.000Z</time>
      </trkpt>
      <trkpt lat="45.99149" lon="4.53192">
        <ele>529</ele>
        <time>2014-11-30T12:56:12.000Z</time>
      </trkpt>
      <trkpt lat="45.99146" lon="4.53189">
        <ele>529</ele>
        <time>2014-11-30T12:56:15.000Z</time>
      </trkpt>
      <trkpt lat="45.99141" lon="4.53185">
        <ele>529</ele>
        <time>2014-11-30T12:56:20.000Z</time>
      </trkpt>
      <trkpt lat="45.99139" lon="4.53182">
        <ele>529</ele>
        <time>2014-11-30T12:56:23.000Z</time>
      </trkpt>
      <trkpt lat="45.9913" lon="4.53171">
        <ele>528</ele>
        <time>2014-11-30T12:56:32.000Z</time>
      </trkpt>
      <trkpt lat="45.99128" lon="4.53169">
        <ele>528</ele>
        <time>2014-11-30T12:56:34.000Z</time>
      </trkpt>
      <trkpt lat="45.99121" lon="4.53158">
        <ele>541</ele>
        <time>2014-11-30T12:56:42.000Z</time>
      </trkpt>
      <trkpt lat="45.99115" lon="4.53146">
        <ele>541</ele>
        <time>2014-11-30T12:56:49.000Z</time>
      </trkpt>
      <trkpt lat="45.99113" lon="4.5313">
        <ele>543</ele>
        <time>2014-11-30T12:56:55.000Z</time>
      </trkpt>
      <trkpt lat="45.99112" lon="4.53127">
        <ele>544</ele>
        <time>2014-11-30T12:56:56.000Z</time>
      </trkpt>
      <trkpt lat="45.9911" lon="4.53118">
        <ele>544</ele>
        <time>2014-11-30T12:56:59.000Z</time>
      </trkpt>
      <trkpt lat="45.99108" lon="4.53113">
        <ele>545</ele>
        <time>2014-11-30T12:57:01.000Z</time>
      </trkpt>
      <trkpt lat="45.99101" lon="4.53086">
        <ele>545</ele>
        <time>2014-11-30T12:57:09.000Z</time>
      </trkpt>
      <trkpt lat="45.99097" lon="4.53072">
        <ele>554</ele>
        <time>2014-11-30T12:57:14.000Z</time>
      </trkpt>
      <trkpt lat="45.99094" lon="4.53061">
        <ele>557</ele>
        <time>2014-11-30T12:57:20.000Z</time>
      </trkpt>
      <trkpt lat="45.99092" lon="4.53052">
        <ele>559</ele>
        <time>2014-11-30T12:57:25.000Z</time>
      </trkpt>
      <trkpt lat="45.9909" lon="4.53043">
        <ele>561</ele>
        <time>2014-11-30T12:57:29.000Z</time>
      </trkpt>
      <trkpt lat="45.99087" lon="4.53033">
        <ele>562</ele>
        <time>2014-11-30T12:57:33.000Z</time>
      </trkpt>
      <trkpt lat="45.99083" lon="4.53021">
        <ele>554</ele>
        <time>2014-11-30T12:57:38.000Z</time>
      </trkpt>
      <trkpt lat="45.9908" lon="4.53015">
        <ele>555</ele>
        <time>2014-11-30T12:57:42.000Z</time>
      </trkpt>
      <trkpt lat="45.99072" lon="4.53006">
        <ele>556</ele>
        <time>2014-11-30T12:57:48.000Z</time>
      </trkpt>
      <trkpt lat="45.9906" lon="4.53003">
        <ele>553</ele>
        <time>2014-11-30T12:57:53.000Z</time>
      </trkpt>
      <trkpt lat="45.99045" lon="4.53005">
        <ele>551</ele>
        <time>2014-11-30T12:58:00.000Z</time>
      </trkpt>
      <trkpt lat="45.99033" lon="4.53005">
        <ele>550</ele>
        <time>2014-11-30T12:58:05.000Z</time>
      </trkpt>
      <trkpt lat="45.99018" lon="4.53007">
        <ele>550</ele>
        <time>2014-11-30T12:58:11.000Z</time>
      </trkpt>
      <trkpt lat="45.99007" lon="4.53007">
        <ele>551</ele>
        <time>2014-11-30T12:58:17.000Z</time>
      </trkpt>
      <trkpt lat="45.99006" lon="4.53007">
        <ele>551</ele>
        <time>2014-11-30T12:58:18.000Z</time>
      </trkpt>
      <trkpt lat="45.98999" lon="4.53009">
        <ele>547</ele>
        <time>2014-11-30T12:58:22.000Z</time>
      </trkpt>
      <trkpt lat="45.98997" lon="4.53009">
        <ele>546</ele>
        <time>2014-11-30T12:58:24.000Z</time>
      </trkpt>
      <trkpt lat="45.98991" lon="4.5301">
        <ele>544</ele>
        <time>2014-11-30T12:58:29.000Z</time>
      </trkpt>
      <trkpt lat="45.98988" lon="4.53009">
        <ele>543</ele>
        <time>2014-11-30T12:58:31.000Z</time>
      </trkpt>
      <trkpt lat="45.98985" lon="4.53008">
        <ele>542</ele>
        <time>2014-11-30T12:58:33.000Z</time>
      </trkpt>
      <trkpt lat="45.98975" lon="4.53002">
        <ele>540</ele>
        <time>2014-11-30T12:58:40.000Z</time>
      </trkpt>
      <trkpt lat="45.98969" lon="4.52996">
        <ele>557</ele>
        <time>2014-11-30T12:58:44.000Z</time>
      </trkpt>
      <trkpt lat="45.98958" lon="4.52985">
        <ele>557</ele>
        <time>2014-11-30T12:58:50.000Z</time>
      </trkpt>
      <trkpt lat="45.98947" lon="4.52974">
        <ele>556</ele>
        <time>2014-11-30T12:58:55.000Z</time>
      </trkpt>
      <trkpt lat="45.98934" lon="4.52961">
        <ele>558</ele>
        <time>2014-11-30T12:59:00.000Z</time>
      </trkpt>
      <trkpt lat="45.98926" lon="4.52951">
        <ele>559</ele>
        <time>2014-11-30T12:59:04.000Z</time>
      </trkpt>
      <trkpt lat="45.98916" lon="4.52937">
        <ele>551</ele>
        <time>2014-11-30T12:59:09.000Z</time>
      </trkpt>
      <trkpt lat="45.98911" lon="4.52927">
        <ele>555</ele>
        <time>2014-11-30T12:59:13.000Z</time>
      </trkpt>
      <trkpt lat="45.9891" lon="4.52926">
        <ele>555</ele>
        <time>2014-11-30T12:59:19.000Z</time>
      </trkpt>
      <trkpt lat="45.98907" lon="4.5292">
        <ele>556</ele>
        <time>2014-11-30T12:59:35.000Z</time>
      </trkpt>
      <trkpt lat="45.989" lon="4.52908">
        <ele>566</ele>
        <time>2014-11-30T12:59:43.000Z</time>
      </trkpt>
      <trkpt lat="45.98893" lon="4.52899">
        <ele>566</ele>
        <time>2014-11-30T12:59:50.000Z</time>
      </trkpt>
      <trkpt lat="45.9889" lon="4.52899">
        <ele>566</ele>
        <time>2014-11-30T12:59:55.000Z</time>
      </trkpt>
      <trkpt lat="45.98886" lon="4.52904">
        <ele>565</ele>
        <time>2014-11-30T12:59:58.000Z</time>
      </trkpt>
      <trkpt lat="45.98882" lon="4.52905">
        <ele>564</ele>
        <time>2014-11-30T13:00:03.000Z</time>
      </trkpt>
      <trkpt lat="45.98882" lon="4.52907">
        <ele>564</ele>
        <time>2014-11-30T13:00:08.000Z</time>
      </trkpt>
      <trkpt lat="45.9888" lon="4.52913">
        <ele>563</ele>
        <time>2014-11-30T13:00:14.000Z</time>
      </trkpt>
      <trkpt lat="45.98878" lon="4.52922">
        <ele>544</ele>
        <time>2014-11-30T13:00:21.000Z</time>
      </trkpt>
      <trkpt lat="45.98879" lon="4.52924">
        <ele>544</ele>
        <time>2014-11-30T13:00:23.000Z</time>
      </trkpt>
      <trkpt lat="45.98878" lon="4.5293">
        <ele>543</ele>
        <time>2014-11-30T13:00:28.000Z</time>
      </trkpt>
      <trkpt lat="45.98878" lon="4.52931">
        <ele>543</ele>
        <time>2014-11-30T13:00:29.000Z</time>
      </trkpt>
      <trkpt lat="45.98877" lon="4.52931">
        <ele>543</ele>
        <time>2014-11-30T13:00:30.000Z</time>
      </trkpt>
      <trkpt lat="45.98876" lon="4.52933">
        <ele>543</ele>
        <time>2014-11-30T13:00:32.000Z</time>
      </trkpt>
      <trkpt lat="45.98875" lon="4.52936">
        <ele>542</ele>
        <time>2014-11-30T13:00:36.000Z</time>
      </trkpt>
      <trkpt lat="45.98874" lon="4.52939">
        <ele>541</ele>
        <time>2014-11-30T13:00:41.000Z</time>
      </trkpt>
      <trkpt lat="45.98869" lon="4.52944">
        <ele>540</ele>
        <time>2014-11-30T13:00:46.000Z</time>
      </trkpt>
      <trkpt lat="45.98868" lon="4.52944">
        <ele>540</ele>
        <time>2014-11-30T13:00:48.000Z</time>
      </trkpt>
      <trkpt lat="45.98865" lon="4.52949">
        <ele>539</ele>
        <time>2014-11-30T13:00:58.000Z</time>
      </trkpt>
      <trkpt lat="45.98863" lon="4.52952">
        <ele>538</ele>
        <time>2014-11-30T13:01:02.000Z</time>
      </trkpt>
      <trkpt lat="45.98861" lon="4.52953">
        <ele>538</ele>
        <time>2014-11-30T13:01:05.000Z</time>
      </trkpt>
      <trkpt lat="45.98858" lon="4.52957">
        <ele>536</ele>
        <time>2014-11-30T13:01:11.000Z</time>
      </trkpt>
      <trkpt lat="45.98857" lon="4.52961">
        <ele>535</ele>
        <time>2014-11-30T13:01:18.000Z</time>
      </trkpt>
      <trkpt lat="45.98856" lon="4.52962">
        <ele>535</ele>
        <time>2014-11-30T13:01:21.000Z</time>
      </trkpt>
      <trkpt lat="45.9885" lon="4.52971">
        <ele>532</ele>
        <time>2014-11-30T13:01:42.000Z</time>
      </trkpt>
      <trkpt lat="45.98848" lon="4.52975">
        <ele>530</ele>
        <time>2014-11-30T13:01:46.000Z</time>
      </trkpt>
      <trkpt lat="45.98848" lon="4.52976">
        <ele>530</ele>
        <time>2014-11-30T13:01:47.000Z</time>
      </trkpt>
      <trkpt lat="45.98846" lon="4.52981">
        <ele>528</ele>
        <time>2014-11-30T13:01:50.000Z</time>
      </trkpt>
      <trkpt lat="45.98845" lon="4.52981">
        <ele>527</ele>
        <time>2014-11-30T13:01:51.000Z</time>
      </trkpt>
      <trkpt lat="45.98845" lon="4.52983">
        <ele>526</ele>
        <time>2014-11-30T13:01:53.000Z</time>
      </trkpt>
      <trkpt lat="45.98843" lon="4.52984">
        <ele>525</ele>
        <time>2014-11-30T13:02:00.000Z</time>
      </trkpt>
      <trkpt lat="45.98832" lon="4.52991">
        <ele>514</ele>
        <time>2014-11-30T13:02:05.000Z</time>
      </trkpt>
      <trkpt lat="45.98828" lon="4.52991">
        <ele>515</ele>
        <time>2014-11-30T13:02:07.000Z</time>
      </trkpt>
      <trkpt lat="45.98822" lon="4.52986">
        <ele>516</ele>
        <time>2014-11-30T13:02:13.000Z</time>
      </trkpt>
      <trkpt lat="45.98818" lon="4.52984">
        <ele>517</ele>
        <time>2014-11-30T13:02:16.000Z</time>
      </trkpt>
      <trkpt lat="45.98815" lon="4.52983">
        <ele>517</ele>
        <time>2014-11-30T13:02:18.000Z</time>
      </trkpt>
      <trkpt lat="45.98806" lon="4.5298">
        <ele>518</ele>
        <time>2014-11-30T13:02:22.000Z</time>
      </trkpt>
      <trkpt lat="45.98794" lon="4.52972">
        <ele>519</ele>
        <time>2014-11-30T13:02:27.000Z</time>
      </trkpt>
      <trkpt lat="45.98792" lon="4.52971">
        <ele>519</ele>
        <time>2014-11-30T13:02:28.000Z</time>
      </trkpt>
      <trkpt lat="45.98783" lon="4.52968">
        <ele>519</ele>
        <time>2014-11-30T13:02:34.000Z</time>
      </trkpt>
      <trkpt lat="45.98783" lon="4.52969">
        <ele>518</ele>
        <time>2014-11-30T13:02:44.000Z</time>
      </trkpt>
      <trkpt lat="45.98774" lon="4.52974">
        <ele>517</ele>
        <time>2014-11-30T13:03:24.000Z</time>
      </trkpt>
      <trkpt lat="45.98773" lon="4.52974">
        <ele>516</ele>
        <time>2014-11-30T13:03:25.000Z</time>
      </trkpt>
      <trkpt lat="45.98767" lon="4.52983">
        <ele>514</ele>
        <time>2014-11-30T13:03:32.000Z</time>
      </trkpt>
      <trkpt lat="45.98766" lon="4.52988">
        <ele>512</ele>
        <time>2014-11-30T13:03:35.000Z</time>
      </trkpt>
      <trkpt lat="45.98765" lon="4.52992">
        <ele>511</ele>
        <time>2014-11-30T13:03:37.000Z</time>
      </trkpt>
      <trkpt lat="45.98764" lon="4.52994">
        <ele>510</ele>
        <time>2014-11-30T13:03:42.000Z</time>
      </trkpt>
      <trkpt lat="45.98765" lon="4.52996">
        <ele>510</ele>
        <time>2014-11-30T13:03:43.000Z</time>
      </trkpt>
      <trkpt lat="45.98765" lon="4.53">
        <ele>510</ele>
        <time>2014-11-30T13:03:45.000Z</time>
      </trkpt>
      <trkpt lat="45.98766" lon="4.53007">
        <ele>497</ele>
        <time>2014-11-30T13:03:49.000Z</time>
      </trkpt>
      <trkpt lat="45.98766" lon="4.53013">
        <ele>496</ele>
        <time>2014-11-30T13:03:54.000Z</time>
      </trkpt>
      <trkpt lat="45.98765" lon="4.53019">
        <ele>495</ele>
        <time>2014-11-30T13:03:58.000Z</time>
      </trkpt>
      <trkpt lat="45.98765" lon="4.5302">
        <ele>495</ele>
        <time>2014-11-30T13:03:59.000Z</time>
      </trkpt>
      <trkpt lat="45.9876" lon="4.53029">
        <ele>493</ele>
        <time>2014-11-30T13:04:29.000Z</time>
      </trkpt>
      <trkpt lat="45.98762" lon="4.53036">
        <ele>491</ele>
        <time>2014-11-30T13:04:34.000Z</time>
      </trkpt>
      <trkpt lat="45.98763" lon="4.53042">
        <ele>489</ele>
        <time>2014-11-30T13:04:37.000Z</time>
      </trkpt>
      <trkpt lat="45.98761" lon="4.53047">
        <ele>488</ele>
        <time>2014-11-30T13:04:41.000Z</time>
      </trkpt>
      <trkpt lat="45.9876" lon="4.53055">
        <ele>485</ele>
        <time>2014-11-30T13:04:46.000Z</time>
      </trkpt>
      <trkpt lat="45.98759" lon="4.53056">
        <ele>485</ele>
        <time>2014-11-30T13:04:47.000Z</time>
      </trkpt>
      <trkpt lat="45.98758" lon="4.53059">
        <ele>484</ele>
        <time>2014-11-30T13:04:49.000Z</time>
      </trkpt>
      <trkpt lat="45.98755" lon="4.53062">
        <ele>482</ele>
        <time>2014-11-30T13:04:52.000Z</time>
      </trkpt>
      <trkpt lat="45.98755" lon="4.53065">
        <ele>481</ele>
        <time>2014-11-30T13:04:54.000Z</time>
      </trkpt>
      <trkpt lat="45.98753" lon="4.53075">
        <ele>475</ele>
        <time>2014-11-30T13:04:59.000Z</time>
      </trkpt>
      <trkpt lat="45.98754" lon="4.53086">
        <ele>467</ele>
        <time>2014-11-30T13:05:05.000Z</time>
      </trkpt>
      <trkpt lat="45.98756" lon="4.53088">
        <ele>467</ele>
        <time>2014-11-30T13:05:10.000Z</time>
      </trkpt>
      <trkpt lat="45.98757" lon="4.53089">
        <ele>466</ele>
        <time>2014-11-30T13:05:12.000Z</time>
      </trkpt>
      <trkpt lat="45.98759" lon="4.53102">
        <ele>464</ele>
        <time>2014-11-30T13:05:18.000Z</time>
      </trkpt>
      <trkpt lat="45.9876" lon="4.53105">
        <ele>463</ele>
        <time>2014-11-30T13:05:19.000Z</time>
      </trkpt>
      <trkpt lat="45.98758" lon="4.53112">
        <ele>461</ele>
        <time>2014-11-30T13:05:23.000Z</time>
      </trkpt>
      <trkpt lat="45.98757" lon="4.53115">
        <ele>461</ele>
        <time>2014-11-30T13:05:24.000Z</time>
      </trkpt>
      <trkpt lat="45.98756" lon="4.53118">
        <ele>460</ele>
        <time>2014-11-30T13:05:26.000Z</time>
      </trkpt>
      <trkpt lat="45.98756" lon="4.53122">
        <ele>459</ele>
        <time>2014-11-30T13:05:34.000Z</time>
      </trkpt>
      <trkpt lat="45.98757" lon="4.53125">
        <ele>458</ele>
        <time>2014-11-30T13:05:47.000Z</time>
      </trkpt>
      <trkpt lat="45.98758" lon="4.53127">
        <ele>458</ele>
        <time>2014-11-30T13:05:48.000Z</time>
      </trkpt>
      <trkpt lat="45.98759" lon="4.53129">
        <ele>457</ele>
        <time>2014-11-30T13:05:50.000Z</time>
      </trkpt>
      <trkpt lat="45.98758" lon="4.53139">
        <ele>454</ele>
        <time>2014-11-30T13:05:55.000Z</time>
      </trkpt>
      <trkpt lat="45.98757" lon="4.53145">
        <ele>451</ele>
        <time>2014-11-30T13:05:58.000Z</time>
      </trkpt>
      <trkpt lat="45.98756" lon="4.53153">
        <ele>447</ele>
        <time>2014-11-30T13:06:07.000Z</time>
      </trkpt>
      <trkpt lat="45.98758" lon="4.53161">
        <ele>444</ele>
        <time>2014-11-30T13:06:14.000Z</time>
      </trkpt>
      <trkpt lat="45.98758" lon="4.53163">
        <ele>443</ele>
        <time>2014-11-30T13:06:15.000Z</time>
      </trkpt>
      <trkpt lat="45.98756" lon="4.53171">
        <ele>437</ele>
        <time>2014-11-30T13:06:22.000Z</time>
      </trkpt>
      <trkpt lat="45.98749" lon="4.53176">
        <ele>435</ele>
        <time>2014-11-30T13:06:28.000Z</time>
      </trkpt>
      <trkpt lat="45.98746" lon="4.53179">
        <ele>434</ele>
        <time>2014-11-30T13:06:30.000Z</time>
      </trkpt>
      <trkpt lat="45.98738" lon="4.53178">
        <ele>434</ele>
        <time>2014-11-30T13:06:36.000Z</time>
      </trkpt>
      <trkpt lat="45.98732" lon="4.53176">
        <ele>434</ele>
        <time>2014-11-30T13:06:42.000Z</time>
      </trkpt>
      <trkpt lat="45.98724" lon="4.53174">
        <ele>433</ele>
        <time>2014-11-30T13:06:48.000Z</time>
      </trkpt>
      <trkpt lat="45.98719" lon="4.53171">
        <ele>433</ele>
        <time>2014-11-30T13:06:55.000Z</time>
      </trkpt>
      <trkpt lat="45.98712" lon="4.53168">
        <ele>432</ele>
        <time>2014-11-30T13:07:02.000Z</time>
      </trkpt>
      <trkpt lat="45.9871" lon="4.53167">
        <ele>432</ele>
        <time>2014-11-30T13:07:04.000Z</time>
      </trkpt>
      <trkpt lat="45.98699" lon="4.53165">
        <ele>438</ele>
        <time>2014-11-30T13:07:11.000Z</time>
      </trkpt>
      <trkpt lat="45.98697" lon="4.53165">
        <ele>437</ele>
        <time>2014-11-30T13:07:13.000Z</time>
      </trkpt>
      <trkpt lat="45.98688" lon="4.53162">
        <ele>435</ele>
        <time>2014-11-30T13:07:21.000Z</time>
      </trkpt>
      <trkpt lat="45.98686" lon="4.53163">
        <ele>435</ele>
        <time>2014-11-30T13:07:23.000Z</time>
      </trkpt>
      <trkpt lat="45.98682" lon="4.53163">
        <ele>433</ele>
        <time>2014-11-30T13:07:26.000Z</time>
      </trkpt>
      <trkpt lat="45.98674" lon="4.5316">
        <ele>431</ele>
        <time>2014-11-30T13:07:32.000Z</time>
      </trkpt>
      <trkpt lat="45.98665" lon="4.53159">
        <ele>427</ele>
        <time>2014-11-30T13:07:37.000Z</time>
      </trkpt>
      <trkpt lat="45.98653" lon="4.53155">
        <ele>428</ele>
        <time>2014-11-30T13:07:43.000Z</time>
      </trkpt>
      <trkpt lat="45.98642" lon="4.53153">
        <ele>429</ele>
        <time>2014-11-30T13:07:48.000Z</time>
      </trkpt>
      <trkpt lat="45.9863" lon="4.53151">
        <ele>429</ele>
        <time>2014-11-30T13:07:52.000Z</time>
      </trkpt>
      <trkpt lat="45.9862" lon="4.53148">
        <ele>429</ele>
        <time>2014-11-30T13:07:56.000Z</time>
      </trkpt>
      <trkpt lat="45.98609" lon="4.53146">
        <ele>429</ele>
        <time>2014-11-30T13:08:01.000Z</time>
      </trkpt>
      <trkpt lat="45.98598" lon="4.53142">
        <ele>428</ele>
        <time>2014-11-30T13:08:06.000Z</time>
      </trkpt>
      <trkpt lat="45.98573" lon="4.5313">
        <ele>424</ele>
        <time>2014-11-30T13:08:16.000Z</time>
      </trkpt>
      <trkpt lat="45.98555" lon="4.53125">
        <ele>424</ele>
        <time>2014-11-30T13:08:23.000Z</time>
      </trkpt>
      <trkpt lat="45.98538" lon="4.53121">
        <ele>423</ele>
        <time>2014-11-30T13:08:30.000Z</time>
      </trkpt>
      <trkpt lat="45.98526" lon="4.53117">
        <ele>422</ele>
        <time>2014-11-30T13:08:35.000Z</time>
      </trkpt>
      <trkpt lat="45.98509" lon="4.53112">
        <ele>422</ele>
        <time>2014-11-30T13:08:41.000Z</time>
      </trkpt>
      <trkpt lat="45.98493" lon="4.53113">
        <ele>417</ele>
        <time>2014-11-30T13:08:46.000Z</time>
      </trkpt>
      <trkpt lat="45.98479" lon="4.53114">
        <ele>417</ele>
        <time>2014-11-30T13:08:51.000Z</time>
      </trkpt>
      <trkpt lat="45.98462" lon="4.53109">
        <ele>416</ele>
        <time>2014-11-30T13:08:57.000Z</time>
      </trkpt>
      <trkpt lat="45.98448" lon="4.53107">
        <ele>415</ele>
        <time>2014-11-30T13:09:02.000Z</time>
      </trkpt>
      <trkpt lat="45.98439" lon="4.53103">
        <ele>414</ele>
        <time>2014-11-30T13:09:05.000Z</time>
      </trkpt>
      <trkpt lat="45.98421" lon="4.53096">
        <ele>411</ele>
        <time>2014-11-30T13:09:12.000Z</time>
      </trkpt>
      <trkpt lat="45.98405" lon="4.53096">
        <ele>411</ele>
        <time>2014-11-30T13:09:17.000Z</time>
      </trkpt>
      <trkpt lat="45.98394" lon="4.53094">
        <ele>413</ele>
        <time>2014-11-30T13:09:21.000Z</time>
      </trkpt>
      <trkpt lat="45.98387" lon="4.53091">
        <ele>413</ele>
        <time>2014-11-30T13:09:25.000Z</time>
      </trkpt>
      <trkpt lat="45.98382" lon="4.53089">
        <ele>413</ele>
        <time>2014-11-30T13:09:29.000Z</time>
      </trkpt>
      <trkpt lat="45.98375" lon="4.53087">
        <ele>414</ele>
        <time>2014-11-30T13:09:36.000Z</time>
      </trkpt>
      <trkpt lat="45.98368" lon="4.53082">
        <ele>411</ele>
        <time>2014-11-30T13:09:55.000Z</time>
      </trkpt>
      <trkpt lat="45.98359" lon="4.53074">
        <ele>410</ele>
        <time>2014-11-30T13:10:00.000Z</time>
      </trkpt>
      <trkpt lat="45.98354" lon="4.53071">
        <ele>410</ele>
        <time>2014-11-30T13:10:02.000Z</time>
      </trkpt>
      <trkpt lat="45.9834" lon="4.53066">
        <ele>410</ele>
        <time>2014-11-30T13:10:07.000Z</time>
      </trkpt>
      <trkpt lat="45.98327" lon="4.53062">
        <ele>408</ele>
        <time>2014-11-30T13:10:12.000Z</time>
      </trkpt>
      <trkpt lat="45.98324" lon="4.53063">
        <ele>408</ele>
        <time>2014-11-30T13:10:13.000Z</time>
      </trkpt>
      <trkpt lat="45.98313" lon="4.53059">
        <ele>408</ele>
        <time>2014-11-30T13:10:17.000Z</time>
      </trkpt>
      <trkpt lat="45.983" lon="4.5305">
        <ele>408</ele>
        <time>2014-11-30T13:10:22.000Z</time>
      </trkpt>
      <trkpt lat="45.98283" lon="4.53041">
        <ele>407</ele>
        <time>2014-11-30T13:10:27.000Z</time>
      </trkpt>
      <trkpt lat="45.98268" lon="4.53038">
        <ele>407</ele>
        <time>2014-11-30T13:10:32.000Z</time>
      </trkpt>
      <trkpt lat="45.98256" lon="4.53037">
        <ele>407</ele>
        <time>2014-11-30T13:10:37.000Z</time>
      </trkpt>
      <trkpt lat="45.98244" lon="4.53039">
        <ele>404</ele>
        <time>2014-11-30T13:10:42.000Z</time>
      </trkpt>
      <trkpt lat="45.9823" lon="4.53042">
        <ele>404</ele>
        <time>2014-11-30T13:10:47.000Z</time>
      </trkpt>
      <trkpt lat="45.98218" lon="4.53043">
        <ele>404</ele>
        <time>2014-11-30T13:10:51.000Z</time>
      </trkpt>
      <trkpt lat="45.98203" lon="4.53046">
        <ele>403</ele>
        <time>2014-11-30T13:10:56.000Z</time>
      </trkpt>
      <trkpt lat="45.98192" lon="4.53051">
        <ele>403</ele>
        <time>2014-11-30T13:11:01.000Z</time>
      </trkpt>
      <trkpt lat="45.98181" lon="4.53056">
        <ele>403</ele>
        <time>2014-11-30T13:11:06.000Z</time>
      </trkpt>
      <trkpt lat="45.98162" lon="4.53064">
        <ele>401</ele>
        <time>2014-11-30T13:11:13.000Z</time>
      </trkpt>
      <trkpt lat="45.98148" lon="4.53066">
        <ele>401</ele>
        <time>2014-11-30T13:11:19.000Z</time>
      </trkpt>
      <trkpt lat="45.98138" lon="4.53067">
        <ele>400</ele>
        <time>2014-11-30T13:11:23.000Z</time>
      </trkpt>
      <trkpt lat="45.98121" lon="4.5307">
        <ele>400</ele>
        <time>2014-11-30T13:11:30.000Z</time>
      </trkpt>
      <trkpt lat="45.98106" lon="4.5307">
        <ele>399</ele>
        <time>2014-11-30T13:11:35.000Z</time>
      </trkpt>
      <trkpt lat="45.98092" lon="4.53068">
        <ele>400</ele>
        <time>2014-11-30T13:11:39.000Z</time>
      </trkpt>
      <trkpt lat="45.98075" lon="4.53061">
        <ele>397</ele>
        <time>2014-11-30T13:11:44.000Z</time>
      </trkpt>
      <trkpt lat="45.98063" lon="4.5306">
        <ele>397</ele>
        <time>2014-11-30T13:11:48.000Z</time>
      </trkpt>
      <trkpt lat="45.9805" lon="4.53056">
        <ele>396</ele>
        <time>2014-11-30T13:11:52.000Z</time>
      </trkpt>
      <trkpt lat="45.98032" lon="4.53052">
        <ele>396</ele>
        <time>2014-11-30T13:11:57.000Z</time>
      </trkpt>
      <trkpt lat="45.98017" lon="4.53049">
        <ele>395</ele>
        <time>2014-11-30T13:12:02.000Z</time>
      </trkpt>
      <trkpt lat="45.98003" lon="4.5304">
        <ele>395</ele>
        <time>2014-11-30T13:12:07.000Z</time>
      </trkpt>
      <trkpt lat="45.98001" lon="4.53038">
        <ele>394</ele>
        <time>2014-11-30T13:12:08.000Z</time>
      </trkpt>
      <trkpt lat="45.97993" lon="4.53031">
        <ele>393</ele>
        <time>2014-11-30T13:12:12.000Z</time>
      </trkpt>
      <trkpt lat="45.97989" lon="4.5303">
        <ele>393</ele>
        <time>2014-11-30T13:12:13.000Z</time>
      </trkpt>
      <trkpt lat="45.9797" lon="4.53028">
        <ele>393</ele>
        <time>2014-11-30T13:12:19.000Z</time>
      </trkpt>
      <trkpt lat="45.97958" lon="4.53025">
        <ele>392</ele>
        <time>2014-11-30T13:12:23.000Z</time>
      </trkpt>
      <trkpt lat="45.9794" lon="4.5302">
        <ele>392</ele>
        <time>2014-11-30T13:12:28.000Z</time>
      </trkpt>
      <trkpt lat="45.97932" lon="4.5302">
        <ele>391</ele>
        <time>2014-11-30T13:12:31.000Z</time>
      </trkpt>
      <trkpt lat="45.97917" lon="4.53022">
        <ele>390</ele>
        <time>2014-11-30T13:12:36.000Z</time>
      </trkpt>
      <trkpt lat="45.979" lon="4.53017">
        <ele>389</ele>
        <time>2014-11-30T13:12:41.000Z</time>
      </trkpt>
      <trkpt lat="45.97896" lon="4.53016">
        <ele>389</ele>
        <time>2014-11-30T13:12:42.000Z</time>
      </trkpt>
      <trkpt lat="45.97882" lon="4.53005">
        <ele>389</ele>
        <time>2014-11-30T13:12:47.000Z</time>
      </trkpt>
      <trkpt lat="45.97879" lon="4.53004">
        <ele>388</ele>
        <time>2014-11-30T13:12:48.000Z</time>
      </trkpt>
      <trkpt lat="45.97862" lon="4.53006">
        <ele>387</ele>
        <time>2014-11-30T13:12:54.000Z</time>
      </trkpt>
      <trkpt lat="45.97848" lon="4.53001">
        <ele>385</ele>
        <time>2014-11-30T13:12:59.000Z</time>
      </trkpt>
      <trkpt lat="45.97831" lon="4.52994">
        <ele>382</ele>
        <time>2014-11-30T13:13:05.000Z</time>
      </trkpt>
      <trkpt lat="45.97819" lon="4.52993">
        <ele>383</ele>
        <time>2014-11-30T13:13:09.000Z</time>
      </trkpt>
      <trkpt lat="45.97814" lon="4.52992">
        <ele>384</ele>
        <time>2014-11-30T13:13:11.000Z</time>
      </trkpt>
      <trkpt lat="45.97803" lon="4.52998">
        <ele>384</ele>
        <time>2014-11-30T13:13:16.000Z</time>
      </trkpt>
      <trkpt lat="45.9779" lon="4.53002">
        <ele>388</ele>
        <time>2014-11-30T13:13:21.000Z</time>
      </trkpt>
      <trkpt lat="45.97788" lon="4.53001">
        <ele>388</ele>
        <time>2014-11-30T13:13:22.000Z</time>
      </trkpt>
      <trkpt lat="45.97776" lon="4.5299">
        <ele>385</ele>
        <time>2014-11-30T13:13:27.000Z</time>
      </trkpt>
      <trkpt lat="45.9777" lon="4.52986">
        <ele>385</ele>
        <time>2014-11-30T13:13:29.000Z</time>
      </trkpt>
      <trkpt lat="45.97756" lon="4.52978">
        <ele>385</ele>
        <time>2014-11-30T13:13:34.000Z</time>
      </trkpt>
      <trkpt lat="45.97745" lon="4.52974">
        <ele>384</ele>
        <time>2014-11-30T13:13:38.000Z</time>
      </trkpt>
      <trkpt lat="45.97731" lon="4.52971">
        <ele>384</ele>
        <time>2014-11-30T13:13:43.000Z</time>
      </trkpt>
      <trkpt lat="45.97728" lon="4.5297">
        <ele>384</ele>
        <time>2014-11-30T13:13:44.000Z</time>
      </trkpt>
      <trkpt lat="45.97723" lon="4.52968">
        <ele>384</ele>
        <time>2014-11-30T13:13:46.000Z</time>
      </trkpt>
      <trkpt lat="45.97714" lon="4.52963">
        <ele>383</ele>
        <time>2014-11-30T13:13:52.000Z</time>
      </trkpt>
      <trkpt lat="45.97712" lon="4.52962">
        <ele>383</ele>
        <time>2014-11-30T13:13:55.000Z</time>
      </trkpt>
      <trkpt lat="45.97707" lon="4.52957">
        <ele>383</ele>
        <time>2014-11-30T13:14:05.000Z</time>
      </trkpt>
      <trkpt lat="45.97707" lon="4.52954">
        <ele>383</ele>
        <time>2014-11-30T13:14:34.000Z</time>
      </trkpt>
      <trkpt lat="45.97717" lon="4.5296">
        <ele>383</ele>
        <time>2014-11-30T13:14:40.000Z</time>
      </trkpt>
      <trkpt lat="45.9773" lon="4.52963">
        <ele>384</ele>
        <time>2014-11-30T13:14:45.000Z</time>
      </trkpt>
      <trkpt lat="45.97739" lon="4.52966">
        <ele>384</ele>
        <time>2014-11-30T13:14:49.000Z</time>
      </trkpt>
      <trkpt lat="45.97751" lon="4.5297">
        <ele>385</ele>
        <time>2014-11-30T13:14:53.000Z</time>
      </trkpt>
      <trkpt lat="45.97762" lon="4.52972">
        <ele>385</ele>
        <time>2014-11-30T13:14:57.000Z</time>
      </trkpt>
      <trkpt lat="45.97764" lon="4.52972">
        <ele>385</ele>
        <time>2014-11-30T13:14:58.000Z</time>
      </trkpt>
      <trkpt lat="45.97769" lon="4.52974">
        <ele>385</ele>
        <time>2014-11-30T13:15:01.000Z</time>
      </trkpt>
      <trkpt lat="45.97778" lon="4.52978">
        <ele>385</ele>
        <time>2014-11-30T13:15:06.000Z</time>
      </trkpt>
      <trkpt lat="45.97786" lon="4.52972">
        <ele>386</ele>
        <time>2014-11-30T13:15:10.000Z</time>
      </trkpt>
      <trkpt lat="45.97798" lon="4.52966">
        <ele>386</ele>
        <time>2014-11-30T13:15:15.000Z</time>
      </trkpt>
      <trkpt lat="45.97808" lon="4.52962">
        <ele>386</ele>
        <time>2014-11-30T13:15:19.000Z</time>
      </trkpt>
      <trkpt lat="45.97811" lon="4.52962">
        <ele>386</ele>
        <time>2014-11-30T13:15:20.000Z</time>
      </trkpt>
      <trkpt lat="45.97823" lon="4.52963">
        <ele>386</ele>
        <time>2014-11-30T13:15:24.000Z</time>
      </trkpt>
      <trkpt lat="45.97835" lon="4.52968">
        <ele>390</ele>
        <time>2014-11-30T13:15:30.000Z</time>
      </trkpt>
      <trkpt lat="45.97849" lon="4.52972">
        <ele>390</ele>
        <time>2014-11-30T13:15:35.000Z</time>
      </trkpt>
      <trkpt lat="45.9786" lon="4.52976">
        <ele>390</ele>
        <time>2014-11-30T13:15:39.000Z</time>
      </trkpt>
      <trkpt lat="45.97871" lon="4.52978">
        <ele>391</ele>
        <time>2014-11-30T13:15:44.000Z</time>
      </trkpt>
      <trkpt lat="45.97883" lon="4.52984">
        <ele>391</ele>
        <time>2014-11-30T13:15:49.000Z</time>
      </trkpt>
      <trkpt lat="45.97892" lon="4.52989">
        <ele>391</ele>
        <time>2014-11-30T13:15:54.000Z</time>
      </trkpt>
      <trkpt lat="45.979" lon="4.52991">
        <ele>391</ele>
        <time>2014-11-30T13:15:59.000Z</time>
      </trkpt>
      <trkpt lat="45.97907" lon="4.52994">
        <ele>390</ele>
        <time>2014-11-30T13:16:03.000Z</time>
      </trkpt>
      <trkpt lat="45.97911" lon="4.52992">
        <ele>390</ele>
        <time>2014-11-30T13:16:05.000Z</time>
      </trkpt>
      <trkpt lat="45.97921" lon="4.52992">
        <ele>392</ele>
        <time>2014-11-30T13:16:09.000Z</time>
      </trkpt>
      <trkpt lat="45.97927" lon="4.52993">
        <ele>393</ele>
        <time>2014-11-30T13:16:11.000Z</time>
      </trkpt>
      <trkpt lat="45.97944" lon="4.52999">
        <ele>395</ele>
        <time>2014-11-30T13:16:17.000Z</time>
      </trkpt>
      <trkpt lat="45.97954" lon="4.53001">
        <ele>392</ele>
        <time>2014-11-30T13:16:21.000Z</time>
      </trkpt>
      <trkpt lat="45.97956" lon="4.53002">
        <ele>392</ele>
        <time>2014-11-30T13:16:22.000Z</time>
      </trkpt>
      <trkpt lat="45.97963" lon="4.53003">
        <ele>392</ele>
        <time>2014-11-30T13:16:26.000Z</time>
      </trkpt>
      <trkpt lat="45.97975" lon="4.53005">
        <ele>392</ele>
        <time>2014-11-30T13:16:30.000Z</time>
      </trkpt>
      <trkpt lat="45.97979" lon="4.53007">
        <ele>392</ele>
        <time>2014-11-30T13:16:32.000Z</time>
      </trkpt>
      <trkpt lat="45.97984" lon="4.53009">
        <ele>392</ele>
        <time>2014-11-30T13:16:35.000Z</time>
      </trkpt>
      <trkpt lat="45.97989" lon="4.53011">
        <ele>391</ele>
        <time>2014-11-30T13:16:39.000Z</time>
      </trkpt>
      <trkpt lat="45.97991" lon="4.53013">
        <ele>392</ele>
        <time>2014-11-30T13:16:41.000Z</time>
      </trkpt>
      <trkpt lat="45.97995" lon="4.53017">
        <ele>392</ele>
        <time>2014-11-30T13:16:45.000Z</time>
      </trkpt>
      <trkpt lat="45.97998" lon="4.53022">
        <ele>392</ele>
        <time>2014-11-30T13:16:50.000Z</time>
      </trkpt>
      <trkpt lat="45.98003" lon="4.53028">
        <ele>394</ele>
        <time>2014-11-30T13:16:56.000Z</time>
      </trkpt>
      <trkpt lat="45.98005" lon="4.53031">
        <ele>394</ele>
        <time>2014-11-30T13:16:59.000Z</time>
      </trkpt>
      <trkpt lat="45.9801" lon="4.53034">
        <ele>394</ele>
        <time>2014-11-30T13:17:03.000Z</time>
      </trkpt>
      <trkpt lat="45.98012" lon="4.53034">
        <ele>394</ele>
        <time>2014-11-30T13:17:05.000Z</time>
      </trkpt>
      <trkpt lat="45.98018" lon="4.53036">
        <ele>395</ele>
        <time>2014-11-30T13:17:09.000Z</time>
      </trkpt>
      <trkpt lat="45.98023" lon="4.53037">
        <ele>395</ele>
        <time>2014-11-30T13:17:12.000Z</time>
      </trkpt>
      <trkpt lat="45.98023" lon="4.53041">
        <ele>395</ele>
        <time>2014-11-30T13:17:17.000Z</time>
      </trkpt>
      <trkpt lat="45.98023" lon="4.53043">
        <ele>395</ele>
        <time>2014-11-30T13:17:23.000Z</time>
      </trkpt>
      <trkpt lat="45.9802" lon="4.53047">
        <ele>395</ele>
        <time>2014-11-30T13:17:37.000Z</time>
      </trkpt>
      <trkpt lat="45.98015" lon="4.5305">
        <ele>395</ele>
        <time>2014-11-30T13:17:43.000Z</time>
      </trkpt>
      <trkpt lat="45.98014" lon="4.5305">
        <ele>395</ele>
        <time>2014-11-30T13:17:44.000Z</time>
      </trkpt>
      <trkpt lat="45.98007" lon="4.53056">
        <ele>396</ele>
        <time>2014-11-30T13:17:50.000Z</time>
      </trkpt>
      <trkpt lat="45.98006" lon="4.53056">
        <ele>396</ele>
        <time>2014-11-30T13:17:51.000Z</time>
      </trkpt>
      <trkpt lat="45.98004" lon="4.53056">
        <ele>396</ele>
        <time>2014-11-30T13:17:53.000Z</time>
      </trkpt>
      <trkpt lat="45.97998" lon="4.5306">
        <ele>395</ele>
        <time>2014-11-30T13:17:58.000Z</time>
      </trkpt>
      <trkpt lat="45.97993" lon="4.53063">
        <ele>395</ele>
        <time>2014-11-30T13:18:04.000Z</time>
      </trkpt>
      <trkpt lat="45.97992" lon="4.53064">
        <ele>395</ele>
        <time>2014-11-30T13:18:05.000Z</time>
      </trkpt>
      <trkpt lat="45.97989" lon="4.53066">
        <ele>395</ele>
        <time>2014-11-30T13:18:08.000Z</time>
      </trkpt>
      <trkpt lat="45.97984" lon="4.5307">
        <ele>395</ele>
        <time>2014-11-30T13:18:14.000Z</time>
      </trkpt>
      <trkpt lat="45.97981" lon="4.53077">
        <ele>396</ele>
        <time>2014-11-30T13:18:20.000Z</time>
      </trkpt>
      <trkpt lat="45.97979" lon="4.53083">
        <ele>396</ele>
        <time>2014-11-30T13:18:25.000Z</time>
      </trkpt>
      <trkpt lat="45.97978" lon="4.53084">
        <ele>404</ele>
        <time>2014-11-30T13:18:26.000Z</time>
      </trkpt>
      <trkpt lat="45.97976" lon="4.53091">
        <ele>405</ele>
        <time>2014-11-30T13:18:33.000Z</time>
      </trkpt>
      <trkpt lat="45.97973" lon="4.53097">
        <ele>406</ele>
        <time>2014-11-30T13:18:38.000Z</time>
      </trkpt>
      <trkpt lat="45.97973" lon="4.53098">
        <ele>406</ele>
        <time>2014-11-30T13:18:39.000Z</time>
      </trkpt>
      <trkpt lat="45.97971" lon="4.531">
        <ele>406</ele>
        <time>2014-11-30T13:18:43.000Z</time>
      </trkpt>
      <trkpt lat="45.97968" lon="4.53106">
        <ele>407</ele>
        <time>2014-11-30T13:18:49.000Z</time>
      </trkpt>
      <trkpt lat="45.97968" lon="4.53108">
        <ele>407</ele>
        <time>2014-11-30T13:18:50.000Z</time>
      </trkpt>
      <trkpt lat="45.97964" lon="4.53114">
        <ele>408</ele>
        <time>2014-11-30T13:18:56.000Z</time>
      </trkpt>
      <trkpt lat="45.97963" lon="4.53115">
        <ele>408</ele>
        <time>2014-11-30T13:18:57.000Z</time>
      </trkpt>
      <trkpt lat="45.97962" lon="4.53118">
        <ele>409</ele>
        <time>2014-11-30T13:19:00.000Z</time>
      </trkpt>
      <trkpt lat="45.97958" lon="4.53125">
        <ele>410</ele>
        <time>2014-11-30T13:19:06.000Z</time>
      </trkpt>
      <trkpt lat="45.97956" lon="4.53124">
        <ele>409</ele>
        <time>2014-11-30T13:19:18.000Z</time>
      </trkpt>
      <trkpt lat="45.97948" lon="4.53126">
        <ele>409</ele>
        <time>2014-11-30T13:19:32.000Z</time>
      </trkpt>
      <trkpt lat="45.97942" lon="4.53129">
        <ele>410</ele>
        <time>2014-11-30T13:19:37.000Z</time>
      </trkpt>
      <trkpt lat="45.97938" lon="4.53135">
        <ele>411</ele>
        <time>2014-11-30T13:19:43.000Z</time>
      </trkpt>
      <trkpt lat="45.97934" lon="4.5314">
        <ele>412</ele>
        <time>2014-11-30T13:19:48.000Z</time>
      </trkpt>
      <trkpt lat="45.97932" lon="4.5314">
        <ele>412</ele>
        <time>2014-11-30T13:19:50.000Z</time>
      </trkpt>
      <trkpt lat="45.9793" lon="4.53146">
        <ele>413</ele>
        <time>2014-11-30T13:19:57.000Z</time>
      </trkpt>
      <trkpt lat="45.97927" lon="4.53148">
        <ele>413</ele>
        <time>2014-11-30T13:20:02.000Z</time>
      </trkpt>
      <trkpt lat="45.97919" lon="4.53153">
        <ele>415</ele>
        <time>2014-11-30T13:20:29.000Z</time>
      </trkpt>
      <trkpt lat="45.97918" lon="4.53153">
        <ele>415</ele>
        <time>2014-11-30T13:20:30.000Z</time>
      </trkpt>
      <trkpt lat="45.97917" lon="4.53152">
        <ele>414</ele>
        <time>2014-11-30T13:20:34.000Z</time>
      </trkpt>
      <trkpt lat="45.97916" lon="4.53153">
        <ele>415</ele>
        <time>2014-11-30T13:20:39.000Z</time>
      </trkpt>
      <trkpt lat="45.97913" lon="4.53151">
        <ele>414</ele>
        <time>2014-11-30T13:20:44.000Z</time>
      </trkpt>
      <trkpt lat="45.9791" lon="4.53148">
        <ele>413</ele>
        <time>2014-11-30T13:20:50.000Z</time>
      </trkpt>
      <trkpt lat="45.97908" lon="4.53145">
        <ele>412</ele>
        <time>2014-11-30T13:20:55.000Z</time>
      </trkpt>
      <trkpt lat="45.97906" lon="4.53144">
        <ele>412</ele>
        <time>2014-11-30T13:20:59.000Z</time>
      </trkpt>
      <trkpt lat="45.97902" lon="4.53142">
        <ele>412</ele>
        <time>2014-11-30T13:21:05.000Z</time>
      </trkpt>
      <trkpt lat="45.97898" lon="4.5314">
        <ele>411</ele>
        <time>2014-11-30T13:21:11.000Z</time>
      </trkpt>
      <trkpt lat="45.97895" lon="4.53139">
        <ele>411</ele>
        <time>2014-11-30T13:21:16.000Z</time>
      </trkpt>
      <trkpt lat="45.97892" lon="4.53139">
        <ele>411</ele>
        <time>2014-11-30T13:21:22.000Z</time>
      </trkpt>
      <trkpt lat="45.97891" lon="4.53142">
        <ele>411</ele>
        <time>2014-11-30T13:21:27.000Z</time>
      </trkpt>
      <trkpt lat="45.97887" lon="4.53143">
        <ele>411</ele>
        <time>2014-11-30T13:21:33.000Z</time>
      </trkpt>
      <trkpt lat="45.97884" lon="4.53144">
        <ele>411</ele>
        <time>2014-11-30T13:21:38.000Z</time>
      </trkpt>
      <trkpt lat="45.97882" lon="4.53147">
        <ele>412</ele>
        <time>2014-11-30T13:21:44.000Z</time>
      </trkpt>
      <trkpt lat="45.97879" lon="4.53148">
        <ele>412</ele>
        <time>2014-11-30T13:21:49.000Z</time>
      </trkpt>
      <trkpt lat="45.97879" lon="4.53148">
        <ele>412</ele>
        <time>2014-11-30T13:22:01.000Z</time>
      </trkpt>
      <trkpt lat="45.97872" lon="4.53149">
        <ele>412</ele>
        <time>2014-11-30T13:22:12.000Z</time>
      </trkpt>
      <trkpt lat="45.97871" lon="4.53149">
        <ele>412</ele>
        <time>2014-11-30T13:22:13.000Z</time>
      </trkpt>
      <trkpt lat="45.97866" lon="4.53151">
        <ele>412</ele>
        <time>2014-11-30T13:22:18.000Z</time>
      </trkpt>
      <trkpt lat="45.97862" lon="4.53155">
        <ele>413</ele>
        <time>2014-11-30T13:22:23.000Z</time>
      </trkpt>
      <trkpt lat="45.97859" lon="4.53157">
        <ele>414</ele>
        <time>2014-11-30T13:22:27.000Z</time>
      </trkpt>
      <trkpt lat="45.97851" lon="4.5316">
        <ele>415</ele>
        <time>2014-11-30T13:22:34.000Z</time>
      </trkpt>
      <trkpt lat="45.97848" lon="4.53163">
        <ele>416</ele>
        <time>2014-11-30T13:22:38.000Z</time>
      </trkpt>
      <trkpt lat="45.97845" lon="4.53169">
        <ele>425</ele>
        <time>2014-11-30T13:22:43.000Z</time>
      </trkpt>
      <trkpt lat="45.97844" lon="4.5317">
        <ele>425</ele>
        <time>2014-11-30T13:22:44.000Z</time>
      </trkpt>
      <trkpt lat="45.97841" lon="4.53174">
        <ele>425</ele>
        <time>2014-11-30T13:22:48.000Z</time>
      </trkpt>
      <trkpt lat="45.97837" lon="4.53179">
        <ele>426</ele>
        <time>2014-11-30T13:22:53.000Z</time>
      </trkpt>
      <trkpt lat="45.97835" lon="4.53182">
        <ele>427</ele>
        <time>2014-11-30T13:22:56.000Z</time>
      </trkpt>
      <trkpt lat="45.97835" lon="4.53186">
        <ele>427</ele>
        <time>2014-11-30T13:22:59.000Z</time>
      </trkpt>
      <trkpt lat="45.97834" lon="4.5319">
        <ele>428</ele>
        <time>2014-11-30T13:23:03.000Z</time>
      </trkpt>
      <trkpt lat="45.97832" lon="4.53196">
        <ele>431</ele>
        <time>2014-11-30T13:23:09.000Z</time>
      </trkpt>
      <trkpt lat="45.97828" lon="4.53199">
        <ele>431</ele>
        <time>2014-11-30T13:23:26.000Z</time>
      </trkpt>
      <trkpt lat="45.97826" lon="4.53203">
        <ele>432</ele>
        <time>2014-11-30T13:23:39.000Z</time>
      </trkpt>
      <trkpt lat="45.97826" lon="4.53208">
        <ele>433</ele>
        <time>2014-11-30T13:23:44.000Z</time>
      </trkpt>
      <trkpt lat="45.97828" lon="4.53214">
        <ele>434</ele>
        <time>2014-11-30T13:23:50.000Z</time>
      </trkpt>
      <trkpt lat="45.97829" lon="4.53221">
        <ele>436</ele>
        <time>2014-11-30T13:23:56.000Z</time>
      </trkpt>
      <trkpt lat="45.9783" lon="4.53226">
        <ele>437</ele>
        <time>2014-11-30T13:24:01.000Z</time>
      </trkpt>
      <trkpt lat="45.9783" lon="4.53231">
        <ele>438</ele>
        <time>2014-11-30T13:24:06.000Z</time>
      </trkpt>
      <trkpt lat="45.97829" lon="4.53238">
        <ele>441</ele>
        <time>2014-11-30T13:24:14.000Z</time>
      </trkpt>
      <trkpt lat="45.9783" lon="4.53242">
        <ele>442</ele>
        <time>2014-11-30T13:24:17.000Z</time>
      </trkpt>
      <trkpt lat="45.97831" lon="4.53249">
        <ele>446</ele>
        <time>2014-11-30T13:24:24.000Z</time>
      </trkpt>
      <trkpt lat="45.97831" lon="4.53251">
        <ele>447</ele>
        <time>2014-11-30T13:24:25.000Z</time>
      </trkpt>
      <trkpt lat="45.9783" lon="4.53258">
        <ele>448</ele>
        <time>2014-11-30T13:24:32.000Z</time>
      </trkpt>
      <trkpt lat="45.9783" lon="4.53263">
        <ele>448</ele>
        <time>2014-11-30T13:24:37.000Z</time>
      </trkpt>
      <trkpt lat="45.97831" lon="4.53267">
        <ele>448</ele>
        <time>2014-11-30T13:24:44.000Z</time>
      </trkpt>
      <trkpt lat="45.97833" lon="4.5327">
        <ele>449</ele>
        <time>2014-11-30T13:24:48.000Z</time>
      </trkpt>
      <trkpt lat="45.97835" lon="4.53273">
        <ele>449</ele>
        <time>2014-11-30T13:24:54.000Z</time>
      </trkpt>
      <trkpt lat="45.97835" lon="4.53273">
        <ele>449</ele>
        <time>2014-11-30T13:25:02.000Z</time>
      </trkpt>
      <trkpt lat="45.97832" lon="4.53285">
        <ele>451</ele>
        <time>2014-11-30T13:26:32.000Z</time>
      </trkpt>
      <trkpt lat="45.97831" lon="4.5329">
        <ele>451</ele>
        <time>2014-11-30T13:26:37.000Z</time>
      </trkpt>
      <trkpt lat="45.97831" lon="4.53295">
        <ele>452</ele>
        <time>2014-11-30T13:26:41.000Z</time>
      </trkpt>
      <trkpt lat="45.97831" lon="4.53299">
        <ele>453</ele>
        <time>2014-11-30T13:26:46.000Z</time>
      </trkpt>
      <trkpt lat="45.97831" lon="4.53303">
        <ele>453</ele>
        <time>2014-11-30T13:26:50.000Z</time>
      </trkpt>
      <trkpt lat="45.97832" lon="4.53307">
        <ele>454</ele>
        <time>2014-11-30T13:26:54.000Z</time>
      </trkpt>
      <trkpt lat="45.97832" lon="4.53311">
        <ele>455</ele>
        <time>2014-11-30T13:26:58.000Z</time>
      </trkpt>
      <trkpt lat="45.97832" lon="4.53316">
        <ele>456</ele>
        <time>2014-11-30T13:27:04.000Z</time>
      </trkpt>
      <trkpt lat="45.97832" lon="4.53318">
        <ele>457</ele>
        <time>2014-11-30T13:27:08.000Z</time>
      </trkpt>
      <trkpt lat="45.97832" lon="4.53323">
        <ele>458</ele>
        <time>2014-11-30T13:27:16.000Z</time>
      </trkpt>
      <trkpt lat="45.97832" lon="4.53327">
        <ele>460</ele>
        <time>2014-11-30T13:27:22.000Z</time>
      </trkpt>
      <trkpt lat="45.9783" lon="4.53326">
        <ele>459</ele>
        <time>2014-11-30T13:27:27.000Z</time>
      </trkpt>
      <trkpt lat="45.97826" lon="4.53324">
        <ele>458</ele>
        <time>2014-11-30T13:27:33.000Z</time>
      </trkpt>
      <trkpt lat="45.97822" lon="4.53325">
        <ele>457</ele>
        <time>2014-11-30T13:27:46.000Z</time>
      </trkpt>
      <trkpt lat="45.97821" lon="4.53326">
        <ele>457</ele>
        <time>2014-11-30T13:27:55.000Z</time>
      </trkpt>
      <trkpt lat="45.97819" lon="4.53327">
        <ele>457</ele>
        <time>2014-11-30T13:28:02.000Z</time>
      </trkpt>
      <trkpt lat="45.97817" lon="4.53327">
        <ele>456</ele>
        <time>2014-11-30T13:28:04.000Z</time>
      </trkpt>
      <trkpt lat="45.9781" lon="4.53329">
        <ele>455</ele>
        <time>2014-11-30T13:28:09.000Z</time>
      </trkpt>
      <trkpt lat="45.97799" lon="4.53335">
        <ele>464</ele>
        <time>2014-11-30T13:28:16.000Z</time>
      </trkpt>
      <trkpt lat="45.9779" lon="4.53339">
        <ele>464</ele>
        <time>2014-11-30T13:28:20.000Z</time>
      </trkpt>
      <trkpt lat="45.97775" lon="4.53344">
        <ele>462</ele>
        <time>2014-11-30T13:28:26.000Z</time>
      </trkpt>
      <trkpt lat="45.97759" lon="4.53346">
        <ele>460</ele>
        <time>2014-11-30T13:28:31.000Z</time>
      </trkpt>
      <trkpt lat="45.97743" lon="4.53345">
        <ele>457</ele>
        <time>2014-11-30T13:28:36.000Z</time>
      </trkpt>
      <trkpt lat="45.97741" lon="4.53346">
        <ele>458</ele>
        <time>2014-11-30T13:28:37.000Z</time>
      </trkpt>
      <trkpt lat="45.97739" lon="4.53347">
        <ele>458</ele>
        <time>2014-11-30T13:28:38.000Z</time>
      </trkpt>
      <trkpt lat="45.97737" lon="4.53346">
        <ele>458</ele>
        <time>2014-11-30T13:28:39.000Z</time>
      </trkpt>
      <trkpt lat="45.97729" lon="4.53349">
        <ele>460</ele>
        <time>2014-11-30T13:28:42.000Z</time>
      </trkpt>
      <trkpt lat="45.97712" lon="4.53357">
        <ele>461</ele>
        <time>2014-11-30T13:28:48.000Z</time>
      </trkpt>
      <trkpt lat="45.97694" lon="4.53365">
        <ele>462</ele>
        <time>2014-11-30T13:28:55.000Z</time>
      </trkpt>
      <trkpt lat="45.97693" lon="4.53367">
        <ele>462</ele>
        <time>2014-11-30T13:29:00.000Z</time>
      </trkpt>
      <trkpt lat="45.97688" lon="4.53368">
        <ele>462</ele>
        <time>2014-11-30T13:29:04.000Z</time>
      </trkpt>
      <trkpt lat="45.97686" lon="4.53368">
        <ele>462</ele>
        <time>2014-11-30T13:29:06.000Z</time>
      </trkpt>
      <trkpt lat="45.97672" lon="4.53368">
        <ele>461</ele>
        <time>2014-11-30T13:29:15.000Z</time>
      </trkpt>
      <trkpt lat="45.97659" lon="4.53368">
        <ele>465</ele>
        <time>2014-11-30T13:29:20.000Z</time>
      </trkpt>
      <trkpt lat="45.97654" lon="4.53367">
        <ele>465</ele>
        <time>2014-11-30T13:29:23.000Z</time>
      </trkpt>
      <trkpt lat="45.97646" lon="4.53352">
        <ele>464</ele>
        <time>2014-11-30T13:29:30.000Z</time>
      </trkpt>
      <trkpt lat="45.97646" lon="4.53349">
        <ele>464</ele>
        <time>2014-11-30T13:29:31.000Z</time>
      </trkpt>
      <trkpt lat="45.97646" lon="4.53338">
        <ele>463</ele>
        <time>2014-11-30T13:29:35.000Z</time>
      </trkpt>
      <trkpt lat="45.97647" lon="4.53329">
        <ele>457</ele>
        <time>2014-11-30T13:29:40.000Z</time>
      </trkpt>
      <trkpt lat="45.97647" lon="4.53327">
        <ele>457</ele>
        <time>2014-11-30T13:29:41.000Z</time>
      </trkpt>
      <trkpt lat="45.97649" lon="4.53317">
        <ele>457</ele>
        <time>2014-11-30T13:29:47.000Z</time>
      </trkpt>
      <trkpt lat="45.9765" lon="4.53307">
        <ele>457</ele>
        <time>2014-11-30T13:29:53.000Z</time>
      </trkpt>
      <trkpt lat="45.97651" lon="4.53303">
        <ele>457</ele>
        <time>2014-11-30T13:29:55.000Z</time>
      </trkpt>
      <trkpt lat="45.97651" lon="4.533">
        <ele>457</ele>
        <time>2014-11-30T13:29:57.000Z</time>
      </trkpt>
      <trkpt lat="45.97654" lon="4.53286">
        <ele>456</ele>
        <time>2014-11-30T13:30:05.000Z</time>
      </trkpt>
      <trkpt lat="45.97655" lon="4.53281">
        <ele>456</ele>
        <time>2014-11-30T13:30:08.000Z</time>
      </trkpt>
      <trkpt lat="45.97658" lon="4.53263">
        <ele>454</ele>
        <time>2014-11-30T13:30:18.000Z</time>
      </trkpt>
      <trkpt lat="45.97656" lon="4.53253">
        <ele>453</ele>
        <time>2014-11-30T13:30:23.000Z</time>
      </trkpt>
      <trkpt lat="45.97653" lon="4.53251">
        <ele>454</ele>
        <time>2014-11-30T13:30:31.000Z</time>
      </trkpt>
      <trkpt lat="45.97649" lon="4.53255">
        <ele>454</ele>
        <time>2014-11-30T13:30:53.000Z</time>
      </trkpt>
      <trkpt lat="45.97646" lon="4.53264">
        <ele>455</ele>
        <time>2014-11-30T13:31:01.000Z</time>
      </trkpt>
      <trkpt lat="45.9764" lon="4.53279">
        <ele>456</ele>
        <time>2014-11-30T13:31:06.000Z</time>
      </trkpt>
      <trkpt lat="45.9763" lon="4.53295">
        <ele>458</ele>
        <time>2014-11-30T13:31:12.000Z</time>
      </trkpt>
      <trkpt lat="45.97621" lon="4.53309">
        <ele>459</ele>
        <time>2014-11-30T13:31:20.000Z</time>
      </trkpt>
      <trkpt lat="45.9762" lon="4.5331">
        <ele>460</ele>
        <time>2014-11-30T13:31:22.000Z</time>
      </trkpt>
      <trkpt lat="45.97617" lon="4.53314">
        <ele>460</ele>
        <time>2014-11-30T13:31:33.000Z</time>
      </trkpt>
      <trkpt lat="45.97612" lon="4.53317">
        <ele>461</ele>
        <time>2014-11-30T13:31:38.000Z</time>
      </trkpt>
      <trkpt lat="45.97609" lon="4.5332">
        <ele>462</ele>
        <time>2014-11-30T13:31:40.000Z</time>
      </trkpt>
      <trkpt lat="45.97607" lon="4.53326">
        <ele>463</ele>
        <time>2014-11-30T13:31:44.000Z</time>
      </trkpt>
      <trkpt lat="45.97603" lon="4.53335">
        <ele>469</ele>
        <time>2014-11-30T13:31:50.000Z</time>
      </trkpt>
      <trkpt lat="45.97602" lon="4.53338">
        <ele>470</ele>
        <time>2014-11-30T13:31:52.000Z</time>
      </trkpt>
      <trkpt lat="45.97596" lon="4.53346">
        <ele>470</ele>
        <time>2014-11-30T13:31:59.000Z</time>
      </trkpt>
      <trkpt lat="45.97592" lon="4.53351">
        <ele>470</ele>
        <time>2014-11-30T13:32:05.000Z</time>
      </trkpt>
      <trkpt lat="45.97588" lon="4.53356">
        <ele>470</ele>
        <time>2014-11-30T13:32:11.000Z</time>
      </trkpt>
      <trkpt lat="45.97582" lon="4.5336">
        <ele>476</ele>
        <time>2014-11-30T13:32:18.000Z</time>
      </trkpt>
      <trkpt lat="45.97574" lon="4.53364">
        <ele>476</ele>
        <time>2014-11-30T13:32:26.000Z</time>
      </trkpt>
      <trkpt lat="45.97573" lon="4.53364">
        <ele>476</ele>
        <time>2014-11-30T13:32:28.000Z</time>
      </trkpt>
      <trkpt lat="45.97568" lon="4.53357">
        <ele>476</ele>
        <time>2014-11-30T13:32:37.000Z</time>
      </trkpt>
      <trkpt lat="45.9756" lon="4.53348">
        <ele>476</ele>
        <time>2014-11-30T13:32:43.000Z</time>
      </trkpt>
      <trkpt lat="45.97549" lon="4.53344">
        <ele>476</ele>
        <time>2014-11-30T13:32:49.000Z</time>
      </trkpt>
      <trkpt lat="45.97538" lon="4.53339">
        <ele>476</ele>
        <time>2014-11-30T13:32:56.000Z</time>
      </trkpt>
      <trkpt lat="45.97525" lon="4.53337">
        <ele>475</ele>
        <time>2014-11-30T13:33:04.000Z</time>
      </trkpt>
      <trkpt lat="45.97507" lon="4.53341">
        <ele>474</ele>
        <time>2014-11-30T13:33:11.000Z</time>
      </trkpt>
      <trkpt lat="45.97483" lon="4.53359">
        <ele>478</ele>
        <time>2014-11-30T13:33:21.000Z</time>
      </trkpt>
      <trkpt lat="45.9747" lon="4.53368">
        <ele>480</ele>
        <time>2014-11-30T13:33:27.000Z</time>
      </trkpt>
      <trkpt lat="45.97456" lon="4.53372">
        <ele>480</ele>
        <time>2014-11-30T13:33:33.000Z</time>
      </trkpt>
      <trkpt lat="45.9744" lon="4.5337">
        <ele>480</ele>
        <time>2014-11-30T13:33:39.000Z</time>
      </trkpt>
      <trkpt lat="45.97426" lon="4.53364">
        <ele>479</ele>
        <time>2014-11-30T13:33:45.000Z</time>
      </trkpt>
      <trkpt lat="45.97412" lon="4.53358">
        <ele>479</ele>
        <time>2014-11-30T13:33:51.000Z</time>
      </trkpt>
      <trkpt lat="45.974" lon="4.53356">
        <ele>479</ele>
        <time>2014-11-30T13:33:57.000Z</time>
      </trkpt>
      <trkpt lat="45.97386" lon="4.53357">
        <ele>480</ele>
        <time>2014-11-30T13:34:03.000Z</time>
      </trkpt>
      <trkpt lat="45.97374" lon="4.53358">
        <ele>480</ele>
        <time>2014-11-30T13:34:08.000Z</time>
      </trkpt>
      <trkpt lat="45.97355" lon="4.53359">
        <ele>480</ele>
        <time>2014-11-30T13:34:14.000Z</time>
      </trkpt>
      <trkpt lat="45.97336" lon="4.5336">
        <ele>480</ele>
        <time>2014-11-30T13:34:21.000Z</time>
      </trkpt>
      <trkpt lat="45.97327" lon="4.5336">
        <ele>480</ele>
        <time>2014-11-30T13:34:26.000Z</time>
      </trkpt>
      <trkpt lat="45.97322" lon="4.5336">
        <ele>480</ele>
        <time>2014-11-30T13:34:30.000Z</time>
      </trkpt>
      <trkpt lat="45.97318" lon="4.53355">
        <ele>480</ele>
        <time>2014-11-30T13:34:35.000Z</time>
      </trkpt>
      <trkpt lat="45.97309" lon="4.53339">
        <ele>479</ele>
        <time>2014-11-30T13:34:43.000Z</time>
      </trkpt>
      <trkpt lat="45.97298" lon="4.5332">
        <ele>475</ele>
        <time>2014-11-30T13:34:49.000Z</time>
      </trkpt>
      <trkpt lat="45.97285" lon="4.53299">
        <ele>475</ele>
        <time>2014-11-30T13:34:55.000Z</time>
      </trkpt>
      <trkpt lat="45.97273" lon="4.53276">
        <ele>474</ele>
        <time>2014-11-30T13:35:02.000Z</time>
      </trkpt>
      <trkpt lat="45.97264" lon="4.53259">
        <ele>475</ele>
        <time>2014-11-30T13:35:08.000Z</time>
      </trkpt>
      <trkpt lat="45.97259" lon="4.53254">
        <ele>475</ele>
        <time>2014-11-30T13:35:13.000Z</time>
      </trkpt>
      <trkpt lat="45.97248" lon="4.53255">
        <ele>477</ele>
        <time>2014-11-30T13:35:24.000Z</time>
      </trkpt>
      <trkpt lat="45.97242" lon="4.53263">
        <ele>479</ele>
        <time>2014-11-30T13:35:32.000Z</time>
      </trkpt>
      <trkpt lat="45.97235" lon="4.53274">
        <ele>481</ele>
        <time>2014-11-30T13:35:41.000Z</time>
      </trkpt>
      <trkpt lat="45.97235" lon="4.53277">
        <ele>481</ele>
        <time>2014-11-30T13:35:43.000Z</time>
      </trkpt>
      <trkpt lat="45.97232" lon="4.53284">
        <ele>481</ele>
        <time>2014-11-30T13:35:48.000Z</time>
      </trkpt>
      <trkpt lat="45.97223" lon="4.53288">
        <ele>482</ele>
        <time>2014-11-30T13:35:55.000Z</time>
      </trkpt>
      <trkpt lat="45.97214" lon="4.53294">
        <ele>482</ele>
        <time>2014-11-30T13:36:03.000Z</time>
      </trkpt>
      <trkpt lat="45.97207" lon="4.53301">
        <ele>483</ele>
        <time>2014-11-30T13:36:10.000Z</time>
      </trkpt>
      <trkpt lat="45.97206" lon="4.53302">
        <ele>483</ele>
        <time>2014-11-30T13:36:12.000Z</time>
      </trkpt>
      <trkpt lat="45.97196" lon="4.53312">
        <ele>483</ele>
        <time>2014-11-30T13:36:22.000Z</time>
      </trkpt>
      <trkpt lat="45.97188" lon="4.53319">
        <ele>484</ele>
        <time>2014-11-30T13:36:29.000Z</time>
      </trkpt>
      <trkpt lat="45.97177" lon="4.53328">
        <ele>484</ele>
        <time>2014-11-30T13:36:37.000Z</time>
      </trkpt>
      <trkpt lat="45.9716" lon="4.53338">
        <ele>482</ele>
        <time>2014-11-30T13:36:43.000Z</time>
      </trkpt>
      <trkpt lat="45.97141" lon="4.5334">
        <ele>477</ele>
        <time>2014-11-30T13:36:49.000Z</time>
      </trkpt>
      <trkpt lat="45.97123" lon="4.53332">
        <ele>482</ele>
        <time>2014-11-30T13:36:55.000Z</time>
      </trkpt>
      <trkpt lat="45.97113" lon="4.53319">
        <ele>482</ele>
        <time>2014-11-30T13:37:00.000Z</time>
      </trkpt>
      <trkpt lat="45.9711" lon="4.53312">
        <ele>482</ele>
        <time>2014-11-30T13:37:05.000Z</time>
      </trkpt>
      <trkpt lat="45.97109" lon="4.5331">
        <ele>482</ele>
        <time>2014-11-30T13:37:13.000Z</time>
      </trkpt>
      <trkpt lat="45.97104" lon="4.5331">
        <ele>481</ele>
        <time>2014-11-30T13:37:26.000Z</time>
      </trkpt>
      <trkpt lat="45.97094" lon="4.53312">
        <ele>480</ele>
        <time>2014-11-30T13:37:31.000Z</time>
      </trkpt>
      <trkpt lat="45.97089" lon="4.5331">
        <ele>480</ele>
        <time>2014-11-30T13:37:33.000Z</time>
      </trkpt>
      <trkpt lat="45.97081" lon="4.53296">
        <ele>474</ele>
        <time>2014-11-30T13:37:39.000Z</time>
      </trkpt>
      <trkpt lat="45.97076" lon="4.53285">
        <ele>475</ele>
        <time>2014-11-30T13:37:46.000Z</time>
      </trkpt>
      <trkpt lat="45.97071" lon="4.53272">
        <ele>476</ele>
        <time>2014-11-30T13:37:52.000Z</time>
      </trkpt>
      <trkpt lat="45.97062" lon="4.53255">
        <ele>477</ele>
        <time>2014-11-30T13:37:58.000Z</time>
      </trkpt>
      <trkpt lat="45.97052" lon="4.53239">
        <ele>481</ele>
        <time>2014-11-30T13:38:04.000Z</time>
      </trkpt>
      <trkpt lat="45.97047" lon="4.53224">
        <ele>481</ele>
        <time>2014-11-30T13:38:12.000Z</time>
      </trkpt>
      <trkpt lat="45.97043" lon="4.53212">
        <ele>480</ele>
        <time>2014-11-30T13:38:19.000Z</time>
      </trkpt>
      <trkpt lat="45.9704" lon="4.53205">
        <ele>480</ele>
        <time>2014-11-30T13:38:27.000Z</time>
      </trkpt>
      <trkpt lat="45.97038" lon="4.53204">
        <ele>480</ele>
        <time>2014-11-30T13:38:56.000Z</time>
      </trkpt>
      <trkpt lat="45.97032" lon="4.53201">
        <ele>480</ele>
        <time>2014-11-30T13:39:02.000Z</time>
      </trkpt>
      <trkpt lat="45.97001" lon="4.53195">
        <ele>478</ele>
        <time>2014-11-30T13:39:14.000Z</time>
      </trkpt>
      <trkpt lat="45.9698" lon="4.53194">
        <ele>466</ele>
        <time>2014-11-30T13:39:20.000Z</time>
      </trkpt>
      <trkpt lat="45.96967" lon="4.53203">
        <ele>464</ele>
        <time>2014-11-30T13:39:29.000Z</time>
      </trkpt>
      <trkpt lat="45.9697" lon="4.53221">
        <ele>464</ele>
        <time>2014-11-30T13:39:35.000Z</time>
      </trkpt>
      <trkpt lat="45.96973" lon="4.53235">
        <ele>464</ele>
        <time>2014-11-30T13:39:41.000Z</time>
      </trkpt>
      <trkpt lat="45.96973" lon="4.53235">
        <ele>464</ele>
        <time>2014-11-30T13:39:46.000Z</time>
      </trkpt>
      <trkpt lat="45.96971" lon="4.53227">
        <ele>464</ele>
        <time>2014-11-30T13:40:06.000Z</time>
      </trkpt>
      <trkpt lat="45.96967" lon="4.53211">
        <ele>464</ele>
        <time>2014-11-30T13:40:15.000Z</time>
      </trkpt>
      <trkpt lat="45.96966" lon="4.53198">
        <ele>464</ele>
        <time>2014-11-30T13:40:22.000Z</time>
      </trkpt>
      <trkpt lat="45.96966" lon="4.53188">
        <ele>465</ele>
        <time>2014-11-30T13:40:27.000Z</time>
      </trkpt>
      <trkpt lat="45.96966" lon="4.53188">
        <ele>465</ele>
        <time>2014-11-30T13:40:28.000Z</time>
      </trkpt>
      <trkpt lat="45.96966" lon="4.53187">
        <ele>465</ele>
        <time>2014-11-30T13:40:39.000Z</time>
      </trkpt>
      <trkpt lat="45.96966" lon="4.53179">
        <ele>465</ele>
        <time>2014-11-30T13:41:07.000Z</time>
      </trkpt>
      <trkpt lat="45.96967" lon="4.53157">
        <ele>465</ele>
        <time>2014-11-30T13:41:19.000Z</time>
      </trkpt>
      <trkpt lat="45.96966" lon="4.53141">
        <ele>464</ele>
        <time>2014-11-30T13:41:28.000Z</time>
      </trkpt>
      <trkpt lat="45.96963" lon="4.53116">
        <ele>463</ele>
        <time>2014-11-30T13:41:35.000Z</time>
      </trkpt>
      <trkpt lat="45.96954" lon="4.53103">
        <ele>461</ele>
        <time>2014-11-30T13:41:40.000Z</time>
      </trkpt>
      <trkpt lat="45.96944" lon="4.53089">
        <ele>459</ele>
        <time>2014-11-30T13:41:46.000Z</time>
      </trkpt>
      <trkpt lat="45.96943" lon="4.53085">
        <ele>458</ele>
        <time>2014-11-30T13:41:47.000Z</time>
      </trkpt>
      <trkpt lat="45.96948" lon="4.53065">
        <ele>453</ele>
        <time>2014-11-30T13:41:53.000Z</time>
      </trkpt>
      <trkpt lat="45.9695" lon="4.53061">
        <ele>453</ele>
        <time>2014-11-30T13:41:54.000Z</time>
      </trkpt>
      <trkpt lat="45.96955" lon="4.53033">
        <ele>452</ele>
        <time>2014-11-30T13:42:00.000Z</time>
      </trkpt>
      <trkpt lat="45.96953" lon="4.53018">
        <ele>450</ele>
        <time>2014-11-30T13:42:04.000Z</time>
      </trkpt>
      <trkpt lat="45.96951" lon="4.53015">
        <ele>450</ele>
        <time>2014-11-30T13:42:05.000Z</time>
      </trkpt>
      <trkpt lat="45.96946" lon="4.53006">
        <ele>449</ele>
        <time>2014-11-30T13:42:09.000Z</time>
      </trkpt>
      <trkpt lat="45.96925" lon="4.52988">
        <ele>441</ele>
        <time>2014-11-30T13:42:19.000Z</time>
      </trkpt>
      <trkpt lat="45.96917" lon="4.52976">
        <ele>434</ele>
        <time>2014-11-30T13:42:24.000Z</time>
      </trkpt>
      <trkpt lat="45.96914" lon="4.52957">
        <ele>433</ele>
        <time>2014-11-30T13:42:30.000Z</time>
      </trkpt>
      <trkpt lat="45.96915" lon="4.52954">
        <ele>433</ele>
        <time>2014-11-30T13:42:31.000Z</time>
      </trkpt>
      <trkpt lat="45.96918" lon="4.52939">
        <ele>439</ele>
        <time>2014-11-30T13:42:35.000Z</time>
      </trkpt>
      <trkpt lat="45.96913" lon="4.52918">
        <ele>434</ele>
        <time>2014-11-30T13:42:40.000Z</time>
      </trkpt>
      <trkpt lat="45.96911" lon="4.52914">
        <ele>433</ele>
        <time>2014-11-30T13:42:41.000Z</time>
      </trkpt>
      <trkpt lat="45.96908" lon="4.52892">
        <ele>430</ele>
        <time>2014-11-30T13:42:46.000Z</time>
      </trkpt>
      <trkpt lat="45.96904" lon="4.52865">
        <ele>429</ele>
        <time>2014-11-30T13:42:52.000Z</time>
      </trkpt>
      <trkpt lat="45.96902" lon="4.52843">
        <ele>429</ele>
        <time>2014-11-30T13:42:58.000Z</time>
      </trkpt>
      <trkpt lat="45.96901" lon="4.52836">
        <ele>429</ele>
        <time>2014-11-30T13:43:00.000Z</time>
      </trkpt>
      <trkpt lat="45.96883" lon="4.52827">
        <ele>427</ele>
        <time>2014-11-30T13:43:13.000Z</time>
      </trkpt>
      <trkpt lat="45.96877" lon="4.52826">
        <ele>426</ele>
        <time>2014-11-30T13:43:17.000Z</time>
      </trkpt>
      <trkpt lat="45.96866" lon="4.52821">
        <ele>426</ele>
        <time>2014-11-30T13:43:24.000Z</time>
      </trkpt>
      <trkpt lat="45.96863" lon="4.5282">
        <ele>426</ele>
        <time>2014-11-30T13:43:27.000Z</time>
      </trkpt>
      <trkpt lat="45.9686" lon="4.52816">
        <ele>426</ele>
        <time>2014-11-30T13:43:30.000Z</time>
      </trkpt>
      <trkpt lat="45.96856" lon="4.52805">
        <ele>426</ele>
        <time>2014-11-30T13:43:35.000Z</time>
      </trkpt>
      <trkpt lat="45.96848" lon="4.52787">
        <ele>426</ele>
        <time>2014-11-30T13:43:41.000Z</time>
      </trkpt>
      <trkpt lat="45.96837" lon="4.52761">
        <ele>427</ele>
        <time>2014-11-30T13:43:47.000Z</time>
      </trkpt>
      <trkpt lat="45.9683" lon="4.52739">
        <ele>426</ele>
        <time>2014-11-30T13:43:52.000Z</time>
      </trkpt>
      <trkpt lat="45.96822" lon="4.52723">
        <ele>425</ele>
        <time>2014-11-30T13:43:56.000Z</time>
      </trkpt>
      <trkpt lat="45.96809" lon="4.52704">
        <ele>423</ele>
        <time>2014-11-30T13:44:01.000Z</time>
      </trkpt>
      <trkpt lat="45.96795" lon="4.52688">
        <ele>423</ele>
        <time>2014-11-30T13:44:06.000Z</time>
      </trkpt>
      <trkpt lat="45.96779" lon="4.52673">
        <ele>424</ele>
        <time>2014-11-30T13:44:12.000Z</time>
      </trkpt>
      <trkpt lat="45.96763" lon="4.52664">
        <ele>422</ele>
        <time>2014-11-30T13:44:18.000Z</time>
      </trkpt>
      <trkpt lat="45.96741" lon="4.52678">
        <ele>423</ele>
        <time>2014-11-30T13:44:26.000Z</time>
      </trkpt>
      <trkpt lat="45.96731" lon="4.52693">
        <ele>422</ele>
        <time>2014-11-30T13:44:31.000Z</time>
      </trkpt>
      <trkpt lat="45.96717" lon="4.52704">
        <ele>422</ele>
        <time>2014-11-30T13:44:37.000Z</time>
      </trkpt>
      <trkpt lat="45.96699" lon="4.52694">
        <ele>422</ele>
        <time>2014-11-30T13:44:43.000Z</time>
      </trkpt>
      <trkpt lat="45.96681" lon="4.52683">
        <ele>422</ele>
        <time>2014-11-30T13:44:49.000Z</time>
      </trkpt>
      <trkpt lat="45.96664" lon="4.52674">
        <ele>422</ele>
        <time>2014-11-30T13:44:55.000Z</time>
      </trkpt>
      <trkpt lat="45.96648" lon="4.5267">
        <ele>420</ele>
        <time>2014-11-30T13:45:01.000Z</time>
      </trkpt>
      <trkpt lat="45.96639" lon="4.52669">
        <ele>419</ele>
        <time>2014-11-30T13:45:06.000Z</time>
      </trkpt>
      <trkpt lat="45.9663" lon="4.52663">
        <ele>422</ele>
        <time>2014-11-30T13:45:14.000Z</time>
      </trkpt>
      <trkpt lat="45.9663" lon="4.52655">
        <ele>422</ele>
        <time>2014-11-30T13:45:18.000Z</time>
      </trkpt>
      <trkpt lat="45.9663" lon="4.52651">
        <ele>422</ele>
        <time>2014-11-30T13:45:25.000Z</time>
      </trkpt>
      <trkpt lat="45.96628" lon="4.5265">
        <ele>422</ele>
        <time>2014-11-30T13:45:28.000Z</time>
      </trkpt>
      <trkpt lat="45.96621" lon="4.52647">
        <ele>422</ele>
        <time>2014-11-30T13:45:34.000Z</time>
      </trkpt>
      <trkpt lat="45.9662" lon="4.52646">
        <ele>422</ele>
        <time>2014-11-30T13:45:43.000Z</time>
      </trkpt>
      <trkpt lat="45.96615" lon="4.52642">
        <ele>422</ele>
        <time>2014-11-30T13:45:59.000Z</time>
      </trkpt>
      <trkpt lat="45.96612" lon="4.52642">
        <ele>422</ele>
        <time>2014-11-30T13:46:01.000Z</time>
      </trkpt>
      <trkpt lat="45.96607" lon="4.52636">
        <ele>422</ele>
        <time>2014-11-30T13:46:06.000Z</time>
      </trkpt>
      <trkpt lat="45.96598" lon="4.52628">
        <ele>422</ele>
        <time>2014-11-30T13:46:12.000Z</time>
      </trkpt>
      <trkpt lat="45.96583" lon="4.52607">
        <ele>419</ele>
        <time>2014-11-30T13:46:19.000Z</time>
      </trkpt>
      <trkpt lat="45.96577" lon="4.526">
        <ele>420</ele>
        <time>2014-11-30T13:46:22.000Z</time>
      </trkpt>
      <trkpt lat="45.96569" lon="4.52604">
        <ele>418</ele>
        <time>2014-11-30T13:46:26.000Z</time>
      </trkpt>
      <trkpt lat="45.96554" lon="4.52606">
        <ele>416</ele>
        <time>2014-11-30T13:46:30.000Z</time>
      </trkpt>
      <trkpt lat="45.96551" lon="4.52605">
        <ele>416</ele>
        <time>2014-11-30T13:46:31.000Z</time>
      </trkpt>
      <trkpt lat="45.96547" lon="4.52605">
        <ele>416</ele>
        <time>2014-11-30T13:46:32.000Z</time>
      </trkpt>
      <trkpt lat="45.96532" lon="4.52602">
        <ele>414</ele>
        <time>2014-11-30T13:46:36.000Z</time>
      </trkpt>
      <trkpt lat="45.96514" lon="4.52599">
        <ele>412</ele>
        <time>2014-11-30T13:46:41.000Z</time>
      </trkpt>
      <trkpt lat="45.96493" lon="4.52595">
        <ele>403</ele>
        <time>2014-11-30T13:46:47.000Z</time>
      </trkpt>
      <trkpt lat="45.9648" lon="4.52591">
        <ele>401</ele>
        <time>2014-11-30T13:46:51.000Z</time>
      </trkpt>
      <trkpt lat="45.96472" lon="4.5258">
        <ele>399</ele>
        <time>2014-11-30T13:46:57.000Z</time>
      </trkpt>
      <trkpt lat="45.96469" lon="4.52588">
        <ele>399</ele>
        <time>2014-11-30T13:47:18.000Z</time>
      </trkpt>
      <trkpt lat="45.96462" lon="4.52588">
        <ele>397</ele>
        <time>2014-11-30T13:47:22.000Z</time>
      </trkpt>
      <trkpt lat="45.96459" lon="4.52589">
        <ele>397</ele>
        <time>2014-11-30T13:47:23.000Z</time>
      </trkpt>
      <trkpt lat="45.96436" lon="4.52593">
        <ele>392</ele>
        <time>2014-11-30T13:47:30.000Z</time>
      </trkpt>
      <trkpt lat="45.96418" lon="4.52599">
        <ele>391</ele>
        <time>2014-11-30T13:47:36.000Z</time>
      </trkpt>
      <trkpt lat="45.96406" lon="4.52613">
        <ele>380</ele>
        <time>2014-11-30T13:47:41.000Z</time>
      </trkpt>
      <trkpt lat="45.96396" lon="4.52633">
        <ele>379</ele>
        <time>2014-11-30T13:47:47.000Z</time>
      </trkpt>
      <trkpt lat="45.96394" lon="4.52646">
        <ele>380</ele>
        <time>2014-11-30T13:47:50.000Z</time>
      </trkpt>
      <trkpt lat="45.96393" lon="4.52648">
        <ele>380</ele>
        <time>2014-11-30T13:47:55.000Z</time>
      </trkpt>
      <trkpt lat="45.96389" lon="4.52639">
        <ele>379</ele>
        <time>2014-11-30T13:48:00.000Z</time>
      </trkpt>
      <trkpt lat="45.9638" lon="4.5262">
        <ele>378</ele>
        <time>2014-11-30T13:48:07.000Z</time>
      </trkpt>
      <trkpt lat="45.96371" lon="4.52601">
        <ele>376</ele>
        <time>2014-11-30T13:48:12.000Z</time>
      </trkpt>
      <trkpt lat="45.96366" lon="4.5259">
        <ele>375</ele>
        <time>2014-11-30T13:48:15.000Z</time>
      </trkpt>
      <trkpt lat="45.96354" lon="4.52589">
        <ele>373</ele>
        <time>2014-11-30T13:48:20.000Z</time>
      </trkpt>
      <trkpt lat="45.96342" lon="4.52593">
        <ele>371</ele>
        <time>2014-11-30T13:48:24.000Z</time>
      </trkpt>
      <trkpt lat="45.96333" lon="4.5261">
        <ele>364</ele>
        <time>2014-11-30T13:48:28.000Z</time>
      </trkpt>
      <trkpt lat="45.96328" lon="4.52633">
        <ele>364</ele>
        <time>2014-11-30T13:48:34.000Z</time>
      </trkpt>
      <trkpt lat="45.96326" lon="4.52639">
        <ele>364</ele>
        <time>2014-11-30T13:48:38.000Z</time>
      </trkpt>
      <trkpt lat="45.96323" lon="4.52643">
        <ele>364</ele>
        <time>2014-11-30T13:48:44.000Z</time>
      </trkpt>
      <trkpt lat="45.96319" lon="4.5265">
        <ele>365</ele>
        <time>2014-11-30T13:48:52.000Z</time>
      </trkpt>
      <trkpt lat="45.96318" lon="4.52651">
        <ele>365</ele>
        <time>2014-11-30T13:48:53.000Z</time>
      </trkpt>
      <trkpt lat="45.96315" lon="4.52657">
        <ele>365</ele>
        <time>2014-11-30T13:48:58.000Z</time>
      </trkpt>
      <trkpt lat="45.96313" lon="4.52669">
        <ele>364</ele>
        <time>2014-11-30T13:49:05.000Z</time>
      </trkpt>
      <trkpt lat="45.96313" lon="4.52677">
        <ele>364</ele>
        <time>2014-11-30T13:49:08.000Z</time>
      </trkpt>
      <trkpt lat="45.96312" lon="4.52685">
        <ele>363</ele>
        <time>2014-11-30T13:49:12.000Z</time>
      </trkpt>
      <trkpt lat="45.96311" lon="4.52695">
        <ele>362</ele>
        <time>2014-11-30T13:49:18.000Z</time>
      </trkpt>
      <trkpt lat="45.963" lon="4.52703">
        <ele>361</ele>
        <time>2014-11-30T13:49:23.000Z</time>
      </trkpt>
      <trkpt lat="45.96283" lon="4.5271">
        <ele>359</ele>
        <time>2014-11-30T13:49:29.000Z</time>
      </trkpt>
      <trkpt lat="45.96266" lon="4.52708">
        <ele>357</ele>
        <time>2014-11-30T13:49:34.000Z</time>
      </trkpt>
      <trkpt lat="45.96247" lon="4.52707">
        <ele>346</ele>
        <time>2014-11-30T13:49:40.000Z</time>
      </trkpt>
      <trkpt lat="45.96228" lon="4.52699">
        <ele>345</ele>
        <time>2014-11-30T13:49:46.000Z</time>
      </trkpt>
      <trkpt lat="45.96217" lon="4.52679">
        <ele>345</ele>
        <time>2014-11-30T13:49:51.000Z</time>
      </trkpt>
      <trkpt lat="45.96212" lon="4.52667">
        <ele>345</ele>
        <time>2014-11-30T13:49:54.000Z</time>
      </trkpt>
      <trkpt lat="45.96205" lon="4.52672">
        <ele>344</ele>
        <time>2014-11-30T13:49:58.000Z</time>
      </trkpt>
      <trkpt lat="45.96206" lon="4.5269">
        <ele>344</ele>
        <time>2014-11-30T13:50:02.000Z</time>
      </trkpt>
      <trkpt lat="45.96202" lon="4.52692">
        <ele>343</ele>
        <time>2014-11-30T13:50:04.000Z</time>
      </trkpt>
      <trkpt lat="45.96201" lon="4.52692">
        <ele>343</ele>
        <time>2014-11-30T13:50:06.000Z</time>
      </trkpt>
      <trkpt lat="45.96199" lon="4.52695">
        <ele>343</ele>
        <time>2014-11-30T13:50:11.000Z</time>
      </trkpt>
      <trkpt lat="45.96185" lon="4.52694">
        <ele>341</ele>
        <time>2014-11-30T13:50:16.000Z</time>
      </trkpt>
      <trkpt lat="45.96164" lon="4.5269">
        <ele>333</ele>
        <time>2014-11-30T13:50:21.000Z</time>
      </trkpt>
      <trkpt lat="45.96141" lon="4.52688">
        <ele>331</ele>
        <time>2014-11-30T13:50:26.000Z</time>
      </trkpt>
      <trkpt lat="45.96132" lon="4.52686">
        <ele>330</ele>
        <time>2014-11-30T13:50:28.000Z</time>
      </trkpt>
      <trkpt lat="45.96118" lon="4.52673">
        <ele>329</ele>
        <time>2014-11-30T13:50:32.000Z</time>
      </trkpt>
      <trkpt lat="45.9611" lon="4.52662">
        <ele>331</ele>
        <time>2014-11-30T13:50:35.000Z</time>
      </trkpt>
      <trkpt lat="45.96108" lon="4.52659">
        <ele>331</ele>
        <time>2014-11-30T13:50:41.000Z</time>
      </trkpt>
      <trkpt lat="45.96108" lon="4.52658">
        <ele>331</ele>
        <time>2014-11-30T13:50:45.000Z</time>
      </trkpt>
    </trkseg>
  </trk>
</gpx>